<?xml version="1.0" encoding="UTF-8" standalone="no" ?>
<gpx xmlns="http://www.topografix.com/GPX/1/1" xmlns:xsi="http://www.w3.org/2001/XMLSchema-instance" xsi:schemaLocation="http://www.topografix.com/GPX/1/1 http://www.topografix.com/GPX/1/1/gpx.xsd" version="1.1" creator="VisuGPX - https://www.visugpx.com">
  <metadata>
    <name>Riviera/Côte d'Azur - Day 3: Nice -&amp;gt; Cannes</name>
  </metadata>
  <trk>
    <name><![CDATA[Riviera/Côte d'Azur - Day 3: Nice -> Cannes]]></name>
    <extensions>
      <line xmlns="http://www.topografix.com/GPX/gpx_style/0/2">
        <color>0000FF</color>
        <width>4</width>
      </line>
    </extensions>
    <trkseg>
      <trkpt lat="43.69917" lon="7.26485">
        <ele>50.911083</ele>
        <time>2024-01-29T09:01:55.942Z</time>
      </trkpt>
      <trkpt lat="43.69908" lon="7.26489">
        <ele>50.911083</ele>
        <time>2024-01-29T09:02:34.897Z</time>
      </trkpt>
      <trkpt lat="43.69899" lon="7.26493">
        <ele>50.911083</ele>
        <time>2024-01-29T09:04:18.898Z</time>
      </trkpt>
      <trkpt lat="43.69891" lon="7.265">
        <ele>50.911083</ele>
        <time>2024-01-29T09:04:24.885Z</time>
      </trkpt>
      <trkpt lat="43.69873" lon="7.26509">
        <ele>50.911083</ele>
        <time>2024-01-29T09:04:57.905Z</time>
      </trkpt>
      <trkpt lat="43.69864" lon="7.26514">
        <ele>50.911083</ele>
        <time>2024-01-29T09:05:00.991Z</time>
      </trkpt>
      <trkpt lat="43.69855" lon="7.26519">
        <ele>50.911083</ele>
        <time>2024-01-29T09:05:03.919Z</time>
      </trkpt>
      <trkpt lat="43.69845" lon="7.26525">
        <ele>50.911083</ele>
        <time>2024-01-29T09:05:06.889Z</time>
      </trkpt>
      <trkpt lat="43.69833" lon="7.26532">
        <ele>50.948252</ele>
        <time>2024-01-29T09:05:09.907Z</time>
      </trkpt>
      <trkpt lat="43.6982" lon="7.26538">
        <ele>51.451214</ele>
        <time>2024-01-29T09:05:12.908Z</time>
      </trkpt>
      <trkpt lat="43.6981" lon="7.26544">
        <ele>51.876403</ele>
        <time>2024-01-29T09:05:15.916Z</time>
      </trkpt>
      <trkpt lat="43.69799" lon="7.2655">
        <ele>52.359045</ele>
        <time>2024-01-29T09:05:18.886Z</time>
      </trkpt>
      <trkpt lat="43.69789" lon="7.26555">
        <ele>52.757188</ele>
        <time>2024-01-29T09:05:21.904Z</time>
      </trkpt>
      <trkpt lat="43.69779" lon="7.2656">
        <ele>53.169035</ele>
        <time>2024-01-29T09:05:24.896Z</time>
      </trkpt>
      <trkpt lat="43.6977" lon="7.26561">
        <ele>53.523267</ele>
        <time>2024-01-29T09:05:27.924Z</time>
      </trkpt>
      <trkpt lat="43.69769" lon="7.26548">
        <ele>53.919206</ele>
        <time>2024-01-29T09:05:31.891Z</time>
      </trkpt>
      <trkpt lat="43.69767" lon="7.26534">
        <ele>54.302607</ele>
        <time>2024-01-29T09:05:34.905Z</time>
      </trkpt>
      <trkpt lat="43.69765" lon="7.2652">
        <ele>54.697399</ele>
        <time>2024-01-29T09:05:37.927Z</time>
      </trkpt>
      <trkpt lat="43.69763" lon="7.26506">
        <ele>55.114706</ele>
        <time>2024-01-29T09:05:40.912Z</time>
      </trkpt>
      <trkpt lat="43.69763" lon="7.26488">
        <ele>55.607975</ele>
        <time>2024-01-29T09:05:43.930Z</time>
      </trkpt>
      <trkpt lat="43.69766" lon="7.26472">
        <ele>56.083854</ele>
        <time>2024-01-29T09:05:46.893Z</time>
      </trkpt>
      <trkpt lat="43.69765" lon="7.26456">
        <ele>56.515377</ele>
        <time>2024-01-29T09:05:49.895Z</time>
      </trkpt>
      <trkpt lat="43.69764" lon="7.26441">
        <ele>56.955609</ele>
        <time>2024-01-29T09:05:52.917Z</time>
      </trkpt>
      <trkpt lat="43.69762" lon="7.26426">
        <ele>57.390931</ele>
        <time>2024-01-29T09:05:55.880Z</time>
      </trkpt>
      <trkpt lat="43.69759" lon="7.26409">
        <ele>57.858599</ele>
        <time>2024-01-29T09:05:58.895Z</time>
      </trkpt>
      <trkpt lat="43.69757" lon="7.26393">
        <ele>57.901655</ele>
        <time>2024-01-29T09:06:01.905Z</time>
      </trkpt>
      <trkpt lat="43.69756" lon="7.2638">
        <ele>57.895203</ele>
        <time>2024-01-29T09:06:03.921Z</time>
      </trkpt>
      <trkpt lat="43.69752" lon="7.26368">
        <ele>57.888236</ele>
        <time>2024-01-29T09:06:05.917Z</time>
      </trkpt>
      <trkpt lat="43.6975" lon="7.26355">
        <ele>57.881514</ele>
        <time>2024-01-29T09:06:07.903Z</time>
      </trkpt>
      <trkpt lat="43.69747" lon="7.26343">
        <ele>57.874811</ele>
        <time>2024-01-29T09:06:09.916Z</time>
      </trkpt>
      <trkpt lat="43.69744" lon="7.2633">
        <ele>57.868276</ele>
        <time>2024-01-29T09:06:11.923Z</time>
      </trkpt>
      <trkpt lat="43.6974" lon="7.26314">
        <ele>57.859421</ele>
        <time>2024-01-29T09:06:14.927Z</time>
      </trkpt>
      <trkpt lat="43.69737" lon="7.263">
        <ele>57.852166</ele>
        <time>2024-01-29T09:06:17.908Z</time>
      </trkpt>
      <trkpt lat="43.6973" lon="7.2629">
        <ele>57.845071</ele>
        <time>2024-01-29T09:06:23.897Z</time>
      </trkpt>
      <trkpt lat="43.69721" lon="7.2629">
        <ele>57.838566</ele>
        <time>2024-01-29T09:06:26.926Z</time>
      </trkpt>
      <trkpt lat="43.69709" lon="7.26292">
        <ele>57.830075</ele>
        <time>2024-01-29T09:06:29.909Z</time>
      </trkpt>
      <trkpt lat="43.69698" lon="7.26296">
        <ele>57.822019</ele>
        <time>2024-01-29T09:06:32.888Z</time>
      </trkpt>
      <trkpt lat="43.69685" lon="7.26301">
        <ele>57.812523</ele>
        <time>2024-01-29T09:06:35.907Z</time>
      </trkpt>
      <trkpt lat="43.69673" lon="7.26307">
        <ele>57.80319</ele>
        <time>2024-01-29T09:06:38.898Z</time>
      </trkpt>
      <trkpt lat="43.6966" lon="7.26312">
        <ele>57.793995</ele>
        <time>2024-01-29T09:06:41.913Z</time>
      </trkpt>
      <trkpt lat="43.6965" lon="7.26313">
        <ele>57.786951</ele>
        <time>2024-01-29T09:06:43.897Z</time>
      </trkpt>
      <trkpt lat="43.6964" lon="7.26315">
        <ele>57.910395</ele>
        <time>2024-01-29T09:06:45.901Z</time>
      </trkpt>
      <trkpt lat="43.69631" lon="7.26317">
        <ele>58.221569</ele>
        <time>2024-01-29T09:06:47.903Z</time>
      </trkpt>
      <trkpt lat="43.69617" lon="7.2632">
        <ele>58.694666</ele>
        <time>2024-01-29T09:06:50.893Z</time>
      </trkpt>
      <trkpt lat="43.69607" lon="7.26321">
        <ele>59.0289</ele>
        <time>2024-01-29T09:06:52.916Z</time>
      </trkpt>
      <trkpt lat="43.69598" lon="7.26322">
        <ele>59.34082</ele>
        <time>2024-01-29T09:06:54.909Z</time>
      </trkpt>
      <trkpt lat="43.69589" lon="7.26323">
        <ele>59.645561</ele>
        <time>2024-01-29T09:06:56.901Z</time>
      </trkpt>
      <trkpt lat="43.69579" lon="7.26325">
        <ele>59.960063</ele>
        <time>2024-01-29T09:06:58.921Z</time>
      </trkpt>
      <trkpt lat="43.69567" lon="7.26329">
        <ele>60.376974</ele>
        <time>2024-01-29T09:07:01.909Z</time>
      </trkpt>
      <trkpt lat="43.69555" lon="7.26333">
        <ele>60.795082</ele>
        <time>2024-01-29T09:07:04.910Z</time>
      </trkpt>
      <trkpt lat="43.69546" lon="7.26335">
        <ele>61.12671</ele>
        <time>2024-01-29T09:07:06.883Z</time>
      </trkpt>
      <trkpt lat="43.69536" lon="7.26333">
        <ele>61.451615</ele>
        <time>2024-01-29T09:07:08.877Z</time>
      </trkpt>
      <trkpt lat="43.69526" lon="7.26334">
        <ele>61.80324</ele>
        <time>2024-01-29T09:07:10.888Z</time>
      </trkpt>
      <trkpt lat="43.69513" lon="7.26335">
        <ele>62.218454</ele>
        <time>2024-01-29T09:07:12.884Z</time>
      </trkpt>
      <trkpt lat="43.69501" lon="7.26336">
        <ele>62.640634</ele>
        <time>2024-01-29T09:07:14.916Z</time>
      </trkpt>
      <trkpt lat="43.69435" lon="7.26392">
        <ele>61.724847</ele>
        <time>2024-01-29T09:07:21.911Z</time>
      </trkpt>
      <trkpt lat="43.69448" lon="7.26424">
        <ele>60.37675</ele>
        <time>2024-01-29T09:07:22.893Z</time>
      </trkpt>
      <trkpt lat="43.69476" lon="7.26415">
        <ele>58.849776</ele>
        <time>2024-01-29T09:07:24.889Z</time>
      </trkpt>
      <trkpt lat="43.69481" lon="7.26429">
        <ele>58.253435</ele>
        <time>2024-01-29T09:07:27.907Z</time>
      </trkpt>
      <trkpt lat="43.69478" lon="7.26415">
        <ele>57.695187</ele>
        <time>2024-01-29T09:07:40.888Z</time>
      </trkpt>
      <trkpt lat="43.69478" lon="7.26403">
        <ele>57.224817</ele>
        <time>2024-01-29T09:07:43.917Z</time>
      </trkpt>
      <trkpt lat="43.69478" lon="7.26389">
        <ele>56.727349</ele>
        <time>2024-01-29T09:07:46.917Z</time>
      </trkpt>
      <trkpt lat="43.69479" lon="7.26376">
        <ele>56.237877</ele>
        <time>2024-01-29T09:07:49.908Z</time>
      </trkpt>
      <trkpt lat="43.69478" lon="7.2636">
        <ele>55.636759</ele>
        <time>2024-01-29T09:07:52.902Z</time>
      </trkpt>
      <trkpt lat="43.69477" lon="7.26347">
        <ele>55.133431</ele>
        <time>2024-01-29T09:07:54.916Z</time>
      </trkpt>
      <trkpt lat="43.69475" lon="7.26329">
        <ele>54.559305</ele>
        <time>2024-01-29T09:07:57.907Z</time>
      </trkpt>
      <trkpt lat="43.69473" lon="7.26312">
        <ele>54.540485</ele>
        <time>2024-01-29T09:08:00.915Z</time>
      </trkpt>
      <trkpt lat="43.69472" lon="7.26295">
        <ele>54.522083</ele>
        <time>2024-01-29T09:08:03.911Z</time>
      </trkpt>
      <trkpt lat="43.69469" lon="7.26279">
        <ele>54.503622</ele>
        <time>2024-01-29T09:08:06.905Z</time>
      </trkpt>
      <trkpt lat="43.69468" lon="7.26262">
        <ele>54.484988</ele>
        <time>2024-01-29T09:08:09.923Z</time>
      </trkpt>
      <trkpt lat="43.69467" lon="7.26245">
        <ele>54.46736</ele>
        <time>2024-01-29T09:08:12.912Z</time>
      </trkpt>
      <trkpt lat="43.69466" lon="7.2623">
        <ele>54.450099</ele>
        <time>2024-01-29T09:08:15.911Z</time>
      </trkpt>
      <trkpt lat="43.69466" lon="7.26215">
        <ele>54.434306</ele>
        <time>2024-01-29T09:08:18.911Z</time>
      </trkpt>
      <trkpt lat="43.69466" lon="7.262">
        <ele>54.417855</ele>
        <time>2024-01-29T09:08:21.910Z</time>
      </trkpt>
      <trkpt lat="43.69466" lon="7.26183">
        <ele>54.399667</ele>
        <time>2024-01-29T09:08:24.903Z</time>
      </trkpt>
      <trkpt lat="43.69463" lon="7.26168">
        <ele>54.382738</ele>
        <time>2024-01-29T09:08:26.902Z</time>
      </trkpt>
      <trkpt lat="43.69461" lon="7.2615">
        <ele>54.362427</ele>
        <time>2024-01-29T09:08:29.891Z</time>
      </trkpt>
      <trkpt lat="43.69459" lon="7.26133">
        <ele>54.343267</ele>
        <time>2024-01-29T09:08:32.898Z</time>
      </trkpt>
      <trkpt lat="43.69457" lon="7.26114">
        <ele>54.323302</ele>
        <time>2024-01-29T09:08:35.900Z</time>
      </trkpt>
      <trkpt lat="43.69455" lon="7.26097">
        <ele>54.303767</ele>
        <time>2024-01-29T09:08:38.920Z</time>
      </trkpt>
      <trkpt lat="43.69452" lon="7.26079">
        <ele>54.296333</ele>
        <time>2024-01-29T09:08:41.904Z</time>
      </trkpt>
      <trkpt lat="43.69451" lon="7.26067">
        <ele>54.306391</ele>
        <time>2024-01-29T09:08:43.903Z</time>
      </trkpt>
      <trkpt lat="43.69448" lon="7.26049">
        <ele>54.320804</ele>
        <time>2024-01-29T09:08:46.903Z</time>
      </trkpt>
      <trkpt lat="43.69446" lon="7.26032">
        <ele>54.334668</ele>
        <time>2024-01-29T09:08:49.922Z</time>
      </trkpt>
      <trkpt lat="43.69444" lon="7.26016">
        <ele>54.347864</ele>
        <time>2024-01-29T09:08:52.930Z</time>
      </trkpt>
      <trkpt lat="43.69441" lon="7.26">
        <ele>54.361499</ele>
        <time>2024-01-29T09:08:55.910Z</time>
      </trkpt>
      <trkpt lat="43.69438" lon="7.25983">
        <ele>54.375652</ele>
        <time>2024-01-29T09:08:58.915Z</time>
      </trkpt>
      <trkpt lat="43.69435" lon="7.25966">
        <ele>54.389468</ele>
        <time>2024-01-29T09:09:01.920Z</time>
      </trkpt>
      <trkpt lat="43.69433" lon="7.25949">
        <ele>54.403473</ele>
        <time>2024-01-29T09:09:04.915Z</time>
      </trkpt>
      <trkpt lat="43.69429" lon="7.25932">
        <ele>54.417139</ele>
        <time>2024-01-29T09:09:07.909Z</time>
      </trkpt>
      <trkpt lat="43.69426" lon="7.25916">
        <ele>54.43062</ele>
        <time>2024-01-29T09:09:10.912Z</time>
      </trkpt>
      <trkpt lat="43.69423" lon="7.25902">
        <ele>54.442759</ele>
        <time>2024-01-29T09:09:13.907Z</time>
      </trkpt>
      <trkpt lat="43.69421" lon="7.25887">
        <ele>54.454648</ele>
        <time>2024-01-29T09:09:16.906Z</time>
      </trkpt>
      <trkpt lat="43.6942" lon="7.25872">
        <ele>54.467131</ele>
        <time>2024-01-29T09:09:19.912Z</time>
      </trkpt>
      <trkpt lat="43.69418" lon="7.25859">
        <ele>54.477693</ele>
        <time>2024-01-29T09:09:21.920Z</time>
      </trkpt>
      <trkpt lat="43.69415" lon="7.25841">
        <ele>54.494338</ele>
        <time>2024-01-29T09:09:24.907Z</time>
      </trkpt>
      <trkpt lat="43.69411" lon="7.25824">
        <ele>54.52764</ele>
        <time>2024-01-29T09:09:27.906Z</time>
      </trkpt>
      <trkpt lat="43.69407" lon="7.25807">
        <ele>54.561295</ele>
        <time>2024-01-29T09:09:30.921Z</time>
      </trkpt>
      <trkpt lat="43.69404" lon="7.25789">
        <ele>54.595703</ele>
        <time>2024-01-29T09:09:33.907Z</time>
      </trkpt>
      <trkpt lat="43.69401" lon="7.25777">
        <ele>54.619456</ele>
        <time>2024-01-29T09:09:35.904Z</time>
      </trkpt>
      <trkpt lat="43.69398" lon="7.25761">
        <ele>54.651455</ele>
        <time>2024-01-29T09:09:38.907Z</time>
      </trkpt>
      <trkpt lat="43.69394" lon="7.25744">
        <ele>54.685616</ele>
        <time>2024-01-29T09:09:41.911Z</time>
      </trkpt>
      <trkpt lat="43.6939" lon="7.25727">
        <ele>54.718944</ele>
        <time>2024-01-29T09:09:44.927Z</time>
      </trkpt>
      <trkpt lat="43.69386" lon="7.2571">
        <ele>54.752754</ele>
        <time>2024-01-29T09:09:47.909Z</time>
      </trkpt>
      <trkpt lat="43.69381" lon="7.25692">
        <ele>54.786753</ele>
        <time>2024-01-29T09:09:50.918Z</time>
      </trkpt>
      <trkpt lat="43.69378" lon="7.25675">
        <ele>54.820695</ele>
        <time>2024-01-29T09:09:53.908Z</time>
      </trkpt>
      <trkpt lat="43.69373" lon="7.25659">
        <ele>54.853909</ele>
        <time>2024-01-29T09:09:56.900Z</time>
      </trkpt>
      <trkpt lat="43.6937" lon="7.25643">
        <ele>54.885057</ele>
        <time>2024-01-29T09:09:59.914Z</time>
      </trkpt>
      <trkpt lat="43.69366" lon="7.25627">
        <ele>54.916571</ele>
        <time>2024-01-29T09:10:02.909Z</time>
      </trkpt>
      <trkpt lat="43.69362" lon="7.25611">
        <ele>54.948058</ele>
        <time>2024-01-29T09:10:05.908Z</time>
      </trkpt>
      <trkpt lat="43.69359" lon="7.25595">
        <ele>54.983854</ele>
        <time>2024-01-29T09:10:08.899Z</time>
      </trkpt>
      <trkpt lat="43.69355" lon="7.25578">
        <ele>55.022505</ele>
        <time>2024-01-29T09:10:11.913Z</time>
      </trkpt>
      <trkpt lat="43.69352" lon="7.2556">
        <ele>55.063015</ele>
        <time>2024-01-29T09:10:14.907Z</time>
      </trkpt>
      <trkpt lat="43.69349" lon="7.25543">
        <ele>55.101582</ele>
        <time>2024-01-29T09:10:17.927Z</time>
      </trkpt>
      <trkpt lat="43.69346" lon="7.25531">
        <ele>55.129788</ele>
        <time>2024-01-29T09:10:19.917Z</time>
      </trkpt>
      <trkpt lat="43.69343" lon="7.25519">
        <ele>55.157361</ele>
        <time>2024-01-29T09:10:21.921Z</time>
      </trkpt>
      <trkpt lat="43.69339" lon="7.25502">
        <ele>55.19872</ele>
        <time>2024-01-29T09:10:24.905Z</time>
      </trkpt>
      <trkpt lat="43.69336" lon="7.25484">
        <ele>55.238582</ele>
        <time>2024-01-29T09:10:27.910Z</time>
      </trkpt>
      <trkpt lat="43.69332" lon="7.25466">
        <ele>55.279671</ele>
        <time>2024-01-29T09:10:30.924Z</time>
      </trkpt>
      <trkpt lat="43.69329" lon="7.25454">
        <ele>55.307762</ele>
        <time>2024-01-29T09:10:32.909Z</time>
      </trkpt>
      <trkpt lat="43.69327" lon="7.25442">
        <ele>55.336816</ele>
        <time>2024-01-29T09:10:34.909Z</time>
      </trkpt>
      <trkpt lat="43.69322" lon="7.25425">
        <ele>55.377844</ele>
        <time>2024-01-29T09:10:37.902Z</time>
      </trkpt>
      <trkpt lat="43.69319" lon="7.25412">
        <ele>55.407284</ele>
        <time>2024-01-29T09:10:39.914Z</time>
      </trkpt>
      <trkpt lat="43.69317" lon="7.254">
        <ele>55.435141</ele>
        <time>2024-01-29T09:10:41.904Z</time>
      </trkpt>
      <trkpt lat="43.69313" lon="7.25382">
        <ele>55.47589</ele>
        <time>2024-01-29T09:10:44.928Z</time>
      </trkpt>
      <trkpt lat="43.69309" lon="7.25366">
        <ele>55.509426</ele>
        <time>2024-01-29T09:10:47.895Z</time>
      </trkpt>
      <trkpt lat="43.69305" lon="7.25349">
        <ele>55.501055</ele>
        <time>2024-01-29T09:10:50.907Z</time>
      </trkpt>
      <trkpt lat="43.69301" lon="7.25331">
        <ele>55.49231</ele>
        <time>2024-01-29T09:10:53.899Z</time>
      </trkpt>
      <trkpt lat="43.69298" lon="7.25314">
        <ele>55.48413</ele>
        <time>2024-01-29T09:10:56.921Z</time>
      </trkpt>
      <trkpt lat="43.69294" lon="7.25297">
        <ele>55.475632</ele>
        <time>2024-01-29T09:10:59.919Z</time>
      </trkpt>
      <trkpt lat="43.6929" lon="7.25279">
        <ele>55.466866</ele>
        <time>2024-01-29T09:11:02.924Z</time>
      </trkpt>
      <trkpt lat="43.69286" lon="7.25261">
        <ele>55.458095</ele>
        <time>2024-01-29T09:11:05.909Z</time>
      </trkpt>
      <trkpt lat="43.69282" lon="7.25243">
        <ele>55.449449</ele>
        <time>2024-01-29T09:11:08.900Z</time>
      </trkpt>
      <trkpt lat="43.69279" lon="7.2523">
        <ele>55.443206</ele>
        <time>2024-01-29T09:11:10.927Z</time>
      </trkpt>
      <trkpt lat="43.69277" lon="7.25218">
        <ele>55.437359</ele>
        <time>2024-01-29T09:11:12.929Z</time>
      </trkpt>
      <trkpt lat="43.69273" lon="7.25206">
        <ele>55.431147</ele>
        <time>2024-01-29T09:11:14.910Z</time>
      </trkpt>
      <trkpt lat="43.69269" lon="7.25189">
        <ele>55.422716</ele>
        <time>2024-01-29T09:11:17.914Z</time>
      </trkpt>
      <trkpt lat="43.69266" lon="7.25176">
        <ele>55.416613</ele>
        <time>2024-01-29T09:11:19.913Z</time>
      </trkpt>
      <trkpt lat="43.69261" lon="7.25164">
        <ele>55.410319</ele>
        <time>2024-01-29T09:11:21.913Z</time>
      </trkpt>
      <trkpt lat="43.69258" lon="7.25152">
        <ele>55.404211</ele>
        <time>2024-01-29T09:11:23.919Z</time>
      </trkpt>
      <trkpt lat="43.69254" lon="7.2514">
        <ele>55.397931</ele>
        <time>2024-01-29T09:11:25.907Z</time>
      </trkpt>
      <trkpt lat="43.69249" lon="7.25129">
        <ele>55.393191</ele>
        <time>2024-01-29T09:11:27.905Z</time>
      </trkpt>
      <trkpt lat="43.69243" lon="7.25112">
        <ele>55.389212</ele>
        <time>2024-01-29T09:11:30.907Z</time>
      </trkpt>
      <trkpt lat="43.69239" lon="7.251">
        <ele>55.386493</ele>
        <time>2024-01-29T09:11:32.918Z</time>
      </trkpt>
      <trkpt lat="43.69235" lon="7.25088">
        <ele>55.383649</ele>
        <time>2024-01-29T09:11:34.909Z</time>
      </trkpt>
      <trkpt lat="43.6923" lon="7.25076">
        <ele>55.380887</ele>
        <time>2024-01-29T09:11:36.905Z</time>
      </trkpt>
      <trkpt lat="43.69226" lon="7.25064">
        <ele>55.378185</ele>
        <time>2024-01-29T09:11:38.916Z</time>
      </trkpt>
      <trkpt lat="43.69222" lon="7.25053">
        <ele>55.375571</ele>
        <time>2024-01-29T09:11:40.923Z</time>
      </trkpt>
      <trkpt lat="43.69218" lon="7.25041">
        <ele>55.372889</ele>
        <time>2024-01-29T09:11:42.913Z</time>
      </trkpt>
      <trkpt lat="43.69215" lon="7.2503">
        <ele>55.370267</ele>
        <time>2024-01-29T09:11:44.924Z</time>
      </trkpt>
      <trkpt lat="43.69211" lon="7.25018">
        <ele>55.367641</ele>
        <time>2024-01-29T09:11:46.896Z</time>
      </trkpt>
      <trkpt lat="43.69207" lon="7.25006">
        <ele>55.364872</ele>
        <time>2024-01-29T09:11:48.907Z</time>
      </trkpt>
      <trkpt lat="43.69202" lon="7.24995">
        <ele>55.362164</ele>
        <time>2024-01-29T09:11:50.909Z</time>
      </trkpt>
      <trkpt lat="43.69197" lon="7.24983">
        <ele>55.359448</ele>
        <time>2024-01-29T09:11:52.924Z</time>
      </trkpt>
      <trkpt lat="43.69191" lon="7.24967">
        <ele>55.355586</ele>
        <time>2024-01-29T09:11:55.923Z</time>
      </trkpt>
      <trkpt lat="43.69188" lon="7.24955">
        <ele>55.352821</ele>
        <time>2024-01-29T09:11:57.908Z</time>
      </trkpt>
      <trkpt lat="43.69184" lon="7.24942">
        <ele>55.35007</ele>
        <time>2024-01-29T09:11:59.918Z</time>
      </trkpt>
      <trkpt lat="43.6918" lon="7.2493">
        <ele>55.347212</ele>
        <time>2024-01-29T09:12:01.909Z</time>
      </trkpt>
      <trkpt lat="43.69176" lon="7.24917">
        <ele>55.344414</ele>
        <time>2024-01-29T09:12:03.908Z</time>
      </trkpt>
      <trkpt lat="43.69172" lon="7.24905">
        <ele>55.343265</ele>
        <time>2024-01-29T09:12:05.907Z</time>
      </trkpt>
      <trkpt lat="43.69169" lon="7.24893">
        <ele>55.346302</ele>
        <time>2024-01-29T09:12:07.885Z</time>
      </trkpt>
      <trkpt lat="43.69163" lon="7.24876">
        <ele>55.350589</ele>
        <time>2024-01-29T09:12:10.922Z</time>
      </trkpt>
      <trkpt lat="43.6916" lon="7.24865">
        <ele>55.353467</ele>
        <time>2024-01-29T09:12:12.918Z</time>
      </trkpt>
      <trkpt lat="43.69156" lon="7.24853">
        <ele>55.356515</ele>
        <time>2024-01-29T09:12:14.918Z</time>
      </trkpt>
      <trkpt lat="43.69151" lon="7.24841">
        <ele>55.359566</ele>
        <time>2024-01-29T09:12:16.915Z</time>
      </trkpt>
      <trkpt lat="43.69145" lon="7.24824">
        <ele>55.363938</ele>
        <time>2024-01-29T09:12:19.904Z</time>
      </trkpt>
      <trkpt lat="43.69142" lon="7.24812">
        <ele>55.366989</ele>
        <time>2024-01-29T09:12:21.902Z</time>
      </trkpt>
      <trkpt lat="43.69137" lon="7.248">
        <ele>55.370078</ele>
        <time>2024-01-29T09:12:23.908Z</time>
      </trkpt>
      <trkpt lat="43.69133" lon="7.24788">
        <ele>55.372994</ele>
        <time>2024-01-29T09:12:25.911Z</time>
      </trkpt>
      <trkpt lat="43.69129" lon="7.24777">
        <ele>55.375917</ele>
        <time>2024-01-29T09:12:27.899Z</time>
      </trkpt>
      <trkpt lat="43.69125" lon="7.24766">
        <ele>55.378833</ele>
        <time>2024-01-29T09:12:29.908Z</time>
      </trkpt>
      <trkpt lat="43.6912" lon="7.24749">
        <ele>55.383134</ele>
        <time>2024-01-29T09:12:32.911Z</time>
      </trkpt>
      <trkpt lat="43.69116" lon="7.24737">
        <ele>55.386063</ele>
        <time>2024-01-29T09:12:34.901Z</time>
      </trkpt>
      <trkpt lat="43.69112" lon="7.24725">
        <ele>55.389042</ele>
        <time>2024-01-29T09:12:36.919Z</time>
      </trkpt>
      <trkpt lat="43.69107" lon="7.24709">
        <ele>55.393207</ele>
        <time>2024-01-29T09:12:39.911Z</time>
      </trkpt>
      <trkpt lat="43.69101" lon="7.24694">
        <ele>55.397201</ele>
        <time>2024-01-29T09:12:42.910Z</time>
      </trkpt>
      <trkpt lat="43.69095" lon="7.24678">
        <ele>55.441361</ele>
        <time>2024-01-29T09:12:45.921Z</time>
      </trkpt>
      <trkpt lat="43.6909" lon="7.24663">
        <ele>55.568074</ele>
        <time>2024-01-29T09:12:48.922Z</time>
      </trkpt>
      <trkpt lat="43.69084" lon="7.24647">
        <ele>55.696325</ele>
        <time>2024-01-29T09:12:51.918Z</time>
      </trkpt>
      <trkpt lat="43.6908" lon="7.24632">
        <ele>55.815833</ele>
        <time>2024-01-29T09:12:54.905Z</time>
      </trkpt>
      <trkpt lat="43.69074" lon="7.24617">
        <ele>55.942103</ele>
        <time>2024-01-29T09:12:57.916Z</time>
      </trkpt>
      <trkpt lat="43.69069" lon="7.24602">
        <ele>56.062693</ele>
        <time>2024-01-29T09:13:00.912Z</time>
      </trkpt>
      <trkpt lat="43.69064" lon="7.24587">
        <ele>56.186089</ele>
        <time>2024-01-29T09:13:03.907Z</time>
      </trkpt>
      <trkpt lat="43.69059" lon="7.24573">
        <ele>56.300678</ele>
        <time>2024-01-29T09:13:06.908Z</time>
      </trkpt>
      <trkpt lat="43.69053" lon="7.24558">
        <ele>56.424922</ele>
        <time>2024-01-29T09:13:09.908Z</time>
      </trkpt>
      <trkpt lat="43.69048" lon="7.24543">
        <ele>56.546421</ele>
        <time>2024-01-29T09:13:12.908Z</time>
      </trkpt>
      <trkpt lat="43.69042" lon="7.24528">
        <ele>56.672443</ele>
        <time>2024-01-29T09:13:15.927Z</time>
      </trkpt>
      <trkpt lat="43.69038" lon="7.24517">
        <ele>56.764306</ele>
        <time>2024-01-29T09:13:17.911Z</time>
      </trkpt>
      <trkpt lat="43.69034" lon="7.24506">
        <ele>56.857059</ele>
        <time>2024-01-29T09:13:19.903Z</time>
      </trkpt>
      <trkpt lat="43.69029" lon="7.24495">
        <ele>56.949971</ele>
        <time>2024-01-29T09:13:21.907Z</time>
      </trkpt>
      <trkpt lat="43.69025" lon="7.24483">
        <ele>57.045201</ele>
        <time>2024-01-29T09:13:23.916Z</time>
      </trkpt>
      <trkpt lat="43.69019" lon="7.24467">
        <ele>57.182691</ele>
        <time>2024-01-29T09:13:26.906Z</time>
      </trkpt>
      <trkpt lat="43.69014" lon="7.24454">
        <ele>57.219746</ele>
        <time>2024-01-29T09:13:28.901Z</time>
      </trkpt>
      <trkpt lat="43.69009" lon="7.24442">
        <ele>57.203696</ele>
        <time>2024-01-29T09:13:30.910Z</time>
      </trkpt>
      <trkpt lat="43.69005" lon="7.24429">
        <ele>57.187571</ele>
        <time>2024-01-29T09:13:32.905Z</time>
      </trkpt>
      <trkpt lat="43.68999" lon="7.24417">
        <ele>57.170726</ele>
        <time>2024-01-29T09:13:34.902Z</time>
      </trkpt>
      <trkpt lat="43.68994" lon="7.24405">
        <ele>57.15483</ele>
        <time>2024-01-29T09:13:36.910Z</time>
      </trkpt>
      <trkpt lat="43.6899" lon="7.24392">
        <ele>57.138879</ele>
        <time>2024-01-29T09:13:38.889Z</time>
      </trkpt>
      <trkpt lat="43.68984" lon="7.2438">
        <ele>57.122243</ele>
        <time>2024-01-29T09:13:40.908Z</time>
      </trkpt>
      <trkpt lat="43.68978" lon="7.24368">
        <ele>57.105548</ele>
        <time>2024-01-29T09:13:42.903Z</time>
      </trkpt>
      <trkpt lat="43.68973" lon="7.24356">
        <ele>57.088981</ele>
        <time>2024-01-29T09:13:44.906Z</time>
      </trkpt>
      <trkpt lat="43.68967" lon="7.24343">
        <ele>57.072526</ele>
        <time>2024-01-29T09:13:46.919Z</time>
      </trkpt>
      <trkpt lat="43.68961" lon="7.24332">
        <ele>57.055922</ele>
        <time>2024-01-29T09:13:48.907Z</time>
      </trkpt>
      <trkpt lat="43.68956" lon="7.2432">
        <ele>57.040427</ele>
        <time>2024-01-29T09:13:50.903Z</time>
      </trkpt>
      <trkpt lat="43.6895" lon="7.24309">
        <ele>57.024843</ele>
        <time>2024-01-29T09:13:52.919Z</time>
      </trkpt>
      <trkpt lat="43.68944" lon="7.24298">
        <ele>57.008887</ele>
        <time>2024-01-29T09:13:54.904Z</time>
      </trkpt>
      <trkpt lat="43.68938" lon="7.24287">
        <ele>56.992828</ele>
        <time>2024-01-29T09:13:56.904Z</time>
      </trkpt>
      <trkpt lat="43.68932" lon="7.24275">
        <ele>56.976315</ele>
        <time>2024-01-29T09:13:58.899Z</time>
      </trkpt>
      <trkpt lat="43.68925" lon="7.24264">
        <ele>56.960115</ele>
        <time>2024-01-29T09:14:00.906Z</time>
      </trkpt>
      <trkpt lat="43.68919" lon="7.24253">
        <ele>56.94364</ele>
        <time>2024-01-29T09:14:02.914Z</time>
      </trkpt>
      <trkpt lat="43.68913" lon="7.24241">
        <ele>56.934396</ele>
        <time>2024-01-29T09:14:04.906Z</time>
      </trkpt>
      <trkpt lat="43.68906" lon="7.2423">
        <ele>56.925425</ele>
        <time>2024-01-29T09:14:06.904Z</time>
      </trkpt>
      <trkpt lat="43.689" lon="7.24219">
        <ele>56.916894</ele>
        <time>2024-01-29T09:14:08.907Z</time>
      </trkpt>
      <trkpt lat="43.68895" lon="7.24209">
        <ele>56.908523</ele>
        <time>2024-01-29T09:14:10.902Z</time>
      </trkpt>
      <trkpt lat="43.68889" lon="7.24198">
        <ele>56.899633</ele>
        <time>2024-01-29T09:14:12.918Z</time>
      </trkpt>
      <trkpt lat="43.68883" lon="7.24186">
        <ele>56.890594</ele>
        <time>2024-01-29T09:14:14.912Z</time>
      </trkpt>
      <trkpt lat="43.68877" lon="7.24175">
        <ele>56.881915</ele>
        <time>2024-01-29T09:14:16.902Z</time>
      </trkpt>
      <trkpt lat="43.68871" lon="7.24164">
        <ele>56.87303</ele>
        <time>2024-01-29T09:14:18.900Z</time>
      </trkpt>
      <trkpt lat="43.68865" lon="7.24152">
        <ele>56.864445</ele>
        <time>2024-01-29T09:14:20.905Z</time>
      </trkpt>
      <trkpt lat="43.6886" lon="7.24141">
        <ele>56.855917</ele>
        <time>2024-01-29T09:14:22.919Z</time>
      </trkpt>
      <trkpt lat="43.68853" lon="7.24132">
        <ele>56.847614</ele>
        <time>2024-01-29T09:14:24.915Z</time>
      </trkpt>
      <trkpt lat="43.68848" lon="7.24121">
        <ele>56.839033</ele>
        <time>2024-01-29T09:14:26.890Z</time>
      </trkpt>
      <trkpt lat="43.68842" lon="7.2411">
        <ele>56.830755</ele>
        <time>2024-01-29T09:14:28.917Z</time>
      </trkpt>
      <trkpt lat="43.68836" lon="7.241">
        <ele>56.822689</ele>
        <time>2024-01-29T09:14:30.914Z</time>
      </trkpt>
      <trkpt lat="43.68831" lon="7.2409">
        <ele>56.814567</ele>
        <time>2024-01-29T09:14:32.902Z</time>
      </trkpt>
      <trkpt lat="43.68826" lon="7.24079">
        <ele>56.806196</ele>
        <time>2024-01-29T09:14:34.904Z</time>
      </trkpt>
      <trkpt lat="43.6882" lon="7.24068">
        <ele>56.797721</ele>
        <time>2024-01-29T09:14:36.907Z</time>
      </trkpt>
      <trkpt lat="43.68814" lon="7.24058">
        <ele>56.789388</ele>
        <time>2024-01-29T09:14:38.904Z</time>
      </trkpt>
      <trkpt lat="43.68808" lon="7.24048">
        <ele>56.775732</ele>
        <time>2024-01-29T09:14:40.901Z</time>
      </trkpt>
      <trkpt lat="43.68802" lon="7.24037">
        <ele>56.758162</ele>
        <time>2024-01-29T09:14:42.928Z</time>
      </trkpt>
      <trkpt lat="43.68797" lon="7.24026">
        <ele>56.740058</ele>
        <time>2024-01-29T09:14:44.908Z</time>
      </trkpt>
      <trkpt lat="43.68791" lon="7.24016">
        <ele>56.721923</ele>
        <time>2024-01-29T09:14:46.898Z</time>
      </trkpt>
      <trkpt lat="43.68785" lon="7.24006">
        <ele>56.704846</ele>
        <time>2024-01-29T09:14:48.920Z</time>
      </trkpt>
      <trkpt lat="43.68779" lon="7.23995">
        <ele>56.686733</ele>
        <time>2024-01-29T09:14:50.900Z</time>
      </trkpt>
      <trkpt lat="43.68773" lon="7.23984">
        <ele>56.668303</ele>
        <time>2024-01-29T09:14:52.910Z</time>
      </trkpt>
      <trkpt lat="43.68767" lon="7.23974">
        <ele>56.6504</ele>
        <time>2024-01-29T09:14:54.904Z</time>
      </trkpt>
      <trkpt lat="43.6876" lon="7.23964">
        <ele>56.633181</ele>
        <time>2024-01-29T09:14:56.915Z</time>
      </trkpt>
      <trkpt lat="43.68754" lon="7.23954">
        <ele>56.615337</ele>
        <time>2024-01-29T09:14:58.903Z</time>
      </trkpt>
      <trkpt lat="43.68748" lon="7.23944">
        <ele>56.597953</ele>
        <time>2024-01-29T09:15:00.902Z</time>
      </trkpt>
      <trkpt lat="43.68742" lon="7.23934">
        <ele>56.580039</ele>
        <time>2024-01-29T09:15:02.908Z</time>
      </trkpt>
      <trkpt lat="43.68736" lon="7.23924">
        <ele>56.562877</ele>
        <time>2024-01-29T09:15:04.927Z</time>
      </trkpt>
      <trkpt lat="43.6873" lon="7.23913">
        <ele>56.544466</ele>
        <time>2024-01-29T09:15:06.901Z</time>
      </trkpt>
      <trkpt lat="43.68723" lon="7.23904">
        <ele>56.526678</ele>
        <time>2024-01-29T09:15:08.906Z</time>
      </trkpt>
      <trkpt lat="43.68716" lon="7.23894">
        <ele>56.508528</ele>
        <time>2024-01-29T09:15:10.898Z</time>
      </trkpt>
      <trkpt lat="43.68711" lon="7.23883">
        <ele>56.490639</ele>
        <time>2024-01-29T09:15:12.905Z</time>
      </trkpt>
      <trkpt lat="43.68704" lon="7.23873">
        <ele>56.47235</ele>
        <time>2024-01-29T09:15:14.912Z</time>
      </trkpt>
      <trkpt lat="43.68697" lon="7.23863">
        <ele>56.454882</ele>
        <time>2024-01-29T09:15:16.903Z</time>
      </trkpt>
      <trkpt lat="43.68691" lon="7.23854">
        <ele>56.425855</ele>
        <time>2024-01-29T09:15:18.905Z</time>
      </trkpt>
      <trkpt lat="43.68682" lon="7.2384">
        <ele>56.381866</ele>
        <time>2024-01-29T09:15:21.919Z</time>
      </trkpt>
      <trkpt lat="43.68675" lon="7.23831">
        <ele>56.352209</ele>
        <time>2024-01-29T09:15:23.937Z</time>
      </trkpt>
      <trkpt lat="43.68668" lon="7.23822">
        <ele>56.322015</ele>
        <time>2024-01-29T09:15:25.906Z</time>
      </trkpt>
      <trkpt lat="43.68658" lon="7.23809">
        <ele>56.278269</ele>
        <time>2024-01-29T09:15:28.908Z</time>
      </trkpt>
      <trkpt lat="43.68652" lon="7.238">
        <ele>56.248926</ele>
        <time>2024-01-29T09:15:30.902Z</time>
      </trkpt>
      <trkpt lat="43.68645" lon="7.23791">
        <ele>56.219673</ele>
        <time>2024-01-29T09:15:32.909Z</time>
      </trkpt>
      <trkpt lat="43.68638" lon="7.23783">
        <ele>56.189685</ele>
        <time>2024-01-29T09:15:34.903Z</time>
      </trkpt>
      <trkpt lat="43.68631" lon="7.23773">
        <ele>56.157681</ele>
        <time>2024-01-29T09:15:36.903Z</time>
      </trkpt>
      <trkpt lat="43.68624" lon="7.23764">
        <ele>56.127008</ele>
        <time>2024-01-29T09:15:38.895Z</time>
      </trkpt>
      <trkpt lat="43.68617" lon="7.23756">
        <ele>56.097913</ele>
        <time>2024-01-29T09:15:40.920Z</time>
      </trkpt>
      <trkpt lat="43.68609" lon="7.23748">
        <ele>56.067779</ele>
        <time>2024-01-29T09:15:42.909Z</time>
      </trkpt>
      <trkpt lat="43.68602" lon="7.23739">
        <ele>56.037106</ele>
        <time>2024-01-29T09:15:44.909Z</time>
      </trkpt>
      <trkpt lat="43.68595" lon="7.23729">
        <ele>56.005572</ele>
        <time>2024-01-29T09:15:46.923Z</time>
      </trkpt>
      <trkpt lat="43.68588" lon="7.2372">
        <ele>55.975521</ele>
        <time>2024-01-29T09:15:48.926Z</time>
      </trkpt>
      <trkpt lat="43.68581" lon="7.23712">
        <ele>55.944904</ele>
        <time>2024-01-29T09:15:50.908Z</time>
      </trkpt>
      <trkpt lat="43.68574" lon="7.23704">
        <ele>55.915517</ele>
        <time>2024-01-29T09:15:52.913Z</time>
      </trkpt>
      <trkpt lat="43.68567" lon="7.23695">
        <ele>55.885442</ele>
        <time>2024-01-29T09:15:54.904Z</time>
      </trkpt>
      <trkpt lat="43.68556" lon="7.23684">
        <ele>55.844725</ele>
        <time>2024-01-29T09:15:57.921Z</time>
      </trkpt>
      <trkpt lat="43.68546" lon="7.23672">
        <ele>55.80471</ele>
        <time>2024-01-29T09:16:00.887Z</time>
      </trkpt>
      <trkpt lat="43.6854" lon="7.23664">
        <ele>55.777368</ele>
        <time>2024-01-29T09:16:02.909Z</time>
      </trkpt>
      <trkpt lat="43.68529" lon="7.23652">
        <ele>55.73679</ele>
        <time>2024-01-29T09:16:05.919Z</time>
      </trkpt>
      <trkpt lat="43.68519" lon="7.2364">
        <ele>55.695424</ele>
        <time>2024-01-29T09:16:08.914Z</time>
      </trkpt>
      <trkpt lat="43.68508" lon="7.23629">
        <ele>55.656134</ele>
        <time>2024-01-29T09:16:11.912Z</time>
      </trkpt>
      <trkpt lat="43.68499" lon="7.2362">
        <ele>55.620239</ele>
        <time>2024-01-29T09:16:14.918Z</time>
      </trkpt>
      <trkpt lat="43.6849" lon="7.23609">
        <ele>55.584214</ele>
        <time>2024-01-29T09:16:17.926Z</time>
      </trkpt>
      <trkpt lat="43.68482" lon="7.236">
        <ele>55.552072</ele>
        <time>2024-01-29T09:16:20.912Z</time>
      </trkpt>
      <trkpt lat="43.68474" lon="7.23591">
        <ele>55.522175</ele>
        <time>2024-01-29T09:16:23.905Z</time>
      </trkpt>
      <trkpt lat="43.68467" lon="7.23584">
        <ele>55.494793</ele>
        <time>2024-01-29T09:16:26.913Z</time>
      </trkpt>
      <trkpt lat="43.68457" lon="7.23574">
        <ele>55.459119</ele>
        <time>2024-01-29T09:16:30.921Z</time>
      </trkpt>
      <trkpt lat="43.6845" lon="7.23566">
        <ele>55.429878</ele>
        <time>2024-01-29T09:16:33.912Z</time>
      </trkpt>
      <trkpt lat="43.68442" lon="7.23557">
        <ele>55.398744</ele>
        <time>2024-01-29T09:16:36.928Z</time>
      </trkpt>
      <trkpt lat="43.68434" lon="7.23547">
        <ele>55.366113</ele>
        <time>2024-01-29T09:16:39.909Z</time>
      </trkpt>
      <trkpt lat="43.68426" lon="7.23537">
        <ele>55.334452</ele>
        <time>2024-01-29T09:16:42.903Z</time>
      </trkpt>
      <trkpt lat="43.68417" lon="7.23529">
        <ele>55.282591</ele>
        <time>2024-01-29T09:16:45.900Z</time>
      </trkpt>
      <trkpt lat="43.68407" lon="7.23517">
        <ele>55.221919</ele>
        <time>2024-01-29T09:16:48.916Z</time>
      </trkpt>
      <trkpt lat="43.68397" lon="7.23506">
        <ele>55.160754</ele>
        <time>2024-01-29T09:16:51.905Z</time>
      </trkpt>
      <trkpt lat="43.68387" lon="7.23495">
        <ele>55.10215</ele>
        <time>2024-01-29T09:16:54.903Z</time>
      </trkpt>
      <trkpt lat="43.68378" lon="7.23484">
        <ele>55.043439</ele>
        <time>2024-01-29T09:16:57.916Z</time>
      </trkpt>
      <trkpt lat="43.68368" lon="7.23473">
        <ele>54.982838</ele>
        <time>2024-01-29T09:17:00.903Z</time>
      </trkpt>
      <trkpt lat="43.68357" lon="7.23461">
        <ele>54.919571</ele>
        <time>2024-01-29T09:17:03.921Z</time>
      </trkpt>
      <trkpt lat="43.68347" lon="7.2345">
        <ele>54.855938</ele>
        <time>2024-01-29T09:17:06.909Z</time>
      </trkpt>
      <trkpt lat="43.68339" lon="7.23442">
        <ele>54.812401</ele>
        <time>2024-01-29T09:17:08.918Z</time>
      </trkpt>
      <trkpt lat="43.68332" lon="7.23434">
        <ele>54.767172</ele>
        <time>2024-01-29T09:17:10.886Z</time>
      </trkpt>
      <trkpt lat="43.68325" lon="7.23426">
        <ele>54.724304</ele>
        <time>2024-01-29T09:17:12.900Z</time>
      </trkpt>
      <trkpt lat="43.68317" lon="7.23419">
        <ele>54.681607</ele>
        <time>2024-01-29T09:17:14.907Z</time>
      </trkpt>
      <trkpt lat="43.6831" lon="7.23411">
        <ele>54.637784</ele>
        <time>2024-01-29T09:17:16.919Z</time>
      </trkpt>
      <trkpt lat="43.68303" lon="7.23403">
        <ele>54.59467</ele>
        <time>2024-01-29T09:17:18.910Z</time>
      </trkpt>
      <trkpt lat="43.68296" lon="7.23395">
        <ele>54.551785</ele>
        <time>2024-01-29T09:17:20.907Z</time>
      </trkpt>
      <trkpt lat="43.68289" lon="7.23387">
        <ele>54.509041</ele>
        <time>2024-01-29T09:17:22.904Z</time>
      </trkpt>
      <trkpt lat="43.68282" lon="7.23379">
        <ele>54.475931</ele>
        <time>2024-01-29T09:17:24.906Z</time>
      </trkpt>
      <trkpt lat="43.68274" lon="7.23371">
        <ele>54.456675</ele>
        <time>2024-01-29T09:17:26.908Z</time>
      </trkpt>
      <trkpt lat="43.68267" lon="7.23364">
        <ele>54.436886</ele>
        <time>2024-01-29T09:17:28.899Z</time>
      </trkpt>
      <trkpt lat="43.6826" lon="7.23355">
        <ele>54.417773</ele>
        <time>2024-01-29T09:17:30.902Z</time>
      </trkpt>
      <trkpt lat="43.68253" lon="7.23348">
        <ele>54.398075</ele>
        <time>2024-01-29T09:17:32.884Z</time>
      </trkpt>
      <trkpt lat="43.68246" lon="7.23339">
        <ele>54.378697</ele>
        <time>2024-01-29T09:17:34.893Z</time>
      </trkpt>
      <trkpt lat="43.68239" lon="7.23331">
        <ele>54.358828</ele>
        <time>2024-01-29T09:17:36.902Z</time>
      </trkpt>
      <trkpt lat="43.68228" lon="7.2332">
        <ele>54.330213</ele>
        <time>2024-01-29T09:17:39.910Z</time>
      </trkpt>
      <trkpt lat="43.68221" lon="7.23311">
        <ele>54.310794</ele>
        <time>2024-01-29T09:17:41.912Z</time>
      </trkpt>
      <trkpt lat="43.6821" lon="7.233">
        <ele>54.282026</ele>
        <time>2024-01-29T09:17:44.909Z</time>
      </trkpt>
      <trkpt lat="43.68203" lon="7.23292">
        <ele>54.262504</ele>
        <time>2024-01-29T09:17:46.919Z</time>
      </trkpt>
      <trkpt lat="43.68193" lon="7.2328">
        <ele>54.234071</ele>
        <time>2024-01-29T09:17:49.901Z</time>
      </trkpt>
      <trkpt lat="43.68182" lon="7.23268">
        <ele>54.205717</ele>
        <time>2024-01-29T09:17:52.911Z</time>
      </trkpt>
      <trkpt lat="43.68175" lon="7.23261">
        <ele>54.186435</ele>
        <time>2024-01-29T09:17:54.919Z</time>
      </trkpt>
      <trkpt lat="43.68168" lon="7.23253">
        <ele>54.166293</ele>
        <time>2024-01-29T09:17:56.906Z</time>
      </trkpt>
      <trkpt lat="43.6816" lon="7.23245">
        <ele>54.146935</ele>
        <time>2024-01-29T09:17:58.907Z</time>
      </trkpt>
      <trkpt lat="43.68153" lon="7.23238">
        <ele>54.127158</ele>
        <time>2024-01-29T09:18:00.925Z</time>
      </trkpt>
      <trkpt lat="43.68146" lon="7.2323">
        <ele>54.107852</ele>
        <time>2024-01-29T09:18:02.906Z</time>
      </trkpt>
      <trkpt lat="43.68138" lon="7.23222">
        <ele>54.167562</ele>
        <time>2024-01-29T09:18:04.917Z</time>
      </trkpt>
      <trkpt lat="43.68131" lon="7.23214">
        <ele>54.251383</ele>
        <time>2024-01-29T09:18:06.913Z</time>
      </trkpt>
      <trkpt lat="43.68121" lon="7.23202">
        <ele>54.371309</ele>
        <time>2024-01-29T09:18:09.908Z</time>
      </trkpt>
      <trkpt lat="43.68113" lon="7.23195">
        <ele>54.453527</ele>
        <time>2024-01-29T09:18:11.900Z</time>
      </trkpt>
      <trkpt lat="43.68106" lon="7.23188">
        <ele>54.533919</ele>
        <time>2024-01-29T09:18:13.928Z</time>
      </trkpt>
      <trkpt lat="43.68098" lon="7.2318">
        <ele>54.616866</ele>
        <time>2024-01-29T09:18:15.919Z</time>
      </trkpt>
      <trkpt lat="43.68091" lon="7.23173">
        <ele>54.698354</ele>
        <time>2024-01-29T09:18:17.904Z</time>
      </trkpt>
      <trkpt lat="43.68083" lon="7.23166">
        <ele>54.781328</ele>
        <time>2024-01-29T09:18:19.905Z</time>
      </trkpt>
      <trkpt lat="43.68075" lon="7.23158">
        <ele>54.865375</ele>
        <time>2024-01-29T09:18:21.916Z</time>
      </trkpt>
      <trkpt lat="43.68067" lon="7.23151">
        <ele>54.950271</ele>
        <time>2024-01-29T09:18:23.912Z</time>
      </trkpt>
      <trkpt lat="43.68059" lon="7.23145">
        <ele>55.032636</ele>
        <time>2024-01-29T09:18:25.909Z</time>
      </trkpt>
      <trkpt lat="43.68051" lon="7.23138">
        <ele>55.117195</ele>
        <time>2024-01-29T09:18:27.922Z</time>
      </trkpt>
      <trkpt lat="43.68043" lon="7.23131">
        <ele>55.199478</ele>
        <time>2024-01-29T09:18:29.924Z</time>
      </trkpt>
      <trkpt lat="43.68032" lon="7.23122">
        <ele>55.317238</ele>
        <time>2024-01-29T09:18:32.906Z</time>
      </trkpt>
      <trkpt lat="43.68021" lon="7.23114">
        <ele>55.43032</ele>
        <time>2024-01-29T09:18:35.901Z</time>
      </trkpt>
      <trkpt lat="43.68009" lon="7.23105">
        <ele>55.548238</ele>
        <time>2024-01-29T09:18:38.907Z</time>
      </trkpt>
      <trkpt lat="43.68001" lon="7.23099">
        <ele>55.628764</ele>
        <time>2024-01-29T09:18:40.908Z</time>
      </trkpt>
      <trkpt lat="43.6799" lon="7.23089">
        <ele>55.72744</ele>
        <time>2024-01-29T09:18:43.904Z</time>
      </trkpt>
      <trkpt lat="43.67982" lon="7.23083">
        <ele>55.768603</ele>
        <time>2024-01-29T09:18:45.900Z</time>
      </trkpt>
      <trkpt lat="43.67974" lon="7.23077">
        <ele>55.807954</ele>
        <time>2024-01-29T09:18:47.936Z</time>
      </trkpt>
      <trkpt lat="43.67962" lon="7.23068">
        <ele>55.86596</ele>
        <time>2024-01-29T09:18:50.921Z</time>
      </trkpt>
      <trkpt lat="43.67954" lon="7.23062">
        <ele>55.905379</ele>
        <time>2024-01-29T09:18:52.925Z</time>
      </trkpt>
      <trkpt lat="43.67942" lon="7.23052">
        <ele>55.964882</ele>
        <time>2024-01-29T09:18:55.902Z</time>
      </trkpt>
      <trkpt lat="43.67931" lon="7.23044">
        <ele>56.017692</ele>
        <time>2024-01-29T09:18:58.912Z</time>
      </trkpt>
      <trkpt lat="43.67921" lon="7.23036">
        <ele>56.067042</ele>
        <time>2024-01-29T09:19:01.892Z</time>
      </trkpt>
      <trkpt lat="43.67911" lon="7.23029">
        <ele>56.117315</ele>
        <time>2024-01-29T09:19:04.912Z</time>
      </trkpt>
      <trkpt lat="43.67899" lon="7.23021">
        <ele>56.172648</ele>
        <time>2024-01-29T09:19:07.915Z</time>
      </trkpt>
      <trkpt lat="43.67888" lon="7.23012">
        <ele>56.227799</ele>
        <time>2024-01-29T09:19:10.921Z</time>
      </trkpt>
      <trkpt lat="43.67877" lon="7.23003">
        <ele>56.284006</ele>
        <time>2024-01-29T09:19:13.926Z</time>
      </trkpt>
      <trkpt lat="43.67868" lon="7.22998">
        <ele>56.323439</ele>
        <time>2024-01-29T09:19:15.906Z</time>
      </trkpt>
      <trkpt lat="43.6786" lon="7.22992">
        <ele>56.362265</ele>
        <time>2024-01-29T09:19:17.896Z</time>
      </trkpt>
      <trkpt lat="43.67849" lon="7.22983">
        <ele>56.418051</ele>
        <time>2024-01-29T09:19:20.914Z</time>
      </trkpt>
      <trkpt lat="43.67837" lon="7.22975">
        <ele>56.476225</ele>
        <time>2024-01-29T09:19:23.932Z</time>
      </trkpt>
      <trkpt lat="43.67825" lon="7.22967">
        <ele>56.474433</ele>
        <time>2024-01-29T09:19:26.910Z</time>
      </trkpt>
      <trkpt lat="43.67817" lon="7.22962">
        <ele>56.468628</ele>
        <time>2024-01-29T09:19:28.901Z</time>
      </trkpt>
      <trkpt lat="43.67809" lon="7.22957">
        <ele>56.462863</ele>
        <time>2024-01-29T09:19:30.902Z</time>
      </trkpt>
      <trkpt lat="43.67801" lon="7.22952">
        <ele>56.457097</ele>
        <time>2024-01-29T09:19:32.905Z</time>
      </trkpt>
      <trkpt lat="43.67792" lon="7.22947">
        <ele>56.451386</ele>
        <time>2024-01-29T09:19:34.895Z</time>
      </trkpt>
      <trkpt lat="43.6778" lon="7.22939">
        <ele>56.443065</ele>
        <time>2024-01-29T09:19:37.898Z</time>
      </trkpt>
      <trkpt lat="43.67769" lon="7.2293">
        <ele>56.434951</ele>
        <time>2024-01-29T09:19:40.912Z</time>
      </trkpt>
      <trkpt lat="43.67758" lon="7.22924">
        <ele>56.42703</ele>
        <time>2024-01-29T09:19:43.924Z</time>
      </trkpt>
      <trkpt lat="43.67746" lon="7.22916">
        <ele>56.41869</ele>
        <time>2024-01-29T09:19:46.919Z</time>
      </trkpt>
      <trkpt lat="43.67735" lon="7.22909">
        <ele>56.41083</ele>
        <time>2024-01-29T09:19:49.921Z</time>
      </trkpt>
      <trkpt lat="43.67722" lon="7.2291">
        <ele>56.403133</ele>
        <time>2024-01-29T09:19:52.904Z</time>
      </trkpt>
      <trkpt lat="43.67714" lon="7.22914">
        <ele>56.397298</ele>
        <time>2024-01-29T09:19:54.908Z</time>
      </trkpt>
      <trkpt lat="43.67703" lon="7.22922">
        <ele>56.389799</ele>
        <time>2024-01-29T09:19:57.920Z</time>
      </trkpt>
      <trkpt lat="43.67693" lon="7.22931">
        <ele>56.382341</ele>
        <time>2024-01-29T09:20:00.900Z</time>
      </trkpt>
      <trkpt lat="43.67683" lon="7.22929">
        <ele>56.375688</ele>
        <time>2024-01-29T09:20:03.897Z</time>
      </trkpt>
      <trkpt lat="43.67674" lon="7.22923">
        <ele>56.369423</ele>
        <time>2024-01-29T09:20:06.895Z</time>
      </trkpt>
      <trkpt lat="43.67664" lon="7.22917">
        <ele>56.343988</ele>
        <time>2024-01-29T09:20:09.907Z</time>
      </trkpt>
      <trkpt lat="43.67654" lon="7.22911">
        <ele>56.313416</ele>
        <time>2024-01-29T09:20:12.908Z</time>
      </trkpt>
      <trkpt lat="43.67644" lon="7.22905">
        <ele>56.281117</ele>
        <time>2024-01-29T09:20:15.920Z</time>
      </trkpt>
      <trkpt lat="43.67633" lon="7.229">
        <ele>56.247188</ele>
        <time>2024-01-29T09:20:18.905Z</time>
      </trkpt>
      <trkpt lat="43.67622" lon="7.22892">
        <ele>56.211964</ele>
        <time>2024-01-29T09:20:21.914Z</time>
      </trkpt>
      <trkpt lat="43.67615" lon="7.2288">
        <ele>56.179836</ele>
        <time>2024-01-29T09:20:24.902Z</time>
      </trkpt>
      <trkpt lat="43.67605" lon="7.22874">
        <ele>56.14696</ele>
        <time>2024-01-29T09:20:27.902Z</time>
      </trkpt>
      <trkpt lat="43.67594" lon="7.22868">
        <ele>56.11119</ele>
        <time>2024-01-29T09:20:30.907Z</time>
      </trkpt>
      <trkpt lat="43.67582" lon="7.22861">
        <ele>56.076117</ele>
        <time>2024-01-29T09:20:33.904Z</time>
      </trkpt>
      <trkpt lat="43.67572" lon="7.22855">
        <ele>56.044762</ele>
        <time>2024-01-29T09:20:36.901Z</time>
      </trkpt>
      <trkpt lat="43.67564" lon="7.2285">
        <ele>56.018416</ele>
        <time>2024-01-29T09:20:39.920Z</time>
      </trkpt>
      <trkpt lat="43.67555" lon="7.22845">
        <ele>55.989702</ele>
        <time>2024-01-29T09:20:43.890Z</time>
      </trkpt>
      <trkpt lat="43.67546" lon="7.22836">
        <ele>55.95697</ele>
        <time>2024-01-29T09:20:47.918Z</time>
      </trkpt>
      <trkpt lat="43.67537" lon="7.22832">
        <ele>55.929259</ele>
        <time>2024-01-29T09:20:50.893Z</time>
      </trkpt>
      <trkpt lat="43.67526" lon="7.22826">
        <ele>55.897106</ele>
        <time>2024-01-29T09:20:53.902Z</time>
      </trkpt>
      <trkpt lat="43.67515" lon="7.22819">
        <ele>55.861147</ele>
        <time>2024-01-29T09:20:56.904Z</time>
      </trkpt>
      <trkpt lat="43.67504" lon="7.22812">
        <ele>55.86854</ele>
        <time>2024-01-29T09:20:59.913Z</time>
      </trkpt>
      <trkpt lat="43.67492" lon="7.22806">
        <ele>55.909755</ele>
        <time>2024-01-29T09:21:02.913Z</time>
      </trkpt>
      <trkpt lat="43.6748" lon="7.228">
        <ele>55.953617</ele>
        <time>2024-01-29T09:21:05.913Z</time>
      </trkpt>
      <trkpt lat="43.67467" lon="7.22794">
        <ele>55.997238</ele>
        <time>2024-01-29T09:21:08.898Z</time>
      </trkpt>
      <trkpt lat="43.67456" lon="7.22787">
        <ele>56.038372</ele>
        <time>2024-01-29T09:21:11.902Z</time>
      </trkpt>
      <trkpt lat="43.67445" lon="7.2278">
        <ele>56.080109</ele>
        <time>2024-01-29T09:21:14.931Z</time>
      </trkpt>
      <trkpt lat="43.67436" lon="7.22775">
        <ele>56.110324</ele>
        <time>2024-01-29T09:21:16.918Z</time>
      </trkpt>
      <trkpt lat="43.67428" lon="7.2277">
        <ele>56.14097</ele>
        <time>2024-01-29T09:21:18.922Z</time>
      </trkpt>
      <trkpt lat="43.67419" lon="7.22765">
        <ele>56.171678</ele>
        <time>2024-01-29T09:21:20.925Z</time>
      </trkpt>
      <trkpt lat="43.67407" lon="7.2276">
        <ele>56.21452</ele>
        <time>2024-01-29T09:21:23.906Z</time>
      </trkpt>
      <trkpt lat="43.67402" lon="7.22744">
        <ele>56.255639</ele>
        <time>2024-01-29T09:21:26.893Z</time>
      </trkpt>
      <trkpt lat="43.67403" lon="7.22729">
        <ele>56.290942</ele>
        <time>2024-01-29T09:21:29.902Z</time>
      </trkpt>
      <trkpt lat="43.67395" lon="7.22717">
        <ele>56.331317</ele>
        <time>2024-01-29T09:21:32.901Z</time>
      </trkpt>
      <trkpt lat="43.67384" lon="7.22709">
        <ele>56.372962</ele>
        <time>2024-01-29T09:21:35.899Z</time>
      </trkpt>
      <trkpt lat="43.67373" lon="7.22701">
        <ele>56.412612</ele>
        <time>2024-01-29T09:21:38.900Z</time>
      </trkpt>
      <trkpt lat="43.67362" lon="7.22694">
        <ele>56.449181</ele>
        <time>2024-01-29T09:21:41.908Z</time>
      </trkpt>
      <trkpt lat="43.6735" lon="7.22687">
        <ele>56.472622</ele>
        <time>2024-01-29T09:21:44.898Z</time>
      </trkpt>
      <trkpt lat="43.6734" lon="7.22679">
        <ele>56.495716</ele>
        <time>2024-01-29T09:21:47.913Z</time>
      </trkpt>
      <trkpt lat="43.67328" lon="7.22671">
        <ele>56.520088</ele>
        <time>2024-01-29T09:21:50.913Z</time>
      </trkpt>
      <trkpt lat="43.67318" lon="7.22662">
        <ele>56.542705</ele>
        <time>2024-01-29T09:21:53.911Z</time>
      </trkpt>
      <trkpt lat="43.67308" lon="7.22654">
        <ele>56.565506</ele>
        <time>2024-01-29T09:21:56.904Z</time>
      </trkpt>
      <trkpt lat="43.67297" lon="7.22645">
        <ele>56.588589</ele>
        <time>2024-01-29T09:21:59.929Z</time>
      </trkpt>
      <trkpt lat="43.67287" lon="7.22637">
        <ele>56.611555</ele>
        <time>2024-01-29T09:22:02.910Z</time>
      </trkpt>
      <trkpt lat="43.67276" lon="7.22628">
        <ele>56.634638</ele>
        <time>2024-01-29T09:22:05.905Z</time>
      </trkpt>
      <trkpt lat="43.67265" lon="7.22619">
        <ele>56.658697</ele>
        <time>2024-01-29T09:22:08.912Z</time>
      </trkpt>
      <trkpt lat="43.67255" lon="7.2261">
        <ele>56.68239</ele>
        <time>2024-01-29T09:22:11.909Z</time>
      </trkpt>
      <trkpt lat="43.67244" lon="7.22599">
        <ele>56.706863</ele>
        <time>2024-01-29T09:22:14.914Z</time>
      </trkpt>
      <trkpt lat="43.67234" lon="7.22589">
        <ele>56.730848</ele>
        <time>2024-01-29T09:22:17.912Z</time>
      </trkpt>
      <trkpt lat="43.67223" lon="7.22579">
        <ele>56.755455</ele>
        <time>2024-01-29T09:22:20.900Z</time>
      </trkpt>
      <trkpt lat="43.67213" lon="7.22568">
        <ele>56.779754</ele>
        <time>2024-01-29T09:22:23.921Z</time>
      </trkpt>
      <trkpt lat="43.67203" lon="7.22557">
        <ele>56.807641</ele>
        <time>2024-01-29T09:22:26.909Z</time>
      </trkpt>
      <trkpt lat="43.67193" lon="7.22546">
        <ele>56.83576</ele>
        <time>2024-01-29T09:22:29.918Z</time>
      </trkpt>
      <trkpt lat="43.67183" lon="7.22533">
        <ele>56.864411</ele>
        <time>2024-01-29T09:22:32.908Z</time>
      </trkpt>
      <trkpt lat="43.67173" lon="7.22521">
        <ele>56.893486</ele>
        <time>2024-01-29T09:22:35.914Z</time>
      </trkpt>
      <trkpt lat="43.67163" lon="7.22509">
        <ele>56.922098</ele>
        <time>2024-01-29T09:22:38.924Z</time>
      </trkpt>
      <trkpt lat="43.67153" lon="7.22497">
        <ele>56.951618</ele>
        <time>2024-01-29T09:22:41.911Z</time>
      </trkpt>
      <trkpt lat="43.67146" lon="7.22488">
        <ele>56.971307</ele>
        <time>2024-01-29T09:22:43.913Z</time>
      </trkpt>
      <trkpt lat="43.67137" lon="7.22476">
        <ele>56.99938</ele>
        <time>2024-01-29T09:22:46.913Z</time>
      </trkpt>
      <trkpt lat="43.67131" lon="7.22466">
        <ele>57.019091</ele>
        <time>2024-01-29T09:22:48.903Z</time>
      </trkpt>
      <trkpt lat="43.67123" lon="7.22453">
        <ele>57.047291</ele>
        <time>2024-01-29T09:22:51.922Z</time>
      </trkpt>
      <trkpt lat="43.67113" lon="7.22441">
        <ele>57.07615</ele>
        <time>2024-01-29T09:22:54.913Z</time>
      </trkpt>
      <trkpt lat="43.67104" lon="7.22427">
        <ele>57.104706</ele>
        <time>2024-01-29T09:22:57.900Z</time>
      </trkpt>
      <trkpt lat="43.67095" lon="7.22415">
        <ele>57.132232</ele>
        <time>2024-01-29T09:23:00.916Z</time>
      </trkpt>
      <trkpt lat="43.67085" lon="7.22403">
        <ele>57.160681</ele>
        <time>2024-01-29T09:23:03.906Z</time>
      </trkpt>
      <trkpt lat="43.67079" lon="7.22393">
        <ele>57.182559</ele>
        <time>2024-01-29T09:23:05.906Z</time>
      </trkpt>
      <trkpt lat="43.6707" lon="7.2238">
        <ele>57.218509</ele>
        <time>2024-01-29T09:23:08.899Z</time>
      </trkpt>
      <trkpt lat="43.67064" lon="7.22371">
        <ele>57.243489</ele>
        <time>2024-01-29T09:23:10.921Z</time>
      </trkpt>
      <trkpt lat="43.67057" lon="7.22362">
        <ele>57.269313</ele>
        <time>2024-01-29T09:23:12.904Z</time>
      </trkpt>
      <trkpt lat="43.6705" lon="7.22353">
        <ele>57.295625</ele>
        <time>2024-01-29T09:23:14.886Z</time>
      </trkpt>
      <trkpt lat="43.67044" lon="7.22344">
        <ele>57.321323</ele>
        <time>2024-01-29T09:23:16.911Z</time>
      </trkpt>
      <trkpt lat="43.67034" lon="7.22331">
        <ele>57.358131</ele>
        <time>2024-01-29T09:23:19.909Z</time>
      </trkpt>
      <trkpt lat="43.67025" lon="7.22317">
        <ele>57.394329</ele>
        <time>2024-01-29T09:23:22.921Z</time>
      </trkpt>
      <trkpt lat="43.67018" lon="7.22309">
        <ele>57.420035</ele>
        <time>2024-01-29T09:23:24.912Z</time>
      </trkpt>
      <trkpt lat="43.67009" lon="7.22297">
        <ele>57.454625</ele>
        <time>2024-01-29T09:23:27.906Z</time>
      </trkpt>
      <trkpt lat="43.67" lon="7.22285">
        <ele>57.489142</ele>
        <time>2024-01-29T09:23:30.905Z</time>
      </trkpt>
      <trkpt lat="43.66991" lon="7.22272">
        <ele>57.524882</ele>
        <time>2024-01-29T09:23:33.908Z</time>
      </trkpt>
      <trkpt lat="43.66985" lon="7.22263">
        <ele>57.549803</ele>
        <time>2024-01-29T09:23:35.911Z</time>
      </trkpt>
      <trkpt lat="43.66976" lon="7.2225">
        <ele>57.584988</ele>
        <time>2024-01-29T09:23:38.902Z</time>
      </trkpt>
      <trkpt lat="43.66967" lon="7.22238">
        <ele>57.619747</ele>
        <time>2024-01-29T09:23:41.910Z</time>
      </trkpt>
      <trkpt lat="43.66958" lon="7.22226">
        <ele>57.654312</ele>
        <time>2024-01-29T09:23:44.924Z</time>
      </trkpt>
      <trkpt lat="43.66949" lon="7.22213">
        <ele>57.645722</ele>
        <time>2024-01-29T09:23:47.927Z</time>
      </trkpt>
      <trkpt lat="43.6694" lon="7.22201">
        <ele>57.608377</ele>
        <time>2024-01-29T09:23:50.908Z</time>
      </trkpt>
      <trkpt lat="43.6693" lon="7.22189">
        <ele>57.570885</ele>
        <time>2024-01-29T09:23:53.917Z</time>
      </trkpt>
      <trkpt lat="43.66921" lon="7.22177">
        <ele>57.5328</ele>
        <time>2024-01-29T09:23:56.902Z</time>
      </trkpt>
      <trkpt lat="43.66912" lon="7.22166">
        <ele>57.495813</ele>
        <time>2024-01-29T09:23:59.915Z</time>
      </trkpt>
      <trkpt lat="43.66903" lon="7.22154">
        <ele>57.458455</ele>
        <time>2024-01-29T09:24:02.900Z</time>
      </trkpt>
      <trkpt lat="43.66894" lon="7.22141">
        <ele>57.421994</ele>
        <time>2024-01-29T09:24:05.918Z</time>
      </trkpt>
      <trkpt lat="43.66886" lon="7.2213">
        <ele>57.386323</ele>
        <time>2024-01-29T09:24:08.914Z</time>
      </trkpt>
      <trkpt lat="43.66878" lon="7.22117">
        <ele>57.34984</ele>
        <time>2024-01-29T09:24:11.899Z</time>
      </trkpt>
      <trkpt lat="43.66869" lon="7.22107">
        <ele>57.316352</ele>
        <time>2024-01-29T09:24:14.901Z</time>
      </trkpt>
      <trkpt lat="43.66861" lon="7.22095">
        <ele>57.282471</ele>
        <time>2024-01-29T09:24:17.903Z</time>
      </trkpt>
      <trkpt lat="43.66852" lon="7.22083">
        <ele>57.243514</ele>
        <time>2024-01-29T09:24:20.910Z</time>
      </trkpt>
      <trkpt lat="43.66843" lon="7.22071">
        <ele>57.205549</ele>
        <time>2024-01-29T09:24:23.898Z</time>
      </trkpt>
      <trkpt lat="43.66834" lon="7.22058">
        <ele>57.167677</ele>
        <time>2024-01-29T09:24:26.901Z</time>
      </trkpt>
      <trkpt lat="43.66826" lon="7.22045">
        <ele>57.141326</ele>
        <time>2024-01-29T09:24:29.911Z</time>
      </trkpt>
      <trkpt lat="43.66818" lon="7.22031">
        <ele>57.218151</ele>
        <time>2024-01-29T09:24:32.920Z</time>
      </trkpt>
      <trkpt lat="43.6681" lon="7.22019">
        <ele>57.290927</ele>
        <time>2024-01-29T09:24:35.906Z</time>
      </trkpt>
      <trkpt lat="43.66802" lon="7.22005">
        <ele>57.367411</ele>
        <time>2024-01-29T09:24:38.892Z</time>
      </trkpt>
      <trkpt lat="43.66795" lon="7.21992">
        <ele>57.441264</ele>
        <time>2024-01-29T09:24:41.905Z</time>
      </trkpt>
      <trkpt lat="43.66788" lon="7.21979">
        <ele>57.515036</ele>
        <time>2024-01-29T09:24:44.900Z</time>
      </trkpt>
      <trkpt lat="43.6678" lon="7.21965">
        <ele>57.590607</ele>
        <time>2024-01-29T09:24:47.881Z</time>
      </trkpt>
      <trkpt lat="43.66773" lon="7.21951">
        <ele>57.668338</ele>
        <time>2024-01-29T09:24:50.903Z</time>
      </trkpt>
      <trkpt lat="43.66766" lon="7.21936">
        <ele>57.748368</ele>
        <time>2024-01-29T09:24:53.907Z</time>
      </trkpt>
      <trkpt lat="43.6676" lon="7.21921">
        <ele>57.822732</ele>
        <time>2024-01-29T09:24:56.918Z</time>
      </trkpt>
      <trkpt lat="43.66754" lon="7.21906">
        <ele>57.89916</ele>
        <time>2024-01-29T09:24:59.904Z</time>
      </trkpt>
      <trkpt lat="43.66747" lon="7.21892">
        <ele>57.974285</ele>
        <time>2024-01-29T09:25:02.925Z</time>
      </trkpt>
      <trkpt lat="43.66741" lon="7.21876">
        <ele>58.052076</ele>
        <time>2024-01-29T09:25:05.926Z</time>
      </trkpt>
      <trkpt lat="43.66736" lon="7.21862">
        <ele>58.12469</ele>
        <time>2024-01-29T09:25:08.900Z</time>
      </trkpt>
      <trkpt lat="43.66731" lon="7.21847">
        <ele>58.198435</ele>
        <time>2024-01-29T09:25:11.903Z</time>
      </trkpt>
      <trkpt lat="43.66725" lon="7.21831">
        <ele>58.234376</ele>
        <time>2024-01-29T09:25:14.908Z</time>
      </trkpt>
      <trkpt lat="43.6672" lon="7.21817">
        <ele>58.228092</ele>
        <time>2024-01-29T09:25:17.928Z</time>
      </trkpt>
      <trkpt lat="43.66716" lon="7.21802">
        <ele>58.221628</ele>
        <time>2024-01-29T09:25:20.906Z</time>
      </trkpt>
      <trkpt lat="43.66711" lon="7.21786">
        <ele>58.215027</ele>
        <time>2024-01-29T09:25:23.919Z</time>
      </trkpt>
      <trkpt lat="43.66707" lon="7.21771">
        <ele>58.208589</ele>
        <time>2024-01-29T09:25:26.923Z</time>
      </trkpt>
      <trkpt lat="43.66703" lon="7.21756">
        <ele>58.202429</ele>
        <time>2024-01-29T09:25:29.912Z</time>
      </trkpt>
      <trkpt lat="43.66699" lon="7.2174">
        <ele>58.19594</ele>
        <time>2024-01-29T09:25:32.916Z</time>
      </trkpt>
      <trkpt lat="43.66696" lon="7.21726">
        <ele>58.18991</ele>
        <time>2024-01-29T09:25:35.916Z</time>
      </trkpt>
      <trkpt lat="43.66694" lon="7.21711">
        <ele>58.184067</ele>
        <time>2024-01-29T09:25:38.900Z</time>
      </trkpt>
      <trkpt lat="43.66691" lon="7.21697">
        <ele>58.178251</ele>
        <time>2024-01-29T09:25:41.901Z</time>
      </trkpt>
      <trkpt lat="43.66688" lon="7.21683">
        <ele>58.172477</ele>
        <time>2024-01-29T09:25:44.910Z</time>
      </trkpt>
      <trkpt lat="43.66686" lon="7.21668">
        <ele>58.166412</ele>
        <time>2024-01-29T09:25:47.896Z</time>
      </trkpt>
      <trkpt lat="43.66684" lon="7.21655">
        <ele>58.161147</ele>
        <time>2024-01-29T09:25:50.904Z</time>
      </trkpt>
      <trkpt lat="43.66682" lon="7.21642">
        <ele>58.156165</ele>
        <time>2024-01-29T09:25:53.925Z</time>
      </trkpt>
      <trkpt lat="43.6668" lon="7.21629">
        <ele>58.150902</ele>
        <time>2024-01-29T09:25:56.906Z</time>
      </trkpt>
      <trkpt lat="43.66678" lon="7.21617">
        <ele>58.145971</ele>
        <time>2024-01-29T09:25:59.902Z</time>
      </trkpt>
      <trkpt lat="43.66675" lon="7.21603">
        <ele>58.140479</ele>
        <time>2024-01-29T09:26:02.921Z</time>
      </trkpt>
      <trkpt lat="43.66674" lon="7.21589">
        <ele>58.221079</ele>
        <time>2024-01-29T09:26:05.900Z</time>
      </trkpt>
      <trkpt lat="43.66672" lon="7.21574">
        <ele>58.308597</ele>
        <time>2024-01-29T09:26:08.896Z</time>
      </trkpt>
      <trkpt lat="43.66669" lon="7.21562">
        <ele>58.386376</ele>
        <time>2024-01-29T09:26:11.892Z</time>
      </trkpt>
      <trkpt lat="43.66665" lon="7.2155">
        <ele>58.461133</ele>
        <time>2024-01-29T09:26:14.909Z</time>
      </trkpt>
      <trkpt lat="43.66662" lon="7.21538">
        <ele>58.538716</ele>
        <time>2024-01-29T09:26:17.905Z</time>
      </trkpt>
      <trkpt lat="43.66667" lon="7.21524">
        <ele>58.629216</ele>
        <time>2024-01-29T09:26:21.898Z</time>
      </trkpt>
      <trkpt lat="43.66664" lon="7.21509">
        <ele>58.717593</ele>
        <time>2024-01-29T09:26:25.897Z</time>
      </trkpt>
      <trkpt lat="43.66664" lon="7.21495">
        <ele>58.804345</ele>
        <time>2024-01-29T09:26:29.887Z</time>
      </trkpt>
      <trkpt lat="43.66661" lon="7.2148">
        <ele>58.895088</ele>
        <time>2024-01-29T09:26:34.901Z</time>
      </trkpt>
      <trkpt lat="43.6666" lon="7.21465">
        <ele>58.980879</ele>
        <time>2024-01-29T09:26:38.888Z</time>
      </trkpt>
      <trkpt lat="43.66658" lon="7.2145">
        <ele>59.073368</ele>
        <time>2024-01-29T09:26:42.904Z</time>
      </trkpt>
      <trkpt lat="43.66655" lon="7.21434">
        <ele>59.169239</ele>
        <time>2024-01-29T09:26:46.889Z</time>
      </trkpt>
      <trkpt lat="43.66654" lon="7.2142">
        <ele>59.25399</ele>
        <time>2024-01-29T09:26:49.914Z</time>
      </trkpt>
      <trkpt lat="43.66652" lon="7.21406">
        <ele>59.339782</ele>
        <time>2024-01-29T09:26:52.918Z</time>
      </trkpt>
      <trkpt lat="43.66651" lon="7.2139">
        <ele>59.430793</ele>
        <time>2024-01-29T09:26:55.900Z</time>
      </trkpt>
      <trkpt lat="43.66649" lon="7.21376">
        <ele>59.519476</ele>
        <time>2024-01-29T09:26:58.960Z</time>
      </trkpt>
      <trkpt lat="43.66648" lon="7.21361">
        <ele>59.608457</ele>
        <time>2024-01-29T09:27:01.915Z</time>
      </trkpt>
      <trkpt lat="43.66646" lon="7.21347">
        <ele>59.71575</ele>
        <time>2024-01-29T09:27:04.900Z</time>
      </trkpt>
      <trkpt lat="43.66644" lon="7.21332">
        <ele>59.824736</ele>
        <time>2024-01-29T09:27:07.903Z</time>
      </trkpt>
      <trkpt lat="43.66642" lon="7.21317">
        <ele>59.938046</ele>
        <time>2024-01-29T09:27:10.904Z</time>
      </trkpt>
      <trkpt lat="43.66641" lon="7.21303">
        <ele>60.046169</ele>
        <time>2024-01-29T09:27:13.917Z</time>
      </trkpt>
      <trkpt lat="43.66638" lon="7.21288">
        <ele>60.164271</ele>
        <time>2024-01-29T09:27:16.913Z</time>
      </trkpt>
      <trkpt lat="43.66637" lon="7.21273">
        <ele>60.273621</ele>
        <time>2024-01-29T09:27:19.904Z</time>
      </trkpt>
      <trkpt lat="43.66635" lon="7.21259">
        <ele>60.382485</ele>
        <time>2024-01-29T09:27:22.911Z</time>
      </trkpt>
      <trkpt lat="43.66633" lon="7.21245">
        <ele>60.486677</ele>
        <time>2024-01-29T09:27:25.906Z</time>
      </trkpt>
      <trkpt lat="43.66632" lon="7.21231">
        <ele>60.595117</ele>
        <time>2024-01-29T09:27:28.901Z</time>
      </trkpt>
      <trkpt lat="43.66631" lon="7.21217">
        <ele>60.699381</ele>
        <time>2024-01-29T09:27:31.899Z</time>
      </trkpt>
      <trkpt lat="43.66629" lon="7.21202">
        <ele>60.809468</ele>
        <time>2024-01-29T09:27:34.906Z</time>
      </trkpt>
      <trkpt lat="43.66627" lon="7.21187">
        <ele>60.926368</ele>
        <time>2024-01-29T09:27:37.916Z</time>
      </trkpt>
      <trkpt lat="43.66626" lon="7.21173">
        <ele>61.034492</ele>
        <time>2024-01-29T09:27:40.901Z</time>
      </trkpt>
      <trkpt lat="43.66624" lon="7.21158">
        <ele>61.143679</ele>
        <time>2024-01-29T09:27:43.920Z</time>
      </trkpt>
      <trkpt lat="43.66621" lon="7.21144">
        <ele>61.252867</ele>
        <time>2024-01-29T09:27:46.902Z</time>
      </trkpt>
      <trkpt lat="43.6662" lon="7.21129">
        <ele>61.363523</ele>
        <time>2024-01-29T09:27:49.901Z</time>
      </trkpt>
      <trkpt lat="43.66618" lon="7.21112">
        <ele>61.474605</ele>
        <time>2024-01-29T09:27:52.903Z</time>
      </trkpt>
      <trkpt lat="43.66616" lon="7.21098">
        <ele>61.473564</ele>
        <time>2024-01-29T09:27:55.907Z</time>
      </trkpt>
      <trkpt lat="43.66614" lon="7.21082">
        <ele>61.472471</ele>
        <time>2024-01-29T09:27:58.897Z</time>
      </trkpt>
      <trkpt lat="43.66612" lon="7.21068">
        <ele>61.471421</ele>
        <time>2024-01-29T09:28:01.900Z</time>
      </trkpt>
      <trkpt lat="43.6661" lon="7.21055">
        <ele>61.470489</ele>
        <time>2024-01-29T09:28:04.897Z</time>
      </trkpt>
      <trkpt lat="43.66609" lon="7.2104">
        <ele>61.469448</ele>
        <time>2024-01-29T09:28:08.926Z</time>
      </trkpt>
      <trkpt lat="43.66607" lon="7.21027">
        <ele>61.468558</ele>
        <time>2024-01-29T09:28:12.906Z</time>
      </trkpt>
      <trkpt lat="43.66606" lon="7.21015">
        <ele>61.467668</ele>
        <time>2024-01-29T09:28:15.919Z</time>
      </trkpt>
      <trkpt lat="43.66604" lon="7.21001">
        <ele>61.466674</ele>
        <time>2024-01-29T09:28:18.902Z</time>
      </trkpt>
      <trkpt lat="43.66603" lon="7.20987">
        <ele>61.465683</ele>
        <time>2024-01-29T09:28:21.910Z</time>
      </trkpt>
      <trkpt lat="43.66601" lon="7.20973">
        <ele>61.464682</ele>
        <time>2024-01-29T09:28:24.906Z</time>
      </trkpt>
      <trkpt lat="43.66599" lon="7.20958">
        <ele>61.463619</ele>
        <time>2024-01-29T09:28:27.899Z</time>
      </trkpt>
      <trkpt lat="43.66597" lon="7.20943">
        <ele>61.462555</ele>
        <time>2024-01-29T09:28:30.918Z</time>
      </trkpt>
      <trkpt lat="43.66595" lon="7.20928">
        <ele>61.461468</ele>
        <time>2024-01-29T09:28:33.920Z</time>
      </trkpt>
      <trkpt lat="43.66593" lon="7.20913">
        <ele>61.460391</ele>
        <time>2024-01-29T09:28:36.905Z</time>
      </trkpt>
      <trkpt lat="43.66591" lon="7.20898">
        <ele>61.459371</ele>
        <time>2024-01-29T09:28:39.922Z</time>
      </trkpt>
      <trkpt lat="43.66589" lon="7.20884">
        <ele>61.458329</ele>
        <time>2024-01-29T09:28:42.906Z</time>
      </trkpt>
      <trkpt lat="43.66587" lon="7.2087">
        <ele>61.453892</ele>
        <time>2024-01-29T09:28:45.923Z</time>
      </trkpt>
      <trkpt lat="43.66584" lon="7.20856">
        <ele>61.350387</ele>
        <time>2024-01-29T09:28:48.917Z</time>
      </trkpt>
      <trkpt lat="43.6658" lon="7.20844">
        <ele>61.248363</ele>
        <time>2024-01-29T09:28:51.885Z</time>
      </trkpt>
      <trkpt lat="43.66576" lon="7.20832">
        <ele>61.149616</ele>
        <time>2024-01-29T09:28:54.903Z</time>
      </trkpt>
      <trkpt lat="43.66571" lon="7.20818">
        <ele>61.032591</ele>
        <time>2024-01-29T09:28:58.900Z</time>
      </trkpt>
      <trkpt lat="43.66567" lon="7.20803">
        <ele>60.910526</ele>
        <time>2024-01-29T09:29:02.889Z</time>
      </trkpt>
      <trkpt lat="43.66562" lon="7.20789">
        <ele>60.793025</ele>
        <time>2024-01-29T09:29:06.908Z</time>
      </trkpt>
      <trkpt lat="43.66557" lon="7.20768">
        <ele>60.630618</ele>
        <time>2024-01-29T09:30:04.902Z</time>
      </trkpt>
      <trkpt lat="43.66554" lon="7.20755">
        <ele>60.523418</ele>
        <time>2024-01-29T09:30:07.920Z</time>
      </trkpt>
      <trkpt lat="43.66548" lon="7.20738">
        <ele>60.386197</ele>
        <time>2024-01-29T09:30:10.900Z</time>
      </trkpt>
      <trkpt lat="43.66545" lon="7.20726">
        <ele>60.289609</ele>
        <time>2024-01-29T09:30:12.919Z</time>
      </trkpt>
      <trkpt lat="43.66542" lon="7.20713">
        <ele>60.18557</ele>
        <time>2024-01-29T09:30:14.911Z</time>
      </trkpt>
      <trkpt lat="43.66542" lon="7.20699">
        <ele>60.083047</ele>
        <time>2024-01-29T09:30:16.903Z</time>
      </trkpt>
      <trkpt lat="43.66541" lon="7.20685">
        <ele>59.973817</ele>
        <time>2024-01-29T09:30:18.901Z</time>
      </trkpt>
      <trkpt lat="43.66541" lon="7.2067">
        <ele>59.860197</ele>
        <time>2024-01-29T09:30:20.903Z</time>
      </trkpt>
      <trkpt lat="43.66541" lon="7.20653">
        <ele>59.730771</ele>
        <time>2024-01-29T09:30:22.900Z</time>
      </trkpt>
      <trkpt lat="43.66541" lon="7.20635">
        <ele>59.599076</ele>
        <time>2024-01-29T09:30:24.923Z</time>
      </trkpt>
      <trkpt lat="43.66542" lon="7.20618">
        <ele>59.853511</ele>
        <time>2024-01-29T09:30:26.905Z</time>
      </trkpt>
      <trkpt lat="43.66542" lon="7.20602">
        <ele>60.148017</ele>
        <time>2024-01-29T09:30:28.887Z</time>
      </trkpt>
      <trkpt lat="43.66542" lon="7.20586">
        <ele>60.42322</ele>
        <time>2024-01-29T09:30:30.898Z</time>
      </trkpt>
      <trkpt lat="43.66542" lon="7.20571">
        <ele>60.680692</ele>
        <time>2024-01-29T09:30:32.902Z</time>
      </trkpt>
      <trkpt lat="43.66541" lon="7.20559">
        <ele>60.903374</ele>
        <time>2024-01-29T09:30:34.928Z</time>
      </trkpt>
      <trkpt lat="43.66541" lon="7.20544">
        <ele>61.171471</ele>
        <time>2024-01-29T09:30:37.925Z</time>
      </trkpt>
      <trkpt lat="43.66541" lon="7.2053">
        <ele>61.416792</ele>
        <time>2024-01-29T09:30:40.923Z</time>
      </trkpt>
      <trkpt lat="43.66541" lon="7.20517">
        <ele>61.646164</ele>
        <time>2024-01-29T09:30:44.912Z</time>
      </trkpt>
      <trkpt lat="43.66542" lon="7.20502">
        <ele>61.913567</ele>
        <time>2024-01-29T09:30:49.923Z</time>
      </trkpt>
      <trkpt lat="43.66543" lon="7.20488">
        <ele>62.155216</ele>
        <time>2024-01-29T09:30:54.892Z</time>
      </trkpt>
      <trkpt lat="43.66543" lon="7.20474">
        <ele>62.402299</ele>
        <time>2024-01-29T09:31:00.899Z</time>
      </trkpt>
      <trkpt lat="43.66541" lon="7.2046">
        <ele>62.64877</ele>
        <time>2024-01-29T09:31:05.923Z</time>
      </trkpt>
      <trkpt lat="43.66538" lon="7.20446">
        <ele>62.904284</ele>
        <time>2024-01-29T09:31:09.904Z</time>
      </trkpt>
      <trkpt lat="43.66536" lon="7.20431">
        <ele>63.183727</ele>
        <time>2024-01-29T09:31:13.906Z</time>
      </trkpt>
      <trkpt lat="43.66534" lon="7.20418">
        <ele>63.406761</ele>
        <time>2024-01-29T09:31:16.906Z</time>
      </trkpt>
      <trkpt lat="43.66532" lon="7.20406">
        <ele>63.634984</ele>
        <time>2024-01-29T09:31:19.915Z</time>
      </trkpt>
      <trkpt lat="43.6653" lon="7.20393">
        <ele>63.861478</ele>
        <time>2024-01-29T09:31:22.925Z</time>
      </trkpt>
      <trkpt lat="43.66527" lon="7.20378">
        <ele>64.023576</ele>
        <time>2024-01-29T09:31:26.917Z</time>
      </trkpt>
      <trkpt lat="43.66525" lon="7.20364">
        <ele>64.108876</ele>
        <time>2024-01-29T09:31:31.893Z</time>
      </trkpt>
      <trkpt lat="43.66528" lon="7.20351">
        <ele>64.18595</ele>
        <time>2024-01-29T09:31:35.916Z</time>
      </trkpt>
      <trkpt lat="43.66527" lon="7.20338">
        <ele>64.260737</ele>
        <time>2024-01-29T09:31:39.895Z</time>
      </trkpt>
      <trkpt lat="43.66524" lon="7.20324">
        <ele>64.345987</ele>
        <time>2024-01-29T09:31:43.900Z</time>
      </trkpt>
      <trkpt lat="43.66521" lon="7.20312">
        <ele>64.419521</ele>
        <time>2024-01-29T09:31:46.906Z</time>
      </trkpt>
      <trkpt lat="43.66519" lon="7.20299">
        <ele>64.496638</ele>
        <time>2024-01-29T09:31:49.921Z</time>
      </trkpt>
      <trkpt lat="43.66517" lon="7.20286">
        <ele>64.569338</ele>
        <time>2024-01-29T09:31:52.907Z</time>
      </trkpt>
      <trkpt lat="43.66512" lon="7.20271">
        <ele>64.664327</ele>
        <time>2024-01-29T09:31:56.908Z</time>
      </trkpt>
      <trkpt lat="43.66509" lon="7.20256">
        <ele>64.751706</ele>
        <time>2024-01-29T09:32:00.900Z</time>
      </trkpt>
      <trkpt lat="43.66502" lon="7.20247">
        <ele>64.827741</ele>
        <time>2024-01-29T09:32:10.902Z</time>
      </trkpt>
      <trkpt lat="43.66498" lon="7.20234">
        <ele>64.911227</ele>
        <time>2024-01-29T09:32:15.896Z</time>
      </trkpt>
      <trkpt lat="43.66493" lon="7.20219">
        <ele>65.001524</ele>
        <time>2024-01-29T09:32:19.921Z</time>
      </trkpt>
      <trkpt lat="43.6649" lon="7.20207">
        <ele>65.077459</ele>
        <time>2024-01-29T09:32:22.910Z</time>
      </trkpt>
      <trkpt lat="43.66486" lon="7.20194">
        <ele>65.155782</ele>
        <time>2024-01-29T09:32:25.905Z</time>
      </trkpt>
      <trkpt lat="43.66482" lon="7.20181">
        <ele>65.237553</ele>
        <time>2024-01-29T09:32:28.900Z</time>
      </trkpt>
      <trkpt lat="43.66477" lon="7.20168">
        <ele>65.323051</ele>
        <time>2024-01-29T09:32:31.898Z</time>
      </trkpt>
      <trkpt lat="43.66473" lon="7.20155">
        <ele>65.394031</ele>
        <time>2024-01-29T09:32:34.918Z</time>
      </trkpt>
      <trkpt lat="43.66468" lon="7.20142">
        <ele>65.416116</ele>
        <time>2024-01-29T09:32:37.897Z</time>
      </trkpt>
      <trkpt lat="43.66463" lon="7.20129">
        <ele>65.438402</ele>
        <time>2024-01-29T09:32:40.901Z</time>
      </trkpt>
      <trkpt lat="43.66457" lon="7.20116">
        <ele>65.461118</ele>
        <time>2024-01-29T09:32:43.910Z</time>
      </trkpt>
      <trkpt lat="43.66452" lon="7.20101">
        <ele>65.485812</ele>
        <time>2024-01-29T09:32:46.896Z</time>
      </trkpt>
      <trkpt lat="43.66446" lon="7.20086">
        <ele>65.51105</ele>
        <time>2024-01-29T09:32:49.906Z</time>
      </trkpt>
      <trkpt lat="43.66441" lon="7.20073">
        <ele>65.534229</ele>
        <time>2024-01-29T09:32:52.913Z</time>
      </trkpt>
      <trkpt lat="43.66436" lon="7.20059">
        <ele>65.557293</ele>
        <time>2024-01-29T09:32:55.900Z</time>
      </trkpt>
      <trkpt lat="43.6643" lon="7.20045">
        <ele>65.582034</ele>
        <time>2024-01-29T09:32:58.912Z</time>
      </trkpt>
      <trkpt lat="43.66425" lon="7.2003">
        <ele>65.606573</ele>
        <time>2024-01-29T09:33:01.924Z</time>
      </trkpt>
      <trkpt lat="43.66419" lon="7.20015">
        <ele>65.631901</ele>
        <time>2024-01-29T09:33:04.913Z</time>
      </trkpt>
      <trkpt lat="43.66414" lon="7.20001">
        <ele>65.656342</ele>
        <time>2024-01-29T09:33:07.900Z</time>
      </trkpt>
      <trkpt lat="43.66408" lon="7.19987">
        <ele>65.681082</ele>
        <time>2024-01-29T09:33:10.900Z</time>
      </trkpt>
      <trkpt lat="43.66403" lon="7.19972">
        <ele>65.705098</ele>
        <time>2024-01-29T09:33:13.915Z</time>
      </trkpt>
      <trkpt lat="43.66397" lon="7.19959">
        <ele>65.729246</ele>
        <time>2024-01-29T09:33:16.904Z</time>
      </trkpt>
      <trkpt lat="43.66392" lon="7.19945">
        <ele>65.752763</ele>
        <time>2024-01-29T09:33:19.896Z</time>
      </trkpt>
      <trkpt lat="43.66387" lon="7.1993">
        <ele>65.739059</ele>
        <time>2024-01-29T09:33:22.905Z</time>
      </trkpt>
      <trkpt lat="43.66382" lon="7.19916">
        <ele>65.685035</ele>
        <time>2024-01-29T09:33:25.908Z</time>
      </trkpt>
      <trkpt lat="43.66376" lon="7.19902">
        <ele>65.629973</ele>
        <time>2024-01-29T09:33:28.904Z</time>
      </trkpt>
      <trkpt lat="43.6637" lon="7.19887">
        <ele>65.572463</ele>
        <time>2024-01-29T09:33:31.906Z</time>
      </trkpt>
      <trkpt lat="43.66364" lon="7.19872">
        <ele>65.51665</ele>
        <time>2024-01-29T09:33:34.879Z</time>
      </trkpt>
      <trkpt lat="43.66359" lon="7.19857">
        <ele>65.460105</ele>
        <time>2024-01-29T09:33:37.895Z</time>
      </trkpt>
      <trkpt lat="43.66353" lon="7.19843">
        <ele>65.404375</ele>
        <time>2024-01-29T09:33:40.902Z</time>
      </trkpt>
      <trkpt lat="43.66348" lon="7.19828">
        <ele>65.349089</ele>
        <time>2024-01-29T09:33:43.898Z</time>
      </trkpt>
      <trkpt lat="43.66342" lon="7.19814">
        <ele>65.29425</ele>
        <time>2024-01-29T09:33:46.905Z</time>
      </trkpt>
      <trkpt lat="43.66337" lon="7.19799">
        <ele>65.237705</ele>
        <time>2024-01-29T09:33:49.900Z</time>
      </trkpt>
      <trkpt lat="43.66331" lon="7.19785">
        <ele>65.183233</ele>
        <time>2024-01-29T09:33:52.899Z</time>
      </trkpt>
      <trkpt lat="43.66326" lon="7.19771">
        <ele>65.130321</ele>
        <time>2024-01-29T09:33:55.906Z</time>
      </trkpt>
      <trkpt lat="43.6632" lon="7.19757">
        <ele>65.076729</ele>
        <time>2024-01-29T09:33:58.912Z</time>
      </trkpt>
      <trkpt lat="43.66315" lon="7.19742">
        <ele>65.021036</ele>
        <time>2024-01-29T09:34:01.901Z</time>
      </trkpt>
      <trkpt lat="43.66309" lon="7.19728">
        <ele>64.966634</ele>
        <time>2024-01-29T09:34:04.920Z</time>
      </trkpt>
      <trkpt lat="43.66303" lon="7.19716">
        <ele>64.917167</ele>
        <time>2024-01-29T09:34:07.897Z</time>
      </trkpt>
      <trkpt lat="43.66296" lon="7.19705">
        <ele>64.87287</ele>
        <time>2024-01-29T09:34:10.884Z</time>
      </trkpt>
      <trkpt lat="43.66293" lon="7.19693">
        <ele>64.833664</ele>
        <time>2024-01-29T09:34:13.901Z</time>
      </trkpt>
      <trkpt lat="43.66291" lon="7.1968">
        <ele>64.79393</ele>
        <time>2024-01-29T09:34:16.889Z</time>
      </trkpt>
      <trkpt lat="43.66286" lon="7.19668">
        <ele>64.751143</ele>
        <time>2024-01-29T09:34:19.897Z</time>
      </trkpt>
      <trkpt lat="43.66281" lon="7.19656">
        <ele>64.70957</ele>
        <time>2024-01-29T09:34:22.911Z</time>
      </trkpt>
      <trkpt lat="43.66276" lon="7.19646">
        <ele>64.671737</ele>
        <time>2024-01-29T09:34:25.918Z</time>
      </trkpt>
      <trkpt lat="43.6627" lon="7.19634">
        <ele>64.629147</ele>
        <time>2024-01-29T09:34:29.922Z</time>
      </trkpt>
      <trkpt lat="43.6626" lon="7.19628">
        <ele>64.581027</ele>
        <time>2024-01-29T09:34:42.903Z</time>
      </trkpt>
      <trkpt lat="43.66257" lon="7.19615">
        <ele>64.541253</ele>
        <time>2024-01-29T09:34:45.907Z</time>
      </trkpt>
      <trkpt lat="43.66252" lon="7.19605">
        <ele>64.503114</ele>
        <time>2024-01-29T09:34:48.898Z</time>
      </trkpt>
      <trkpt lat="43.66246" lon="7.19595">
        <ele>64.465193</ele>
        <time>2024-01-29T09:34:51.899Z</time>
      </trkpt>
      <trkpt lat="43.66238" lon="7.19583">
        <ele>64.416883</ele>
        <time>2024-01-29T09:34:55.910Z</time>
      </trkpt>
      <trkpt lat="43.66231" lon="7.19572">
        <ele>64.370814</ele>
        <time>2024-01-29T09:34:59.910Z</time>
      </trkpt>
      <trkpt lat="43.66224" lon="7.19559">
        <ele>64.323603</ele>
        <time>2024-01-29T09:35:03.918Z</time>
      </trkpt>
      <trkpt lat="43.66217" lon="7.19547">
        <ele>64.274397</ele>
        <time>2024-01-29T09:35:07.898Z</time>
      </trkpt>
      <trkpt lat="43.6621" lon="7.19536">
        <ele>64.231491</ele>
        <time>2024-01-29T09:35:10.909Z</time>
      </trkpt>
      <trkpt lat="43.66201" lon="7.19524">
        <ele>64.178021</ele>
        <time>2024-01-29T09:35:13.921Z</time>
      </trkpt>
      <trkpt lat="43.66196" lon="7.19513">
        <ele>64.0762</ele>
        <time>2024-01-29T09:35:15.925Z</time>
      </trkpt>
      <trkpt lat="43.66187" lon="7.19499">
        <ele>63.921247</ele>
        <time>2024-01-29T09:35:18.909Z</time>
      </trkpt>
      <trkpt lat="43.66179" lon="7.19485">
        <ele>63.757023</ele>
        <time>2024-01-29T09:35:21.900Z</time>
      </trkpt>
      <trkpt lat="43.66172" lon="7.19475">
        <ele>63.64128</ele>
        <time>2024-01-29T09:35:23.921Z</time>
      </trkpt>
      <trkpt lat="43.66166" lon="7.19466">
        <ele>63.53073</ele>
        <time>2024-01-29T09:35:25.903Z</time>
      </trkpt>
      <trkpt lat="43.66159" lon="7.19458">
        <ele>63.420768</ele>
        <time>2024-01-29T09:35:27.907Z</time>
      </trkpt>
      <trkpt lat="43.6615" lon="7.19443">
        <ele>63.251977</ele>
        <time>2024-01-29T09:35:30.906Z</time>
      </trkpt>
      <trkpt lat="43.66143" lon="7.19427">
        <ele>63.094419</ele>
        <time>2024-01-29T09:35:33.908Z</time>
      </trkpt>
      <trkpt lat="43.66136" lon="7.19418">
        <ele>62.978831</ele>
        <time>2024-01-29T09:35:35.911Z</time>
      </trkpt>
      <trkpt lat="43.66127" lon="7.19405">
        <ele>62.824529</ele>
        <time>2024-01-29T09:35:38.909Z</time>
      </trkpt>
      <trkpt lat="43.66118" lon="7.19391">
        <ele>62.665238</ele>
        <time>2024-01-29T09:35:41.914Z</time>
      </trkpt>
      <trkpt lat="43.66112" lon="7.19382">
        <ele>62.556572</ele>
        <time>2024-01-29T09:35:43.898Z</time>
      </trkpt>
      <trkpt lat="43.66105" lon="7.19374">
        <ele>62.446026</ele>
        <time>2024-01-29T09:35:46.892Z</time>
      </trkpt>
      <trkpt lat="43.66098" lon="7.19363">
        <ele>62.323403</ele>
        <time>2024-01-29T09:35:55.897Z</time>
      </trkpt>
      <trkpt lat="43.66095" lon="7.19348">
        <ele>62.187305</ele>
        <time>2024-01-29T09:36:00.897Z</time>
      </trkpt>
      <trkpt lat="43.66089" lon="7.19339">
        <ele>62.07484</ele>
        <time>2024-01-29T09:36:03.913Z</time>
      </trkpt>
      <trkpt lat="43.66083" lon="7.19328">
        <ele>61.953843</ele>
        <time>2024-01-29T09:36:06.886Z</time>
      </trkpt>
      <trkpt lat="43.66076" lon="7.19316">
        <ele>61.816927</ele>
        <time>2024-01-29T09:36:09.900Z</time>
      </trkpt>
      <trkpt lat="43.66067" lon="7.19303">
        <ele>61.667023</ele>
        <time>2024-01-29T09:36:12.913Z</time>
      </trkpt>
      <trkpt lat="43.66059" lon="7.19289">
        <ele>61.509757</ele>
        <time>2024-01-29T09:36:15.906Z</time>
      </trkpt>
      <trkpt lat="43.66053" lon="7.19279">
        <ele>61.398156</ele>
        <time>2024-01-29T09:36:17.917Z</time>
      </trkpt>
      <trkpt lat="43.66046" lon="7.19269">
        <ele>61.279598</ele>
        <time>2024-01-29T09:36:19.924Z</time>
      </trkpt>
      <trkpt lat="43.6604" lon="7.19259">
        <ele>61.163013</ele>
        <time>2024-01-29T09:36:21.907Z</time>
      </trkpt>
      <trkpt lat="43.66034" lon="7.19248">
        <ele>61.045773</ele>
        <time>2024-01-29T09:36:23.902Z</time>
      </trkpt>
      <trkpt lat="43.66027" lon="7.19238">
        <ele>60.922894</ele>
        <time>2024-01-29T09:36:25.905Z</time>
      </trkpt>
      <trkpt lat="43.6602" lon="7.19227">
        <ele>60.79843</ele>
        <time>2024-01-29T09:36:27.908Z</time>
      </trkpt>
      <trkpt lat="43.66013" lon="7.19216">
        <ele>60.672997</ele>
        <time>2024-01-29T09:36:29.902Z</time>
      </trkpt>
      <trkpt lat="43.66007" lon="7.19205">
        <ele>60.551009</ele>
        <time>2024-01-29T09:36:31.907Z</time>
      </trkpt>
      <trkpt lat="43.66" lon="7.19195">
        <ele>60.43247</ele>
        <time>2024-01-29T09:36:33.911Z</time>
      </trkpt>
      <trkpt lat="43.65993" lon="7.19184">
        <ele>60.305582</ele>
        <time>2024-01-29T09:36:35.906Z</time>
      </trkpt>
      <trkpt lat="43.65986" lon="7.19174">
        <ele>60.180316</ele>
        <time>2024-01-29T09:36:37.902Z</time>
      </trkpt>
      <trkpt lat="43.65979" lon="7.19163">
        <ele>60.056647</ele>
        <time>2024-01-29T09:36:39.902Z</time>
      </trkpt>
      <trkpt lat="43.65972" lon="7.19153">
        <ele>59.93311</ele>
        <time>2024-01-29T09:36:41.898Z</time>
      </trkpt>
      <trkpt lat="43.65966" lon="7.19142">
        <ele>59.828974</ele>
        <time>2024-01-29T09:36:43.900Z</time>
      </trkpt>
      <trkpt lat="43.65963" lon="7.1913">
        <ele>59.757727</ele>
        <time>2024-01-29T09:36:45.895Z</time>
      </trkpt>
      <trkpt lat="43.65959" lon="7.19117">
        <ele>59.673883</ele>
        <time>2024-01-29T09:36:47.882Z</time>
      </trkpt>
      <trkpt lat="43.65953" lon="7.19105">
        <ele>59.59557</ele>
        <time>2024-01-29T09:36:49.896Z</time>
      </trkpt>
      <trkpt lat="43.65948" lon="7.19093">
        <ele>59.515942</ele>
        <time>2024-01-29T09:36:51.911Z</time>
      </trkpt>
      <trkpt lat="43.65943" lon="7.19081">
        <ele>59.438342</ele>
        <time>2024-01-29T09:36:53.918Z</time>
      </trkpt>
      <trkpt lat="43.65937" lon="7.19069">
        <ele>59.356951</ele>
        <time>2024-01-29T09:36:55.899Z</time>
      </trkpt>
      <trkpt lat="43.65933" lon="7.19056">
        <ele>59.277192</ele>
        <time>2024-01-29T09:36:57.923Z</time>
      </trkpt>
      <trkpt lat="43.65928" lon="7.19044">
        <ele>59.195482</ele>
        <time>2024-01-29T09:36:59.911Z</time>
      </trkpt>
      <trkpt lat="43.65923" lon="7.19031">
        <ele>59.11214</ele>
        <time>2024-01-29T09:37:01.910Z</time>
      </trkpt>
      <trkpt lat="43.65918" lon="7.19018">
        <ele>59.032664</ele>
        <time>2024-01-29T09:37:03.906Z</time>
      </trkpt>
      <trkpt lat="43.65914" lon="7.19006">
        <ele>58.955288</ele>
        <time>2024-01-29T09:37:05.927Z</time>
      </trkpt>
      <trkpt lat="43.6591" lon="7.18993">
        <ele>58.877912</ele>
        <time>2024-01-29T09:37:07.909Z</time>
      </trkpt>
      <trkpt lat="43.65906" lon="7.18981">
        <ele>58.800669</ele>
        <time>2024-01-29T09:37:09.901Z</time>
      </trkpt>
      <trkpt lat="43.65902" lon="7.18968">
        <ele>58.723297</ele>
        <time>2024-01-29T09:37:11.882Z</time>
      </trkpt>
      <trkpt lat="43.65899" lon="7.18956">
        <ele>58.648896</ele>
        <time>2024-01-29T09:37:13.908Z</time>
      </trkpt>
      <trkpt lat="43.65895" lon="7.18943">
        <ele>58.574201</ele>
        <time>2024-01-29T09:37:15.903Z</time>
      </trkpt>
      <trkpt lat="43.65892" lon="7.18931">
        <ele>58.49687</ele>
        <time>2024-01-29T09:37:17.913Z</time>
      </trkpt>
      <trkpt lat="43.65888" lon="7.18917">
        <ele>58.407994</ele>
        <time>2024-01-29T09:37:19.898Z</time>
      </trkpt>
      <trkpt lat="43.65884" lon="7.18905">
        <ele>58.312048</ele>
        <time>2024-01-29T09:37:21.907Z</time>
      </trkpt>
      <trkpt lat="43.65881" lon="7.1889">
        <ele>58.209038</ele>
        <time>2024-01-29T09:37:23.898Z</time>
      </trkpt>
      <trkpt lat="43.65878" lon="7.18877">
        <ele>58.106947</ele>
        <time>2024-01-29T09:37:25.923Z</time>
      </trkpt>
      <trkpt lat="43.65874" lon="7.18862">
        <ele>58.000231</ele>
        <time>2024-01-29T09:37:27.918Z</time>
      </trkpt>
      <trkpt lat="43.6587" lon="7.18848">
        <ele>57.897146</ele>
        <time>2024-01-29T09:37:29.902Z</time>
      </trkpt>
      <trkpt lat="43.65867" lon="7.18835">
        <ele>57.797216</ele>
        <time>2024-01-29T09:37:31.896Z</time>
      </trkpt>
      <trkpt lat="43.65864" lon="7.1882">
        <ele>57.691847</ele>
        <time>2024-01-29T09:37:33.904Z</time>
      </trkpt>
      <trkpt lat="43.6586" lon="7.18806">
        <ele>57.584769</ele>
        <time>2024-01-29T09:37:35.906Z</time>
      </trkpt>
      <trkpt lat="43.65857" lon="7.18791">
        <ele>57.477047</ele>
        <time>2024-01-29T09:37:37.898Z</time>
      </trkpt>
      <trkpt lat="43.65854" lon="7.18777">
        <ele>57.373962</ele>
        <time>2024-01-29T09:37:39.918Z</time>
      </trkpt>
      <trkpt lat="43.6585" lon="7.18763">
        <ele>57.267908</ele>
        <time>2024-01-29T09:37:41.924Z</time>
      </trkpt>
      <trkpt lat="43.65847" lon="7.18749">
        <ele>57.168112</ele>
        <time>2024-01-29T09:37:43.904Z</time>
      </trkpt>
      <trkpt lat="43.65843" lon="7.18735">
        <ele>57.063688</ele>
        <time>2024-01-29T09:37:45.912Z</time>
      </trkpt>
      <trkpt lat="43.6584" lon="7.18722">
        <ele>56.96357</ele>
        <time>2024-01-29T09:37:47.911Z</time>
      </trkpt>
      <trkpt lat="43.65837" lon="7.18709">
        <ele>56.868971</ele>
        <time>2024-01-29T09:37:49.901Z</time>
      </trkpt>
      <trkpt lat="43.65834" lon="7.18696">
        <ele>56.774105</ele>
        <time>2024-01-29T09:37:51.928Z</time>
      </trkpt>
      <trkpt lat="43.6583" lon="7.18683">
        <ele>56.70531</ele>
        <time>2024-01-29T09:37:53.911Z</time>
      </trkpt>
      <trkpt lat="43.65827" lon="7.18671">
        <ele>56.678385</ele>
        <time>2024-01-29T09:37:55.901Z</time>
      </trkpt>
      <trkpt lat="43.65825" lon="7.18659">
        <ele>56.651534</ele>
        <time>2024-01-29T09:37:57.912Z</time>
      </trkpt>
      <trkpt lat="43.65822" lon="7.18646">
        <ele>56.624116</ele>
        <time>2024-01-29T09:37:59.906Z</time>
      </trkpt>
      <trkpt lat="43.65819" lon="7.18634">
        <ele>56.596066</ele>
        <time>2024-01-29T09:38:01.895Z</time>
      </trkpt>
      <trkpt lat="43.65815" lon="7.18621">
        <ele>56.568447</ele>
        <time>2024-01-29T09:38:03.956Z</time>
      </trkpt>
      <trkpt lat="43.65812" lon="7.18609">
        <ele>56.542014</ele>
        <time>2024-01-29T09:38:05.890Z</time>
      </trkpt>
      <trkpt lat="43.65808" lon="7.18593">
        <ele>56.504436</ele>
        <time>2024-01-29T09:38:08.913Z</time>
      </trkpt>
      <trkpt lat="43.65802" lon="7.18576">
        <ele>56.465636</ele>
        <time>2024-01-29T09:38:11.909Z</time>
      </trkpt>
      <trkpt lat="43.65796" lon="7.1856">
        <ele>56.427592</ele>
        <time>2024-01-29T09:38:14.912Z</time>
      </trkpt>
      <trkpt lat="43.65791" lon="7.18545">
        <ele>56.392576</ele>
        <time>2024-01-29T09:38:17.914Z</time>
      </trkpt>
      <trkpt lat="43.65792" lon="7.18529">
        <ele>56.360586</ele>
        <time>2024-01-29T09:38:20.897Z</time>
      </trkpt>
      <trkpt lat="43.65789" lon="7.18515">
        <ele>56.327926</ele>
        <time>2024-01-29T09:38:23.899Z</time>
      </trkpt>
      <trkpt lat="43.65785" lon="7.185">
        <ele>56.295065</ele>
        <time>2024-01-29T09:38:26.911Z</time>
      </trkpt>
      <trkpt lat="43.65782" lon="7.18485">
        <ele>56.261806</ele>
        <time>2024-01-29T09:38:29.899Z</time>
      </trkpt>
      <trkpt lat="43.65778" lon="7.18469">
        <ele>56.227946</ele>
        <time>2024-01-29T09:38:32.929Z</time>
      </trkpt>
      <trkpt lat="43.65774" lon="7.18452">
        <ele>56.195141</ele>
        <time>2024-01-29T09:38:35.921Z</time>
      </trkpt>
      <trkpt lat="43.6577" lon="7.18435">
        <ele>56.198741</ele>
        <time>2024-01-29T09:38:38.883Z</time>
      </trkpt>
      <trkpt lat="43.65767" lon="7.18424">
        <ele>56.201273</ele>
        <time>2024-01-29T09:38:40.920Z</time>
      </trkpt>
      <trkpt lat="43.65763" lon="7.18406">
        <ele>56.204992</ele>
        <time>2024-01-29T09:38:43.919Z</time>
      </trkpt>
      <trkpt lat="43.65758" lon="7.18389">
        <ele>56.208721</ele>
        <time>2024-01-29T09:38:46.912Z</time>
      </trkpt>
      <trkpt lat="43.65754" lon="7.18372">
        <ele>56.212384</ele>
        <time>2024-01-29T09:38:49.918Z</time>
      </trkpt>
      <trkpt lat="43.6575" lon="7.18354">
        <ele>56.216075</ele>
        <time>2024-01-29T09:38:52.919Z</time>
      </trkpt>
      <trkpt lat="43.65745" lon="7.18337">
        <ele>56.219776</ele>
        <time>2024-01-29T09:38:55.922Z</time>
      </trkpt>
      <trkpt lat="43.65741" lon="7.1832">
        <ele>56.223485</ele>
        <time>2024-01-29T09:38:58.912Z</time>
      </trkpt>
      <trkpt lat="43.65738" lon="7.18308">
        <ele>56.226055</ele>
        <time>2024-01-29T09:39:00.912Z</time>
      </trkpt>
      <trkpt lat="43.65734" lon="7.18291">
        <ele>56.229662</ele>
        <time>2024-01-29T09:39:03.903Z</time>
      </trkpt>
      <trkpt lat="43.65731" lon="7.18279">
        <ele>56.232246</ele>
        <time>2024-01-29T09:39:05.904Z</time>
      </trkpt>
      <trkpt lat="43.65729" lon="7.18267">
        <ele>56.234778</ele>
        <time>2024-01-29T09:39:07.905Z</time>
      </trkpt>
      <trkpt lat="43.65725" lon="7.1825">
        <ele>56.238424</ele>
        <time>2024-01-29T09:39:10.909Z</time>
      </trkpt>
      <trkpt lat="43.65721" lon="7.18238">
        <ele>56.240984</ele>
        <time>2024-01-29T09:39:12.915Z</time>
      </trkpt>
      <trkpt lat="43.65718" lon="7.18225">
        <ele>56.24361</ele>
        <time>2024-01-29T09:39:14.918Z</time>
      </trkpt>
      <trkpt lat="43.65716" lon="7.18213">
        <ele>56.245806</ele>
        <time>2024-01-29T09:39:16.919Z</time>
      </trkpt>
      <trkpt lat="43.65711" lon="7.18195">
        <ele>56.248335</ele>
        <time>2024-01-29T09:39:19.900Z</time>
      </trkpt>
      <trkpt lat="43.65708" lon="7.18178">
        <ele>56.250791</ele>
        <time>2024-01-29T09:39:22.889Z</time>
      </trkpt>
      <trkpt lat="43.65704" lon="7.18161">
        <ele>56.253231</ele>
        <time>2024-01-29T09:39:25.915Z</time>
      </trkpt>
      <trkpt lat="43.65699" lon="7.18144">
        <ele>56.255721</ele>
        <time>2024-01-29T09:39:28.904Z</time>
      </trkpt>
      <trkpt lat="43.65696" lon="7.18132">
        <ele>56.257411</ele>
        <time>2024-01-29T09:39:30.901Z</time>
      </trkpt>
      <trkpt lat="43.65692" lon="7.18115">
        <ele>56.259835</ele>
        <time>2024-01-29T09:39:33.905Z</time>
      </trkpt>
      <trkpt lat="43.65688" lon="7.18099">
        <ele>56.262122</ele>
        <time>2024-01-29T09:39:36.908Z</time>
      </trkpt>
      <trkpt lat="43.65685" lon="7.18081">
        <ele>56.264557</ele>
        <time>2024-01-29T09:39:39.915Z</time>
      </trkpt>
      <trkpt lat="43.65681" lon="7.18064">
        <ele>56.266972</ele>
        <time>2024-01-29T09:39:42.897Z</time>
      </trkpt>
      <trkpt lat="43.65678" lon="7.18052">
        <ele>56.268681</ele>
        <time>2024-01-29T09:39:44.907Z</time>
      </trkpt>
      <trkpt lat="43.65675" lon="7.18036">
        <ele>56.270983</ele>
        <time>2024-01-29T09:39:47.917Z</time>
      </trkpt>
      <trkpt lat="43.65672" lon="7.18018">
        <ele>56.273396</ele>
        <time>2024-01-29T09:39:50.898Z</time>
      </trkpt>
      <trkpt lat="43.65669" lon="7.18002">
        <ele>56.275686</ele>
        <time>2024-01-29T09:39:53.905Z</time>
      </trkpt>
      <trkpt lat="43.65667" lon="7.17986">
        <ele>56.277919</ele>
        <time>2024-01-29T09:39:56.915Z</time>
      </trkpt>
      <trkpt lat="43.65665" lon="7.17972">
        <ele>56.195158</ele>
        <time>2024-01-29T09:39:59.912Z</time>
      </trkpt>
      <trkpt lat="43.65659" lon="7.17963">
        <ele>56.068204</ele>
        <time>2024-01-29T09:40:10.890Z</time>
      </trkpt>
      <trkpt lat="43.65658" lon="7.17947">
        <ele>55.905535</ele>
        <time>2024-01-29T09:40:14.894Z</time>
      </trkpt>
      <trkpt lat="43.65657" lon="7.17933">
        <ele>55.760842</ele>
        <time>2024-01-29T09:40:17.914Z</time>
      </trkpt>
      <trkpt lat="43.65657" lon="7.17917">
        <ele>55.600734</ele>
        <time>2024-01-29T09:40:20.913Z</time>
      </trkpt>
      <trkpt lat="43.65656" lon="7.179">
        <ele>55.430909</ele>
        <time>2024-01-29T09:40:23.903Z</time>
      </trkpt>
      <trkpt lat="43.65654" lon="7.17883">
        <ele>55.259262</ele>
        <time>2024-01-29T09:40:26.925Z</time>
      </trkpt>
      <trkpt lat="43.65652" lon="7.17867">
        <ele>55.086697</ele>
        <time>2024-01-29T09:40:29.890Z</time>
      </trkpt>
      <trkpt lat="43.65651" lon="7.1785">
        <ele>54.913053</ele>
        <time>2024-01-29T09:40:32.926Z</time>
      </trkpt>
      <trkpt lat="43.65649" lon="7.17834">
        <ele>54.750863</ele>
        <time>2024-01-29T09:40:35.910Z</time>
      </trkpt>
      <trkpt lat="43.65649" lon="7.17817">
        <ele>54.578592</ele>
        <time>2024-01-29T09:40:38.889Z</time>
      </trkpt>
      <trkpt lat="43.65644" lon="7.17801">
        <ele>54.39982</ele>
        <time>2024-01-29T09:40:41.900Z</time>
      </trkpt>
      <trkpt lat="43.65643" lon="7.17785">
        <ele>54.240924</ele>
        <time>2024-01-29T09:40:44.920Z</time>
      </trkpt>
      <trkpt lat="43.65643" lon="7.17769">
        <ele>54.07879</ele>
        <time>2024-01-29T09:40:47.912Z</time>
      </trkpt>
      <trkpt lat="43.65641" lon="7.17751">
        <ele>53.898629</ele>
        <time>2024-01-29T09:40:50.918Z</time>
      </trkpt>
      <trkpt lat="43.6564" lon="7.17734">
        <ele>53.759225</ele>
        <time>2024-01-29T09:40:53.909Z</time>
      </trkpt>
      <trkpt lat="43.65638" lon="7.17717">
        <ele>53.808821</ele>
        <time>2024-01-29T09:40:56.888Z</time>
      </trkpt>
      <trkpt lat="43.65637" lon="7.17701">
        <ele>53.854418</ele>
        <time>2024-01-29T09:40:59.885Z</time>
      </trkpt>
      <trkpt lat="43.65637" lon="7.17685">
        <ele>53.900476</ele>
        <time>2024-01-29T09:41:02.896Z</time>
      </trkpt>
      <trkpt lat="43.65638" lon="7.17669">
        <ele>53.947853</ele>
        <time>2024-01-29T09:41:05.886Z</time>
      </trkpt>
      <trkpt lat="43.65636" lon="7.1765">
        <ele>54.000899</ele>
        <time>2024-01-29T09:41:08.895Z</time>
      </trkpt>
      <trkpt lat="43.65635" lon="7.17633">
        <ele>54.048885</ele>
        <time>2024-01-29T09:41:11.929Z</time>
      </trkpt>
      <trkpt lat="43.65635" lon="7.17616">
        <ele>54.098026</ele>
        <time>2024-01-29T09:41:14.909Z</time>
      </trkpt>
      <trkpt lat="43.65635" lon="7.17601">
        <ele>54.142023</ele>
        <time>2024-01-29T09:41:17.928Z</time>
      </trkpt>
      <trkpt lat="43.65634" lon="7.17588">
        <ele>54.179049</ele>
        <time>2024-01-29T09:41:22.899Z</time>
      </trkpt>
      <trkpt lat="43.65637" lon="7.17577">
        <ele>54.214908</ele>
        <time>2024-01-29T09:55:44.899Z</time>
      </trkpt>
      <trkpt lat="43.6564" lon="7.17561">
        <ele>54.259915</ele>
        <time>2024-01-29T09:55:49.896Z</time>
      </trkpt>
      <trkpt lat="43.65641" lon="7.17547">
        <ele>54.300147</ele>
        <time>2024-01-29T09:55:53.922Z</time>
      </trkpt>
      <trkpt lat="43.65643" lon="7.17533">
        <ele>54.341052</ele>
        <time>2024-01-29T09:55:57.922Z</time>
      </trkpt>
      <trkpt lat="43.65644" lon="7.17518">
        <ele>54.38488</ele>
        <time>2024-01-29T09:56:01.923Z</time>
      </trkpt>
      <trkpt lat="43.65646" lon="7.17503">
        <ele>54.428455</ele>
        <time>2024-01-29T09:56:05.907Z</time>
      </trkpt>
      <trkpt lat="43.65648" lon="7.17489">
        <ele>54.494367</ele>
        <time>2024-01-29T09:56:09.928Z</time>
      </trkpt>
      <trkpt lat="43.65651" lon="7.17475">
        <ele>54.655034</ele>
        <time>2024-01-29T09:56:13.914Z</time>
      </trkpt>
      <trkpt lat="43.65653" lon="7.1746">
        <ele>54.819341</ele>
        <time>2024-01-29T09:56:17.920Z</time>
      </trkpt>
      <trkpt lat="43.65654" lon="7.17447">
        <ele>54.965001</ele>
        <time>2024-01-29T09:56:21.895Z</time>
      </trkpt>
      <trkpt lat="43.65657" lon="7.17434">
        <ele>55.116575</ele>
        <time>2024-01-29T09:56:25.903Z</time>
      </trkpt>
      <trkpt lat="43.65662" lon="7.17421">
        <ele>55.274469</ele>
        <time>2024-01-29T09:56:29.900Z</time>
      </trkpt>
      <trkpt lat="43.65666" lon="7.17409">
        <ele>55.427019</ele>
        <time>2024-01-29T09:56:33.910Z</time>
      </trkpt>
      <trkpt lat="43.6567" lon="7.17395">
        <ele>55.593408</ele>
        <time>2024-01-29T09:56:37.904Z</time>
      </trkpt>
      <trkpt lat="43.65674" lon="7.17383">
        <ele>55.745958</ele>
        <time>2024-01-29T09:56:41.905Z</time>
      </trkpt>
      <trkpt lat="43.65677" lon="7.17369">
        <ele>55.902431</ele>
        <time>2024-01-29T09:56:45.902Z</time>
      </trkpt>
      <trkpt lat="43.6568" lon="7.17356">
        <ele>56.056449</ele>
        <time>2024-01-29T09:56:49.899Z</time>
      </trkpt>
      <trkpt lat="43.65684" lon="7.17344">
        <ele>56.204441</ele>
        <time>2024-01-29T09:56:53.906Z</time>
      </trkpt>
      <trkpt lat="43.65689" lon="7.17332">
        <ele>56.353785</ele>
        <time>2024-01-29T09:56:57.895Z</time>
      </trkpt>
      <trkpt lat="43.65693" lon="7.1732">
        <ele>56.509135</ele>
        <time>2024-01-29T09:57:01.912Z</time>
      </trkpt>
      <trkpt lat="43.65697" lon="7.17307">
        <ele>56.664697</ele>
        <time>2024-01-29T09:57:05.915Z</time>
      </trkpt>
      <trkpt lat="43.65702" lon="7.17296">
        <ele>56.810627</ele>
        <time>2024-01-29T09:57:09.880Z</time>
      </trkpt>
      <trkpt lat="43.65706" lon="7.17283">
        <ele>56.970191</ele>
        <time>2024-01-29T09:57:13.919Z</time>
      </trkpt>
      <trkpt lat="43.65711" lon="7.17269">
        <ele>57.138625</ele>
        <time>2024-01-29T09:57:17.928Z</time>
      </trkpt>
      <trkpt lat="43.65716" lon="7.17256">
        <ele>57.214427</ele>
        <time>2024-01-29T09:57:21.911Z</time>
      </trkpt>
      <trkpt lat="43.65721" lon="7.17243">
        <ele>57.171878</ele>
        <time>2024-01-29T09:57:25.907Z</time>
      </trkpt>
      <trkpt lat="43.65725" lon="7.1723">
        <ele>57.129506</ele>
        <time>2024-01-29T09:57:29.901Z</time>
      </trkpt>
      <trkpt lat="43.6573" lon="7.17217">
        <ele>57.087309</ele>
        <time>2024-01-29T09:57:33.929Z</time>
      </trkpt>
      <trkpt lat="43.65734" lon="7.17203">
        <ele>57.04407</ele>
        <time>2024-01-29T09:57:37.908Z</time>
      </trkpt>
      <trkpt lat="43.65739" lon="7.1719">
        <ele>57.00023</ele>
        <time>2024-01-29T09:57:41.907Z</time>
      </trkpt>
      <trkpt lat="43.65743" lon="7.17176">
        <ele>56.958171</ele>
        <time>2024-01-29T09:57:45.917Z</time>
      </trkpt>
      <trkpt lat="43.65748" lon="7.17163">
        <ele>56.915193</ele>
        <time>2024-01-29T09:57:49.901Z</time>
      </trkpt>
      <trkpt lat="43.65752" lon="7.17148">
        <ele>56.869404</ele>
        <time>2024-01-29T09:57:53.880Z</time>
      </trkpt>
      <trkpt lat="43.65755" lon="7.17134">
        <ele>56.828488</ele>
        <time>2024-01-29T09:57:57.910Z</time>
      </trkpt>
      <trkpt lat="43.65759" lon="7.1712">
        <ele>56.784474</ele>
        <time>2024-01-29T09:58:01.905Z</time>
      </trkpt>
      <trkpt lat="43.65762" lon="7.17105">
        <ele>56.738819</ele>
        <time>2024-01-29T09:58:05.917Z</time>
      </trkpt>
      <trkpt lat="43.65764" lon="7.1709">
        <ele>56.695664</ele>
        <time>2024-01-29T09:58:09.921Z</time>
      </trkpt>
      <trkpt lat="43.65766" lon="7.17075">
        <ele>56.652374</ele>
        <time>2024-01-29T09:58:13.917Z</time>
      </trkpt>
      <trkpt lat="43.65768" lon="7.17061">
        <ele>56.611704</ele>
        <time>2024-01-29T09:58:17.920Z</time>
      </trkpt>
      <trkpt lat="43.6577" lon="7.17047">
        <ele>56.568625</ele>
        <time>2024-01-29T09:58:21.921Z</time>
      </trkpt>
      <trkpt lat="43.65771" lon="7.17032">
        <ele>56.525973</ele>
        <time>2024-01-29T09:58:25.924Z</time>
      </trkpt>
      <trkpt lat="43.65772" lon="7.17017">
        <ele>56.445803</ele>
        <time>2024-01-29T09:58:29.899Z</time>
      </trkpt>
      <trkpt lat="43.65774" lon="7.17002">
        <ele>56.352744</ele>
        <time>2024-01-29T09:58:33.903Z</time>
      </trkpt>
      <trkpt lat="43.65774" lon="7.16987">
        <ele>56.25824</ele>
        <time>2024-01-29T09:58:37.906Z</time>
      </trkpt>
      <trkpt lat="43.65775" lon="7.16972">
        <ele>56.164278</ele>
        <time>2024-01-29T09:58:41.908Z</time>
      </trkpt>
      <trkpt lat="43.65775" lon="7.16957">
        <ele>56.069645</ele>
        <time>2024-01-29T09:58:45.899Z</time>
      </trkpt>
      <trkpt lat="43.65774" lon="7.16941">
        <ele>55.972877</ele>
        <time>2024-01-29T09:58:49.908Z</time>
      </trkpt>
      <trkpt lat="43.65774" lon="7.16926">
        <ele>55.880921</ele>
        <time>2024-01-29T09:58:53.896Z</time>
      </trkpt>
      <trkpt lat="43.65773" lon="7.16912">
        <ele>55.787862</ele>
        <time>2024-01-29T09:58:57.910Z</time>
      </trkpt>
      <trkpt lat="43.65773" lon="7.16897">
        <ele>55.697766</ele>
        <time>2024-01-29T09:59:01.911Z</time>
      </trkpt>
      <trkpt lat="43.65772" lon="7.16881">
        <ele>55.59984</ele>
        <time>2024-01-29T09:59:05.888Z</time>
      </trkpt>
      <trkpt lat="43.65773" lon="7.16867">
        <ele>55.509025</ele>
        <time>2024-01-29T09:59:09.887Z</time>
      </trkpt>
      <trkpt lat="43.65771" lon="7.16854">
        <ele>55.425565</ele>
        <time>2024-01-29T09:59:13.924Z</time>
      </trkpt>
      <trkpt lat="43.65769" lon="7.16839">
        <ele>55.334058</ele>
        <time>2024-01-29T09:59:17.916Z</time>
      </trkpt>
      <trkpt lat="43.6577" lon="7.16825">
        <ele>55.244484</ele>
        <time>2024-01-29T09:59:21.899Z</time>
      </trkpt>
      <trkpt lat="43.65769" lon="7.1681">
        <ele>55.150512</ele>
        <time>2024-01-29T09:59:25.889Z</time>
      </trkpt>
      <trkpt lat="43.65766" lon="7.16794">
        <ele>55.053467</ele>
        <time>2024-01-29T09:59:29.899Z</time>
      </trkpt>
      <trkpt lat="43.65762" lon="7.1678">
        <ele>54.978718</ele>
        <time>2024-01-29T09:59:33.918Z</time>
      </trkpt>
      <trkpt lat="43.6576" lon="7.16764">
        <ele>55.0347</ele>
        <time>2024-01-29T09:59:37.910Z</time>
      </trkpt>
      <trkpt lat="43.65757" lon="7.16749">
        <ele>55.089537</ele>
        <time>2024-01-29T09:59:41.920Z</time>
      </trkpt>
      <trkpt lat="43.65756" lon="7.16733">
        <ele>55.145804</ele>
        <time>2024-01-29T09:59:45.906Z</time>
      </trkpt>
      <trkpt lat="43.65753" lon="7.16718">
        <ele>55.202429</ele>
        <time>2024-01-29T09:59:49.902Z</time>
      </trkpt>
      <trkpt lat="43.65749" lon="7.16703">
        <ele>55.257812</ele>
        <time>2024-01-29T09:59:53.920Z</time>
      </trkpt>
      <trkpt lat="43.65745" lon="7.16688">
        <ele>55.311858</ele>
        <time>2024-01-29T09:59:57.907Z</time>
      </trkpt>
      <trkpt lat="43.65743" lon="7.16674">
        <ele>55.364987</ele>
        <time>2024-01-29T10:00:01.907Z</time>
      </trkpt>
      <trkpt lat="43.65741" lon="7.16658">
        <ele>55.419983</ele>
        <time>2024-01-29T10:00:05.924Z</time>
      </trkpt>
      <trkpt lat="43.65737" lon="7.16644">
        <ele>55.473929</ele>
        <time>2024-01-29T10:00:09.909Z</time>
      </trkpt>
      <trkpt lat="43.65733" lon="7.1663">
        <ele>55.526646</ele>
        <time>2024-01-29T10:00:13.924Z</time>
      </trkpt>
      <trkpt lat="43.65729" lon="7.16615">
        <ele>55.582509</ele>
        <time>2024-01-29T10:00:17.919Z</time>
      </trkpt>
      <trkpt lat="43.65724" lon="7.16601">
        <ele>55.637294</ele>
        <time>2024-01-29T10:00:21.922Z</time>
      </trkpt>
      <trkpt lat="43.6572" lon="7.16587">
        <ele>55.692469</ele>
        <time>2024-01-29T10:00:25.902Z</time>
      </trkpt>
      <trkpt lat="43.65714" lon="7.16574">
        <ele>55.746801</ele>
        <time>2024-01-29T10:00:29.898Z</time>
      </trkpt>
      <trkpt lat="43.65709" lon="7.16559">
        <ele>55.802703</ele>
        <time>2024-01-29T10:00:33.913Z</time>
      </trkpt>
      <trkpt lat="43.65706" lon="7.16545">
        <ele>55.847945</ele>
        <time>2024-01-29T10:00:37.902Z</time>
      </trkpt>
      <trkpt lat="43.65701" lon="7.16531">
        <ele>55.852128</ele>
        <time>2024-01-29T10:00:41.902Z</time>
      </trkpt>
      <trkpt lat="43.65695" lon="7.16517">
        <ele>55.856475</ele>
        <time>2024-01-29T10:00:45.916Z</time>
      </trkpt>
      <trkpt lat="43.6569" lon="7.16503">
        <ele>55.860698</ele>
        <time>2024-01-29T10:00:49.900Z</time>
      </trkpt>
      <trkpt lat="43.65685" lon="7.16492">
        <ele>55.864114</ele>
        <time>2024-01-29T10:00:52.908Z</time>
      </trkpt>
      <trkpt lat="43.65682" lon="7.1648">
        <ele>55.867656</ele>
        <time>2024-01-29T10:00:55.903Z</time>
      </trkpt>
      <trkpt lat="43.65677" lon="7.16468">
        <ele>55.871221</ele>
        <time>2024-01-29T10:00:58.919Z</time>
      </trkpt>
      <trkpt lat="43.65673" lon="7.16457">
        <ele>55.874609</ele>
        <time>2024-01-29T10:01:01.899Z</time>
      </trkpt>
      <trkpt lat="43.6567" lon="7.16442">
        <ele>55.878841</ele>
        <time>2024-01-29T10:01:05.919Z</time>
      </trkpt>
      <trkpt lat="43.65665" lon="7.16427">
        <ele>55.883341</ele>
        <time>2024-01-29T10:01:09.917Z</time>
      </trkpt>
      <trkpt lat="43.65661" lon="7.16416">
        <ele>55.886729</ele>
        <time>2024-01-29T10:01:12.890Z</time>
      </trkpt>
      <trkpt lat="43.65655" lon="7.16402">
        <ele>55.890977</ele>
        <time>2024-01-29T10:01:16.896Z</time>
      </trkpt>
      <trkpt lat="43.65651" lon="7.16388">
        <ele>55.895103</ele>
        <time>2024-01-29T10:01:20.906Z</time>
      </trkpt>
      <trkpt lat="43.65646" lon="7.16377">
        <ele>55.898556</ele>
        <time>2024-01-29T10:01:23.906Z</time>
      </trkpt>
      <trkpt lat="43.65643" lon="7.16365">
        <ele>55.901996</ele>
        <time>2024-01-29T10:01:26.891Z</time>
      </trkpt>
      <trkpt lat="43.6564" lon="7.16353">
        <ele>55.905473</ele>
        <time>2024-01-29T10:01:29.905Z</time>
      </trkpt>
      <trkpt lat="43.65635" lon="7.16342">
        <ele>55.908931</ele>
        <time>2024-01-29T10:01:32.898Z</time>
      </trkpt>
      <trkpt lat="43.65629" lon="7.16327">
        <ele>55.913411</ele>
        <time>2024-01-29T10:01:36.891Z</time>
      </trkpt>
      <trkpt lat="43.65625" lon="7.16316">
        <ele>55.917905</ele>
        <time>2024-01-29T10:01:39.891Z</time>
      </trkpt>
      <trkpt lat="43.65622" lon="7.16301">
        <ele>55.924253</ele>
        <time>2024-01-29T10:01:43.899Z</time>
      </trkpt>
      <trkpt lat="43.65618" lon="7.16289">
        <ele>55.929312</ele>
        <time>2024-01-29T10:01:46.879Z</time>
      </trkpt>
      <trkpt lat="43.65614" lon="7.16276">
        <ele>55.93454</ele>
        <time>2024-01-29T10:01:49.917Z</time>
      </trkpt>
      <trkpt lat="43.65609" lon="7.16266">
        <ele>55.939583</ele>
        <time>2024-01-29T10:01:52.911Z</time>
      </trkpt>
      <trkpt lat="43.65605" lon="7.16254">
        <ele>55.944553</ele>
        <time>2024-01-29T10:01:55.883Z</time>
      </trkpt>
      <trkpt lat="43.656" lon="7.1624">
        <ele>55.950849</ele>
        <time>2024-01-29T10:01:59.912Z</time>
      </trkpt>
      <trkpt lat="43.65596" lon="7.16225">
        <ele>55.957218</ele>
        <time>2024-01-29T10:02:03.916Z</time>
      </trkpt>
      <trkpt lat="43.6559" lon="7.16211">
        <ele>55.963287</ele>
        <time>2024-01-29T10:02:07.910Z</time>
      </trkpt>
      <trkpt lat="43.65584" lon="7.16197">
        <ele>55.969763</ele>
        <time>2024-01-29T10:02:11.912Z</time>
      </trkpt>
      <trkpt lat="43.65578" lon="7.16183">
        <ele>55.976108</ele>
        <time>2024-01-29T10:02:15.903Z</time>
      </trkpt>
      <trkpt lat="43.65574" lon="7.16172">
        <ele>55.98103</ele>
        <time>2024-01-29T10:02:18.887Z</time>
      </trkpt>
      <trkpt lat="43.65569" lon="7.16157">
        <ele>55.987188</ele>
        <time>2024-01-29T10:02:22.901Z</time>
      </trkpt>
      <trkpt lat="43.65564" lon="7.16144">
        <ele>55.993326</ele>
        <time>2024-01-29T10:02:26.908Z</time>
      </trkpt>
      <trkpt lat="43.65557" lon="7.16131">
        <ele>55.999575</ele>
        <time>2024-01-29T10:02:30.903Z</time>
      </trkpt>
      <trkpt lat="43.65553" lon="7.16116">
        <ele>56.005758</ele>
        <time>2024-01-29T10:02:34.892Z</time>
      </trkpt>
      <trkpt lat="43.65548" lon="7.16102">
        <ele>56.011262</ele>
        <time>2024-01-29T10:02:38.885Z</time>
      </trkpt>
      <trkpt lat="43.65542" lon="7.16088">
        <ele>56.006885</ele>
        <time>2024-01-29T10:02:42.903Z</time>
      </trkpt>
      <trkpt lat="43.65536" lon="7.16074">
        <ele>56.002376</ele>
        <time>2024-01-29T10:02:46.914Z</time>
      </trkpt>
      <trkpt lat="43.6553" lon="7.1606">
        <ele>55.997908</ele>
        <time>2024-01-29T10:02:50.899Z</time>
      </trkpt>
      <trkpt lat="43.65526" lon="7.16049">
        <ele>55.994421</ele>
        <time>2024-01-29T10:02:53.919Z</time>
      </trkpt>
      <trkpt lat="43.65522" lon="7.16034">
        <ele>55.989941</ele>
        <time>2024-01-29T10:02:57.890Z</time>
      </trkpt>
      <trkpt lat="43.65517" lon="7.16019">
        <ele>55.985363</ele>
        <time>2024-01-29T10:03:01.888Z</time>
      </trkpt>
      <trkpt lat="43.65511" lon="7.16009">
        <ele>55.98183</ele>
        <time>2024-01-29T10:03:04.919Z</time>
      </trkpt>
      <trkpt lat="43.65506" lon="7.15995">
        <ele>55.977391</ele>
        <time>2024-01-29T10:03:08.900Z</time>
      </trkpt>
      <trkpt lat="43.65502" lon="7.15979">
        <ele>55.972859</ele>
        <time>2024-01-29T10:03:12.894Z</time>
      </trkpt>
      <trkpt lat="43.65496" lon="7.15966">
        <ele>55.968482</ele>
        <time>2024-01-29T10:03:16.905Z</time>
      </trkpt>
      <trkpt lat="43.65491" lon="7.15951">
        <ele>55.964087</ele>
        <time>2024-01-29T10:03:20.883Z</time>
      </trkpt>
      <trkpt lat="43.65484" lon="7.15939">
        <ele>55.959605</ele>
        <time>2024-01-29T10:03:24.903Z</time>
      </trkpt>
      <trkpt lat="43.65479" lon="7.15924">
        <ele>55.955064</ele>
        <time>2024-01-29T10:03:28.890Z</time>
      </trkpt>
      <trkpt lat="43.65475" lon="7.15913">
        <ele>55.951519</ele>
        <time>2024-01-29T10:03:31.907Z</time>
      </trkpt>
      <trkpt lat="43.6547" lon="7.15898">
        <ele>55.947019</ele>
        <time>2024-01-29T10:03:35.924Z</time>
      </trkpt>
      <trkpt lat="43.65465" lon="7.15884">
        <ele>55.942637</ele>
        <time>2024-01-29T10:03:39.913Z</time>
      </trkpt>
      <trkpt lat="43.65458" lon="7.15871">
        <ele>55.992793</ele>
        <time>2024-01-29T10:03:43.903Z</time>
      </trkpt>
      <trkpt lat="43.65454" lon="7.15857">
        <ele>56.045792</ele>
        <time>2024-01-29T10:03:47.902Z</time>
      </trkpt>
      <trkpt lat="43.6545" lon="7.15843">
        <ele>56.095883</ele>
        <time>2024-01-29T10:03:51.913Z</time>
      </trkpt>
      <trkpt lat="43.65445" lon="7.1583">
        <ele>56.148779</ele>
        <time>2024-01-29T10:03:55.917Z</time>
      </trkpt>
      <trkpt lat="43.65438" lon="7.15817">
        <ele>56.203169</ele>
        <time>2024-01-29T10:03:59.877Z</time>
      </trkpt>
      <trkpt lat="43.65431" lon="7.15805">
        <ele>56.253443</ele>
        <time>2024-01-29T10:04:03.903Z</time>
      </trkpt>
      <trkpt lat="43.65426" lon="7.1579">
        <ele>56.308011</ele>
        <time>2024-01-29T10:04:07.896Z</time>
      </trkpt>
      <trkpt lat="43.65421" lon="7.15776">
        <ele>56.362025</ele>
        <time>2024-01-29T10:04:11.914Z</time>
      </trkpt>
      <trkpt lat="43.65413" lon="7.15765">
        <ele>56.414018</ele>
        <time>2024-01-29T10:04:15.910Z</time>
      </trkpt>
      <trkpt lat="43.65407" lon="7.15753">
        <ele>56.465939</ele>
        <time>2024-01-29T10:04:19.912Z</time>
      </trkpt>
      <trkpt lat="43.65402" lon="7.15739">
        <ele>56.518178</ele>
        <time>2024-01-29T10:04:23.899Z</time>
      </trkpt>
      <trkpt lat="43.65396" lon="7.15725">
        <ele>56.572645</ele>
        <time>2024-01-29T10:04:27.897Z</time>
      </trkpt>
      <trkpt lat="43.65389" lon="7.15714">
        <ele>56.623134</ele>
        <time>2024-01-29T10:04:31.908Z</time>
      </trkpt>
      <trkpt lat="43.65382" lon="7.15702">
        <ele>56.674796</ele>
        <time>2024-01-29T10:04:35.901Z</time>
      </trkpt>
      <trkpt lat="43.65377" lon="7.15687">
        <ele>56.728853</ele>
        <time>2024-01-29T10:04:39.910Z</time>
      </trkpt>
      <trkpt lat="43.6537" lon="7.15674">
        <ele>56.782699</ele>
        <time>2024-01-29T10:04:43.904Z</time>
      </trkpt>
      <trkpt lat="43.65363" lon="7.15662">
        <ele>56.836811</ele>
        <time>2024-01-29T10:04:47.902Z</time>
      </trkpt>
      <trkpt lat="43.65356" lon="7.15651">
        <ele>56.888378</ele>
        <time>2024-01-29T10:04:51.910Z</time>
      </trkpt>
      <trkpt lat="43.6535" lon="7.15638">
        <ele>56.940329</ele>
        <time>2024-01-29T10:04:55.891Z</time>
      </trkpt>
      <trkpt lat="43.65344" lon="7.15625">
        <ele>56.992729</ele>
        <time>2024-01-29T10:04:59.892Z</time>
      </trkpt>
      <trkpt lat="43.65336" lon="7.15613">
        <ele>57.046966</ele>
        <time>2024-01-29T10:05:03.913Z</time>
      </trkpt>
      <trkpt lat="43.65329" lon="7.15601">
        <ele>57.099922</ele>
        <time>2024-01-29T10:05:07.903Z</time>
      </trkpt>
      <trkpt lat="43.65321" lon="7.15589">
        <ele>57.15421</ele>
        <time>2024-01-29T10:05:11.902Z</time>
      </trkpt>
      <trkpt lat="43.65316" lon="7.15577">
        <ele>57.203505</ele>
        <time>2024-01-29T10:05:15.913Z</time>
      </trkpt>
      <trkpt lat="43.6531" lon="7.15565">
        <ele>57.252647</ele>
        <time>2024-01-29T10:05:19.892Z</time>
      </trkpt>
      <trkpt lat="43.65302" lon="7.15554">
        <ele>57.304748</ele>
        <time>2024-01-29T10:05:23.892Z</time>
      </trkpt>
      <trkpt lat="43.65294" lon="7.15545">
        <ele>57.35495</ele>
        <time>2024-01-29T10:05:27.888Z</time>
      </trkpt>
      <trkpt lat="43.65286" lon="7.15534">
        <ele>57.404766</ele>
        <time>2024-01-29T10:05:31.898Z</time>
      </trkpt>
      <trkpt lat="43.65281" lon="7.15521">
        <ele>57.457337</ele>
        <time>2024-01-29T10:05:35.909Z</time>
      </trkpt>
      <trkpt lat="43.65273" lon="7.15509">
        <ele>57.510861</ele>
        <time>2024-01-29T10:05:39.881Z</time>
      </trkpt>
      <trkpt lat="43.65265" lon="7.15497">
        <ele>57.565521</ele>
        <time>2024-01-29T10:05:43.895Z</time>
      </trkpt>
      <trkpt lat="43.65257" lon="7.15486">
        <ele>57.619179</ele>
        <time>2024-01-29T10:05:47.913Z</time>
      </trkpt>
      <trkpt lat="43.65249" lon="7.15476">
        <ele>57.606709</ele>
        <time>2024-01-29T10:05:51.912Z</time>
      </trkpt>
      <trkpt lat="43.65242" lon="7.15466">
        <ele>57.580067</ele>
        <time>2024-01-29T10:05:54.889Z</time>
      </trkpt>
      <trkpt lat="43.65237" lon="7.15456">
        <ele>57.554487</ele>
        <time>2024-01-29T10:05:57.914Z</time>
      </trkpt>
      <trkpt lat="43.65229" lon="7.15443">
        <ele>57.520399</ele>
        <time>2024-01-29T10:06:01.894Z</time>
      </trkpt>
      <trkpt lat="43.65222" lon="7.15434">
        <ele>57.494105</ele>
        <time>2024-01-29T10:06:04.915Z</time>
      </trkpt>
      <trkpt lat="43.65215" lon="7.15426">
        <ele>57.466836</ele>
        <time>2024-01-29T10:06:07.892Z</time>
      </trkpt>
      <trkpt lat="43.65208" lon="7.15417">
        <ele>57.439642</ele>
        <time>2024-01-29T10:06:10.919Z</time>
      </trkpt>
      <trkpt lat="43.65201" lon="7.15408">
        <ele>57.413965</ele>
        <time>2024-01-29T10:06:13.922Z</time>
      </trkpt>
      <trkpt lat="43.65195" lon="7.15398">
        <ele>57.386493</ele>
        <time>2024-01-29T10:06:16.888Z</time>
      </trkpt>
      <trkpt lat="43.65188" lon="7.15388">
        <ele>57.359903</ele>
        <time>2024-01-29T10:06:19.904Z</time>
      </trkpt>
      <trkpt lat="43.65182" lon="7.15379">
        <ele>57.333658</ele>
        <time>2024-01-29T10:06:22.896Z</time>
      </trkpt>
      <trkpt lat="43.65175" lon="7.15371">
        <ele>57.307903</ele>
        <time>2024-01-29T10:06:25.909Z</time>
      </trkpt>
      <trkpt lat="43.65166" lon="7.1536">
        <ele>57.274482</ele>
        <time>2024-01-29T10:06:29.898Z</time>
      </trkpt>
      <trkpt lat="43.65159" lon="7.15347">
        <ele>57.241142</ele>
        <time>2024-01-29T10:06:33.884Z</time>
      </trkpt>
      <trkpt lat="43.6515" lon="7.15337">
        <ele>57.208774</ele>
        <time>2024-01-29T10:06:37.892Z</time>
      </trkpt>
      <trkpt lat="43.65142" lon="7.15327">
        <ele>57.177958</ele>
        <time>2024-01-29T10:06:41.905Z</time>
      </trkpt>
      <trkpt lat="43.65134" lon="7.15317">
        <ele>57.148344</ele>
        <time>2024-01-29T10:06:45.872Z</time>
      </trkpt>
      <trkpt lat="43.65126" lon="7.15306">
        <ele>57.114955</ele>
        <time>2024-01-29T10:06:49.901Z</time>
      </trkpt>
      <trkpt lat="43.65119" lon="7.15294">
        <ele>57.078101</ele>
        <time>2024-01-29T10:06:53.900Z</time>
      </trkpt>
      <trkpt lat="43.65111" lon="7.15284">
        <ele>57.042257</ele>
        <time>2024-01-29T10:06:57.901Z</time>
      </trkpt>
      <trkpt lat="43.65101" lon="7.15274">
        <ele>57.005486</ele>
        <time>2024-01-29T10:07:01.907Z</time>
      </trkpt>
      <trkpt lat="43.65093" lon="7.15265">
        <ele>56.970197</ele>
        <time>2024-01-29T10:07:05.910Z</time>
      </trkpt>
      <trkpt lat="43.65084" lon="7.15255">
        <ele>56.934177</ele>
        <time>2024-01-29T10:07:09.911Z</time>
      </trkpt>
      <trkpt lat="43.65077" lon="7.15245">
        <ele>56.898366</ele>
        <time>2024-01-29T10:07:13.914Z</time>
      </trkpt>
      <trkpt lat="43.65069" lon="7.15234">
        <ele>56.862723</ele>
        <time>2024-01-29T10:07:17.887Z</time>
      </trkpt>
      <trkpt lat="43.65061" lon="7.15223">
        <ele>56.827579</ele>
        <time>2024-01-29T10:07:21.981Z</time>
      </trkpt>
      <trkpt lat="43.65053" lon="7.15213">
        <ele>56.79227</ele>
        <time>2024-01-29T10:07:25.907Z</time>
      </trkpt>
      <trkpt lat="43.65046" lon="7.15201">
        <ele>56.755739</ele>
        <time>2024-01-29T10:07:29.888Z</time>
      </trkpt>
      <trkpt lat="43.65037" lon="7.15191">
        <ele>56.718324</ele>
        <time>2024-01-29T10:07:33.892Z</time>
      </trkpt>
      <trkpt lat="43.65029" lon="7.1518">
        <ele>56.679771</ele>
        <time>2024-01-29T10:07:37.913Z</time>
      </trkpt>
      <trkpt lat="43.65021" lon="7.15169">
        <ele>56.644462</ele>
        <time>2024-01-29T10:07:41.898Z</time>
      </trkpt>
      <trkpt lat="43.65013" lon="7.15159">
        <ele>56.608377</ele>
        <time>2024-01-29T10:07:45.913Z</time>
      </trkpt>
      <trkpt lat="43.65004" lon="7.15148">
        <ele>56.572058</ele>
        <time>2024-01-29T10:07:49.880Z</time>
      </trkpt>
      <trkpt lat="43.64997" lon="7.15137">
        <ele>56.533171</ele>
        <time>2024-01-29T10:07:53.887Z</time>
      </trkpt>
      <trkpt lat="43.64988" lon="7.15126">
        <ele>56.47641</ele>
        <time>2024-01-29T10:07:57.896Z</time>
      </trkpt>
      <trkpt lat="43.6498" lon="7.15115">
        <ele>56.422966</ele>
        <time>2024-01-29T10:08:01.917Z</time>
      </trkpt>
      <trkpt lat="43.64972" lon="7.15104">
        <ele>56.367499</ele>
        <time>2024-01-29T10:08:05.897Z</time>
      </trkpt>
      <trkpt lat="43.64965" lon="7.15093">
        <ele>56.312922</ele>
        <time>2024-01-29T10:08:09.898Z</time>
      </trkpt>
      <trkpt lat="43.64957" lon="7.15082">
        <ele>56.258535</ele>
        <time>2024-01-29T10:08:13.905Z</time>
      </trkpt>
      <trkpt lat="43.64948" lon="7.15072">
        <ele>56.202788</ele>
        <time>2024-01-29T10:08:17.918Z</time>
      </trkpt>
      <trkpt lat="43.6494" lon="7.15062">
        <ele>56.149939</ele>
        <time>2024-01-29T10:08:21.903Z</time>
      </trkpt>
      <trkpt lat="43.64931" lon="7.15052">
        <ele>56.095015</ele>
        <time>2024-01-29T10:08:25.906Z</time>
      </trkpt>
      <trkpt lat="43.64922" lon="7.15041">
        <ele>56.038444</ele>
        <time>2024-01-29T10:08:29.905Z</time>
      </trkpt>
      <trkpt lat="43.64914" lon="7.1503">
        <ele>55.984438</ele>
        <time>2024-01-29T10:08:33.925Z</time>
      </trkpt>
      <trkpt lat="43.64906" lon="7.1502">
        <ele>55.931845</ele>
        <time>2024-01-29T10:08:37.902Z</time>
      </trkpt>
      <trkpt lat="43.64897" lon="7.15011">
        <ele>55.875891</ele>
        <time>2024-01-29T10:08:41.906Z</time>
      </trkpt>
      <trkpt lat="43.64889" lon="7.15001">
        <ele>55.822307</ele>
        <time>2024-01-29T10:08:45.915Z</time>
      </trkpt>
      <trkpt lat="43.6488" lon="7.14991">
        <ele>55.769457</ele>
        <time>2024-01-29T10:08:49.917Z</time>
      </trkpt>
      <trkpt lat="43.64874" lon="7.14983">
        <ele>55.725883</ele>
        <time>2024-01-29T10:08:52.903Z</time>
      </trkpt>
      <trkpt lat="43.64867" lon="7.14975">
        <ele>55.681713</ele>
        <time>2024-01-29T10:08:55.907Z</time>
      </trkpt>
      <trkpt lat="43.64859" lon="7.14967">
        <ele>55.660706</ele>
        <time>2024-01-29T10:08:58.904Z</time>
      </trkpt>
      <trkpt lat="43.6485" lon="7.14957">
        <ele>55.647015</ele>
        <time>2024-01-29T10:09:02.907Z</time>
      </trkpt>
      <trkpt lat="43.64843" lon="7.14949">
        <ele>55.636417</ele>
        <time>2024-01-29T10:09:05.922Z</time>
      </trkpt>
      <trkpt lat="43.64833" lon="7.1494">
        <ele>55.622557</ele>
        <time>2024-01-29T10:09:09.913Z</time>
      </trkpt>
      <trkpt lat="43.64825" lon="7.14933">
        <ele>55.611812</ele>
        <time>2024-01-29T10:09:12.876Z</time>
      </trkpt>
      <trkpt lat="43.64818" lon="7.14925">
        <ele>55.600945</ele>
        <time>2024-01-29T10:09:15.924Z</time>
      </trkpt>
      <trkpt lat="43.64809" lon="7.14914">
        <ele>55.587227</ele>
        <time>2024-01-29T10:09:19.903Z</time>
      </trkpt>
      <trkpt lat="43.648" lon="7.14903">
        <ele>55.573589</ele>
        <time>2024-01-29T10:09:23.913Z</time>
      </trkpt>
      <trkpt lat="43.64793" lon="7.14895">
        <ele>55.562578</ele>
        <time>2024-01-29T10:09:26.897Z</time>
      </trkpt>
      <trkpt lat="43.64786" lon="7.14888">
        <ele>55.551978</ele>
        <time>2024-01-29T10:09:29.902Z</time>
      </trkpt>
      <trkpt lat="43.64778" lon="7.14881">
        <ele>55.541377</ele>
        <time>2024-01-29T10:09:32.908Z</time>
      </trkpt>
      <trkpt lat="43.6477" lon="7.14873">
        <ele>55.530389</ele>
        <time>2024-01-29T10:09:35.918Z</time>
      </trkpt>
      <trkpt lat="43.64763" lon="7.14865">
        <ele>55.519263</ele>
        <time>2024-01-29T10:09:38.897Z</time>
      </trkpt>
      <trkpt lat="43.64755" lon="7.14858">
        <ele>55.508367</ele>
        <time>2024-01-29T10:09:41.919Z</time>
      </trkpt>
      <trkpt lat="43.64747" lon="7.1485">
        <ele>55.497528</ele>
        <time>2024-01-29T10:09:44.919Z</time>
      </trkpt>
      <trkpt lat="43.64738" lon="7.14841">
        <ele>55.483952</ele>
        <time>2024-01-29T10:09:48.909Z</time>
      </trkpt>
      <trkpt lat="43.64728" lon="7.14832">
        <ele>55.470671</ele>
        <time>2024-01-29T10:09:52.895Z</time>
      </trkpt>
      <trkpt lat="43.64719" lon="7.14824">
        <ele>55.456139</ele>
        <time>2024-01-29T10:09:56.900Z</time>
      </trkpt>
      <trkpt lat="43.64709" lon="7.14815">
        <ele>55.426489</ele>
        <time>2024-01-29T10:10:00.889Z</time>
      </trkpt>
      <trkpt lat="43.647" lon="7.14805">
        <ele>55.396584</ele>
        <time>2024-01-29T10:10:04.898Z</time>
      </trkpt>
      <trkpt lat="43.64691" lon="7.14796">
        <ele>55.367383</ele>
        <time>2024-01-29T10:10:08.894Z</time>
      </trkpt>
      <trkpt lat="43.64681" lon="7.14787">
        <ele>55.338712</ele>
        <time>2024-01-29T10:10:12.884Z</time>
      </trkpt>
      <trkpt lat="43.64672" lon="7.14778">
        <ele>55.310365</ele>
        <time>2024-01-29T10:10:16.911Z</time>
      </trkpt>
      <trkpt lat="43.64663" lon="7.1477">
        <ele>55.282424</ele>
        <time>2024-01-29T10:10:20.901Z</time>
      </trkpt>
      <trkpt lat="43.64654" lon="7.14762">
        <ele>55.255022</ele>
        <time>2024-01-29T10:10:24.897Z</time>
      </trkpt>
      <trkpt lat="43.64646" lon="7.14754">
        <ele>55.228248</ele>
        <time>2024-01-29T10:10:28.901Z</time>
      </trkpt>
      <trkpt lat="43.64637" lon="7.14745">
        <ele>55.200937</ele>
        <time>2024-01-29T10:10:32.899Z</time>
      </trkpt>
      <trkpt lat="43.64628" lon="7.14737">
        <ele>55.173848</ele>
        <time>2024-01-29T10:10:36.919Z</time>
      </trkpt>
      <trkpt lat="43.64618" lon="7.14729">
        <ele>55.145167</ele>
        <time>2024-01-29T10:10:40.897Z</time>
      </trkpt>
      <trkpt lat="43.64609" lon="7.14721">
        <ele>55.117653</ele>
        <time>2024-01-29T10:10:44.910Z</time>
      </trkpt>
      <trkpt lat="43.64601" lon="7.14712">
        <ele>55.089601</ele>
        <time>2024-01-29T10:10:48.897Z</time>
      </trkpt>
      <trkpt lat="43.64591" lon="7.14702">
        <ele>55.060509</ele>
        <time>2024-01-29T10:10:52.898Z</time>
      </trkpt>
      <trkpt lat="43.64583" lon="7.14695">
        <ele>55.03468</ele>
        <time>2024-01-29T10:10:56.913Z</time>
      </trkpt>
      <trkpt lat="43.64575" lon="7.14686">
        <ele>55.008009</ele>
        <time>2024-01-29T10:11:00.877Z</time>
      </trkpt>
      <trkpt lat="43.64565" lon="7.14679">
        <ele>55.022097</ele>
        <time>2024-01-29T10:11:04.888Z</time>
      </trkpt>
      <trkpt lat="43.64557" lon="7.14671">
        <ele>55.052591</ele>
        <time>2024-01-29T10:11:08.928Z</time>
      </trkpt>
      <trkpt lat="43.64549" lon="7.14662">
        <ele>55.082824</ele>
        <time>2024-01-29T10:11:12.883Z</time>
      </trkpt>
      <trkpt lat="43.64541" lon="7.14654">
        <ele>55.113203</ele>
        <time>2024-01-29T10:11:16.906Z</time>
      </trkpt>
      <trkpt lat="43.64532" lon="7.14645">
        <ele>55.144786</ele>
        <time>2024-01-29T10:11:20.899Z</time>
      </trkpt>
      <trkpt lat="43.64523" lon="7.14637">
        <ele>55.176008</ele>
        <time>2024-01-29T10:11:24.897Z</time>
      </trkpt>
      <trkpt lat="43.64514" lon="7.14629">
        <ele>55.207244</ele>
        <time>2024-01-29T10:11:28.916Z</time>
      </trkpt>
      <trkpt lat="43.64505" lon="7.14622">
        <ele>55.237274</ele>
        <time>2024-01-29T10:11:32.894Z</time>
      </trkpt>
      <trkpt lat="43.64497" lon="7.14614">
        <ele>55.267693</ele>
        <time>2024-01-29T10:11:36.904Z</time>
      </trkpt>
      <trkpt lat="43.64487" lon="7.14607">
        <ele>55.299947</ele>
        <time>2024-01-29T10:11:40.926Z</time>
      </trkpt>
      <trkpt lat="43.64478" lon="7.14599">
        <ele>55.333236</ele>
        <time>2024-01-29T10:11:44.920Z</time>
      </trkpt>
      <trkpt lat="43.64469" lon="7.1459">
        <ele>55.365312</ele>
        <time>2024-01-29T10:11:48.917Z</time>
      </trkpt>
      <trkpt lat="43.6446" lon="7.14581">
        <ele>55.39837</ele>
        <time>2024-01-29T10:11:52.887Z</time>
      </trkpt>
      <trkpt lat="43.6445" lon="7.14572">
        <ele>55.431559</ele>
        <time>2024-01-29T10:11:56.896Z</time>
      </trkpt>
      <trkpt lat="43.64441" lon="7.14563">
        <ele>55.465473</ele>
        <time>2024-01-29T10:12:00.890Z</time>
      </trkpt>
      <trkpt lat="43.64432" lon="7.14554">
        <ele>55.499491</ele>
        <time>2024-01-29T10:12:04.900Z</time>
      </trkpt>
      <trkpt lat="43.64422" lon="7.14544">
        <ele>55.533522</ele>
        <time>2024-01-29T10:12:08.898Z</time>
      </trkpt>
      <trkpt lat="43.64413" lon="7.14534">
        <ele>55.563746</ele>
        <time>2024-01-29T10:12:12.898Z</time>
      </trkpt>
      <trkpt lat="43.64405" lon="7.14524">
        <ele>55.593277</ele>
        <time>2024-01-29T10:12:16.909Z</time>
      </trkpt>
      <trkpt lat="43.64397" lon="7.14515">
        <ele>55.621666</ele>
        <time>2024-01-29T10:12:20.906Z</time>
      </trkpt>
      <trkpt lat="43.64388" lon="7.14505">
        <ele>55.650871</ele>
        <time>2024-01-29T10:12:24.898Z</time>
      </trkpt>
      <trkpt lat="43.6438" lon="7.14496">
        <ele>55.678873</ele>
        <time>2024-01-29T10:12:28.900Z</time>
      </trkpt>
      <trkpt lat="43.64372" lon="7.14487">
        <ele>55.707057</ele>
        <time>2024-01-29T10:12:32.907Z</time>
      </trkpt>
      <trkpt lat="43.64363" lon="7.14479">
        <ele>55.735263</ele>
        <time>2024-01-29T10:12:36.892Z</time>
      </trkpt>
      <trkpt lat="43.64354" lon="7.14471">
        <ele>55.763195</ele>
        <time>2024-01-29T10:12:40.905Z</time>
      </trkpt>
      <trkpt lat="43.64345" lon="7.14461">
        <ele>55.792451</ele>
        <time>2024-01-29T10:12:44.881Z</time>
      </trkpt>
      <trkpt lat="43.64337" lon="7.14453">
        <ele>55.82001</ele>
        <time>2024-01-29T10:12:48.882Z</time>
      </trkpt>
      <trkpt lat="43.64329" lon="7.14443">
        <ele>55.848441</ele>
        <time>2024-01-29T10:12:52.894Z</time>
      </trkpt>
      <trkpt lat="43.64321" lon="7.14433">
        <ele>55.876525</ele>
        <time>2024-01-29T10:12:56.907Z</time>
      </trkpt>
      <trkpt lat="43.64312" lon="7.14423">
        <ele>55.906306</ele>
        <time>2024-01-29T10:13:00.925Z</time>
      </trkpt>
      <trkpt lat="43.64304" lon="7.14413">
        <ele>55.936664</ele>
        <time>2024-01-29T10:13:04.909Z</time>
      </trkpt>
      <trkpt lat="43.64295" lon="7.14403">
        <ele>55.96695</ele>
        <time>2024-01-29T10:13:08.897Z</time>
      </trkpt>
      <trkpt lat="43.64286" lon="7.14392">
        <ele>55.998158</ele>
        <time>2024-01-29T10:13:12.918Z</time>
      </trkpt>
      <trkpt lat="43.64277" lon="7.14381">
        <ele>56.019447</ele>
        <time>2024-01-29T10:13:16.896Z</time>
      </trkpt>
      <trkpt lat="43.64269" lon="7.14373">
        <ele>56.033173</ele>
        <time>2024-01-29T10:13:19.919Z</time>
      </trkpt>
      <trkpt lat="43.64261" lon="7.14364">
        <ele>56.048479</ele>
        <time>2024-01-29T10:13:22.896Z</time>
      </trkpt>
      <trkpt lat="43.64253" lon="7.14355">
        <ele>56.063585</ele>
        <time>2024-01-29T10:13:25.895Z</time>
      </trkpt>
      <trkpt lat="43.64245" lon="7.14344">
        <ele>56.080163</ele>
        <time>2024-01-29T10:13:28.893Z</time>
      </trkpt>
      <trkpt lat="43.64236" lon="7.14334">
        <ele>56.095961</ele>
        <time>2024-01-29T10:13:31.906Z</time>
      </trkpt>
      <trkpt lat="43.64228" lon="7.14324">
        <ele>56.112321</ele>
        <time>2024-01-29T10:13:34.902Z</time>
      </trkpt>
      <trkpt lat="43.64219" lon="7.14315">
        <ele>56.127916</ele>
        <time>2024-01-29T10:13:37.899Z</time>
      </trkpt>
      <trkpt lat="43.64212" lon="7.14306">
        <ele>56.142666</ele>
        <time>2024-01-29T10:13:40.896Z</time>
      </trkpt>
      <trkpt lat="43.64204" lon="7.14296">
        <ele>56.157603</ele>
        <time>2024-01-29T10:13:43.907Z</time>
      </trkpt>
      <trkpt lat="43.64196" lon="7.14287">
        <ele>56.172063</ele>
        <time>2024-01-29T10:13:46.909Z</time>
      </trkpt>
      <trkpt lat="43.64189" lon="7.14278">
        <ele>56.186328</ele>
        <time>2024-01-29T10:13:49.902Z</time>
      </trkpt>
      <trkpt lat="43.64181" lon="7.1427">
        <ele>56.200589</ele>
        <time>2024-01-29T10:13:52.918Z</time>
      </trkpt>
      <trkpt lat="43.64173" lon="7.14261">
        <ele>56.215256</ele>
        <time>2024-01-29T10:13:55.902Z</time>
      </trkpt>
      <trkpt lat="43.64166" lon="7.14253">
        <ele>56.229138</ele>
        <time>2024-01-29T10:13:58.894Z</time>
      </trkpt>
      <trkpt lat="43.64158" lon="7.14244">
        <ele>56.24293</ele>
        <time>2024-01-29T10:14:01.896Z</time>
      </trkpt>
      <trkpt lat="43.6415" lon="7.14233">
        <ele>56.260101</ele>
        <time>2024-01-29T10:14:05.903Z</time>
      </trkpt>
      <trkpt lat="43.64141" lon="7.14223">
        <ele>56.238822</ele>
        <time>2024-01-29T10:14:09.897Z</time>
      </trkpt>
      <trkpt lat="43.64134" lon="7.14214">
        <ele>56.200782</ele>
        <time>2024-01-29T10:14:12.912Z</time>
      </trkpt>
      <trkpt lat="43.64127" lon="7.14205">
        <ele>56.16285</ele>
        <time>2024-01-29T10:14:15.911Z</time>
      </trkpt>
      <trkpt lat="43.64118" lon="7.14195">
        <ele>56.116653</ele>
        <time>2024-01-29T10:14:19.920Z</time>
      </trkpt>
      <trkpt lat="43.6411" lon="7.14186">
        <ele>56.073232</ele>
        <time>2024-01-29T10:14:23.910Z</time>
      </trkpt>
      <trkpt lat="43.64103" lon="7.14175">
        <ele>56.030943</ele>
        <time>2024-01-29T10:14:27.897Z</time>
      </trkpt>
      <trkpt lat="43.64096" lon="7.14162">
        <ele>55.98367</ele>
        <time>2024-01-29T10:14:31.904Z</time>
      </trkpt>
      <trkpt lat="43.64091" lon="7.14151">
        <ele>55.944502</ele>
        <time>2024-01-29T10:14:34.890Z</time>
      </trkpt>
      <trkpt lat="43.64085" lon="7.14141">
        <ele>55.90436</ele>
        <time>2024-01-29T10:14:37.900Z</time>
      </trkpt>
      <trkpt lat="43.64079" lon="7.1413">
        <ele>55.865681</ele>
        <time>2024-01-29T10:14:40.898Z</time>
      </trkpt>
      <trkpt lat="43.64072" lon="7.14118">
        <ele>55.817384</ele>
        <time>2024-01-29T10:14:44.891Z</time>
      </trkpt>
      <trkpt lat="43.64064" lon="7.14105">
        <ele>55.768796</ele>
        <time>2024-01-29T10:14:48.899Z</time>
      </trkpt>
      <trkpt lat="43.64057" lon="7.14093">
        <ele>55.721704</ele>
        <time>2024-01-29T10:14:52.903Z</time>
      </trkpt>
      <trkpt lat="43.64051" lon="7.1408">
        <ele>55.675606</ele>
        <time>2024-01-29T10:14:56.918Z</time>
      </trkpt>
      <trkpt lat="43.64044" lon="7.14067">
        <ele>55.629771</ele>
        <time>2024-01-29T10:15:00.903Z</time>
      </trkpt>
      <trkpt lat="43.64038" lon="7.14054">
        <ele>55.584125</ele>
        <time>2024-01-29T10:15:04.895Z</time>
      </trkpt>
      <trkpt lat="43.64031" lon="7.14043">
        <ele>55.539714</ele>
        <time>2024-01-29T10:15:08.902Z</time>
      </trkpt>
      <trkpt lat="43.64026" lon="7.14032">
        <ele>55.527933</ele>
        <time>2024-01-29T10:15:12.916Z</time>
      </trkpt>
      <trkpt lat="43.64018" lon="7.14022">
        <ele>55.523539</ele>
        <time>2024-01-29T10:15:17.878Z</time>
      </trkpt>
      <trkpt lat="43.6401" lon="7.14009">
        <ele>55.518259</ele>
        <time>2024-01-29T10:15:46.899Z</time>
      </trkpt>
      <trkpt lat="43.64007" lon="7.13996">
        <ele>55.514096</ele>
        <time>2024-01-29T10:15:50.899Z</time>
      </trkpt>
      <trkpt lat="43.64002" lon="7.13983">
        <ele>55.50963</ele>
        <time>2024-01-29T10:15:54.905Z</time>
      </trkpt>
      <trkpt lat="43.63996" lon="7.1397">
        <ele>55.504797</ele>
        <time>2024-01-29T10:15:58.902Z</time>
      </trkpt>
      <trkpt lat="43.63989" lon="7.13956">
        <ele>55.499826</ele>
        <time>2024-01-29T10:16:02.913Z</time>
      </trkpt>
      <trkpt lat="43.63982" lon="7.13944">
        <ele>55.495102</ele>
        <time>2024-01-29T10:16:06.883Z</time>
      </trkpt>
      <trkpt lat="43.63977" lon="7.1393">
        <ele>55.490252</ele>
        <time>2024-01-29T10:16:10.902Z</time>
      </trkpt>
      <trkpt lat="43.63971" lon="7.13916">
        <ele>55.485295</ele>
        <time>2024-01-29T10:16:14.900Z</time>
      </trkpt>
      <trkpt lat="43.63964" lon="7.13903">
        <ele>55.480422</ele>
        <time>2024-01-29T10:16:18.892Z</time>
      </trkpt>
      <trkpt lat="43.63958" lon="7.13893">
        <ele>55.476578</ele>
        <time>2024-01-29T10:16:21.976Z</time>
      </trkpt>
      <trkpt lat="43.63953" lon="7.13883">
        <ele>55.47267</ele>
        <time>2024-01-29T10:16:24.893Z</time>
      </trkpt>
      <trkpt lat="43.63947" lon="7.13871">
        <ele>55.468317</ele>
        <time>2024-01-29T10:16:28.909Z</time>
      </trkpt>
      <trkpt lat="43.6394" lon="7.1386">
        <ele>55.463869</ele>
        <time>2024-01-29T10:16:40.900Z</time>
      </trkpt>
      <trkpt lat="43.63932" lon="7.13849">
        <ele>55.459217</ele>
        <time>2024-01-29T10:16:44.913Z</time>
      </trkpt>
      <trkpt lat="43.63927" lon="7.13839">
        <ele>55.455429</ele>
        <time>2024-01-29T10:16:47.913Z</time>
      </trkpt>
      <trkpt lat="43.63921" lon="7.1383">
        <ele>55.643816</ele>
        <time>2024-01-29T10:16:50.906Z</time>
      </trkpt>
      <trkpt lat="43.63913" lon="7.13817">
        <ele>55.894599</ele>
        <time>2024-01-29T10:16:54.899Z</time>
      </trkpt>
      <trkpt lat="43.63906" lon="7.13805">
        <ele>56.14299</ele>
        <time>2024-01-29T10:16:58.886Z</time>
      </trkpt>
      <trkpt lat="43.63899" lon="7.13792">
        <ele>56.38339</ele>
        <time>2024-01-29T10:17:02.902Z</time>
      </trkpt>
      <trkpt lat="43.63893" lon="7.13779">
        <ele>56.624135</ele>
        <time>2024-01-29T10:17:06.909Z</time>
      </trkpt>
      <trkpt lat="43.63887" lon="7.13766">
        <ele>56.867337</ele>
        <time>2024-01-29T10:17:10.910Z</time>
      </trkpt>
      <trkpt lat="43.63881" lon="7.13752">
        <ele>57.116249</ele>
        <time>2024-01-29T10:17:14.892Z</time>
      </trkpt>
      <trkpt lat="43.63875" lon="7.13738">
        <ele>57.365805</ele>
        <time>2024-01-29T10:17:18.914Z</time>
      </trkpt>
      <trkpt lat="43.63869" lon="7.13725">
        <ele>57.611607</ele>
        <time>2024-01-29T10:17:22.914Z</time>
      </trkpt>
      <trkpt lat="43.63863" lon="7.13712">
        <ele>57.848598</ele>
        <time>2024-01-29T10:17:26.909Z</time>
      </trkpt>
      <trkpt lat="43.63857" lon="7.13699">
        <ele>58.080535</ele>
        <time>2024-01-29T10:17:30.902Z</time>
      </trkpt>
      <trkpt lat="43.63852" lon="7.13687">
        <ele>58.296943</ele>
        <time>2024-01-29T10:17:34.916Z</time>
      </trkpt>
      <trkpt lat="43.63846" lon="7.13675">
        <ele>58.511268</ele>
        <time>2024-01-29T10:17:38.901Z</time>
      </trkpt>
      <trkpt lat="43.63842" lon="7.13663">
        <ele>58.728261</ele>
        <time>2024-01-29T10:17:42.914Z</time>
      </trkpt>
      <trkpt lat="43.63836" lon="7.13651">
        <ele>58.943099</ele>
        <time>2024-01-29T10:17:46.905Z</time>
      </trkpt>
      <trkpt lat="43.63831" lon="7.1364">
        <ele>59.143854</ele>
        <time>2024-01-29T10:17:50.906Z</time>
      </trkpt>
      <trkpt lat="43.63827" lon="7.13629">
        <ele>59.291299</ele>
        <time>2024-01-29T10:17:54.910Z</time>
      </trkpt>
      <trkpt lat="43.63821" lon="7.13616">
        <ele>59.267074</ele>
        <time>2024-01-29T10:17:59.918Z</time>
      </trkpt>
      <trkpt lat="43.63817" lon="7.13605">
        <ele>59.246771</ele>
        <time>2024-01-29T10:18:03.906Z</time>
      </trkpt>
      <trkpt lat="43.63811" lon="7.13595">
        <ele>59.226594</ele>
        <time>2024-01-29T10:18:07.907Z</time>
      </trkpt>
      <trkpt lat="43.63805" lon="7.13583">
        <ele>59.202771</ele>
        <time>2024-01-29T10:18:12.911Z</time>
      </trkpt>
      <trkpt lat="43.63799" lon="7.13574">
        <ele>59.182603</ele>
        <time>2024-01-29T10:18:16.905Z</time>
      </trkpt>
      <trkpt lat="43.63792" lon="7.13565">
        <ele>59.162286</ele>
        <time>2024-01-29T10:18:20.885Z</time>
      </trkpt>
      <trkpt lat="43.63784" lon="7.13554">
        <ele>59.137787</ele>
        <time>2024-01-29T10:18:25.901Z</time>
      </trkpt>
      <trkpt lat="43.63776" lon="7.13547">
        <ele>59.116139</ele>
        <time>2024-01-29T10:18:29.913Z</time>
      </trkpt>
      <trkpt lat="43.63768" lon="7.13539">
        <ele>59.094126</ele>
        <time>2024-01-29T10:18:33.920Z</time>
      </trkpt>
      <trkpt lat="43.63759" lon="7.1353">
        <ele>59.069733</ele>
        <time>2024-01-29T10:18:37.901Z</time>
      </trkpt>
      <trkpt lat="43.6375" lon="7.13522">
        <ele>59.045248</ele>
        <time>2024-01-29T10:18:41.887Z</time>
      </trkpt>
      <trkpt lat="43.63739" lon="7.13516">
        <ele>59.020039</ele>
        <time>2024-01-29T10:18:45.908Z</time>
      </trkpt>
      <trkpt lat="43.63731" lon="7.1351">
        <ele>58.999118</ele>
        <time>2024-01-29T10:18:48.892Z</time>
      </trkpt>
      <trkpt lat="43.63721" lon="7.13505">
        <ele>58.976189</ele>
        <time>2024-01-29T10:18:51.912Z</time>
      </trkpt>
      <trkpt lat="43.6371" lon="7.13501">
        <ele>58.950637</ele>
        <time>2024-01-29T10:18:54.900Z</time>
      </trkpt>
      <trkpt lat="43.63697" lon="7.13497">
        <ele>58.921351</ele>
        <time>2024-01-29T10:18:57.900Z</time>
      </trkpt>
      <trkpt lat="43.63687" lon="7.13496">
        <ele>58.899441</ele>
        <time>2024-01-29T10:18:59.898Z</time>
      </trkpt>
      <trkpt lat="43.63677" lon="7.13495">
        <ele>58.755328</ele>
        <time>2024-01-29T10:19:01.924Z</time>
      </trkpt>
      <trkpt lat="43.63666" lon="7.13494">
        <ele>58.590658</ele>
        <time>2024-01-29T10:19:03.889Z</time>
      </trkpt>
      <trkpt lat="43.63655" lon="7.13494">
        <ele>58.424478</ele>
        <time>2024-01-29T10:19:05.909Z</time>
      </trkpt>
      <trkpt lat="43.63644" lon="7.13495">
        <ele>58.250504</ele>
        <time>2024-01-29T10:19:07.908Z</time>
      </trkpt>
      <trkpt lat="43.63633" lon="7.13496">
        <ele>58.078137</ele>
        <time>2024-01-29T10:19:09.912Z</time>
      </trkpt>
      <trkpt lat="43.63621" lon="7.13497">
        <ele>57.906102</ele>
        <time>2024-01-29T10:19:11.909Z</time>
      </trkpt>
      <trkpt lat="43.6361" lon="7.13499">
        <ele>57.731405</ele>
        <time>2024-01-29T10:19:13.920Z</time>
      </trkpt>
      <trkpt lat="43.636" lon="7.13504">
        <ele>57.571079</ele>
        <time>2024-01-29T10:19:15.909Z</time>
      </trkpt>
      <trkpt lat="43.6359" lon="7.13508">
        <ele>57.415287</ele>
        <time>2024-01-29T10:19:17.910Z</time>
      </trkpt>
      <trkpt lat="43.6358" lon="7.13509">
        <ele>57.263866</ele>
        <time>2024-01-29T10:19:19.889Z</time>
      </trkpt>
      <trkpt lat="43.63571" lon="7.13509">
        <ele>57.117439</ele>
        <time>2024-01-29T10:19:21.904Z</time>
      </trkpt>
      <trkpt lat="43.63561" lon="7.13509">
        <ele>56.975546</ele>
        <time>2024-01-29T10:19:23.907Z</time>
      </trkpt>
      <trkpt lat="43.63548" lon="7.1351">
        <ele>56.773865</ele>
        <time>2024-01-29T10:19:26.901Z</time>
      </trkpt>
      <trkpt lat="43.63536" lon="7.1351">
        <ele>56.584804</ele>
        <time>2024-01-29T10:19:29.910Z</time>
      </trkpt>
      <trkpt lat="43.63524" lon="7.1351">
        <ele>56.406427</ele>
        <time>2024-01-29T10:19:32.906Z</time>
      </trkpt>
      <trkpt lat="43.63513" lon="7.13511">
        <ele>56.238632</ele>
        <time>2024-01-29T10:19:35.908Z</time>
      </trkpt>
      <trkpt lat="43.63503" lon="7.13511">
        <ele>56.147384</ele>
        <time>2024-01-29T10:19:38.907Z</time>
      </trkpt>
      <trkpt lat="43.63491" lon="7.13512">
        <ele>56.128153</ele>
        <time>2024-01-29T10:19:42.900Z</time>
      </trkpt>
      <trkpt lat="43.63482" lon="7.13512">
        <ele>56.113529</ele>
        <time>2024-01-29T10:19:45.907Z</time>
      </trkpt>
      <trkpt lat="43.6347" lon="7.13513">
        <ele>56.095225</ele>
        <time>2024-01-29T10:19:49.888Z</time>
      </trkpt>
      <trkpt lat="43.63461" lon="7.13512">
        <ele>56.080243</ele>
        <time>2024-01-29T10:19:52.900Z</time>
      </trkpt>
      <trkpt lat="43.63451" lon="7.13512">
        <ele>56.065304</ele>
        <time>2024-01-29T10:19:55.918Z</time>
      </trkpt>
      <trkpt lat="43.6344" lon="7.13512">
        <ele>56.046708</ele>
        <time>2024-01-29T10:19:59.907Z</time>
      </trkpt>
      <trkpt lat="43.63429" lon="7.13512">
        <ele>56.028907</ele>
        <time>2024-01-29T10:20:03.904Z</time>
      </trkpt>
      <trkpt lat="43.63417" lon="7.13513">
        <ele>56.010785</ele>
        <time>2024-01-29T10:20:07.899Z</time>
      </trkpt>
      <trkpt lat="43.63406" lon="7.13513">
        <ele>55.993763</ele>
        <time>2024-01-29T10:20:11.910Z</time>
      </trkpt>
      <trkpt lat="43.63396" lon="7.13514">
        <ele>55.97675</ele>
        <time>2024-01-29T10:20:15.928Z</time>
      </trkpt>
      <trkpt lat="43.63385" lon="7.13514">
        <ele>55.959425</ele>
        <time>2024-01-29T10:20:19.897Z</time>
      </trkpt>
      <trkpt lat="43.63374" lon="7.13516">
        <ele>55.942638</ele>
        <time>2024-01-29T10:20:23.909Z</time>
      </trkpt>
      <trkpt lat="43.63363" lon="7.13515">
        <ele>55.925104</ele>
        <time>2024-01-29T10:20:27.905Z</time>
      </trkpt>
      <trkpt lat="43.63353" lon="7.13516">
        <ele>55.908361</ele>
        <time>2024-01-29T10:20:31.905Z</time>
      </trkpt>
      <trkpt lat="43.63343" lon="7.13516">
        <ele>55.892309</ele>
        <time>2024-01-29T10:20:35.898Z</time>
      </trkpt>
      <trkpt lat="43.63332" lon="7.13517">
        <ele>55.875388</ele>
        <time>2024-01-29T10:20:39.899Z</time>
      </trkpt>
      <trkpt lat="43.63321" lon="7.13516">
        <ele>55.903808</ele>
        <time>2024-01-29T10:20:43.907Z</time>
      </trkpt>
      <trkpt lat="43.63312" lon="7.13514">
        <ele>55.947061</ele>
        <time>2024-01-29T10:20:46.895Z</time>
      </trkpt>
      <trkpt lat="43.63301" lon="7.13514">
        <ele>55.997837</ele>
        <time>2024-01-29T10:20:50.881Z</time>
      </trkpt>
      <trkpt lat="43.63291" lon="7.13518">
        <ele>56.04678</ele>
        <time>2024-01-29T10:20:54.889Z</time>
      </trkpt>
      <trkpt lat="43.63281" lon="7.13515">
        <ele>56.097863</ele>
        <time>2024-01-29T10:20:58.894Z</time>
      </trkpt>
      <trkpt lat="43.6327" lon="7.13514">
        <ele>56.148969</ele>
        <time>2024-01-29T10:21:01.909Z</time>
      </trkpt>
      <trkpt lat="43.63258" lon="7.13513">
        <ele>56.204165</ele>
        <time>2024-01-29T10:21:05.909Z</time>
      </trkpt>
      <trkpt lat="43.63249" lon="7.13511">
        <ele>56.247509</ele>
        <time>2024-01-29T10:21:08.905Z</time>
      </trkpt>
      <trkpt lat="43.63237" lon="7.13512">
        <ele>56.303983</ele>
        <time>2024-01-29T10:21:12.902Z</time>
      </trkpt>
      <trkpt lat="43.63225" lon="7.13512">
        <ele>56.361876</ele>
        <time>2024-01-29T10:21:16.894Z</time>
      </trkpt>
      <trkpt lat="43.63216" lon="7.13512">
        <ele>56.404603</ele>
        <time>2024-01-29T10:21:19.903Z</time>
      </trkpt>
      <trkpt lat="43.63204" lon="7.13511">
        <ele>56.461153</ele>
        <time>2024-01-29T10:21:23.902Z</time>
      </trkpt>
      <trkpt lat="43.63192" lon="7.1351">
        <ele>56.518571</ele>
        <time>2024-01-29T10:21:27.898Z</time>
      </trkpt>
      <trkpt lat="43.63181" lon="7.13511">
        <ele>56.573148</ele>
        <time>2024-01-29T10:21:31.928Z</time>
      </trkpt>
      <trkpt lat="43.63169" lon="7.1351">
        <ele>56.628344</ele>
        <time>2024-01-29T10:21:35.912Z</time>
      </trkpt>
      <trkpt lat="43.63157" lon="7.13508">
        <ele>56.683187</ele>
        <time>2024-01-29T10:21:39.903Z</time>
      </trkpt>
      <trkpt lat="43.63146" lon="7.13507">
        <ele>56.712304</ele>
        <time>2024-01-29T10:21:43.907Z</time>
      </trkpt>
      <trkpt lat="43.63136" lon="7.13505">
        <ele>56.673097</ele>
        <time>2024-01-29T10:21:47.909Z</time>
      </trkpt>
      <trkpt lat="43.63125" lon="7.13504">
        <ele>56.634856</ele>
        <time>2024-01-29T10:21:51.913Z</time>
      </trkpt>
      <trkpt lat="43.63114" lon="7.13502">
        <ele>56.595601</ele>
        <time>2024-01-29T10:21:55.922Z</time>
      </trkpt>
      <trkpt lat="43.63103" lon="7.135">
        <ele>56.557296</ele>
        <time>2024-01-29T10:21:59.908Z</time>
      </trkpt>
      <trkpt lat="43.63093" lon="7.13497">
        <ele>56.518706</ele>
        <time>2024-01-29T10:22:03.918Z</time>
      </trkpt>
      <trkpt lat="43.63082" lon="7.13495">
        <ele>56.480686</ele>
        <time>2024-01-29T10:22:07.907Z</time>
      </trkpt>
      <trkpt lat="43.63071" lon="7.13493">
        <ele>56.438726</ele>
        <time>2024-01-29T10:22:11.908Z</time>
      </trkpt>
      <trkpt lat="43.63062" lon="7.1349">
        <ele>56.406278</ele>
        <time>2024-01-29T10:22:14.904Z</time>
      </trkpt>
      <trkpt lat="43.63053" lon="7.13488">
        <ele>56.372573</ele>
        <time>2024-01-29T10:22:17.907Z</time>
      </trkpt>
      <trkpt lat="43.63041" lon="7.13485">
        <ele>56.331385</ele>
        <time>2024-01-29T10:22:21.922Z</time>
      </trkpt>
      <trkpt lat="43.63031" lon="7.13481">
        <ele>56.293435</ele>
        <time>2024-01-29T10:22:25.900Z</time>
      </trkpt>
      <trkpt lat="43.6302" lon="7.13478">
        <ele>56.253704</ele>
        <time>2024-01-29T10:22:29.903Z</time>
      </trkpt>
      <trkpt lat="43.6301" lon="7.13476">
        <ele>56.217062</ele>
        <time>2024-01-29T10:22:33.926Z</time>
      </trkpt>
      <trkpt lat="43.63" lon="7.13474">
        <ele>56.180899</ele>
        <time>2024-01-29T10:22:37.907Z</time>
      </trkpt>
      <trkpt lat="43.62989" lon="7.13471">
        <ele>56.139712</ele>
        <time>2024-01-29T10:22:41.915Z</time>
      </trkpt>
      <trkpt lat="43.6298" lon="7.13468">
        <ele>56.107291</ele>
        <time>2024-01-29T10:22:44.885Z</time>
      </trkpt>
      <trkpt lat="43.62971" lon="7.13464">
        <ele>56.056342</ele>
        <time>2024-01-29T10:22:47.917Z</time>
      </trkpt>
      <trkpt lat="43.62962" lon="7.13461">
        <ele>55.900304</ele>
        <time>2024-01-29T10:22:50.896Z</time>
      </trkpt>
      <trkpt lat="43.62951" lon="7.13456">
        <ele>55.714046</ele>
        <time>2024-01-29T10:22:54.901Z</time>
      </trkpt>
      <trkpt lat="43.62942" lon="7.13451">
        <ele>55.557737</ele>
        <time>2024-01-29T10:22:57.903Z</time>
      </trkpt>
      <trkpt lat="43.62933" lon="7.13448">
        <ele>55.408346</ele>
        <time>2024-01-29T10:23:00.910Z</time>
      </trkpt>
      <trkpt lat="43.62925" lon="7.13443">
        <ele>55.253252</ele>
        <time>2024-01-29T10:23:03.925Z</time>
      </trkpt>
      <trkpt lat="43.62916" lon="7.13439">
        <ele>55.100103</ele>
        <time>2024-01-29T10:23:06.899Z</time>
      </trkpt>
      <trkpt lat="43.62907" lon="7.13435">
        <ele>54.945398</ele>
        <time>2024-01-29T10:23:09.905Z</time>
      </trkpt>
      <trkpt lat="43.62898" lon="7.13431">
        <ele>54.7871</ele>
        <time>2024-01-29T10:23:12.911Z</time>
      </trkpt>
      <trkpt lat="43.62888" lon="7.13427">
        <ele>54.62652</ele>
        <time>2024-01-29T10:23:15.900Z</time>
      </trkpt>
      <trkpt lat="43.62879" lon="7.13423">
        <ele>54.457382</ele>
        <time>2024-01-29T10:23:18.903Z</time>
      </trkpt>
      <trkpt lat="43.62869" lon="7.13418">
        <ele>54.296032</ele>
        <time>2024-01-29T10:23:21.921Z</time>
      </trkpt>
      <trkpt lat="43.6286" lon="7.13414">
        <ele>54.131092</ele>
        <time>2024-01-29T10:23:24.928Z</time>
      </trkpt>
      <trkpt lat="43.6285" lon="7.13409">
        <ele>53.965893</ele>
        <time>2024-01-29T10:23:27.909Z</time>
      </trkpt>
      <trkpt lat="43.6284" lon="7.13405">
        <ele>53.794308</ele>
        <time>2024-01-29T10:23:30.918Z</time>
      </trkpt>
      <trkpt lat="43.62831" lon="7.13401">
        <ele>53.624822</ele>
        <time>2024-01-29T10:23:33.889Z</time>
      </trkpt>
      <trkpt lat="43.62821" lon="7.13397">
        <ele>53.458306</ele>
        <time>2024-01-29T10:23:36.899Z</time>
      </trkpt>
      <trkpt lat="43.62809" lon="7.13392">
        <ele>53.256851</ele>
        <time>2024-01-29T10:23:40.905Z</time>
      </trkpt>
      <trkpt lat="43.628" lon="7.13388">
        <ele>53.117341</ele>
        <time>2024-01-29T10:23:43.919Z</time>
      </trkpt>
      <trkpt lat="43.62789" lon="7.13384">
        <ele>53.085825</ele>
        <time>2024-01-29T10:23:47.924Z</time>
      </trkpt>
      <trkpt lat="43.62778" lon="7.13379">
        <ele>53.054757</ele>
        <time>2024-01-29T10:23:51.906Z</time>
      </trkpt>
      <trkpt lat="43.62768" lon="7.13375">
        <ele>53.025702</ele>
        <time>2024-01-29T10:23:55.901Z</time>
      </trkpt>
      <trkpt lat="43.62758" lon="7.13371">
        <ele>52.996908</ele>
        <time>2024-01-29T10:23:59.912Z</time>
      </trkpt>
      <trkpt lat="43.62748" lon="7.13366">
        <ele>52.96726</ele>
        <time>2024-01-29T10:24:03.922Z</time>
      </trkpt>
      <trkpt lat="43.62737" lon="7.13362">
        <ele>52.937681</ele>
        <time>2024-01-29T10:24:07.911Z</time>
      </trkpt>
      <trkpt lat="43.62727" lon="7.13358">
        <ele>52.909148</ele>
        <time>2024-01-29T10:24:11.909Z</time>
      </trkpt>
      <trkpt lat="43.62716" lon="7.13354">
        <ele>52.879045</ele>
        <time>2024-01-29T10:24:15.904Z</time>
      </trkpt>
      <trkpt lat="43.62706" lon="7.1335">
        <ele>52.848613</ele>
        <time>2024-01-29T10:24:19.905Z</time>
      </trkpt>
      <trkpt lat="43.62695" lon="7.13345">
        <ele>52.819607</ele>
        <time>2024-01-29T10:24:23.898Z</time>
      </trkpt>
      <trkpt lat="43.62685" lon="7.1334">
        <ele>52.790088</ele>
        <time>2024-01-29T10:24:27.903Z</time>
      </trkpt>
      <trkpt lat="43.62675" lon="7.13336">
        <ele>52.7615</ele>
        <time>2024-01-29T10:24:31.904Z</time>
      </trkpt>
      <trkpt lat="43.62665" lon="7.13332">
        <ele>52.731973</ele>
        <time>2024-01-29T10:24:35.908Z</time>
      </trkpt>
      <trkpt lat="43.62654" lon="7.13327">
        <ele>52.702773</ele>
        <time>2024-01-29T10:24:39.905Z</time>
      </trkpt>
      <trkpt lat="43.62644" lon="7.13323">
        <ele>52.672995</ele>
        <time>2024-01-29T10:24:43.912Z</time>
      </trkpt>
      <trkpt lat="43.62633" lon="7.13318">
        <ele>52.642678</ele>
        <time>2024-01-29T10:24:47.904Z</time>
      </trkpt>
      <trkpt lat="43.62622" lon="7.13314">
        <ele>52.6307</ele>
        <time>2024-01-29T10:24:51.912Z</time>
      </trkpt>
      <trkpt lat="43.62612" lon="7.1331">
        <ele>52.63078</ele>
        <time>2024-01-29T10:24:55.885Z</time>
      </trkpt>
      <trkpt lat="43.62601" lon="7.13306">
        <ele>52.630859</ele>
        <time>2024-01-29T10:24:59.921Z</time>
      </trkpt>
      <trkpt lat="43.6259" lon="7.13301">
        <ele>52.630942</ele>
        <time>2024-01-29T10:25:03.911Z</time>
      </trkpt>
      <trkpt lat="43.62581" lon="7.13297">
        <ele>52.631009</ele>
        <time>2024-01-29T10:25:06.904Z</time>
      </trkpt>
      <trkpt lat="43.6257" lon="7.13293">
        <ele>52.631096</ele>
        <time>2024-01-29T10:25:10.905Z</time>
      </trkpt>
      <trkpt lat="43.62559" lon="7.13288">
        <ele>52.631179</ele>
        <time>2024-01-29T10:25:14.923Z</time>
      </trkpt>
      <trkpt lat="43.62548" lon="7.13284">
        <ele>52.631261</ele>
        <time>2024-01-29T10:25:18.905Z</time>
      </trkpt>
      <trkpt lat="43.62537" lon="7.13279">
        <ele>52.631345</ele>
        <time>2024-01-29T10:25:22.909Z</time>
      </trkpt>
      <trkpt lat="43.62526" lon="7.13275">
        <ele>52.631428</ele>
        <time>2024-01-29T10:25:26.910Z</time>
      </trkpt>
      <trkpt lat="43.62515" lon="7.13271">
        <ele>52.63151</ele>
        <time>2024-01-29T10:25:30.910Z</time>
      </trkpt>
      <trkpt lat="43.62504" lon="7.13267">
        <ele>52.631592</ele>
        <time>2024-01-29T10:25:34.907Z</time>
      </trkpt>
      <trkpt lat="43.62494" lon="7.13262">
        <ele>52.631674</ele>
        <time>2024-01-29T10:25:38.913Z</time>
      </trkpt>
      <trkpt lat="43.62483" lon="7.13257">
        <ele>52.631753</ele>
        <time>2024-01-29T10:25:42.907Z</time>
      </trkpt>
      <trkpt lat="43.62473" lon="7.13254">
        <ele>52.631832</ele>
        <time>2024-01-29T10:25:46.930Z</time>
      </trkpt>
      <trkpt lat="43.62462" lon="7.13249">
        <ele>52.631916</ele>
        <time>2024-01-29T10:25:50.912Z</time>
      </trkpt>
      <trkpt lat="43.62451" lon="7.13244">
        <ele>52.646789</ele>
        <time>2024-01-29T10:25:54.918Z</time>
      </trkpt>
      <trkpt lat="43.62441" lon="7.1324">
        <ele>52.675023</ele>
        <time>2024-01-29T10:25:58.908Z</time>
      </trkpt>
      <trkpt lat="43.62431" lon="7.13236">
        <ele>52.702483</ele>
        <time>2024-01-29T10:26:02.907Z</time>
      </trkpt>
      <trkpt lat="43.62421" lon="7.13233">
        <ele>52.730562</ele>
        <time>2024-01-29T10:26:06.888Z</time>
      </trkpt>
      <trkpt lat="43.62411" lon="7.13229">
        <ele>52.75942</ele>
        <time>2024-01-29T10:26:10.897Z</time>
      </trkpt>
      <trkpt lat="43.624" lon="7.13224">
        <ele>52.788741</ele>
        <time>2024-01-29T10:26:14.887Z</time>
      </trkpt>
      <trkpt lat="43.62389" lon="7.1322">
        <ele>52.819312</ele>
        <time>2024-01-29T10:26:18.878Z</time>
      </trkpt>
      <trkpt lat="43.6238" lon="7.13215">
        <ele>52.847914</ele>
        <time>2024-01-29T10:26:22.876Z</time>
      </trkpt>
      <trkpt lat="43.6237" lon="7.13211">
        <ele>52.875497</ele>
        <time>2024-01-29T10:26:26.905Z</time>
      </trkpt>
      <trkpt lat="43.6236" lon="7.13207">
        <ele>52.90307</ele>
        <time>2024-01-29T10:26:30.900Z</time>
      </trkpt>
      <trkpt lat="43.6235" lon="7.13203">
        <ele>52.930843</ele>
        <time>2024-01-29T10:26:34.923Z</time>
      </trkpt>
      <trkpt lat="43.6234" lon="7.13198">
        <ele>52.959165</ele>
        <time>2024-01-29T10:26:38.909Z</time>
      </trkpt>
      <trkpt lat="43.6233" lon="7.13194">
        <ele>52.987711</ele>
        <time>2024-01-29T10:26:42.910Z</time>
      </trkpt>
      <trkpt lat="43.62319" lon="7.1319">
        <ele>53.017253</ele>
        <time>2024-01-29T10:26:46.919Z</time>
      </trkpt>
      <trkpt lat="43.62309" lon="7.13185">
        <ele>53.046217</ele>
        <time>2024-01-29T10:26:50.922Z</time>
      </trkpt>
      <trkpt lat="43.62299" lon="7.13181">
        <ele>53.074506</ele>
        <time>2024-01-29T10:26:54.908Z</time>
      </trkpt>
      <trkpt lat="43.62289" lon="7.13176">
        <ele>53.103594</ele>
        <time>2024-01-29T10:26:58.900Z</time>
      </trkpt>
      <trkpt lat="43.62279" lon="7.13172">
        <ele>53.137863</ele>
        <time>2024-01-29T10:27:02.901Z</time>
      </trkpt>
      <trkpt lat="43.62269" lon="7.13167">
        <ele>53.178918</ele>
        <time>2024-01-29T10:27:06.903Z</time>
      </trkpt>
      <trkpt lat="43.62259" lon="7.13163">
        <ele>53.221479</ele>
        <time>2024-01-29T10:27:10.927Z</time>
      </trkpt>
      <trkpt lat="43.62249" lon="7.13159">
        <ele>53.261986</ele>
        <time>2024-01-29T10:27:14.904Z</time>
      </trkpt>
      <trkpt lat="43.62239" lon="7.13155">
        <ele>53.303543</ele>
        <time>2024-01-29T10:27:18.903Z</time>
      </trkpt>
      <trkpt lat="43.62229" lon="7.1315">
        <ele>53.344777</ele>
        <time>2024-01-29T10:27:22.910Z</time>
      </trkpt>
      <trkpt lat="43.62219" lon="7.13146">
        <ele>53.386122</ele>
        <time>2024-01-29T10:27:26.926Z</time>
      </trkpt>
      <trkpt lat="43.62209" lon="7.13141">
        <ele>53.426608</ele>
        <time>2024-01-29T10:27:30.907Z</time>
      </trkpt>
      <trkpt lat="43.62199" lon="7.13137">
        <ele>53.467327</ele>
        <time>2024-01-29T10:27:34.902Z</time>
      </trkpt>
      <trkpt lat="43.62189" lon="7.13132">
        <ele>53.510989</ele>
        <time>2024-01-29T10:27:38.899Z</time>
      </trkpt>
      <trkpt lat="43.62179" lon="7.13128">
        <ele>53.553385</ele>
        <time>2024-01-29T10:27:42.906Z</time>
      </trkpt>
      <trkpt lat="43.62169" lon="7.13124">
        <ele>53.594646</ele>
        <time>2024-01-29T10:27:46.902Z</time>
      </trkpt>
      <trkpt lat="43.62159" lon="7.1312">
        <ele>53.635701</ele>
        <time>2024-01-29T10:27:50.910Z</time>
      </trkpt>
      <trkpt lat="43.62149" lon="7.13115">
        <ele>53.677309</ele>
        <time>2024-01-29T10:27:54.908Z</time>
      </trkpt>
      <trkpt lat="43.62139" lon="7.1311">
        <ele>53.716677</ele>
        <time>2024-01-29T10:27:58.918Z</time>
      </trkpt>
      <trkpt lat="43.62129" lon="7.13106">
        <ele>53.75782</ele>
        <time>2024-01-29T10:28:02.932Z</time>
      </trkpt>
      <trkpt lat="43.62119" lon="7.13101">
        <ele>53.801015</ele>
        <time>2024-01-29T10:28:06.908Z</time>
      </trkpt>
      <trkpt lat="43.62109" lon="7.13096">
        <ele>53.851765</ele>
        <time>2024-01-29T10:28:10.924Z</time>
      </trkpt>
      <trkpt lat="43.62099" lon="7.13092">
        <ele>53.914786</ele>
        <time>2024-01-29T10:28:14.901Z</time>
      </trkpt>
      <trkpt lat="43.62088" lon="7.13088">
        <ele>53.977492</ele>
        <time>2024-01-29T10:28:18.890Z</time>
      </trkpt>
      <trkpt lat="43.62078" lon="7.13083">
        <ele>54.043252</ele>
        <time>2024-01-29T10:28:22.911Z</time>
      </trkpt>
      <trkpt lat="43.62068" lon="7.13079">
        <ele>54.105148</ele>
        <time>2024-01-29T10:28:26.905Z</time>
      </trkpt>
      <trkpt lat="43.62058" lon="7.13075">
        <ele>54.167294</ele>
        <time>2024-01-29T10:28:30.906Z</time>
      </trkpt>
      <trkpt lat="43.62047" lon="7.1307">
        <ele>54.229752</ele>
        <time>2024-01-29T10:28:34.905Z</time>
      </trkpt>
      <trkpt lat="43.62037" lon="7.13066">
        <ele>54.291182</ele>
        <time>2024-01-29T10:28:38.907Z</time>
      </trkpt>
      <trkpt lat="43.62027" lon="7.13062">
        <ele>54.354765</ele>
        <time>2024-01-29T10:28:42.899Z</time>
      </trkpt>
      <trkpt lat="43.62017" lon="7.13057">
        <ele>54.416912</ele>
        <time>2024-01-29T10:28:46.899Z</time>
      </trkpt>
      <trkpt lat="43.62007" lon="7.13053">
        <ele>54.480377</ele>
        <time>2024-01-29T10:28:50.907Z</time>
      </trkpt>
      <trkpt lat="43.61996" lon="7.13048">
        <ele>54.543611</ele>
        <time>2024-01-29T10:28:54.899Z</time>
      </trkpt>
      <trkpt lat="43.61986" lon="7.13044">
        <ele>54.60507</ele>
        <time>2024-01-29T10:28:58.903Z</time>
      </trkpt>
      <trkpt lat="43.61976" lon="7.13039">
        <ele>54.667748</ele>
        <time>2024-01-29T10:29:02.903Z</time>
      </trkpt>
      <trkpt lat="43.61966" lon="7.13035">
        <ele>54.73089</ele>
        <time>2024-01-29T10:29:06.900Z</time>
      </trkpt>
      <trkpt lat="43.61956" lon="7.1303">
        <ele>54.793855</ele>
        <time>2024-01-29T10:29:10.904Z</time>
      </trkpt>
      <trkpt lat="43.61946" lon="7.13026">
        <ele>54.856193</ele>
        <time>2024-01-29T10:29:14.907Z</time>
      </trkpt>
      <trkpt lat="43.61935" lon="7.13021">
        <ele>54.905768</ele>
        <time>2024-01-29T10:29:18.902Z</time>
      </trkpt>
      <trkpt lat="43.61925" lon="7.13017">
        <ele>54.946449</ele>
        <time>2024-01-29T10:29:22.918Z</time>
      </trkpt>
      <trkpt lat="43.61914" lon="7.13013">
        <ele>54.98527</ele>
        <time>2024-01-29T10:29:26.899Z</time>
      </trkpt>
      <trkpt lat="43.61904" lon="7.13008">
        <ele>55.025418</ele>
        <time>2024-01-29T10:29:30.907Z</time>
      </trkpt>
      <trkpt lat="43.61893" lon="7.13003">
        <ele>55.066448</ele>
        <time>2024-01-29T10:29:34.907Z</time>
      </trkpt>
      <trkpt lat="43.61883" lon="7.12998">
        <ele>55.107373</ele>
        <time>2024-01-29T10:29:38.902Z</time>
      </trkpt>
      <trkpt lat="43.61872" lon="7.12994">
        <ele>55.148325</ele>
        <time>2024-01-29T10:29:42.912Z</time>
      </trkpt>
      <trkpt lat="43.61861" lon="7.12989">
        <ele>55.189435</ele>
        <time>2024-01-29T10:29:46.927Z</time>
      </trkpt>
      <trkpt lat="43.61851" lon="7.12985">
        <ele>55.229811</ele>
        <time>2024-01-29T10:29:50.915Z</time>
      </trkpt>
      <trkpt lat="43.6184" lon="7.12981">
        <ele>55.269834</ele>
        <time>2024-01-29T10:29:54.913Z</time>
      </trkpt>
      <trkpt lat="43.6183" lon="7.12976">
        <ele>55.310247</ele>
        <time>2024-01-29T10:29:58.906Z</time>
      </trkpt>
      <trkpt lat="43.61819" lon="7.12972">
        <ele>55.351047</ele>
        <time>2024-01-29T10:30:02.917Z</time>
      </trkpt>
      <trkpt lat="43.61809" lon="7.12967">
        <ele>55.390077</ele>
        <time>2024-01-29T10:30:06.914Z</time>
      </trkpt>
      <trkpt lat="43.61799" lon="7.12962">
        <ele>55.428147</ele>
        <time>2024-01-29T10:30:10.925Z</time>
      </trkpt>
      <trkpt lat="43.61789" lon="7.12957">
        <ele>55.465876</ele>
        <time>2024-01-29T10:30:14.903Z</time>
      </trkpt>
      <trkpt lat="43.61778" lon="7.12953">
        <ele>55.507309</ele>
        <time>2024-01-29T10:30:18.910Z</time>
      </trkpt>
      <trkpt lat="43.61768" lon="7.12948">
        <ele>55.545565</ele>
        <time>2024-01-29T10:30:22.889Z</time>
      </trkpt>
      <trkpt lat="43.61757" lon="7.12944">
        <ele>55.572742</ele>
        <time>2024-01-29T10:30:26.903Z</time>
      </trkpt>
      <trkpt lat="43.61747" lon="7.1294">
        <ele>55.598357</ele>
        <time>2024-01-29T10:30:30.905Z</time>
      </trkpt>
      <trkpt lat="43.61737" lon="7.12936">
        <ele>55.623971</ele>
        <time>2024-01-29T10:30:34.913Z</time>
      </trkpt>
      <trkpt lat="43.61726" lon="7.12931">
        <ele>55.650351</ele>
        <time>2024-01-29T10:30:38.908Z</time>
      </trkpt>
      <trkpt lat="43.61715" lon="7.12928">
        <ele>55.677072</ele>
        <time>2024-01-29T10:30:42.913Z</time>
      </trkpt>
      <trkpt lat="43.61705" lon="7.12927">
        <ele>55.70298</ele>
        <time>2024-01-29T10:30:46.903Z</time>
      </trkpt>
      <trkpt lat="43.61694" lon="7.1293">
        <ele>55.729392</ele>
        <time>2024-01-29T10:30:50.897Z</time>
      </trkpt>
      <trkpt lat="43.61686" lon="7.12921">
        <ele>55.755398</ele>
        <time>2024-01-29T10:30:54.899Z</time>
      </trkpt>
      <trkpt lat="43.61678" lon="7.12912">
        <ele>55.780473</ele>
        <time>2024-01-29T10:30:58.906Z</time>
      </trkpt>
      <trkpt lat="43.61668" lon="7.12906">
        <ele>55.80712</ele>
        <time>2024-01-29T10:31:02.896Z</time>
      </trkpt>
      <trkpt lat="43.61657" lon="7.12901">
        <ele>55.834008</ele>
        <time>2024-01-29T10:31:06.915Z</time>
      </trkpt>
      <trkpt lat="43.61647" lon="7.12896">
        <ele>55.860105</ele>
        <time>2024-01-29T10:31:10.885Z</time>
      </trkpt>
      <trkpt lat="43.61636" lon="7.12892">
        <ele>55.886595</ele>
        <time>2024-01-29T10:31:14.898Z</time>
      </trkpt>
      <trkpt lat="43.61626" lon="7.12887">
        <ele>55.913564</ele>
        <time>2024-01-29T10:31:18.903Z</time>
      </trkpt>
      <trkpt lat="43.61615" lon="7.12883">
        <ele>55.940816</ele>
        <time>2024-01-29T10:31:22.902Z</time>
      </trkpt>
      <trkpt lat="43.61604" lon="7.12877">
        <ele>55.969017</ele>
        <time>2024-01-29T10:31:26.917Z</time>
      </trkpt>
      <trkpt lat="43.61593" lon="7.12873">
        <ele>55.952023</ele>
        <time>2024-01-29T10:31:30.900Z</time>
      </trkpt>
      <trkpt lat="43.61583" lon="7.12869">
        <ele>55.926924</ele>
        <time>2024-01-29T10:31:34.909Z</time>
      </trkpt>
      <trkpt lat="43.61572" lon="7.12864">
        <ele>55.901047</ele>
        <time>2024-01-29T10:31:38.916Z</time>
      </trkpt>
      <trkpt lat="43.61562" lon="7.1286">
        <ele>55.875449</ele>
        <time>2024-01-29T10:31:42.913Z</time>
      </trkpt>
      <trkpt lat="43.61551" lon="7.12855">
        <ele>55.848299</ele>
        <time>2024-01-29T10:31:46.917Z</time>
      </trkpt>
      <trkpt lat="43.61541" lon="7.12851">
        <ele>55.822701</ele>
        <time>2024-01-29T10:31:50.924Z</time>
      </trkpt>
      <trkpt lat="43.6153" lon="7.12846">
        <ele>55.797594</ele>
        <time>2024-01-29T10:31:54.908Z</time>
      </trkpt>
      <trkpt lat="43.6152" lon="7.12842">
        <ele>55.773003</ele>
        <time>2024-01-29T10:31:58.917Z</time>
      </trkpt>
      <trkpt lat="43.6151" lon="7.12837">
        <ele>55.748135</ele>
        <time>2024-01-29T10:32:02.921Z</time>
      </trkpt>
      <trkpt lat="43.615" lon="7.12833">
        <ele>55.722028</ele>
        <time>2024-01-29T10:32:06.906Z</time>
      </trkpt>
      <trkpt lat="43.61489" lon="7.12828">
        <ele>55.69637</ele>
        <time>2024-01-29T10:32:10.909Z</time>
      </trkpt>
      <trkpt lat="43.61479" lon="7.12823">
        <ele>55.670388</ele>
        <time>2024-01-29T10:32:14.910Z</time>
      </trkpt>
      <trkpt lat="43.61468" lon="7.12819">
        <ele>55.643653</ele>
        <time>2024-01-29T10:32:18.908Z</time>
      </trkpt>
      <trkpt lat="43.61458" lon="7.12814">
        <ele>55.618546</ele>
        <time>2024-01-29T10:32:22.905Z</time>
      </trkpt>
      <trkpt lat="43.61447" lon="7.1281">
        <ele>55.591438</ele>
        <time>2024-01-29T10:32:26.928Z</time>
      </trkpt>
      <trkpt lat="43.61436" lon="7.12805">
        <ele>55.56533</ele>
        <time>2024-01-29T10:32:30.930Z</time>
      </trkpt>
      <trkpt lat="43.61426" lon="7.12801">
        <ele>55.537271</ele>
        <time>2024-01-29T10:32:34.918Z</time>
      </trkpt>
      <trkpt lat="43.61416" lon="7.12796">
        <ele>55.503232</ele>
        <time>2024-01-29T10:32:38.925Z</time>
      </trkpt>
      <trkpt lat="43.61405" lon="7.12791">
        <ele>55.470268</ele>
        <time>2024-01-29T10:32:42.902Z</time>
      </trkpt>
      <trkpt lat="43.61395" lon="7.12787">
        <ele>55.437752</ele>
        <time>2024-01-29T10:32:46.910Z</time>
      </trkpt>
      <trkpt lat="43.61385" lon="7.12783">
        <ele>55.404978</ele>
        <time>2024-01-29T10:32:50.918Z</time>
      </trkpt>
      <trkpt lat="43.61374" lon="7.12778">
        <ele>55.371298</ele>
        <time>2024-01-29T10:32:54.910Z</time>
      </trkpt>
      <trkpt lat="43.61364" lon="7.12774">
        <ele>55.338524</ele>
        <time>2024-01-29T10:32:58.900Z</time>
      </trkpt>
      <trkpt lat="43.61354" lon="7.12769">
        <ele>55.306008</ele>
        <time>2024-01-29T10:33:02.925Z</time>
      </trkpt>
      <trkpt lat="43.61343" lon="7.12765">
        <ele>55.271173</ele>
        <time>2024-01-29T10:33:06.899Z</time>
      </trkpt>
      <trkpt lat="43.61332" lon="7.12761">
        <ele>55.235968</ele>
        <time>2024-01-29T10:33:10.905Z</time>
      </trkpt>
      <trkpt lat="43.61321" lon="7.12756">
        <ele>55.201368</ele>
        <time>2024-01-29T10:33:14.903Z</time>
      </trkpt>
      <trkpt lat="43.6131" lon="7.12752">
        <ele>55.166474</ele>
        <time>2024-01-29T10:33:18.902Z</time>
      </trkpt>
      <trkpt lat="43.61299" lon="7.12748">
        <ele>55.131212</ele>
        <time>2024-01-29T10:33:22.907Z</time>
      </trkpt>
      <trkpt lat="43.6129" lon="7.12746">
        <ele>55.103005</ele>
        <time>2024-01-29T10:33:25.903Z</time>
      </trkpt>
      <trkpt lat="43.61278" lon="7.12742">
        <ele>55.066746</ele>
        <time>2024-01-29T10:33:29.907Z</time>
      </trkpt>
      <trkpt lat="43.6127" lon="7.12738">
        <ele>55.038924</ele>
        <time>2024-01-29T10:33:32.917Z</time>
      </trkpt>
      <trkpt lat="43.61258" lon="7.12735">
        <ele>55.002871</ele>
        <time>2024-01-29T10:33:36.919Z</time>
      </trkpt>
      <trkpt lat="43.61249" lon="7.12731">
        <ele>55.062414</ele>
        <time>2024-01-29T10:33:39.906Z</time>
      </trkpt>
      <trkpt lat="43.6124" lon="7.12729">
        <ele>55.131439</ele>
        <time>2024-01-29T10:33:42.886Z</time>
      </trkpt>
      <trkpt lat="43.61229" lon="7.12725">
        <ele>55.216409</ele>
        <time>2024-01-29T10:33:46.900Z</time>
      </trkpt>
      <trkpt lat="43.61219" lon="7.12721">
        <ele>55.300137</ele>
        <time>2024-01-29T10:33:50.905Z</time>
      </trkpt>
      <trkpt lat="43.61208" lon="7.12717">
        <ele>55.385106</ele>
        <time>2024-01-29T10:33:54.908Z</time>
      </trkpt>
      <trkpt lat="43.61197" lon="7.12713">
        <ele>55.468483</ele>
        <time>2024-01-29T10:33:58.883Z</time>
      </trkpt>
      <trkpt lat="43.61186" lon="7.12709">
        <ele>55.552866</ele>
        <time>2024-01-29T10:34:02.908Z</time>
      </trkpt>
      <trkpt lat="43.61176" lon="7.12705">
        <ele>55.631331</ele>
        <time>2024-01-29T10:34:06.909Z</time>
      </trkpt>
      <trkpt lat="43.61165" lon="7.12701">
        <ele>55.713428</ele>
        <time>2024-01-29T10:34:10.923Z</time>
      </trkpt>
      <trkpt lat="43.61155" lon="7.12698">
        <ele>55.79596</ele>
        <time>2024-01-29T10:34:14.931Z</time>
      </trkpt>
      <trkpt lat="43.61144" lon="7.12695">
        <ele>55.877154</ele>
        <time>2024-01-29T10:34:18.883Z</time>
      </trkpt>
      <trkpt lat="43.61133" lon="7.12695">
        <ele>55.957212</ele>
        <time>2024-01-29T10:34:22.908Z</time>
      </trkpt>
      <trkpt lat="43.61123" lon="7.127">
        <ele>56.03576</ele>
        <time>2024-01-29T10:34:26.903Z</time>
      </trkpt>
      <trkpt lat="43.61113" lon="7.12698">
        <ele>56.11522</ele>
        <time>2024-01-29T10:34:30.902Z</time>
      </trkpt>
      <trkpt lat="43.61105" lon="7.12689">
        <ele>56.19081</ele>
        <time>2024-01-29T10:34:34.898Z</time>
      </trkpt>
      <trkpt lat="43.61098" lon="7.12678">
        <ele>56.271012</ele>
        <time>2024-01-29T10:34:38.912Z</time>
      </trkpt>
      <trkpt lat="43.61088" lon="7.12671">
        <ele>56.355423</ele>
        <time>2024-01-29T10:34:42.907Z</time>
      </trkpt>
      <trkpt lat="43.61079" lon="7.12664">
        <ele>56.459897</ele>
        <time>2024-01-29T10:34:46.895Z</time>
      </trkpt>
      <trkpt lat="43.61069" lon="7.12657">
        <ele>56.566074</ele>
        <time>2024-01-29T10:34:50.907Z</time>
      </trkpt>
      <trkpt lat="43.61059" lon="7.12652">
        <ele>56.67434</ele>
        <time>2024-01-29T10:34:54.901Z</time>
      </trkpt>
      <trkpt lat="43.61048" lon="7.12648">
        <ele>56.785256</ele>
        <time>2024-01-29T10:34:58.906Z</time>
      </trkpt>
      <trkpt lat="43.61037" lon="7.12643">
        <ele>56.897504</ele>
        <time>2024-01-29T10:35:02.904Z</time>
      </trkpt>
      <trkpt lat="43.61028" lon="7.12639">
        <ele>56.985909</ele>
        <time>2024-01-29T10:35:05.895Z</time>
      </trkpt>
      <trkpt lat="43.61019" lon="7.12636">
        <ele>57.074409</ele>
        <time>2024-01-29T10:35:08.889Z</time>
      </trkpt>
      <trkpt lat="43.61008" lon="7.12631">
        <ele>57.186455</ele>
        <time>2024-01-29T10:35:12.903Z</time>
      </trkpt>
      <trkpt lat="43.60998" lon="7.12628">
        <ele>57.28794</ele>
        <time>2024-01-29T10:35:16.898Z</time>
      </trkpt>
      <trkpt lat="43.60988" lon="7.12624">
        <ele>57.392828</ele>
        <time>2024-01-29T10:35:20.912Z</time>
      </trkpt>
      <trkpt lat="43.60978" lon="7.1262">
        <ele>57.496194</ele>
        <time>2024-01-29T10:35:24.925Z</time>
      </trkpt>
      <trkpt lat="43.60968" lon="7.12617">
        <ele>57.598197</ele>
        <time>2024-01-29T10:35:28.902Z</time>
      </trkpt>
      <trkpt lat="43.60957" lon="7.12613">
        <ele>57.700676</ele>
        <time>2024-01-29T10:35:32.911Z</time>
      </trkpt>
      <trkpt lat="43.60947" lon="7.12611">
        <ele>57.799372</ele>
        <time>2024-01-29T10:35:36.888Z</time>
      </trkpt>
      <trkpt lat="43.60937" lon="7.12608">
        <ele>57.900804</ele>
        <time>2024-01-29T10:35:40.900Z</time>
      </trkpt>
      <trkpt lat="43.60927" lon="7.12605">
        <ele>58.003195</ele>
        <time>2024-01-29T10:35:44.896Z</time>
      </trkpt>
      <trkpt lat="43.60916" lon="7.12602">
        <ele>58.1016</ele>
        <time>2024-01-29T10:35:48.903Z</time>
      </trkpt>
      <trkpt lat="43.60906" lon="7.126">
        <ele>58.078797</ele>
        <time>2024-01-29T10:35:52.902Z</time>
      </trkpt>
      <trkpt lat="43.60896" lon="7.12598">
        <ele>58.056114</ele>
        <time>2024-01-29T10:35:56.915Z</time>
      </trkpt>
      <trkpt lat="43.60885" lon="7.12596">
        <ele>58.033295</ele>
        <time>2024-01-29T10:36:00.896Z</time>
      </trkpt>
      <trkpt lat="43.60874" lon="7.12593">
        <ele>58.008679</ele>
        <time>2024-01-29T10:36:04.909Z</time>
      </trkpt>
      <trkpt lat="43.60863" lon="7.12591">
        <ele>57.985761</ele>
        <time>2024-01-29T10:36:08.903Z</time>
      </trkpt>
      <trkpt lat="43.60853" lon="7.12589">
        <ele>57.962671</ele>
        <time>2024-01-29T10:36:12.896Z</time>
      </trkpt>
      <trkpt lat="43.60842" lon="7.12587">
        <ele>57.938234</ele>
        <time>2024-01-29T10:36:16.897Z</time>
      </trkpt>
      <trkpt lat="43.6083" lon="7.12584">
        <ele>57.913104</ele>
        <time>2024-01-29T10:36:20.908Z</time>
      </trkpt>
      <trkpt lat="43.60819" lon="7.12581">
        <ele>57.888358</ele>
        <time>2024-01-29T10:36:24.901Z</time>
      </trkpt>
      <trkpt lat="43.60807" lon="7.12579">
        <ele>57.863279</ele>
        <time>2024-01-29T10:36:28.915Z</time>
      </trkpt>
      <trkpt lat="43.60796" lon="7.12577">
        <ele>57.8382</ele>
        <time>2024-01-29T10:36:32.898Z</time>
      </trkpt>
      <trkpt lat="43.60786" lon="7.12576">
        <ele>57.817759</ele>
        <time>2024-01-29T10:36:35.922Z</time>
      </trkpt>
      <trkpt lat="43.60777" lon="7.12573">
        <ele>57.797442</ele>
        <time>2024-01-29T10:36:38.900Z</time>
      </trkpt>
      <trkpt lat="43.60765" lon="7.12571">
        <ele>57.771599</ele>
        <time>2024-01-29T10:36:42.903Z</time>
      </trkpt>
      <trkpt lat="43.60754" lon="7.12569">
        <ele>57.746305</ele>
        <time>2024-01-29T10:36:46.900Z</time>
      </trkpt>
      <trkpt lat="43.60742" lon="7.12568">
        <ele>57.720076</ele>
        <time>2024-01-29T10:36:50.908Z</time>
      </trkpt>
      <trkpt lat="43.60732" lon="7.12567">
        <ele>57.671706</ele>
        <time>2024-01-29T10:36:53.916Z</time>
      </trkpt>
      <trkpt lat="43.60722" lon="7.12565">
        <ele>57.608759</ele>
        <time>2024-01-29T10:36:56.911Z</time>
      </trkpt>
      <trkpt lat="43.60713" lon="7.12563">
        <ele>57.546711</ele>
        <time>2024-01-29T10:36:59.907Z</time>
      </trkpt>
      <trkpt lat="43.60703" lon="7.12562">
        <ele>57.485289</ele>
        <time>2024-01-29T10:37:02.903Z</time>
      </trkpt>
      <trkpt lat="43.60693" lon="7.12561">
        <ele>57.425914</ele>
        <time>2024-01-29T10:37:05.904Z</time>
      </trkpt>
      <trkpt lat="43.60684" lon="7.1256">
        <ele>57.366</ele>
        <time>2024-01-29T10:37:08.896Z</time>
      </trkpt>
      <trkpt lat="43.60675" lon="7.1256">
        <ele>57.306737</ele>
        <time>2024-01-29T10:37:11.898Z</time>
      </trkpt>
      <trkpt lat="43.60665" lon="7.12559">
        <ele>57.248732</ele>
        <time>2024-01-29T10:37:14.900Z</time>
      </trkpt>
      <trkpt lat="43.60653" lon="7.12559">
        <ele>57.173787</ele>
        <time>2024-01-29T10:37:18.900Z</time>
      </trkpt>
      <trkpt lat="43.60642" lon="7.12558">
        <ele>57.099404</ele>
        <time>2024-01-29T10:37:22.916Z</time>
      </trkpt>
      <trkpt lat="43.6063" lon="7.12558">
        <ele>57.025718</ele>
        <time>2024-01-29T10:37:26.916Z</time>
      </trkpt>
      <trkpt lat="43.60621" lon="7.12558">
        <ele>56.96903</ele>
        <time>2024-01-29T10:37:29.915Z</time>
      </trkpt>
      <trkpt lat="43.60609" lon="7.12557">
        <ele>56.895833</ele>
        <time>2024-01-29T10:37:33.902Z</time>
      </trkpt>
      <trkpt lat="43.60598" lon="7.12558">
        <ele>56.824631</ele>
        <time>2024-01-29T10:37:37.895Z</time>
      </trkpt>
      <trkpt lat="43.60587" lon="7.12557">
        <ele>56.752813</ele>
        <time>2024-01-29T10:37:41.886Z</time>
      </trkpt>
      <trkpt lat="43.60575" lon="7.12557">
        <ele>56.682264</ele>
        <time>2024-01-29T10:37:45.912Z</time>
      </trkpt>
      <trkpt lat="43.60564" lon="7.12557">
        <ele>56.610456</ele>
        <time>2024-01-29T10:37:49.913Z</time>
      </trkpt>
      <trkpt lat="43.60552" lon="7.12557">
        <ele>56.566816</ele>
        <time>2024-01-29T10:37:53.911Z</time>
      </trkpt>
      <trkpt lat="43.60541" lon="7.12557">
        <ele>56.543498</ele>
        <time>2024-01-29T10:37:57.900Z</time>
      </trkpt>
      <trkpt lat="43.60529" lon="7.12557">
        <ele>56.519974</ele>
        <time>2024-01-29T10:38:01.900Z</time>
      </trkpt>
      <trkpt lat="43.60518" lon="7.12557">
        <ele>56.496452</ele>
        <time>2024-01-29T10:38:05.901Z</time>
      </trkpt>
      <trkpt lat="43.60506" lon="7.12557">
        <ele>56.473134</ele>
        <time>2024-01-29T10:38:09.895Z</time>
      </trkpt>
      <trkpt lat="43.60494" lon="7.12556">
        <ele>56.448561</ele>
        <time>2024-01-29T10:38:13.893Z</time>
      </trkpt>
      <trkpt lat="43.60483" lon="7.12556">
        <ele>56.424421</ele>
        <time>2024-01-29T10:38:17.900Z</time>
      </trkpt>
      <trkpt lat="43.60471" lon="7.12556">
        <ele>56.399875</ele>
        <time>2024-01-29T10:38:21.903Z</time>
      </trkpt>
      <trkpt lat="43.6046" lon="7.12556">
        <ele>56.377169</ele>
        <time>2024-01-29T10:38:25.908Z</time>
      </trkpt>
      <trkpt lat="43.60448" lon="7.12555">
        <ele>56.35423</ele>
        <time>2024-01-29T10:38:29.901Z</time>
      </trkpt>
      <trkpt lat="43.60437" lon="7.12555">
        <ele>56.330094</ele>
        <time>2024-01-29T10:38:33.896Z</time>
      </trkpt>
      <trkpt lat="43.60426" lon="7.12555">
        <ele>56.307799</ele>
        <time>2024-01-29T10:38:37.899Z</time>
      </trkpt>
      <trkpt lat="43.60415" lon="7.12555">
        <ele>56.285282</ele>
        <time>2024-01-29T10:38:41.906Z</time>
      </trkpt>
      <trkpt lat="43.60404" lon="7.12555">
        <ele>56.263378</ele>
        <time>2024-01-29T10:38:45.909Z</time>
      </trkpt>
      <trkpt lat="43.60393" lon="7.12556">
        <ele>56.240235</ele>
        <time>2024-01-29T10:38:49.922Z</time>
      </trkpt>
      <trkpt lat="43.60381" lon="7.12559">
        <ele>56.215794</ele>
        <time>2024-01-29T10:38:53.908Z</time>
      </trkpt>
      <trkpt lat="43.6037" lon="7.12565">
        <ele>56.258398</ele>
        <time>2024-01-29T10:38:57.895Z</time>
      </trkpt>
      <trkpt lat="43.60359" lon="7.12562">
        <ele>56.308461</ele>
        <time>2024-01-29T10:39:01.891Z</time>
      </trkpt>
      <trkpt lat="43.60348" lon="7.12557">
        <ele>56.358379</ele>
        <time>2024-01-29T10:39:05.905Z</time>
      </trkpt>
      <trkpt lat="43.60336" lon="7.12555">
        <ele>56.409464</ele>
        <time>2024-01-29T10:39:09.911Z</time>
      </trkpt>
      <trkpt lat="43.60325" lon="7.12554">
        <ele>56.458819</ele>
        <time>2024-01-29T10:39:13.902Z</time>
      </trkpt>
      <trkpt lat="43.60313" lon="7.12553">
        <ele>56.508921</ele>
        <time>2024-01-29T10:39:17.922Z</time>
      </trkpt>
      <trkpt lat="43.60302" lon="7.12553">
        <ele>56.558613</ele>
        <time>2024-01-29T10:39:21.902Z</time>
      </trkpt>
      <trkpt lat="43.60292" lon="7.12553">
        <ele>56.59921</ele>
        <time>2024-01-29T10:39:24.918Z</time>
      </trkpt>
      <trkpt lat="43.60283" lon="7.12552">
        <ele>56.638141</ele>
        <time>2024-01-29T10:39:27.908Z</time>
      </trkpt>
      <trkpt lat="43.60272" lon="7.12552">
        <ele>56.688676</ele>
        <time>2024-01-29T10:39:31.910Z</time>
      </trkpt>
      <trkpt lat="43.6026" lon="7.12552">
        <ele>56.739638</ele>
        <time>2024-01-29T10:39:35.912Z</time>
      </trkpt>
      <trkpt lat="43.60249" lon="7.12552">
        <ele>56.788445</ele>
        <time>2024-01-29T10:39:39.903Z</time>
      </trkpt>
      <trkpt lat="43.60237" lon="7.12552">
        <ele>56.837248</ele>
        <time>2024-01-29T10:39:43.908Z</time>
      </trkpt>
      <trkpt lat="43.60226" lon="7.12552">
        <ele>56.885204</ele>
        <time>2024-01-29T10:39:47.902Z</time>
      </trkpt>
      <trkpt lat="43.60215" lon="7.12552">
        <ele>56.931857</ele>
        <time>2024-01-29T10:39:51.913Z</time>
      </trkpt>
      <trkpt lat="43.60204" lon="7.12552">
        <ele>56.979822</ele>
        <time>2024-01-29T10:39:55.908Z</time>
      </trkpt>
      <trkpt lat="43.60193" lon="7.12552">
        <ele>56.939593</ele>
        <time>2024-01-29T10:39:59.901Z</time>
      </trkpt>
      <trkpt lat="43.60182" lon="7.12552">
        <ele>56.876625</ele>
        <time>2024-01-29T10:40:03.901Z</time>
      </trkpt>
      <trkpt lat="43.60172" lon="7.12552">
        <ele>56.815991</ele>
        <time>2024-01-29T10:40:07.902Z</time>
      </trkpt>
      <trkpt lat="43.60161" lon="7.12551">
        <ele>56.753012</ele>
        <time>2024-01-29T10:40:11.910Z</time>
      </trkpt>
      <trkpt lat="43.6015" lon="7.12551">
        <ele>56.688262</ele>
        <time>2024-01-29T10:40:15.903Z</time>
      </trkpt>
      <trkpt lat="43.60139" lon="7.1255">
        <ele>56.624662</ele>
        <time>2024-01-29T10:40:19.901Z</time>
      </trkpt>
      <trkpt lat="43.60128" lon="7.1255">
        <ele>56.56169</ele>
        <time>2024-01-29T10:40:23.903Z</time>
      </trkpt>
      <trkpt lat="43.60118" lon="7.12549">
        <ele>56.500961</ele>
        <time>2024-01-29T10:40:27.900Z</time>
      </trkpt>
      <trkpt lat="43.60108" lon="7.12548">
        <ele>56.440255</ele>
        <time>2024-01-29T10:40:31.925Z</time>
      </trkpt>
      <trkpt lat="43.60097" lon="7.12548">
        <ele>56.378442</ele>
        <time>2024-01-29T10:40:35.921Z</time>
      </trkpt>
      <trkpt lat="43.60086" lon="7.12548">
        <ele>56.314297</ele>
        <time>2024-01-29T10:40:39.905Z</time>
      </trkpt>
      <trkpt lat="43.60075" lon="7.12548">
        <ele>56.249576</ele>
        <time>2024-01-29T10:40:43.905Z</time>
      </trkpt>
      <trkpt lat="43.60063" lon="7.12549">
        <ele>56.18248</ele>
        <time>2024-01-29T10:40:47.909Z</time>
      </trkpt>
      <trkpt lat="43.60052" lon="7.12549">
        <ele>56.116015</ele>
        <time>2024-01-29T10:40:51.906Z</time>
      </trkpt>
      <trkpt lat="43.60041" lon="7.12548">
        <ele>56.049442</ele>
        <time>2024-01-29T10:40:55.904Z</time>
      </trkpt>
      <trkpt lat="43.6003" lon="7.12548">
        <ele>55.987057</ele>
        <time>2024-01-29T10:40:59.902Z</time>
      </trkpt>
      <trkpt lat="43.60019" lon="7.12548">
        <ele>55.934222</ele>
        <time>2024-01-29T10:41:03.908Z</time>
      </trkpt>
      <trkpt lat="43.60008" lon="7.12548">
        <ele>55.905504</ele>
        <time>2024-01-29T10:41:07.914Z</time>
      </trkpt>
      <trkpt lat="43.59997" lon="7.12548">
        <ele>55.875997</ele>
        <time>2024-01-29T10:41:11.918Z</time>
      </trkpt>
      <trkpt lat="43.59985" lon="7.12549">
        <ele>55.84649</ele>
        <time>2024-01-29T10:41:15.918Z</time>
      </trkpt>
      <trkpt lat="43.59974" lon="7.1255">
        <ele>55.817208</ele>
        <time>2024-01-29T10:41:19.916Z</time>
      </trkpt>
      <trkpt lat="43.59963" lon="7.12549">
        <ele>55.789487</ele>
        <time>2024-01-29T10:41:23.919Z</time>
      </trkpt>
      <trkpt lat="43.59952" lon="7.12549">
        <ele>55.760768</ele>
        <time>2024-01-29T10:41:27.917Z</time>
      </trkpt>
      <trkpt lat="43.59943" lon="7.12549">
        <ele>55.737478</ele>
        <time>2024-01-29T10:41:30.909Z</time>
      </trkpt>
      <trkpt lat="43.59934" lon="7.12547">
        <ele>55.712815</ele>
        <time>2024-01-29T10:41:33.878Z</time>
      </trkpt>
      <trkpt lat="43.59924" lon="7.12547">
        <ele>55.687452</ele>
        <time>2024-01-29T10:41:36.926Z</time>
      </trkpt>
      <trkpt lat="43.59914" lon="7.12546">
        <ele>55.660998</ele>
        <time>2024-01-29T10:41:39.921Z</time>
      </trkpt>
      <trkpt lat="43.59903" lon="7.12545">
        <ele>55.634061</ele>
        <time>2024-01-29T10:41:42.896Z</time>
      </trkpt>
      <trkpt lat="43.59892" lon="7.12546">
        <ele>55.605857</ele>
        <time>2024-01-29T10:41:45.905Z</time>
      </trkpt>
      <trkpt lat="43.59882" lon="7.12545">
        <ele>55.578935</ele>
        <time>2024-01-29T10:41:48.903Z</time>
      </trkpt>
      <trkpt lat="43.59872" lon="7.12545">
        <ele>55.553059</ele>
        <time>2024-01-29T10:41:51.921Z</time>
      </trkpt>
      <trkpt lat="43.59861" lon="7.12545">
        <ele>55.525885</ele>
        <time>2024-01-29T10:41:54.898Z</time>
      </trkpt>
      <trkpt lat="43.59851" lon="7.12546">
        <ele>55.499481</ele>
        <time>2024-01-29T10:41:57.920Z</time>
      </trkpt>
      <trkpt lat="43.59842" lon="7.12546">
        <ele>55.476537</ele>
        <time>2024-01-29T10:42:00.914Z</time>
      </trkpt>
      <trkpt lat="43.59832" lon="7.12546">
        <ele>55.476745</ele>
        <time>2024-01-29T10:42:03.926Z</time>
      </trkpt>
      <trkpt lat="43.59823" lon="7.12546">
        <ele>55.476956</ele>
        <time>2024-01-29T10:42:06.916Z</time>
      </trkpt>
      <trkpt lat="43.59813" lon="7.12545">
        <ele>55.477169</ele>
        <time>2024-01-29T10:42:09.913Z</time>
      </trkpt>
      <trkpt lat="43.59803" lon="7.12545">
        <ele>55.477373</ele>
        <time>2024-01-29T10:42:12.925Z</time>
      </trkpt>
      <trkpt lat="43.59794" lon="7.12545">
        <ele>55.47758</ele>
        <time>2024-01-29T10:42:15.909Z</time>
      </trkpt>
      <trkpt lat="43.59785" lon="7.12545">
        <ele>55.477777</ele>
        <time>2024-01-29T10:42:18.906Z</time>
      </trkpt>
      <trkpt lat="43.59775" lon="7.12544">
        <ele>55.477988</ele>
        <time>2024-01-29T10:42:21.905Z</time>
      </trkpt>
      <trkpt lat="43.59764" lon="7.12544">
        <ele>55.478238</ele>
        <time>2024-01-29T10:42:25.916Z</time>
      </trkpt>
      <trkpt lat="43.59752" lon="7.12544">
        <ele>55.47849</ele>
        <time>2024-01-29T10:42:29.917Z</time>
      </trkpt>
      <trkpt lat="43.5974" lon="7.12543">
        <ele>55.478744</ele>
        <time>2024-01-29T10:42:33.925Z</time>
      </trkpt>
      <trkpt lat="43.59729" lon="7.12543">
        <ele>55.478991</ele>
        <time>2024-01-29T10:42:37.901Z</time>
      </trkpt>
      <trkpt lat="43.5972" lon="7.12543">
        <ele>55.479189</ele>
        <time>2024-01-29T10:42:40.910Z</time>
      </trkpt>
      <trkpt lat="43.59708" lon="7.12542">
        <ele>55.479439</ele>
        <time>2024-01-29T10:42:44.911Z</time>
      </trkpt>
      <trkpt lat="43.59697" lon="7.12542">
        <ele>55.479688</ele>
        <time>2024-01-29T10:42:48.908Z</time>
      </trkpt>
      <trkpt lat="43.59685" lon="7.12541">
        <ele>55.479941</ele>
        <time>2024-01-29T10:42:52.902Z</time>
      </trkpt>
      <trkpt lat="43.59674" lon="7.12542">
        <ele>55.480189</ele>
        <time>2024-01-29T10:42:56.891Z</time>
      </trkpt>
      <trkpt lat="43.59665" lon="7.12542">
        <ele>55.480386</ele>
        <time>2024-01-29T10:42:59.898Z</time>
      </trkpt>
      <trkpt lat="43.59656" lon="7.12543">
        <ele>55.487212</ele>
        <time>2024-01-29T10:43:02.899Z</time>
      </trkpt>
      <trkpt lat="43.59644" lon="7.12542">
        <ele>55.498415</ele>
        <time>2024-01-29T10:43:06.903Z</time>
      </trkpt>
      <trkpt lat="43.59633" lon="7.12541">
        <ele>55.509049</ele>
        <time>2024-01-29T10:43:10.884Z</time>
      </trkpt>
      <trkpt lat="43.59621" lon="7.12542">
        <ele>55.519865</ele>
        <time>2024-01-29T10:43:14.901Z</time>
      </trkpt>
      <trkpt lat="43.5961" lon="7.12541">
        <ele>55.531066</ele>
        <time>2024-01-29T10:43:18.905Z</time>
      </trkpt>
      <trkpt lat="43.59598" lon="7.12541">
        <ele>55.541976</ele>
        <time>2024-01-29T10:43:22.888Z</time>
      </trkpt>
      <trkpt lat="43.59587" lon="7.12541">
        <ele>55.552886</ele>
        <time>2024-01-29T10:43:26.901Z</time>
      </trkpt>
      <trkpt lat="43.59576" lon="7.12541">
        <ele>55.563613</ele>
        <time>2024-01-29T10:43:30.888Z</time>
      </trkpt>
      <trkpt lat="43.59564" lon="7.12541">
        <ele>55.575098</ele>
        <time>2024-01-29T10:43:34.902Z</time>
      </trkpt>
      <trkpt lat="43.59552" lon="7.12541">
        <ele>55.5862</ele>
        <time>2024-01-29T10:43:38.911Z</time>
      </trkpt>
      <trkpt lat="43.59541" lon="7.1254">
        <ele>55.597312</ele>
        <time>2024-01-29T10:43:42.899Z</time>
      </trkpt>
      <trkpt lat="43.59529" lon="7.12541">
        <ele>55.608613</ele>
        <time>2024-01-29T10:43:46.907Z</time>
      </trkpt>
      <trkpt lat="43.59517" lon="7.12541">
        <ele>55.61981</ele>
        <time>2024-01-29T10:43:50.915Z</time>
      </trkpt>
      <trkpt lat="43.59507" lon="7.1254">
        <ele>55.629093</ele>
        <time>2024-01-29T10:43:53.904Z</time>
      </trkpt>
      <trkpt lat="43.59498" lon="7.1254">
        <ele>55.638473</ele>
        <time>2024-01-29T10:43:56.906Z</time>
      </trkpt>
      <trkpt lat="43.59486" lon="7.1254">
        <ele>55.649865</ele>
        <time>2024-01-29T10:44:00.897Z</time>
      </trkpt>
      <trkpt lat="43.59474" lon="7.12539">
        <ele>55.650868</ele>
        <time>2024-01-29T10:44:04.918Z</time>
      </trkpt>
      <trkpt lat="43.59464" lon="7.12539">
        <ele>55.649165</ele>
        <time>2024-01-29T10:44:07.905Z</time>
      </trkpt>
      <trkpt lat="43.59455" lon="7.12539">
        <ele>55.6475</ele>
        <time>2024-01-29T10:44:10.912Z</time>
      </trkpt>
      <trkpt lat="43.59446" lon="7.12538">
        <ele>55.645777</ele>
        <time>2024-01-29T10:44:13.914Z</time>
      </trkpt>
      <trkpt lat="43.59437" lon="7.12537">
        <ele>55.64409</ele>
        <time>2024-01-29T10:44:16.900Z</time>
      </trkpt>
      <trkpt lat="43.59425" lon="7.12537">
        <ele>55.64193</ele>
        <time>2024-01-29T10:44:20.897Z</time>
      </trkpt>
      <trkpt lat="43.59413" lon="7.12536">
        <ele>55.639788</ele>
        <time>2024-01-29T10:44:24.903Z</time>
      </trkpt>
      <trkpt lat="43.59403" lon="7.12536">
        <ele>55.637903</ele>
        <time>2024-01-29T10:44:28.900Z</time>
      </trkpt>
      <trkpt lat="43.59391" lon="7.12535">
        <ele>55.635834</ele>
        <time>2024-01-29T10:44:32.886Z</time>
      </trkpt>
      <trkpt lat="43.59382" lon="7.12534">
        <ele>55.634145</ele>
        <time>2024-01-29T10:44:35.924Z</time>
      </trkpt>
      <trkpt lat="43.59373" lon="7.12534">
        <ele>55.632443</ele>
        <time>2024-01-29T10:44:38.903Z</time>
      </trkpt>
      <trkpt lat="43.59361" lon="7.12533">
        <ele>55.630244</ele>
        <time>2024-01-29T10:44:42.907Z</time>
      </trkpt>
      <trkpt lat="43.59352" lon="7.12533">
        <ele>55.628524</ele>
        <time>2024-01-29T10:44:45.899Z</time>
      </trkpt>
      <trkpt lat="43.5934" lon="7.12531">
        <ele>55.626316</ele>
        <time>2024-01-29T10:44:49.904Z</time>
      </trkpt>
      <trkpt lat="43.59328" lon="7.1253">
        <ele>55.624136</ele>
        <time>2024-01-29T10:44:53.907Z</time>
      </trkpt>
      <trkpt lat="43.59316" lon="7.1253">
        <ele>55.621992</ele>
        <time>2024-01-29T10:44:57.927Z</time>
      </trkpt>
      <trkpt lat="43.59305" lon="7.12528">
        <ele>55.619936</ele>
        <time>2024-01-29T10:45:01.904Z</time>
      </trkpt>
      <trkpt lat="43.59293" lon="7.12527">
        <ele>55.638253</ele>
        <time>2024-01-29T10:45:05.910Z</time>
      </trkpt>
      <trkpt lat="43.59282" lon="7.12525">
        <ele>55.658121</ele>
        <time>2024-01-29T10:45:09.894Z</time>
      </trkpt>
      <trkpt lat="43.5927" lon="7.12522">
        <ele>55.680353</ele>
        <time>2024-01-29T10:45:13.914Z</time>
      </trkpt>
      <trkpt lat="43.59259" lon="7.12517">
        <ele>55.701445</ele>
        <time>2024-01-29T10:45:17.919Z</time>
      </trkpt>
      <trkpt lat="43.59249" lon="7.12512">
        <ele>55.721287</ele>
        <time>2024-01-29T10:45:21.909Z</time>
      </trkpt>
      <trkpt lat="43.5924" lon="7.12507">
        <ele>55.739577</ele>
        <time>2024-01-29T10:45:26.923Z</time>
      </trkpt>
      <trkpt lat="43.59235" lon="7.12497">
        <ele>55.755958</ele>
        <time>2024-01-29T10:45:32.896Z</time>
      </trkpt>
      <trkpt lat="43.5923" lon="7.12484">
        <ele>55.775451</ele>
        <time>2024-01-29T10:45:40.886Z</time>
      </trkpt>
      <trkpt lat="43.59219" lon="7.12479">
        <ele>55.796037</ele>
        <time>2024-01-29T10:45:44.898Z</time>
      </trkpt>
      <trkpt lat="43.59209" lon="7.12473">
        <ele>55.81649</ele>
        <time>2024-01-29T10:45:48.909Z</time>
      </trkpt>
      <trkpt lat="43.59201" lon="7.12468">
        <ele>55.833509</ele>
        <time>2024-01-29T10:45:51.899Z</time>
      </trkpt>
      <trkpt lat="43.59191" lon="7.12463">
        <ele>55.851795</ele>
        <time>2024-01-29T10:45:54.900Z</time>
      </trkpt>
      <trkpt lat="43.5918" lon="7.12458">
        <ele>55.873056</ele>
        <time>2024-01-29T10:45:58.915Z</time>
      </trkpt>
      <trkpt lat="43.59169" lon="7.12451">
        <ele>55.894717</ele>
        <time>2024-01-29T10:46:02.919Z</time>
      </trkpt>
      <trkpt lat="43.59161" lon="7.12447">
        <ele>55.91116</ele>
        <time>2024-01-29T10:46:05.910Z</time>
      </trkpt>
      <trkpt lat="43.59152" lon="7.12443">
        <ele>55.928822</ele>
        <time>2024-01-29T10:46:08.902Z</time>
      </trkpt>
      <trkpt lat="43.59143" lon="7.12438">
        <ele>55.945482</ele>
        <time>2024-01-29T10:46:11.918Z</time>
      </trkpt>
      <trkpt lat="43.59135" lon="7.12434">
        <ele>55.907667</ele>
        <time>2024-01-29T10:46:14.914Z</time>
      </trkpt>
      <trkpt lat="43.59125" lon="7.1243">
        <ele>55.857984</ele>
        <time>2024-01-29T10:46:17.907Z</time>
      </trkpt>
      <trkpt lat="43.59117" lon="7.12427">
        <ele>55.810851</ele>
        <time>2024-01-29T10:46:20.912Z</time>
      </trkpt>
      <trkpt lat="43.59107" lon="7.12426">
        <ele>55.762258</ele>
        <time>2024-01-29T10:46:23.896Z</time>
      </trkpt>
      <trkpt lat="43.59098" lon="7.12426">
        <ele>55.712726</ele>
        <time>2024-01-29T10:46:26.912Z</time>
      </trkpt>
      <trkpt lat="43.59087" lon="7.12426">
        <ele>55.660152</ele>
        <time>2024-01-29T10:46:29.908Z</time>
      </trkpt>
      <trkpt lat="43.59077" lon="7.12427">
        <ele>55.607446</ele>
        <time>2024-01-29T10:46:32.911Z</time>
      </trkpt>
      <trkpt lat="43.59066" lon="7.12428">
        <ele>55.550087</ele>
        <time>2024-01-29T10:46:35.913Z</time>
      </trkpt>
      <trkpt lat="43.59053" lon="7.12429">
        <ele>55.480919</ele>
        <time>2024-01-29T10:46:38.908Z</time>
      </trkpt>
      <trkpt lat="43.59044" lon="7.12428">
        <ele>55.434518</ele>
        <time>2024-01-29T10:46:40.913Z</time>
      </trkpt>
      <trkpt lat="43.5903" lon="7.12428">
        <ele>55.365426</ele>
        <time>2024-01-29T10:46:43.907Z</time>
      </trkpt>
      <trkpt lat="43.59017" lon="7.12427">
        <ele>55.298831</ele>
        <time>2024-01-29T10:46:46.903Z</time>
      </trkpt>
      <trkpt lat="43.59004" lon="7.12425">
        <ele>55.230465</ele>
        <time>2024-01-29T10:46:49.921Z</time>
      </trkpt>
      <trkpt lat="43.58992" lon="7.1242">
        <ele>55.166173</ele>
        <time>2024-01-29T10:46:52.904Z</time>
      </trkpt>
      <trkpt lat="43.58981" lon="7.12412">
        <ele>55.101833</ele>
        <time>2024-01-29T10:46:55.904Z</time>
      </trkpt>
      <trkpt lat="43.58972" lon="7.12401">
        <ele>55.038079</ele>
        <time>2024-01-29T10:46:58.890Z</time>
      </trkpt>
      <trkpt lat="43.58964" lon="7.12389">
        <ele>54.962347</ele>
        <time>2024-01-29T10:47:01.894Z</time>
      </trkpt>
      <trkpt lat="43.58956" lon="7.12377">
        <ele>54.883344</ele>
        <time>2024-01-29T10:47:04.905Z</time>
      </trkpt>
      <trkpt lat="43.58949" lon="7.12365">
        <ele>54.809074</ele>
        <time>2024-01-29T10:47:07.930Z</time>
      </trkpt>
      <trkpt lat="43.58942" lon="7.12354">
        <ele>54.738732</ele>
        <time>2024-01-29T10:47:11.919Z</time>
      </trkpt>
      <trkpt lat="43.58933" lon="7.12354">
        <ele>54.675884</ele>
        <time>2024-01-29T10:47:20.891Z</time>
      </trkpt>
      <trkpt lat="43.58923" lon="7.1235">
        <ele>54.607617</ele>
        <time>2024-01-29T10:47:26.949Z</time>
      </trkpt>
      <trkpt lat="43.58917" lon="7.1234">
        <ele>54.545299</ele>
        <time>2024-01-29T10:47:29.904Z</time>
      </trkpt>
      <trkpt lat="43.58912" lon="7.12329">
        <ele>54.481789</ele>
        <time>2024-01-29T10:47:32.894Z</time>
      </trkpt>
      <trkpt lat="43.58908" lon="7.12318">
        <ele>54.419431</ele>
        <time>2024-01-29T10:47:35.887Z</time>
      </trkpt>
      <trkpt lat="43.58903" lon="7.12304">
        <ele>54.343331</ele>
        <time>2024-01-29T10:47:39.905Z</time>
      </trkpt>
      <trkpt lat="43.589" lon="7.12291">
        <ele>54.273346</ele>
        <time>2024-01-29T10:47:43.907Z</time>
      </trkpt>
      <trkpt lat="43.58894" lon="7.12276">
        <ele>54.195164</ele>
        <time>2024-01-29T10:47:47.912Z</time>
      </trkpt>
      <trkpt lat="43.5889" lon="7.12265">
        <ele>54.134092</ele>
        <time>2024-01-29T10:47:50.900Z</time>
      </trkpt>
      <trkpt lat="43.58885" lon="7.12255">
        <ele>54.073045</ele>
        <time>2024-01-29T10:47:53.902Z</time>
      </trkpt>
      <trkpt lat="43.58878" lon="7.12243">
        <ele>53.998911</ele>
        <time>2024-01-29T10:47:57.877Z</time>
      </trkpt>
      <trkpt lat="43.5887" lon="7.12233">
        <ele>53.925152</ele>
        <time>2024-01-29T10:48:01.896Z</time>
      </trkpt>
      <trkpt lat="43.58862" lon="7.12222">
        <ele>53.847071</ele>
        <time>2024-01-29T10:48:05.908Z</time>
      </trkpt>
      <trkpt lat="43.58853" lon="7.12213">
        <ele>53.818213</ele>
        <time>2024-01-29T10:48:09.902Z</time>
      </trkpt>
      <trkpt lat="43.58844" lon="7.12204">
        <ele>53.849086</ele>
        <time>2024-01-29T10:48:13.916Z</time>
      </trkpt>
      <trkpt lat="43.58835" lon="7.12195">
        <ele>53.880415</ele>
        <time>2024-01-29T10:48:17.898Z</time>
      </trkpt>
      <trkpt lat="43.58826" lon="7.12187">
        <ele>53.908798</ele>
        <time>2024-01-29T10:48:21.903Z</time>
      </trkpt>
      <trkpt lat="43.58818" lon="7.12179">
        <ele>53.935842</ele>
        <time>2024-01-29T10:48:25.907Z</time>
      </trkpt>
      <trkpt lat="43.5881" lon="7.12172">
        <ele>53.963041</ele>
        <time>2024-01-29T10:48:29.903Z</time>
      </trkpt>
      <trkpt lat="43.58801" lon="7.12164">
        <ele>53.992441</ele>
        <time>2024-01-29T10:48:33.898Z</time>
      </trkpt>
      <trkpt lat="43.58792" lon="7.12155">
        <ele>54.023429</ele>
        <time>2024-01-29T10:48:37.896Z</time>
      </trkpt>
      <trkpt lat="43.58782" lon="7.12147">
        <ele>54.054156</ele>
        <time>2024-01-29T10:48:41.904Z</time>
      </trkpt>
      <trkpt lat="43.58773" lon="7.1214">
        <ele>54.08386</ele>
        <time>2024-01-29T10:48:45.907Z</time>
      </trkpt>
      <trkpt lat="43.58762" lon="7.12134">
        <ele>54.115283</ele>
        <time>2024-01-29T10:48:49.901Z</time>
      </trkpt>
      <trkpt lat="43.58752" lon="7.12129">
        <ele>54.145863</ele>
        <time>2024-01-29T10:48:53.911Z</time>
      </trkpt>
      <trkpt lat="43.58741" lon="7.12125">
        <ele>54.175928</ele>
        <time>2024-01-29T10:48:57.904Z</time>
      </trkpt>
      <trkpt lat="43.5873" lon="7.12123">
        <ele>54.207223</ele>
        <time>2024-01-29T10:49:01.901Z</time>
      </trkpt>
      <trkpt lat="43.58719" lon="7.12119">
        <ele>54.237433</ele>
        <time>2024-01-29T10:49:05.915Z</time>
      </trkpt>
      <trkpt lat="43.58709" lon="7.12119">
        <ele>54.267503</ele>
        <time>2024-01-29T10:49:09.906Z</time>
      </trkpt>
      <trkpt lat="43.58698" lon="7.12116">
        <ele>54.298284</ele>
        <time>2024-01-29T10:49:13.889Z</time>
      </trkpt>
      <trkpt lat="43.58687" lon="7.12113">
        <ele>54.322828</ele>
        <time>2024-01-29T10:49:17.900Z</time>
      </trkpt>
      <trkpt lat="43.58676" lon="7.12109">
        <ele>54.348385</ele>
        <time>2024-01-29T10:49:21.898Z</time>
      </trkpt>
      <trkpt lat="43.58665" lon="7.12105">
        <ele>54.374411</ele>
        <time>2024-01-29T10:49:25.885Z</time>
      </trkpt>
      <trkpt lat="43.58655" lon="7.12103">
        <ele>54.394972</ele>
        <time>2024-01-29T10:49:28.901Z</time>
      </trkpt>
      <trkpt lat="43.58644" lon="7.121">
        <ele>54.421309</ele>
        <time>2024-01-29T10:49:32.897Z</time>
      </trkpt>
      <trkpt lat="43.58632" lon="7.12098">
        <ele>54.447841</ele>
        <time>2024-01-29T10:49:36.890Z</time>
      </trkpt>
      <trkpt lat="43.58623" lon="7.12098">
        <ele>54.467844</ele>
        <time>2024-01-29T10:49:39.902Z</time>
      </trkpt>
      <trkpt lat="43.58611" lon="7.12099">
        <ele>54.49342</ele>
        <time>2024-01-29T10:49:43.871Z</time>
      </trkpt>
      <trkpt lat="43.58601" lon="7.12099">
        <ele>54.517244</ele>
        <time>2024-01-29T10:49:47.880Z</time>
      </trkpt>
      <trkpt lat="43.5859" lon="7.12101">
        <ele>54.540439</ele>
        <time>2024-01-29T10:49:51.886Z</time>
      </trkpt>
      <trkpt lat="43.58581" lon="7.12102">
        <ele>54.56197</ele>
        <time>2024-01-29T10:49:55.911Z</time>
      </trkpt>
      <trkpt lat="43.58572" lon="7.12106">
        <ele>54.583017</ele>
        <time>2024-01-29T10:49:59.900Z</time>
      </trkpt>
      <trkpt lat="43.58562" lon="7.1211">
        <ele>54.606035</ele>
        <time>2024-01-29T10:50:03.900Z</time>
      </trkpt>
      <trkpt lat="43.58552" lon="7.12115">
        <ele>54.628688</ele>
        <time>2024-01-29T10:50:07.904Z</time>
      </trkpt>
      <trkpt lat="43.58542" lon="7.1212">
        <ele>54.653062</ele>
        <time>2024-01-29T10:50:11.927Z</time>
      </trkpt>
      <trkpt lat="43.58532" lon="7.12123">
        <ele>54.675443</ele>
        <time>2024-01-29T10:50:15.900Z</time>
      </trkpt>
      <trkpt lat="43.58522" lon="7.12129">
        <ele>54.699899</ele>
        <time>2024-01-29T10:50:20.895Z</time>
      </trkpt>
      <trkpt lat="43.58512" lon="7.12134">
        <ele>54.713143</ele>
        <time>2024-01-29T10:50:24.910Z</time>
      </trkpt>
      <trkpt lat="43.58504" lon="7.1214">
        <ele>54.724834</ele>
        <time>2024-01-29T10:50:28.899Z</time>
      </trkpt>
      <trkpt lat="43.58495" lon="7.12145">
        <ele>54.736863</ele>
        <time>2024-01-29T10:50:32.881Z</time>
      </trkpt>
      <trkpt lat="43.58485" lon="7.12151">
        <ele>54.749559</ele>
        <time>2024-01-29T10:50:36.895Z</time>
      </trkpt>
      <trkpt lat="43.58477" lon="7.12159">
        <ele>54.761803</ele>
        <time>2024-01-29T10:50:40.915Z</time>
      </trkpt>
      <trkpt lat="43.58469" lon="7.12169">
        <ele>54.77486</ele>
        <time>2024-01-29T10:50:45.895Z</time>
      </trkpt>
      <trkpt lat="43.5846" lon="7.12169">
        <ele>54.786539</ele>
        <time>2024-01-29T10:50:51.905Z</time>
      </trkpt>
      <trkpt lat="43.58452" lon="7.12162">
        <ele>54.798439</ele>
        <time>2024-01-29T10:50:56.909Z</time>
      </trkpt>
      <trkpt lat="43.58442" lon="7.1216">
        <ele>54.810062</ele>
        <time>2024-01-29T10:51:01.894Z</time>
      </trkpt>
      <trkpt lat="43.58432" lon="7.12166">
        <ele>54.82358</ele>
        <time>2024-01-29T10:51:05.912Z</time>
      </trkpt>
      <trkpt lat="43.58422" lon="7.12175">
        <ele>54.837866</ele>
        <time>2024-01-29T10:51:09.892Z</time>
      </trkpt>
      <trkpt lat="43.58419" lon="7.12188">
        <ele>54.850426</ele>
        <time>2024-01-29T10:51:13.908Z</time>
      </trkpt>
      <trkpt lat="43.5842" lon="7.12201">
        <ele>54.862325</ele>
        <time>2024-01-29T10:51:15.908Z</time>
      </trkpt>
      <trkpt lat="43.58422" lon="7.12214">
        <ele>54.874047</ele>
        <time>2024-01-29T10:51:17.907Z</time>
      </trkpt>
      <trkpt lat="43.58419" lon="7.12231">
        <ele>54.889324</ele>
        <time>2024-01-29T10:51:20.898Z</time>
      </trkpt>
      <trkpt lat="43.58413" lon="7.12243">
        <ele>54.902716</ele>
        <time>2024-01-29T10:51:23.903Z</time>
      </trkpt>
      <trkpt lat="43.58409" lon="7.12259">
        <ele>54.917289</ele>
        <time>2024-01-29T10:51:26.909Z</time>
      </trkpt>
      <trkpt lat="43.58408" lon="7.12275">
        <ele>54.885783</ele>
        <time>2024-01-29T10:51:29.917Z</time>
      </trkpt>
      <trkpt lat="43.58406" lon="7.12294">
        <ele>54.822388</ele>
        <time>2024-01-29T10:51:32.904Z</time>
      </trkpt>
      <trkpt lat="43.58404" lon="7.12311">
        <ele>54.762939</ele>
        <time>2024-01-29T10:51:35.908Z</time>
      </trkpt>
      <trkpt lat="43.58403" lon="7.12328">
        <ele>54.703666</ele>
        <time>2024-01-29T10:51:38.896Z</time>
      </trkpt>
      <trkpt lat="43.58402" lon="7.12344">
        <ele>54.650893</ele>
        <time>2024-01-29T10:51:41.893Z</time>
      </trkpt>
      <trkpt lat="43.58401" lon="7.12357">
        <ele>54.604699</ele>
        <time>2024-01-29T10:51:44.976Z</time>
      </trkpt>
      <trkpt lat="43.58401" lon="7.1237">
        <ele>54.559265</ele>
        <time>2024-01-29T10:51:47.889Z</time>
      </trkpt>
      <trkpt lat="43.584" lon="7.12386">
        <ele>54.507693</ele>
        <time>2024-01-29T10:51:50.915Z</time>
      </trkpt>
      <trkpt lat="43.58404" lon="7.12398">
        <ele>54.461953</ele>
        <time>2024-01-29T10:51:53.926Z</time>
      </trkpt>
      <trkpt lat="43.58404" lon="7.12411">
        <ele>54.416196</ele>
        <time>2024-01-29T10:51:56.895Z</time>
      </trkpt>
      <trkpt lat="43.58404" lon="7.12425">
        <ele>54.36867</ele>
        <time>2024-01-29T10:51:59.914Z</time>
      </trkpt>
      <trkpt lat="43.58402" lon="7.12439">
        <ele>54.321511</ele>
        <time>2024-01-29T10:52:02.976Z</time>
      </trkpt>
      <trkpt lat="43.58401" lon="7.12452">
        <ele>54.276918</ele>
        <time>2024-01-29T10:52:05.905Z</time>
      </trkpt>
      <trkpt lat="43.584" lon="7.12465">
        <ele>54.231959</ele>
        <time>2024-01-29T10:52:08.901Z</time>
      </trkpt>
      <trkpt lat="43.58399" lon="7.12478">
        <ele>54.186105</ele>
        <time>2024-01-29T10:52:11.908Z</time>
      </trkpt>
      <trkpt lat="43.58398" lon="7.12492">
        <ele>54.140931</ele>
        <time>2024-01-29T10:52:14.896Z</time>
      </trkpt>
      <trkpt lat="43.58397" lon="7.12505">
        <ele>54.093772</ele>
        <time>2024-01-29T10:52:17.900Z</time>
      </trkpt>
      <trkpt lat="43.58396" lon="7.1252">
        <ele>54.064088</ele>
        <time>2024-01-29T10:52:20.908Z</time>
      </trkpt>
      <trkpt lat="43.58395" lon="7.12533">
        <ele>54.047373</ele>
        <time>2024-01-29T10:52:23.902Z</time>
      </trkpt>
      <trkpt lat="43.58394" lon="7.12546">
        <ele>54.0309</ele>
        <time>2024-01-29T10:52:26.897Z</time>
      </trkpt>
      <trkpt lat="43.58392" lon="7.12559">
        <ele>54.014322</ele>
        <time>2024-01-29T10:52:29.919Z</time>
      </trkpt>
      <trkpt lat="43.58391" lon="7.12573">
        <ele>53.997503</ele>
        <time>2024-01-29T10:52:32.917Z</time>
      </trkpt>
      <trkpt lat="43.58389" lon="7.12587">
        <ele>53.980466</ele>
        <time>2024-01-29T10:52:35.911Z</time>
      </trkpt>
      <trkpt lat="43.58388" lon="7.126">
        <ele>53.963333</ele>
        <time>2024-01-29T10:52:38.906Z</time>
      </trkpt>
      <trkpt lat="43.58386" lon="7.12614">
        <ele>53.945833</ele>
        <time>2024-01-29T10:52:41.919Z</time>
      </trkpt>
      <trkpt lat="43.58385" lon="7.12628">
        <ele>53.928502</ele>
        <time>2024-01-29T10:52:44.909Z</time>
      </trkpt>
      <trkpt lat="43.58384" lon="7.12642">
        <ele>53.910904</ele>
        <time>2024-01-29T10:52:47.911Z</time>
      </trkpt>
      <trkpt lat="43.58383" lon="7.12656">
        <ele>53.893877</ele>
        <time>2024-01-29T10:52:50.917Z</time>
      </trkpt>
      <trkpt lat="43.58381" lon="7.12669">
        <ele>53.877111</ele>
        <time>2024-01-29T10:52:53.904Z</time>
      </trkpt>
      <trkpt lat="43.5838" lon="7.12683">
        <ele>53.860393</ele>
        <time>2024-01-29T10:52:56.929Z</time>
      </trkpt>
      <trkpt lat="43.58378" lon="7.12695">
        <ele>53.844406</ele>
        <time>2024-01-29T10:52:59.906Z</time>
      </trkpt>
      <trkpt lat="43.58374" lon="7.12707">
        <ele>53.828459</ele>
        <time>2024-01-29T10:53:02.912Z</time>
      </trkpt>
      <trkpt lat="43.58368" lon="7.12717">
        <ele>53.811884</ele>
        <time>2024-01-29T10:53:05.906Z</time>
      </trkpt>
      <trkpt lat="43.58361" lon="7.12727">
        <ele>53.794549</ele>
        <time>2024-01-29T10:53:08.913Z</time>
      </trkpt>
      <trkpt lat="43.58354" lon="7.12737">
        <ele>53.777705</ele>
        <time>2024-01-29T10:53:11.921Z</time>
      </trkpt>
      <trkpt lat="43.58348" lon="7.12747">
        <ele>53.819963</ele>
        <time>2024-01-29T10:53:14.938Z</time>
      </trkpt>
      <trkpt lat="43.58342" lon="7.1276">
        <ele>53.979892</ele>
        <time>2024-01-29T10:53:18.888Z</time>
      </trkpt>
      <trkpt lat="43.58332" lon="7.12769">
        <ele>54.146545</ele>
        <time>2024-01-29T10:53:23.908Z</time>
      </trkpt>
      <trkpt lat="43.58324" lon="7.12778">
        <ele>54.292134</ele>
        <time>2024-01-29T10:53:27.907Z</time>
      </trkpt>
      <trkpt lat="43.58316" lon="7.12787">
        <ele>54.434648</ele>
        <time>2024-01-29T10:53:31.910Z</time>
      </trkpt>
      <trkpt lat="43.58307" lon="7.12793">
        <ele>54.579579</ele>
        <time>2024-01-29T10:53:36.884Z</time>
      </trkpt>
      <trkpt lat="43.58298" lon="7.12796">
        <ele>54.713497</ele>
        <time>2024-01-29T10:53:41.901Z</time>
      </trkpt>
      <trkpt lat="43.58289" lon="7.128">
        <ele>54.85193</ele>
        <time>2024-01-29T10:53:45.906Z</time>
      </trkpt>
      <trkpt lat="43.58277" lon="7.12801">
        <ele>55.018502</ele>
        <time>2024-01-29T10:53:49.901Z</time>
      </trkpt>
      <trkpt lat="43.58267" lon="7.12798">
        <ele>55.162907</ele>
        <time>2024-01-29T10:53:53.908Z</time>
      </trkpt>
      <trkpt lat="43.58258" lon="7.12795">
        <ele>55.296691</ele>
        <time>2024-01-29T10:53:58.883Z</time>
      </trkpt>
      <trkpt lat="43.58249" lon="7.12789">
        <ele>55.43808</ele>
        <time>2024-01-29T10:54:21.887Z</time>
      </trkpt>
      <trkpt lat="43.58239" lon="7.12784">
        <ele>55.582974</ele>
        <time>2024-01-29T10:54:27.895Z</time>
      </trkpt>
      <trkpt lat="43.5823" lon="7.12781">
        <ele>55.726062</ele>
        <time>2024-01-29T10:54:32.911Z</time>
      </trkpt>
      <trkpt lat="43.5822" lon="7.12774">
        <ele>55.874799</ele>
        <time>2024-01-29T10:54:38.889Z</time>
      </trkpt>
      <trkpt lat="43.5821" lon="7.12771">
        <ele>56.01725</ele>
        <time>2024-01-29T10:54:43.902Z</time>
      </trkpt>
      <trkpt lat="43.582" lon="7.12771">
        <ele>56.164836</ele>
        <time>2024-01-29T10:54:48.914Z</time>
      </trkpt>
      <trkpt lat="43.58189" lon="7.1277">
        <ele>56.319795</ele>
        <time>2024-01-29T10:54:53.898Z</time>
      </trkpt>
      <trkpt lat="43.58181" lon="7.12777">
        <ele>56.649354</ele>
        <time>2024-01-29T10:55:02.892Z</time>
      </trkpt>
      <trkpt lat="43.58172" lon="7.12778">
        <ele>57.002998</ele>
        <time>2024-01-29T10:55:07.921Z</time>
      </trkpt>
      <trkpt lat="43.58162" lon="7.12779">
        <ele>57.343286</ele>
        <time>2024-01-29T10:55:12.889Z</time>
      </trkpt>
      <trkpt lat="43.58153" lon="7.12778">
        <ele>57.69154</ele>
        <time>2024-01-29T10:55:17.915Z</time>
      </trkpt>
      <trkpt lat="43.58142" lon="7.12776">
        <ele>58.100935</ele>
        <time>2024-01-29T10:55:22.916Z</time>
      </trkpt>
      <trkpt lat="43.58131" lon="7.12774">
        <ele>58.482614</ele>
        <time>2024-01-29T10:55:27.916Z</time>
      </trkpt>
      <trkpt lat="43.58123" lon="7.12768">
        <ele>58.839481</ele>
        <time>2024-01-29T10:55:37.905Z</time>
      </trkpt>
      <trkpt lat="43.58114" lon="7.12764">
        <ele>59.171483</ele>
        <time>2024-01-29T10:55:45.901Z</time>
      </trkpt>
      <trkpt lat="43.58104" lon="7.1276">
        <ele>59.551851</ele>
        <time>2024-01-29T10:55:52.898Z</time>
      </trkpt>
      <trkpt lat="43.58094" lon="7.12757">
        <ele>59.924004</ele>
        <time>2024-01-29T10:55:57.889Z</time>
      </trkpt>
      <trkpt lat="43.58081" lon="7.12754">
        <ele>60.424956</ele>
        <time>2024-01-29T11:03:46.896Z</time>
      </trkpt>
      <trkpt lat="43.58072" lon="7.12751">
        <ele>60.770681</ele>
        <time>2024-01-29T11:03:51.907Z</time>
      </trkpt>
      <trkpt lat="43.58062" lon="7.12747">
        <ele>61.145782</ele>
        <time>2024-01-29T11:03:56.899Z</time>
      </trkpt>
      <trkpt lat="43.58053" lon="7.12742">
        <ele>61.485039</ele>
        <time>2024-01-29T11:04:02.893Z</time>
      </trkpt>
      <trkpt lat="43.58044" lon="7.12733">
        <ele>61.894446</ele>
        <time>2024-01-29T11:04:08.898Z</time>
      </trkpt>
      <trkpt lat="43.58032" lon="7.1273">
        <ele>62.328142</ele>
        <time>2024-01-29T11:04:12.893Z</time>
      </trkpt>
      <trkpt lat="43.58024" lon="7.12725">
        <ele>62.670793</ele>
        <time>2024-01-29T11:04:16.903Z</time>
      </trkpt>
      <trkpt lat="43.58013" lon="7.12722">
        <ele>62.743067</ele>
        <time>2024-01-29T11:04:21.912Z</time>
      </trkpt>
      <trkpt lat="43.58004" lon="7.12718">
        <ele>62.400746</ele>
        <time>2024-01-29T11:04:25.921Z</time>
      </trkpt>
      <trkpt lat="43.57995" lon="7.12712">
        <ele>62.056007</ele>
        <time>2024-01-29T11:04:30.912Z</time>
      </trkpt>
      <trkpt lat="43.57986" lon="7.12706">
        <ele>61.723184</ele>
        <time>2024-01-29T11:04:34.887Z</time>
      </trkpt>
      <trkpt lat="43.57978" lon="7.12701">
        <ele>61.403701</ele>
        <time>2024-01-29T11:04:38.913Z</time>
      </trkpt>
      <trkpt lat="43.57968" lon="7.12696">
        <ele>61.029326</ele>
        <time>2024-01-29T11:04:42.926Z</time>
      </trkpt>
      <trkpt lat="43.57956" lon="7.12694">
        <ele>60.633008</ele>
        <time>2024-01-29T11:04:49.916Z</time>
      </trkpt>
      <trkpt lat="43.57944" lon="7.12694">
        <ele>60.204783</ele>
        <time>2024-01-29T11:04:52.892Z</time>
      </trkpt>
      <trkpt lat="43.57934" lon="7.12688">
        <ele>59.809377</ele>
        <time>2024-01-29T11:04:55.891Z</time>
      </trkpt>
      <trkpt lat="43.57924" lon="7.12681">
        <ele>59.42751</ele>
        <time>2024-01-29T11:04:58.901Z</time>
      </trkpt>
      <trkpt lat="43.57916" lon="7.12676">
        <ele>59.114388</ele>
        <time>2024-01-29T11:05:02.893Z</time>
      </trkpt>
      <trkpt lat="43.57905" lon="7.1267">
        <ele>58.703529</ele>
        <time>2024-01-29T11:05:12.879Z</time>
      </trkpt>
      <trkpt lat="43.57894" lon="7.12666">
        <ele>58.325849</ele>
        <time>2024-01-29T11:05:15.895Z</time>
      </trkpt>
      <trkpt lat="43.57883" lon="7.12662">
        <ele>57.908516</ele>
        <time>2024-01-29T11:05:18.896Z</time>
      </trkpt>
      <trkpt lat="43.57873" lon="7.12658">
        <ele>57.565421</ele>
        <time>2024-01-29T11:05:21.890Z</time>
      </trkpt>
      <trkpt lat="43.57863" lon="7.12653">
        <ele>57.189293</ele>
        <time>2024-01-29T11:05:24.901Z</time>
      </trkpt>
      <trkpt lat="43.57854" lon="7.12648">
        <ele>56.844496</ele>
        <time>2024-01-29T11:05:27.897Z</time>
      </trkpt>
      <trkpt lat="43.57843" lon="7.12646">
        <ele>56.605124</ele>
        <time>2024-01-29T11:05:31.889Z</time>
      </trkpt>
      <trkpt lat="43.57834" lon="7.12643">
        <ele>56.549611</ele>
        <time>2024-01-29T11:05:35.902Z</time>
      </trkpt>
      <trkpt lat="43.57824" lon="7.1264">
        <ele>56.491793</ele>
        <time>2024-01-29T11:05:45.894Z</time>
      </trkpt>
      <trkpt lat="43.57814" lon="7.12632">
        <ele>56.426476</ele>
        <time>2024-01-29T11:05:53.899Z</time>
      </trkpt>
      <trkpt lat="43.57805" lon="7.1263">
        <ele>56.372531</ele>
        <time>2024-01-29T11:05:57.899Z</time>
      </trkpt>
      <trkpt lat="43.57795" lon="7.12626">
        <ele>56.306576</ele>
        <time>2024-01-29T11:06:01.902Z</time>
      </trkpt>
      <trkpt lat="43.57784" lon="7.12621">
        <ele>56.240322</ele>
        <time>2024-01-29T11:06:05.894Z</time>
      </trkpt>
      <trkpt lat="43.57777" lon="7.12611">
        <ele>56.180815</ele>
        <time>2024-01-29T11:06:08.886Z</time>
      </trkpt>
      <trkpt lat="43.57773" lon="7.12597">
        <ele>56.117691</ele>
        <time>2024-01-29T11:06:11.916Z</time>
      </trkpt>
      <trkpt lat="43.5777" lon="7.12583">
        <ele>56.052748</ele>
        <time>2024-01-29T11:06:14.897Z</time>
      </trkpt>
      <trkpt lat="43.57766" lon="7.12567">
        <ele>55.984372</ele>
        <time>2024-01-29T11:06:17.915Z</time>
      </trkpt>
      <trkpt lat="43.57762" lon="7.12553">
        <ele>55.916531</ele>
        <time>2024-01-29T11:06:20.904Z</time>
      </trkpt>
      <trkpt lat="43.57758" lon="7.12539">
        <ele>55.853476</ele>
        <time>2024-01-29T11:06:23.907Z</time>
      </trkpt>
      <trkpt lat="43.57753" lon="7.12525">
        <ele>55.788458</ele>
        <time>2024-01-29T11:06:28.882Z</time>
      </trkpt>
      <trkpt lat="43.57748" lon="7.12515">
        <ele>55.733377</ele>
        <time>2024-01-29T11:06:31.891Z</time>
      </trkpt>
      <trkpt lat="43.57742" lon="7.12503">
        <ele>55.672703</ele>
        <time>2024-01-29T11:06:34.895Z</time>
      </trkpt>
      <trkpt lat="43.57736" lon="7.12492">
        <ele>55.61141</ele>
        <time>2024-01-29T11:06:37.874Z</time>
      </trkpt>
      <trkpt lat="43.5773" lon="7.12481">
        <ele>55.577908</ele>
        <time>2024-01-29T11:06:40.896Z</time>
      </trkpt>
      <trkpt lat="43.57724" lon="7.1247">
        <ele>55.586434</ele>
        <time>2024-01-29T11:06:44.913Z</time>
      </trkpt>
      <trkpt lat="43.5772" lon="7.12458">
        <ele>55.594299</ele>
        <time>2024-01-29T11:06:51.907Z</time>
      </trkpt>
      <trkpt lat="43.57713" lon="7.12449">
        <ele>55.602789</ele>
        <time>2024-01-29T11:06:55.913Z</time>
      </trkpt>
      <trkpt lat="43.57702" lon="7.12453">
        <ele>55.612001</ele>
        <time>2024-01-29T11:06:59.896Z</time>
      </trkpt>
      <trkpt lat="43.57695" lon="7.1246">
        <ele>55.61981</ele>
        <time>2024-01-29T11:07:02.885Z</time>
      </trkpt>
      <trkpt lat="43.57685" lon="7.12472">
        <ele>55.630922</ele>
        <time>2024-01-29T11:07:05.919Z</time>
      </trkpt>
      <trkpt lat="43.57678" lon="7.1248">
        <ele>55.63888</ele>
        <time>2024-01-29T11:07:07.907Z</time>
      </trkpt>
      <trkpt lat="43.57668" lon="7.12489">
        <ele>55.649503</ele>
        <time>2024-01-29T11:07:10.918Z</time>
      </trkpt>
      <trkpt lat="43.57657" lon="7.12498">
        <ele>55.659613</ele>
        <time>2024-01-29T11:07:13.907Z</time>
      </trkpt>
      <trkpt lat="43.57649" lon="7.12501">
        <ele>55.66743</ele>
        <time>2024-01-29T11:07:15.891Z</time>
      </trkpt>
      <trkpt lat="43.57637" lon="7.12499">
        <ele>55.67723</ele>
        <time>2024-01-29T11:07:18.894Z</time>
      </trkpt>
      <trkpt lat="43.57629" lon="7.12491">
        <ele>55.685849</ele>
        <time>2024-01-29T11:07:21.909Z</time>
      </trkpt>
      <trkpt lat="43.57621" lon="7.12482">
        <ele>55.69491</ele>
        <time>2024-01-29T11:07:25.909Z</time>
      </trkpt>
      <trkpt lat="43.57611" lon="7.12481">
        <ele>55.703479</ele>
        <time>2024-01-29T11:07:52.900Z</time>
      </trkpt>
      <trkpt lat="43.57599" lon="7.1248">
        <ele>55.713489</ele>
        <time>2024-01-29T11:08:00.903Z</time>
      </trkpt>
      <trkpt lat="43.57589" lon="7.12471">
        <ele>55.723865</ele>
        <time>2024-01-29T11:08:03.885Z</time>
      </trkpt>
      <trkpt lat="43.5758" lon="7.1246">
        <ele>55.650534</ele>
        <time>2024-01-29T11:08:06.898Z</time>
      </trkpt>
      <trkpt lat="43.57571" lon="7.12452">
        <ele>55.504608</ele>
        <time>2024-01-29T11:08:09.920Z</time>
      </trkpt>
      <trkpt lat="43.5756" lon="7.12443">
        <ele>55.355751</ele>
        <time>2024-01-29T11:08:12.900Z</time>
      </trkpt>
      <trkpt lat="43.5755" lon="7.12437">
        <ele>55.204802</ele>
        <time>2024-01-29T11:08:15.908Z</time>
      </trkpt>
      <trkpt lat="43.57538" lon="7.12432">
        <ele>55.056842</ele>
        <time>2024-01-29T11:08:18.894Z</time>
      </trkpt>
      <trkpt lat="43.57528" lon="7.12429">
        <ele>54.923122</ele>
        <time>2024-01-29T11:08:21.909Z</time>
      </trkpt>
      <trkpt lat="43.57519" lon="7.12429">
        <ele>54.807152</ele>
        <time>2024-01-29T11:08:24.897Z</time>
      </trkpt>
      <trkpt lat="43.57509" lon="7.12428">
        <ele>54.674567</ele>
        <time>2024-01-29T11:08:28.911Z</time>
      </trkpt>
      <trkpt lat="43.57499" lon="7.12425">
        <ele>54.541401</ele>
        <time>2024-01-29T11:08:33.893Z</time>
      </trkpt>
      <trkpt lat="43.57489" lon="7.12422">
        <ele>54.416731</ele>
        <time>2024-01-29T11:08:38.899Z</time>
      </trkpt>
      <trkpt lat="43.57479" lon="7.12421">
        <ele>54.289708</ele>
        <time>2024-01-29T11:08:44.895Z</time>
      </trkpt>
      <trkpt lat="43.5747" lon="7.12419">
        <ele>54.171652</ele>
        <time>2024-01-29T11:08:48.893Z</time>
      </trkpt>
      <trkpt lat="43.57461" lon="7.12416">
        <ele>54.049283</ele>
        <time>2024-01-29T11:08:54.891Z</time>
      </trkpt>
      <trkpt lat="43.57454" lon="7.12408">
        <ele>53.9319</ele>
        <time>2024-01-29T11:08:58.907Z</time>
      </trkpt>
      <trkpt lat="43.57444" lon="7.12404">
        <ele>53.809298</ele>
        <time>2024-01-29T11:09:01.893Z</time>
      </trkpt>
      <trkpt lat="43.57433" lon="7.12403">
        <ele>53.663272</ele>
        <time>2024-01-29T11:09:05.949Z</time>
      </trkpt>
      <trkpt lat="43.57421" lon="7.12402">
        <ele>53.511397</ele>
        <time>2024-01-29T11:09:09.899Z</time>
      </trkpt>
      <trkpt lat="43.57412" lon="7.12401">
        <ele>53.3876</ele>
        <time>2024-01-29T11:09:12.919Z</time>
      </trkpt>
      <trkpt lat="43.57403" lon="7.12399">
        <ele>53.248663</ele>
        <time>2024-01-29T11:09:15.892Z</time>
      </trkpt>
      <trkpt lat="43.57392" lon="7.12402">
        <ele>53.085576</ele>
        <time>2024-01-29T11:09:20.891Z</time>
      </trkpt>
      <trkpt lat="43.57381" lon="7.12404">
        <ele>52.921011</ele>
        <time>2024-01-29T11:09:24.900Z</time>
      </trkpt>
      <trkpt lat="43.57371" lon="7.12408">
        <ele>52.769654</ele>
        <time>2024-01-29T11:09:27.902Z</time>
      </trkpt>
      <trkpt lat="43.57362" lon="7.12413">
        <ele>52.624426</ele>
        <time>2024-01-29T11:09:30.904Z</time>
      </trkpt>
      <trkpt lat="43.57353" lon="7.12418">
        <ele>52.478576</ele>
        <time>2024-01-29T11:09:33.898Z</time>
      </trkpt>
      <trkpt lat="43.57344" lon="7.12423">
        <ele>52.328127</ele>
        <time>2024-01-29T11:09:36.897Z</time>
      </trkpt>
      <trkpt lat="43.57334" lon="7.1243">
        <ele>52.159642</ele>
        <time>2024-01-29T11:09:39.932Z</time>
      </trkpt>
      <trkpt lat="43.57327" lon="7.12442">
        <ele>51.991032</ele>
        <time>2024-01-29T11:09:42.893Z</time>
      </trkpt>
      <trkpt lat="43.5732" lon="7.12455">
        <ele>51.811371</ele>
        <time>2024-01-29T11:09:45.911Z</time>
      </trkpt>
      <trkpt lat="43.5731" lon="7.12467">
        <ele>51.620133</ele>
        <time>2024-01-29T11:09:48.897Z</time>
      </trkpt>
      <trkpt lat="43.57303" lon="7.12474">
        <ele>51.479822</ele>
        <time>2024-01-29T11:09:50.919Z</time>
      </trkpt>
      <trkpt lat="43.57295" lon="7.12481">
        <ele>51.341338</ele>
        <time>2024-01-29T11:09:52.906Z</time>
      </trkpt>
      <trkpt lat="43.57287" lon="7.12488">
        <ele>51.204003</ele>
        <time>2024-01-29T11:09:54.905Z</time>
      </trkpt>
      <trkpt lat="43.57276" lon="7.12497">
        <ele>51.013898</ele>
        <time>2024-01-29T11:09:57.905Z</time>
      </trkpt>
      <trkpt lat="43.57266" lon="7.12508">
        <ele>50.811513</ele>
        <time>2024-01-29T11:10:00.904Z</time>
      </trkpt>
      <trkpt lat="43.57256" lon="7.12521">
        <ele>50.708428</ele>
        <time>2024-01-29T11:10:03.910Z</time>
      </trkpt>
      <trkpt lat="43.57248" lon="7.12534">
        <ele>50.663613</ele>
        <time>2024-01-29T11:10:06.906Z</time>
      </trkpt>
      <trkpt lat="43.57242" lon="7.12549">
        <ele>50.620096</ele>
        <time>2024-01-29T11:10:09.923Z</time>
      </trkpt>
      <trkpt lat="43.57238" lon="7.12564">
        <ele>50.57857</ele>
        <time>2024-01-29T11:10:12.894Z</time>
      </trkpt>
      <trkpt lat="43.57235" lon="7.1258">
        <ele>50.538319</ele>
        <time>2024-01-29T11:10:15.901Z</time>
      </trkpt>
      <trkpt lat="43.57235" lon="7.12596">
        <ele>50.498002</ele>
        <time>2024-01-29T11:10:18.921Z</time>
      </trkpt>
      <trkpt lat="43.57233" lon="7.12611">
        <ele>50.458449</ele>
        <time>2024-01-29T11:10:21.902Z</time>
      </trkpt>
      <trkpt lat="43.57232" lon="7.12625">
        <ele>50.421911</ele>
        <time>2024-01-29T11:10:24.912Z</time>
      </trkpt>
      <trkpt lat="43.57232" lon="7.12643">
        <ele>50.377598</ele>
        <time>2024-01-29T11:10:27.916Z</time>
      </trkpt>
      <trkpt lat="43.5723" lon="7.12659">
        <ele>50.336783</ele>
        <time>2024-01-29T11:10:30.906Z</time>
      </trkpt>
      <trkpt lat="43.57225" lon="7.12672">
        <ele>50.298575</ele>
        <time>2024-01-29T11:10:33.894Z</time>
      </trkpt>
      <trkpt lat="43.57218" lon="7.12684">
        <ele>50.258195</ele>
        <time>2024-01-29T11:10:36.886Z</time>
      </trkpt>
      <trkpt lat="43.57209" lon="7.12694">
        <ele>50.219318</ele>
        <time>2024-01-29T11:10:39.920Z</time>
      </trkpt>
      <trkpt lat="43.57201" lon="7.12704">
        <ele>50.179476</ele>
        <time>2024-01-29T11:10:42.904Z</time>
      </trkpt>
      <trkpt lat="43.5719" lon="7.12713">
        <ele>50.137099</ele>
        <time>2024-01-29T11:10:45.903Z</time>
      </trkpt>
      <trkpt lat="43.5718" lon="7.12721">
        <ele>50.090696</ele>
        <time>2024-01-29T11:10:48.898Z</time>
      </trkpt>
      <trkpt lat="43.5717" lon="7.12729">
        <ele>50.034827</ele>
        <time>2024-01-29T11:10:51.907Z</time>
      </trkpt>
      <trkpt lat="43.5716" lon="7.12738">
        <ele>49.978659</ele>
        <time>2024-01-29T11:10:54.901Z</time>
      </trkpt>
      <trkpt lat="43.5715" lon="7.12746">
        <ele>49.924557</ele>
        <time>2024-01-29T11:10:57.901Z</time>
      </trkpt>
      <trkpt lat="43.5714" lon="7.12754">
        <ele>49.869277</ele>
        <time>2024-01-29T11:11:00.901Z</time>
      </trkpt>
      <trkpt lat="43.5713" lon="7.12764">
        <ele>49.807922</ele>
        <time>2024-01-29T11:11:03.908Z</time>
      </trkpt>
      <trkpt lat="43.5712" lon="7.12773">
        <ele>49.75291</ele>
        <time>2024-01-29T11:11:06.886Z</time>
      </trkpt>
      <trkpt lat="43.57111" lon="7.12782">
        <ele>49.697924</ele>
        <time>2024-01-29T11:11:09.909Z</time>
      </trkpt>
      <trkpt lat="43.57101" lon="7.1279">
        <ele>49.643642</ele>
        <time>2024-01-29T11:11:12.916Z</time>
      </trkpt>
      <trkpt lat="43.57091" lon="7.12799">
        <ele>49.58492</ele>
        <time>2024-01-29T11:11:15.902Z</time>
      </trkpt>
      <trkpt lat="43.57082" lon="7.12808">
        <ele>49.530736</ele>
        <time>2024-01-29T11:11:18.893Z</time>
      </trkpt>
      <trkpt lat="43.57072" lon="7.12818">
        <ele>49.472996</ele>
        <time>2024-01-29T11:11:21.902Z</time>
      </trkpt>
      <trkpt lat="43.57063" lon="7.12827">
        <ele>49.421591</ele>
        <time>2024-01-29T11:11:24.910Z</time>
      </trkpt>
      <trkpt lat="43.57055" lon="7.12837">
        <ele>49.369115</ele>
        <time>2024-01-29T11:11:27.900Z</time>
      </trkpt>
      <trkpt lat="43.57045" lon="7.12846">
        <ele>49.314733</ele>
        <time>2024-01-29T11:11:30.902Z</time>
      </trkpt>
      <trkpt lat="43.57037" lon="7.12854">
        <ele>49.263681</ele>
        <time>2024-01-29T11:11:33.905Z</time>
      </trkpt>
      <trkpt lat="43.57028" lon="7.12864">
        <ele>49.277948</ele>
        <time>2024-01-29T11:11:36.901Z</time>
      </trkpt>
      <trkpt lat="43.57019" lon="7.12873">
        <ele>49.332225</ele>
        <time>2024-01-29T11:11:39.900Z</time>
      </trkpt>
      <trkpt lat="43.5701" lon="7.12883">
        <ele>49.388721</ele>
        <time>2024-01-29T11:11:42.906Z</time>
      </trkpt>
      <trkpt lat="43.57002" lon="7.12892">
        <ele>49.439891</ele>
        <time>2024-01-29T11:11:45.914Z</time>
      </trkpt>
      <trkpt lat="43.56994" lon="7.12902">
        <ele>49.492602</ele>
        <time>2024-01-29T11:11:48.904Z</time>
      </trkpt>
      <trkpt lat="43.56986" lon="7.12914">
        <ele>49.549013</ele>
        <time>2024-01-29T11:11:51.906Z</time>
      </trkpt>
      <trkpt lat="43.56977" lon="7.12924">
        <ele>49.603855</ele>
        <time>2024-01-29T11:11:54.909Z</time>
      </trkpt>
      <trkpt lat="43.56969" lon="7.12934">
        <ele>49.657882</ele>
        <time>2024-01-29T11:11:57.901Z</time>
      </trkpt>
      <trkpt lat="43.56962" lon="7.12945">
        <ele>49.710745</ele>
        <time>2024-01-29T11:12:00.908Z</time>
      </trkpt>
      <trkpt lat="43.56954" lon="7.12956">
        <ele>49.767076</ele>
        <time>2024-01-29T11:12:03.921Z</time>
      </trkpt>
      <trkpt lat="43.56947" lon="7.12968">
        <ele>49.821349</ele>
        <time>2024-01-29T11:12:06.901Z</time>
      </trkpt>
      <trkpt lat="43.56939" lon="7.12979">
        <ele>49.874007</ele>
        <time>2024-01-29T11:12:09.905Z</time>
      </trkpt>
      <trkpt lat="43.56933" lon="7.12992">
        <ele>49.928487</ele>
        <time>2024-01-29T11:12:12.922Z</time>
      </trkpt>
      <trkpt lat="43.56928" lon="7.13005">
        <ele>49.98206</ele>
        <time>2024-01-29T11:12:15.905Z</time>
      </trkpt>
      <trkpt lat="43.56923" lon="7.13019">
        <ele>50.036561</ele>
        <time>2024-01-29T11:12:18.889Z</time>
      </trkpt>
      <trkpt lat="43.56916" lon="7.13033">
        <ele>50.094921</ele>
        <time>2024-01-29T11:12:21.904Z</time>
      </trkpt>
      <trkpt lat="43.56911" lon="7.13045">
        <ele>50.232153</ele>
        <time>2024-01-29T11:12:24.898Z</time>
      </trkpt>
      <trkpt lat="43.56907" lon="7.13059">
        <ele>50.458493</ele>
        <time>2024-01-29T11:12:27.903Z</time>
      </trkpt>
      <trkpt lat="43.56902" lon="7.13074">
        <ele>50.704142</ele>
        <time>2024-01-29T11:12:30.909Z</time>
      </trkpt>
      <trkpt lat="43.56897" lon="7.13089">
        <ele>50.948222</ele>
        <time>2024-01-29T11:12:33.878Z</time>
      </trkpt>
      <trkpt lat="43.56893" lon="7.13104">
        <ele>51.191623</ele>
        <time>2024-01-29T11:12:36.886Z</time>
      </trkpt>
      <trkpt lat="43.56891" lon="7.13119">
        <ele>51.428522</ele>
        <time>2024-01-29T11:12:39.914Z</time>
      </trkpt>
      <trkpt lat="43.5689" lon="7.13134">
        <ele>51.664171</ele>
        <time>2024-01-29T11:12:42.899Z</time>
      </trkpt>
      <trkpt lat="43.56891" lon="7.13148">
        <ele>51.875827</ele>
        <time>2024-01-29T11:12:45.913Z</time>
      </trkpt>
      <trkpt lat="43.56895" lon="7.13161">
        <ele>52.089502</ele>
        <time>2024-01-29T11:12:48.889Z</time>
      </trkpt>
      <trkpt lat="43.56901" lon="7.13173">
        <ele>52.304308</ele>
        <time>2024-01-29T11:12:51.905Z</time>
      </trkpt>
      <trkpt lat="43.56907" lon="7.13181">
        <ele>52.496126</ele>
        <time>2024-01-29T11:12:54.910Z</time>
      </trkpt>
      <trkpt lat="43.56915" lon="7.1319">
        <ele>52.696536</ele>
        <time>2024-01-29T11:12:57.907Z</time>
      </trkpt>
      <trkpt lat="43.56922" lon="7.13198">
        <ele>52.90406</ele>
        <time>2024-01-29T11:13:00.892Z</time>
      </trkpt>
      <trkpt lat="43.56929" lon="7.13208">
        <ele>53.101213</ele>
        <time>2024-01-29T11:13:03.903Z</time>
      </trkpt>
      <trkpt lat="43.56936" lon="7.13218">
        <ele>53.320481</ele>
        <time>2024-01-29T11:13:07.906Z</time>
      </trkpt>
      <trkpt lat="43.56943" lon="7.1323">
        <ele>53.552163</ele>
        <time>2024-01-29T11:13:11.901Z</time>
      </trkpt>
      <trkpt lat="43.56948" lon="7.1324">
        <ele>53.745785</ele>
        <time>2024-01-29T11:13:15.897Z</time>
      </trkpt>
      <trkpt lat="43.56954" lon="7.13251">
        <ele>53.903253</ele>
        <time>2024-01-29T11:13:19.885Z</time>
      </trkpt>
      <trkpt lat="43.56961" lon="7.13263">
        <ele>53.909024</ele>
        <time>2024-01-29T11:13:24.888Z</time>
      </trkpt>
      <trkpt lat="43.56967" lon="7.13273">
        <ele>53.913813</ele>
        <time>2024-01-29T11:13:28.910Z</time>
      </trkpt>
      <trkpt lat="43.56973" lon="7.13284">
        <ele>53.918724</ele>
        <time>2024-01-29T11:13:32.902Z</time>
      </trkpt>
      <trkpt lat="43.56979" lon="7.13296">
        <ele>53.924258</ele>
        <time>2024-01-29T11:13:36.903Z</time>
      </trkpt>
      <trkpt lat="43.56985" lon="7.13305">
        <ele>53.928875</ele>
        <time>2024-01-29T11:13:39.917Z</time>
      </trkpt>
      <trkpt lat="43.56992" lon="7.13316">
        <ele>53.933949</ele>
        <time>2024-01-29T11:13:42.905Z</time>
      </trkpt>
      <trkpt lat="43.56998" lon="7.13326">
        <ele>53.938949</ele>
        <time>2024-01-29T11:13:45.891Z</time>
      </trkpt>
      <trkpt lat="43.57002" lon="7.1334">
        <ele>53.944359</ele>
        <time>2024-01-29T11:13:48.917Z</time>
      </trkpt>
      <trkpt lat="43.57003" lon="7.13354">
        <ele>53.949617</ele>
        <time>2024-01-29T11:13:51.912Z</time>
      </trkpt>
      <trkpt lat="43.57" lon="7.13369">
        <ele>53.95528</ele>
        <time>2024-01-29T11:13:54.889Z</time>
      </trkpt>
      <trkpt lat="43.56997" lon="7.13383">
        <ele>53.960723</ele>
        <time>2024-01-29T11:13:57.899Z</time>
      </trkpt>
      <trkpt lat="43.56992" lon="7.13399">
        <ele>53.967207</ele>
        <time>2024-01-29T11:14:00.907Z</time>
      </trkpt>
      <trkpt lat="43.56987" lon="7.13416">
        <ele>53.974085</ele>
        <time>2024-01-29T11:14:03.902Z</time>
      </trkpt>
      <trkpt lat="43.56984" lon="7.13434">
        <ele>53.980657</ele>
        <time>2024-01-29T11:14:06.901Z</time>
      </trkpt>
      <trkpt lat="43.56981" lon="7.13452">
        <ele>53.987572</ele>
        <time>2024-01-29T11:14:09.920Z</time>
      </trkpt>
      <trkpt lat="43.5698" lon="7.1347">
        <ele>53.998617</ele>
        <time>2024-01-29T11:14:12.906Z</time>
      </trkpt>
      <trkpt lat="43.56979" lon="7.13487">
        <ele>54.062267</ele>
        <time>2024-01-29T11:14:15.905Z</time>
      </trkpt>
      <trkpt lat="43.56981" lon="7.13501">
        <ele>54.113425</ele>
        <time>2024-01-29T11:14:18.906Z</time>
      </trkpt>
      <trkpt lat="43.56985" lon="7.13512">
        <ele>54.159919</ele>
        <time>2024-01-29T11:14:22.900Z</time>
      </trkpt>
      <trkpt lat="43.56987" lon="7.13525">
        <ele>54.207395</ele>
        <time>2024-01-29T11:14:31.907Z</time>
      </trkpt>
      <trkpt lat="43.56988" lon="7.13526">
        <ele>54.214355</ele>
        <time>2024-01-29T11:15:15.892Z</time>
      </trkpt>
      <trkpt lat="43.56986" lon="7.13635">
        <ele>54.614551</ele>
        <time>2024-01-29T11:17:32.895Z</time>
      </trkpt>
      <trkpt lat="43.56986" lon="7.13651">
        <ele>54.674966</ele>
        <time>2024-01-29T11:17:36.910Z</time>
      </trkpt>
      <trkpt lat="43.56983" lon="7.13664">
        <ele>54.723186</ele>
        <time>2024-01-29T11:17:39.909Z</time>
      </trkpt>
      <trkpt lat="43.5698" lon="7.13677">
        <ele>54.774581</ele>
        <time>2024-01-29T11:17:42.903Z</time>
      </trkpt>
      <trkpt lat="43.56977" lon="7.1369">
        <ele>54.822049</ele>
        <time>2024-01-29T11:17:45.905Z</time>
      </trkpt>
      <trkpt lat="43.56975" lon="7.13702">
        <ele>54.867796</ele>
        <time>2024-01-29T11:17:48.889Z</time>
      </trkpt>
      <trkpt lat="43.56971" lon="7.13717">
        <ele>54.855238</ele>
        <time>2024-01-29T11:17:52.900Z</time>
      </trkpt>
      <trkpt lat="43.56968" lon="7.13728">
        <ele>54.71984</ele>
        <time>2024-01-29T11:17:55.904Z</time>
      </trkpt>
      <trkpt lat="43.56965" lon="7.13741">
        <ele>54.568431</ele>
        <time>2024-01-29T11:17:58.895Z</time>
      </trkpt>
      <trkpt lat="43.56963" lon="7.13759">
        <ele>54.379114</ele>
        <time>2024-01-29T11:18:01.901Z</time>
      </trkpt>
      <trkpt lat="43.56962" lon="7.13777">
        <ele>54.183918</ele>
        <time>2024-01-29T11:18:05.004Z</time>
      </trkpt>
      <trkpt lat="43.56964" lon="7.13789">
        <ele>54.045165</ele>
        <time>2024-01-29T11:18:06.894Z</time>
      </trkpt>
      <trkpt lat="43.56967" lon="7.13801">
        <ele>53.906285</ele>
        <time>2024-01-29T11:18:08.889Z</time>
      </trkpt>
      <trkpt lat="43.5697" lon="7.13814">
        <ele>53.762592</ele>
        <time>2024-01-29T11:18:10.928Z</time>
      </trkpt>
      <trkpt lat="43.56972" lon="7.13828">
        <ele>53.605168</ele>
        <time>2024-01-29T11:18:12.880Z</time>
      </trkpt>
      <trkpt lat="43.56976" lon="7.13843">
        <ele>53.437759</ele>
        <time>2024-01-29T11:18:14.920Z</time>
      </trkpt>
      <trkpt lat="43.56979" lon="7.13858">
        <ele>53.266367</ele>
        <time>2024-01-29T11:18:16.920Z</time>
      </trkpt>
      <trkpt lat="43.56982" lon="7.13875">
        <ele>53.073897</ele>
        <time>2024-01-29T11:18:18.900Z</time>
      </trkpt>
      <trkpt lat="43.56984" lon="7.13893">
        <ele>52.88345</ele>
        <time>2024-01-29T11:18:20.900Z</time>
      </trkpt>
      <trkpt lat="43.56985" lon="7.1391">
        <ele>52.692676</ele>
        <time>2024-01-29T11:18:22.902Z</time>
      </trkpt>
      <trkpt lat="43.56983" lon="7.13927">
        <ele>52.509444</ele>
        <time>2024-01-29T11:18:24.896Z</time>
      </trkpt>
      <trkpt lat="43.56979" lon="7.13943">
        <ele>52.328521</ele>
        <time>2024-01-29T11:18:26.896Z</time>
      </trkpt>
      <trkpt lat="43.56974" lon="7.13957">
        <ele>52.28842</ele>
        <time>2024-01-29T11:18:28.892Z</time>
      </trkpt>
      <trkpt lat="43.56968" lon="7.13969">
        <ele>52.47737</ele>
        <time>2024-01-29T11:18:30.918Z</time>
      </trkpt>
      <trkpt lat="43.56962" lon="7.13978">
        <ele>52.645819</ele>
        <time>2024-01-29T11:18:32.911Z</time>
      </trkpt>
      <trkpt lat="43.56953" lon="7.13989">
        <ele>52.87163</ele>
        <time>2024-01-29T11:18:35.925Z</time>
      </trkpt>
      <trkpt lat="43.56943" lon="7.13996">
        <ele>53.072294</ele>
        <time>2024-01-29T11:18:38.889Z</time>
      </trkpt>
      <trkpt lat="43.56934" lon="7.14">
        <ele>53.252953</ele>
        <time>2024-01-29T11:18:42.911Z</time>
      </trkpt>
      <trkpt lat="43.56922" lon="7.14002">
        <ele>53.464981</ele>
        <time>2024-01-29T11:18:54.904Z</time>
      </trkpt>
      <trkpt lat="43.56912" lon="7.13999">
        <ele>53.656611</ele>
        <time>2024-01-29T11:18:57.913Z</time>
      </trkpt>
      <trkpt lat="43.56901" lon="7.13993">
        <ele>53.874687</ele>
        <time>2024-01-29T11:19:00.904Z</time>
      </trkpt>
      <trkpt lat="43.56891" lon="7.13983">
        <ele>54.096255</ele>
        <time>2024-01-29T11:19:03.915Z</time>
      </trkpt>
      <trkpt lat="43.56884" lon="7.13969">
        <ele>54.324714</ele>
        <time>2024-01-29T11:19:06.909Z</time>
      </trkpt>
      <trkpt lat="43.56878" lon="7.13954">
        <ele>54.553882</ele>
        <time>2024-01-29T11:19:09.923Z</time>
      </trkpt>
      <trkpt lat="43.56872" lon="7.13937">
        <ele>54.805514</ele>
        <time>2024-01-29T11:19:12.901Z</time>
      </trkpt>
      <trkpt lat="43.56866" lon="7.13921">
        <ele>55.048461</ele>
        <time>2024-01-29T11:19:15.911Z</time>
      </trkpt>
      <trkpt lat="43.56859" lon="7.13906">
        <ele>55.284706</ele>
        <time>2024-01-29T11:19:18.891Z</time>
      </trkpt>
      <trkpt lat="43.56853" lon="7.13891">
        <ele>55.511779</ele>
        <time>2024-01-29T11:19:21.919Z</time>
      </trkpt>
      <trkpt lat="43.56846" lon="7.13877">
        <ele>55.76247</ele>
        <time>2024-01-29T11:19:24.919Z</time>
      </trkpt>
      <trkpt lat="43.56838" lon="7.13865">
        <ele>56.009739</ele>
        <time>2024-01-29T11:19:27.892Z</time>
      </trkpt>
      <trkpt lat="43.5683" lon="7.13855">
        <ele>56.23234</ele>
        <time>2024-01-29T11:19:30.906Z</time>
      </trkpt>
      <trkpt lat="43.56823" lon="7.13847">
        <ele>56.419777</ele>
        <time>2024-01-29T11:19:33.928Z</time>
      </trkpt>
      <trkpt lat="43.56816" lon="7.13839">
        <ele>56.612525</ele>
        <time>2024-01-29T11:19:36.907Z</time>
      </trkpt>
      <trkpt lat="43.56808" lon="7.13831">
        <ele>56.804347</ele>
        <time>2024-01-29T11:19:39.920Z</time>
      </trkpt>
      <trkpt lat="43.568" lon="7.13824">
        <ele>57.00895</ele>
        <time>2024-01-29T11:19:42.919Z</time>
      </trkpt>
      <trkpt lat="43.56792" lon="7.13815">
        <ele>57.214845</ele>
        <time>2024-01-29T11:19:45.914Z</time>
      </trkpt>
      <trkpt lat="43.56783" lon="7.13807">
        <ele>57.42372</ele>
        <time>2024-01-29T11:19:48.896Z</time>
      </trkpt>
      <trkpt lat="43.56775" lon="7.13799">
        <ele>57.636123</ele>
        <time>2024-01-29T11:19:51.916Z</time>
      </trkpt>
      <trkpt lat="43.56767" lon="7.13791">
        <ele>57.852552</ele>
        <time>2024-01-29T11:19:54.896Z</time>
      </trkpt>
      <trkpt lat="43.56758" lon="7.13783">
        <ele>58.061427</ele>
        <time>2024-01-29T11:19:57.890Z</time>
      </trkpt>
      <trkpt lat="43.5675" lon="7.13776">
        <ele>58.262673</ele>
        <time>2024-01-29T11:20:00.913Z</time>
      </trkpt>
      <trkpt lat="43.56743" lon="7.13768">
        <ele>58.449828</ele>
        <time>2024-01-29T11:20:03.911Z</time>
      </trkpt>
      <trkpt lat="43.56735" lon="7.1376">
        <ele>58.65693</ele>
        <time>2024-01-29T11:20:06.919Z</time>
      </trkpt>
      <trkpt lat="43.56725" lon="7.13756">
        <ele>58.859209</ele>
        <time>2024-01-29T11:20:09.910Z</time>
      </trkpt>
      <trkpt lat="43.56715" lon="7.13753">
        <ele>59.073989</ele>
        <time>2024-01-29T11:20:12.908Z</time>
      </trkpt>
      <trkpt lat="43.56705" lon="7.13751">
        <ele>59.235453</ele>
        <time>2024-01-29T11:20:15.901Z</time>
      </trkpt>
      <trkpt lat="43.56695" lon="7.13748">
        <ele>59.258345</ele>
        <time>2024-01-29T11:20:18.907Z</time>
      </trkpt>
      <trkpt lat="43.56685" lon="7.13745">
        <ele>59.27995</ele>
        <time>2024-01-29T11:20:21.889Z</time>
      </trkpt>
      <trkpt lat="43.56676" lon="7.13743">
        <ele>59.301262</ele>
        <time>2024-01-29T11:20:24.901Z</time>
      </trkpt>
      <trkpt lat="43.56667" lon="7.13742">
        <ele>59.320963</ele>
        <time>2024-01-29T11:20:27.902Z</time>
      </trkpt>
      <trkpt lat="43.56656" lon="7.13739">
        <ele>59.345626</ele>
        <time>2024-01-29T11:20:31.909Z</time>
      </trkpt>
      <trkpt lat="43.56646" lon="7.13738">
        <ele>59.365872</ele>
        <time>2024-01-29T11:20:34.913Z</time>
      </trkpt>
      <trkpt lat="43.56636" lon="7.13737">
        <ele>59.3889</ele>
        <time>2024-01-29T11:20:37.896Z</time>
      </trkpt>
      <trkpt lat="43.56624" lon="7.13733">
        <ele>59.415608</ele>
        <time>2024-01-29T11:20:40.910Z</time>
      </trkpt>
      <trkpt lat="43.56612" lon="7.1373">
        <ele>59.442838</ele>
        <time>2024-01-29T11:20:43.908Z</time>
      </trkpt>
      <trkpt lat="43.56599" lon="7.13727">
        <ele>59.472041</ele>
        <time>2024-01-29T11:20:46.899Z</time>
      </trkpt>
      <trkpt lat="43.56589" lon="7.13723">
        <ele>59.493758</ele>
        <time>2024-01-29T11:20:48.905Z</time>
      </trkpt>
      <trkpt lat="43.5658" lon="7.13721">
        <ele>59.51533</ele>
        <time>2024-01-29T11:20:50.894Z</time>
      </trkpt>
      <trkpt lat="43.56569" lon="7.13719">
        <ele>59.538358</ele>
        <time>2024-01-29T11:20:52.888Z</time>
      </trkpt>
      <trkpt lat="43.56559" lon="7.13718">
        <ele>59.56033</ele>
        <time>2024-01-29T11:20:54.902Z</time>
      </trkpt>
      <trkpt lat="43.56549" lon="7.1372">
        <ele>59.583319</ele>
        <time>2024-01-29T11:20:56.881Z</time>
      </trkpt>
      <trkpt lat="43.56539" lon="7.13723">
        <ele>59.606177</ele>
        <time>2024-01-29T11:20:58.887Z</time>
      </trkpt>
      <trkpt lat="43.56529" lon="7.1373">
        <ele>59.568567</ele>
        <time>2024-01-29T11:21:00.897Z</time>
      </trkpt>
      <trkpt lat="43.56519" lon="7.13736">
        <ele>59.304923</ele>
        <time>2024-01-29T11:21:02.910Z</time>
      </trkpt>
      <trkpt lat="43.56509" lon="7.13742">
        <ele>59.031612</ele>
        <time>2024-01-29T11:21:04.906Z</time>
      </trkpt>
      <trkpt lat="43.565" lon="7.13749">
        <ele>58.774415</ele>
        <time>2024-01-29T11:21:06.896Z</time>
      </trkpt>
      <trkpt lat="43.56491" lon="7.13754">
        <ele>58.529282</ele>
        <time>2024-01-29T11:21:08.894Z</time>
      </trkpt>
      <trkpt lat="43.56482" lon="7.13759">
        <ele>58.279552</ele>
        <time>2024-01-29T11:21:10.899Z</time>
      </trkpt>
      <trkpt lat="43.56473" lon="7.13764">
        <ele>58.048936</ele>
        <time>2024-01-29T11:21:12.911Z</time>
      </trkpt>
      <trkpt lat="43.56464" lon="7.1377">
        <ele>57.810675</ele>
        <time>2024-01-29T11:21:14.919Z</time>
      </trkpt>
      <trkpt lat="43.56456" lon="7.13776">
        <ele>57.572559</ele>
        <time>2024-01-29T11:21:16.899Z</time>
      </trkpt>
      <trkpt lat="43.56447" lon="7.13781">
        <ele>57.333708</ele>
        <time>2024-01-29T11:21:18.885Z</time>
      </trkpt>
      <trkpt lat="43.56438" lon="7.13787">
        <ele>57.101561</ele>
        <time>2024-01-29T11:21:20.906Z</time>
      </trkpt>
      <trkpt lat="43.5643" lon="7.13792">
        <ele>56.873132</ele>
        <time>2024-01-29T11:21:22.879Z</time>
      </trkpt>
      <trkpt lat="43.56421" lon="7.13797">
        <ele>56.638718</ele>
        <time>2024-01-29T11:21:24.905Z</time>
      </trkpt>
      <trkpt lat="43.56413" lon="7.13803">
        <ele>56.404304</ele>
        <time>2024-01-29T11:21:26.907Z</time>
      </trkpt>
      <trkpt lat="43.56404" lon="7.13809">
        <ele>56.163162</ele>
        <time>2024-01-29T11:21:28.906Z</time>
      </trkpt>
      <trkpt lat="43.56395" lon="7.13815">
        <ele>55.922691</ele>
        <time>2024-01-29T11:21:30.904Z</time>
      </trkpt>
      <trkpt lat="43.56387" lon="7.1382">
        <ele>55.695792</ele>
        <time>2024-01-29T11:21:32.908Z</time>
      </trkpt>
      <trkpt lat="43.56375" lon="7.13828">
        <ele>55.375961</ele>
        <time>2024-01-29T11:21:35.908Z</time>
      </trkpt>
      <trkpt lat="43.56365" lon="7.13835">
        <ele>55.188116</ele>
        <time>2024-01-29T11:21:38.896Z</time>
      </trkpt>
      <trkpt lat="43.56354" lon="7.13841">
        <ele>55.220324</ele>
        <time>2024-01-29T11:21:41.916Z</time>
      </trkpt>
      <trkpt lat="43.56344" lon="7.13847">
        <ele>55.253162</ele>
        <time>2024-01-29T11:21:44.911Z</time>
      </trkpt>
      <trkpt lat="43.56334" lon="7.13855">
        <ele>55.285942</ele>
        <time>2024-01-29T11:21:47.912Z</time>
      </trkpt>
      <trkpt lat="43.56323" lon="7.13862">
        <ele>55.320119</ele>
        <time>2024-01-29T11:21:50.902Z</time>
      </trkpt>
      <trkpt lat="43.56312" lon="7.13869">
        <ele>55.354619</ele>
        <time>2024-01-29T11:21:53.905Z</time>
      </trkpt>
      <trkpt lat="43.56299" lon="7.13871">
        <ele>55.390818</ele>
        <time>2024-01-29T11:21:56.896Z</time>
      </trkpt>
      <trkpt lat="43.5629" lon="7.13871">
        <ele>55.418019</ele>
        <time>2024-01-29T11:21:58.892Z</time>
      </trkpt>
      <trkpt lat="43.56281" lon="7.13868">
        <ele>55.444462</ele>
        <time>2024-01-29T11:22:00.886Z</time>
      </trkpt>
      <trkpt lat="43.56268" lon="7.13862">
        <ele>55.482537</ele>
        <time>2024-01-29T11:22:03.897Z</time>
      </trkpt>
      <trkpt lat="43.5626" lon="7.13856">
        <ele>55.508275</ele>
        <time>2024-01-29T11:22:05.907Z</time>
      </trkpt>
      <trkpt lat="43.56252" lon="7.1385">
        <ele>55.53459</ele>
        <time>2024-01-29T11:22:07.901Z</time>
      </trkpt>
      <trkpt lat="43.56241" lon="7.13841">
        <ele>55.572365</ele>
        <time>2024-01-29T11:22:10.876Z</time>
      </trkpt>
      <trkpt lat="43.56229" lon="7.13832">
        <ele>55.610293</ele>
        <time>2024-01-29T11:22:13.901Z</time>
      </trkpt>
      <trkpt lat="43.56222" lon="7.13825">
        <ele>55.636363</ele>
        <time>2024-01-29T11:22:15.910Z</time>
      </trkpt>
      <trkpt lat="43.56213" lon="7.1382">
        <ele>55.662707</ele>
        <time>2024-01-29T11:22:17.898Z</time>
      </trkpt>
      <trkpt lat="43.56202" lon="7.13811">
        <ele>55.673343</ele>
        <time>2024-01-29T11:22:20.913Z</time>
      </trkpt>
      <trkpt lat="43.5619" lon="7.13804">
        <ele>55.587825</ele>
        <time>2024-01-29T11:22:23.911Z</time>
      </trkpt>
      <trkpt lat="43.56178" lon="7.13796">
        <ele>55.499684</ele>
        <time>2024-01-29T11:22:26.912Z</time>
      </trkpt>
      <trkpt lat="43.56166" lon="7.1379">
        <ele>55.414938</ele>
        <time>2024-01-29T11:22:29.902Z</time>
      </trkpt>
      <trkpt lat="43.56154" lon="7.13783">
        <ele>55.332796</ele>
        <time>2024-01-29T11:22:32.901Z</time>
      </trkpt>
      <trkpt lat="43.56144" lon="7.13774">
        <ele>55.254245</ele>
        <time>2024-01-29T11:22:35.908Z</time>
      </trkpt>
      <trkpt lat="43.56134" lon="7.13763">
        <ele>55.170286</ele>
        <time>2024-01-29T11:22:38.900Z</time>
      </trkpt>
      <trkpt lat="43.56126" lon="7.1375">
        <ele>55.085916</ele>
        <time>2024-01-29T11:22:41.904Z</time>
      </trkpt>
      <trkpt lat="43.56119" lon="7.13737">
        <ele>55.008071</ele>
        <time>2024-01-29T11:22:44.887Z</time>
      </trkpt>
      <trkpt lat="43.56112" lon="7.13722">
        <ele>54.929261</ele>
        <time>2024-01-29T11:22:47.907Z</time>
      </trkpt>
      <trkpt lat="43.56105" lon="7.1371">
        <ele>54.85048</ele>
        <time>2024-01-29T11:22:50.915Z</time>
      </trkpt>
      <trkpt lat="43.56096" lon="7.13697">
        <ele>54.767224</ele>
        <time>2024-01-29T11:22:53.911Z</time>
      </trkpt>
      <trkpt lat="43.56085" lon="7.13687">
        <ele>54.6813</ele>
        <time>2024-01-29T11:22:56.895Z</time>
      </trkpt>
      <trkpt lat="43.56075" lon="7.13676">
        <ele>54.596415</ele>
        <time>2024-01-29T11:22:59.906Z</time>
      </trkpt>
      <trkpt lat="43.56063" lon="7.13666">
        <ele>54.508968</ele>
        <time>2024-01-29T11:23:02.903Z</time>
      </trkpt>
      <trkpt lat="43.56056" lon="7.1366">
        <ele>54.459227</ele>
        <time>2024-01-29T11:23:04.908Z</time>
      </trkpt>
      <trkpt lat="43.56048" lon="7.13653">
        <ele>54.407391</ele>
        <time>2024-01-29T11:23:06.907Z</time>
      </trkpt>
      <trkpt lat="43.56039" lon="7.13647">
        <ele>54.356731</ele>
        <time>2024-01-29T11:23:08.896Z</time>
      </trkpt>
      <trkpt lat="43.56031" lon="7.13641">
        <ele>54.305688</ele>
        <time>2024-01-29T11:23:10.900Z</time>
      </trkpt>
      <trkpt lat="43.56023" lon="7.13635">
        <ele>54.255028</ele>
        <time>2024-01-29T11:23:12.912Z</time>
      </trkpt>
      <trkpt lat="43.56015" lon="7.13629">
        <ele>54.203593</ele>
        <time>2024-01-29T11:23:14.905Z</time>
      </trkpt>
      <trkpt lat="43.56007" lon="7.13623">
        <ele>54.151653</ele>
        <time>2024-01-29T11:23:16.901Z</time>
      </trkpt>
      <trkpt lat="43.55995" lon="7.13614">
        <ele>54.077739</ele>
        <time>2024-01-29T11:23:19.901Z</time>
      </trkpt>
      <trkpt lat="43.55987" lon="7.13608">
        <ele>54.026214</ele>
        <time>2024-01-29T11:23:21.912Z</time>
      </trkpt>
      <trkpt lat="43.55978" lon="7.13602">
        <ele>53.972928</ele>
        <time>2024-01-29T11:23:23.919Z</time>
      </trkpt>
      <trkpt lat="43.5597" lon="7.13596">
        <ele>53.920496</ele>
        <time>2024-01-29T11:23:25.917Z</time>
      </trkpt>
      <trkpt lat="43.55962" lon="7.1359">
        <ele>53.870129</ele>
        <time>2024-01-29T11:23:27.915Z</time>
      </trkpt>
      <trkpt lat="43.55953" lon="7.13584">
        <ele>53.819391</ele>
        <time>2024-01-29T11:23:29.900Z</time>
      </trkpt>
      <trkpt lat="43.55945" lon="7.13578">
        <ele>53.768056</ele>
        <time>2024-01-29T11:23:31.901Z</time>
      </trkpt>
      <trkpt lat="43.55937" lon="7.13571">
        <ele>53.715744</ele>
        <time>2024-01-29T11:23:33.907Z</time>
      </trkpt>
      <trkpt lat="43.55929" lon="7.13565">
        <ele>53.664309</ele>
        <time>2024-01-29T11:23:35.900Z</time>
      </trkpt>
      <trkpt lat="43.5592" lon="7.13559">
        <ele>53.612726</ele>
        <time>2024-01-29T11:23:37.902Z</time>
      </trkpt>
      <trkpt lat="43.55912" lon="7.13553">
        <ele>53.559622</ele>
        <time>2024-01-29T11:23:39.902Z</time>
      </trkpt>
      <trkpt lat="43.55903" lon="7.13548">
        <ele>53.533982</ele>
        <time>2024-01-29T11:23:41.915Z</time>
      </trkpt>
      <trkpt lat="43.55895" lon="7.13541">
        <ele>53.589747</ele>
        <time>2024-01-29T11:23:43.907Z</time>
      </trkpt>
      <trkpt lat="43.55887" lon="7.13535">
        <ele>53.646712</ele>
        <time>2024-01-29T11:23:45.916Z</time>
      </trkpt>
      <trkpt lat="43.55879" lon="7.13529">
        <ele>53.702841</ele>
        <time>2024-01-29T11:23:47.911Z</time>
      </trkpt>
      <trkpt lat="43.55867" lon="7.1352">
        <ele>53.785321</ele>
        <time>2024-01-29T11:23:50.909Z</time>
      </trkpt>
      <trkpt lat="43.55855" lon="7.13512">
        <ele>53.863097</ele>
        <time>2024-01-29T11:23:53.899Z</time>
      </trkpt>
      <trkpt lat="43.55844" lon="7.13505">
        <ele>53.939209</ele>
        <time>2024-01-29T11:23:56.897Z</time>
      </trkpt>
      <trkpt lat="43.55833" lon="7.13497">
        <ele>54.014455</ele>
        <time>2024-01-29T11:23:59.902Z</time>
      </trkpt>
      <trkpt lat="43.55823" lon="7.1349">
        <ele>54.085476</ele>
        <time>2024-01-29T11:24:02.913Z</time>
      </trkpt>
      <trkpt lat="43.55812" lon="7.13483">
        <ele>54.157348</ele>
        <time>2024-01-29T11:24:05.918Z</time>
      </trkpt>
      <trkpt lat="43.558" lon="7.13478">
        <ele>54.231689</ele>
        <time>2024-01-29T11:24:08.901Z</time>
      </trkpt>
      <trkpt lat="43.55789" lon="7.13474">
        <ele>54.304171</ele>
        <time>2024-01-29T11:24:11.909Z</time>
      </trkpt>
      <trkpt lat="43.55776" lon="7.13474">
        <ele>54.378838</ele>
        <time>2024-01-29T11:24:14.888Z</time>
      </trkpt>
      <trkpt lat="43.55763" lon="7.13475">
        <ele>54.459015</ele>
        <time>2024-01-29T11:24:17.898Z</time>
      </trkpt>
      <trkpt lat="43.55754" lon="7.13476">
        <ele>54.515028</ele>
        <time>2024-01-29T11:24:19.912Z</time>
      </trkpt>
      <trkpt lat="43.55745" lon="7.13477">
        <ele>54.57</ele>
        <time>2024-01-29T11:24:21.920Z</time>
      </trkpt>
      <trkpt lat="43.55736" lon="7.13478">
        <ele>54.623235</ele>
        <time>2024-01-29T11:24:23.900Z</time>
      </trkpt>
      <trkpt lat="43.55727" lon="7.13479">
        <ele>54.673492</ele>
        <time>2024-01-29T11:24:25.921Z</time>
      </trkpt>
      <trkpt lat="43.55718" lon="7.13479">
        <ele>54.721982</ele>
        <time>2024-01-29T11:24:27.907Z</time>
      </trkpt>
      <trkpt lat="43.55709" lon="7.13479">
        <ele>54.77101</ele>
        <time>2024-01-29T11:24:29.921Z</time>
      </trkpt>
      <trkpt lat="43.55699" lon="7.1348">
        <ele>54.820675</ele>
        <time>2024-01-29T11:24:31.903Z</time>
      </trkpt>
      <trkpt lat="43.5569" lon="7.1348">
        <ele>54.871872</ele>
        <time>2024-01-29T11:24:33.908Z</time>
      </trkpt>
      <trkpt lat="43.55681" lon="7.1348">
        <ele>54.921478</ele>
        <time>2024-01-29T11:24:35.901Z</time>
      </trkpt>
      <trkpt lat="43.55672" lon="7.13481">
        <ele>54.970582</ele>
        <time>2024-01-29T11:24:37.919Z</time>
      </trkpt>
      <trkpt lat="43.55662" lon="7.13479">
        <ele>55.020498</ele>
        <time>2024-01-29T11:24:39.902Z</time>
      </trkpt>
      <trkpt lat="43.55654" lon="7.13475">
        <ele>55.069782</ele>
        <time>2024-01-29T11:24:41.892Z</time>
      </trkpt>
      <trkpt lat="43.55643" lon="7.13466">
        <ele>55.139146</ele>
        <time>2024-01-29T11:24:44.896Z</time>
      </trkpt>
      <trkpt lat="43.55633" lon="7.13456">
        <ele>55.204582</ele>
        <time>2024-01-29T11:24:47.917Z</time>
      </trkpt>
      <trkpt lat="43.55623" lon="7.13446">
        <ele>55.27112</ele>
        <time>2024-01-29T11:24:50.899Z</time>
      </trkpt>
      <trkpt lat="43.55613" lon="7.13436">
        <ele>55.335925</ele>
        <time>2024-01-29T11:24:53.902Z</time>
      </trkpt>
      <trkpt lat="43.55603" lon="7.13427">
        <ele>55.402273</ele>
        <time>2024-01-29T11:24:56.897Z</time>
      </trkpt>
      <trkpt lat="43.55593" lon="7.13416">
        <ele>55.468455</ele>
        <time>2024-01-29T11:24:59.913Z</time>
      </trkpt>
      <trkpt lat="43.55583" lon="7.13407">
        <ele>55.536534</ele>
        <time>2024-01-29T11:25:02.896Z</time>
      </trkpt>
      <trkpt lat="43.55573" lon="7.13398">
        <ele>55.504022</ele>
        <time>2024-01-29T11:25:05.909Z</time>
      </trkpt>
      <trkpt lat="43.55564" lon="7.13388">
        <ele>55.258818</ele>
        <time>2024-01-29T11:25:08.902Z</time>
      </trkpt>
      <trkpt lat="43.55555" lon="7.13379">
        <ele>55.030082</ele>
        <time>2024-01-29T11:25:11.907Z</time>
      </trkpt>
      <trkpt lat="43.55546" lon="7.13371">
        <ele>54.787397</ele>
        <time>2024-01-29T11:25:14.900Z</time>
      </trkpt>
      <trkpt lat="43.55537" lon="7.13363">
        <ele>54.561561</ele>
        <time>2024-01-29T11:25:17.894Z</time>
      </trkpt>
      <trkpt lat="43.55528" lon="7.13355">
        <ele>54.34006</ele>
        <time>2024-01-29T11:25:20.897Z</time>
      </trkpt>
      <trkpt lat="43.5552" lon="7.13349">
        <ele>54.143337</ele>
        <time>2024-01-29T11:25:23.926Z</time>
      </trkpt>
      <trkpt lat="43.55511" lon="7.13357">
        <ele>53.920136</ele>
        <time>2024-01-29T11:25:27.899Z</time>
      </trkpt>
      <trkpt lat="43.55509" lon="7.13374">
        <ele>53.659041</ele>
        <time>2024-01-29T11:25:31.901Z</time>
      </trkpt>
      <trkpt lat="43.5551" lon="7.13388">
        <ele>53.438304</ele>
        <time>2024-01-29T11:25:34.899Z</time>
      </trkpt>
      <trkpt lat="43.55512" lon="7.13403">
        <ele>53.202705</ele>
        <time>2024-01-29T11:25:37.921Z</time>
      </trkpt>
      <trkpt lat="43.55512" lon="7.13419">
        <ele>52.956469</ele>
        <time>2024-01-29T11:25:40.899Z</time>
      </trkpt>
      <trkpt lat="43.55511" lon="7.13435">
        <ele>52.706572</ele>
        <time>2024-01-29T11:25:43.913Z</time>
      </trkpt>
      <trkpt lat="43.55509" lon="7.13452">
        <ele>52.431566</ele>
        <time>2024-01-29T11:25:46.911Z</time>
      </trkpt>
      <trkpt lat="43.55505" lon="7.1347">
        <ele>52.151597</ele>
        <time>2024-01-29T11:25:49.904Z</time>
      </trkpt>
      <trkpt lat="43.55502" lon="7.13482">
        <ele>51.948587</ele>
        <time>2024-01-29T11:25:52.032Z</time>
      </trkpt>
      <trkpt lat="43.55496" lon="7.13495">
        <ele>51.748008</ele>
        <time>2024-01-29T11:25:53.924Z</time>
      </trkpt>
      <trkpt lat="43.5549" lon="7.13506">
        <ele>51.798365</ele>
        <time>2024-01-29T11:25:55.926Z</time>
      </trkpt>
      <trkpt lat="43.55485" lon="7.13518">
        <ele>51.850806</ele>
        <time>2024-01-29T11:25:58.901Z</time>
      </trkpt>
      <trkpt lat="43.55477" lon="7.13528">
        <ele>51.904406</ele>
        <time>2024-01-29T11:26:02.905Z</time>
      </trkpt>
      <trkpt lat="43.55468" lon="7.13535">
        <ele>51.957058</ele>
        <time>2024-01-29T11:26:07.896Z</time>
      </trkpt>
      <trkpt lat="43.55459" lon="7.1354">
        <ele>52.004719</ele>
        <time>2024-01-29T11:26:12.911Z</time>
      </trkpt>
      <trkpt lat="43.55462" lon="7.13545">
        <ele>52.025436</ele>
        <time>2024-01-29T11:26:57.625Z</time>
      </trkpt>
      <trkpt lat="43.55453" lon="7.13541">
        <ele>52.075334</ele>
        <time>2024-01-29T11:46:51.921Z</time>
      </trkpt>
      <trkpt lat="43.55445" lon="7.13547">
        <ele>52.122981</ele>
        <time>2024-01-29T11:46:56.914Z</time>
      </trkpt>
      <trkpt lat="43.55439" lon="7.13559">
        <ele>52.172189</ele>
        <time>2024-01-29T11:47:00.911Z</time>
      </trkpt>
      <trkpt lat="43.55435" lon="7.13571">
        <ele>52.222044</ele>
        <time>2024-01-29T11:47:04.891Z</time>
      </trkpt>
      <trkpt lat="43.55431" lon="7.13586">
        <ele>52.282739</ele>
        <time>2024-01-29T11:47:08.906Z</time>
      </trkpt>
      <trkpt lat="43.55426" lon="7.13598">
        <ele>52.334842</ele>
        <time>2024-01-29T11:47:11.921Z</time>
      </trkpt>
      <trkpt lat="43.55421" lon="7.13611">
        <ele>52.38803</ele>
        <time>2024-01-29T11:47:14.926Z</time>
      </trkpt>
      <trkpt lat="43.55416" lon="7.13623">
        <ele>52.440184</ele>
        <time>2024-01-29T11:47:17.907Z</time>
      </trkpt>
      <trkpt lat="43.55407" lon="7.13629">
        <ele>52.489377</ele>
        <time>2024-01-29T11:47:20.911Z</time>
      </trkpt>
      <trkpt lat="43.55399" lon="7.13624">
        <ele>52.536224</ele>
        <time>2024-01-29T11:47:23.956Z</time>
      </trkpt>
      <trkpt lat="43.55388" lon="7.13618">
        <ele>52.594709</ele>
        <time>2024-01-29T11:47:27.907Z</time>
      </trkpt>
      <trkpt lat="43.55377" lon="7.13612">
        <ele>52.652723</ele>
        <time>2024-01-29T11:47:31.912Z</time>
      </trkpt>
      <trkpt lat="43.55368" lon="7.13607">
        <ele>53.394546</ele>
        <time>2024-01-29T11:47:35.914Z</time>
      </trkpt>
      <trkpt lat="43.55359" lon="7.13603">
        <ele>54.138999</ele>
        <time>2024-01-29T11:47:39.874Z</time>
      </trkpt>
      <trkpt lat="43.55351" lon="7.13598">
        <ele>54.928123</ele>
        <time>2024-01-29T11:47:43.881Z</time>
      </trkpt>
      <trkpt lat="43.55342" lon="7.13593">
        <ele>55.681763</ele>
        <time>2024-01-29T11:47:47.918Z</time>
      </trkpt>
      <trkpt lat="43.55333" lon="7.13588">
        <ele>56.494599</ele>
        <time>2024-01-29T11:47:51.924Z</time>
      </trkpt>
      <trkpt lat="43.55324" lon="7.13585">
        <ele>57.249063</ele>
        <time>2024-01-29T11:47:55.888Z</time>
      </trkpt>
      <trkpt lat="43.55314" lon="7.13579">
        <ele>58.150613</ele>
        <time>2024-01-29T11:48:00.909Z</time>
      </trkpt>
      <trkpt lat="43.55305" lon="7.13573">
        <ele>59.015389</ele>
        <time>2024-01-29T11:48:05.908Z</time>
      </trkpt>
      <trkpt lat="43.55295" lon="7.13569">
        <ele>59.853635</ele>
        <time>2024-01-29T11:48:10.923Z</time>
      </trkpt>
      <trkpt lat="43.55285" lon="7.13564">
        <ele>60.719578</ele>
        <time>2024-01-29T11:48:15.915Z</time>
      </trkpt>
      <trkpt lat="43.55275" lon="7.13558">
        <ele>61.608802</ele>
        <time>2024-01-29T11:48:20.902Z</time>
      </trkpt>
      <trkpt lat="43.55266" lon="7.13552">
        <ele>62.448343</ele>
        <time>2024-01-29T11:48:25.894Z</time>
      </trkpt>
      <trkpt lat="43.55257" lon="7.13548">
        <ele>63.247559</ele>
        <time>2024-01-29T11:48:30.903Z</time>
      </trkpt>
      <trkpt lat="43.55248" lon="7.13543">
        <ele>64.026746</ele>
        <time>2024-01-29T11:48:35.907Z</time>
      </trkpt>
      <trkpt lat="43.55239" lon="7.13539">
        <ele>64.839583</ele>
        <time>2024-01-29T11:48:40.921Z</time>
      </trkpt>
      <trkpt lat="43.5523" lon="7.13535">
        <ele>65.586171</ele>
        <time>2024-01-29T11:48:45.901Z</time>
      </trkpt>
      <trkpt lat="43.55221" lon="7.1353">
        <ele>66.390568</ele>
        <time>2024-01-29T11:48:50.897Z</time>
      </trkpt>
      <trkpt lat="43.55213" lon="7.13525">
        <ele>67.141148</ele>
        <time>2024-01-29T11:48:55.903Z</time>
      </trkpt>
      <trkpt lat="43.55204" lon="7.13521">
        <ele>67.74624</ele>
        <time>2024-01-29T11:49:00.907Z</time>
      </trkpt>
      <trkpt lat="43.55193" lon="7.13516">
        <ele>68.21317</ele>
        <time>2024-01-29T11:49:06.923Z</time>
      </trkpt>
      <trkpt lat="43.55185" lon="7.13511">
        <ele>68.623956</ele>
        <time>2024-01-29T11:49:11.912Z</time>
      </trkpt>
      <trkpt lat="43.55176" lon="7.13506">
        <ele>69.025723</ele>
        <time>2024-01-29T11:49:16.884Z</time>
      </trkpt>
      <trkpt lat="43.55168" lon="7.13502">
        <ele>69.421534</ele>
        <time>2024-01-29T11:49:21.897Z</time>
      </trkpt>
      <trkpt lat="43.55159" lon="7.13497">
        <ele>69.843506</ele>
        <time>2024-01-29T11:49:26.899Z</time>
      </trkpt>
      <trkpt lat="43.55151" lon="7.13491">
        <ele>70.242145</ele>
        <time>2024-01-29T11:49:31.906Z</time>
      </trkpt>
      <trkpt lat="43.55143" lon="7.13484">
        <ele>70.652413</ele>
        <time>2024-01-29T11:49:36.911Z</time>
      </trkpt>
      <trkpt lat="43.55132" lon="7.13481">
        <ele>71.120718</ele>
        <time>2024-01-29T11:49:42.924Z</time>
      </trkpt>
      <trkpt lat="43.55126" lon="7.13471">
        <ele>71.548212</ele>
        <time>2024-01-29T11:49:48.890Z</time>
      </trkpt>
      <trkpt lat="43.55123" lon="7.13459">
        <ele>71.948052</ele>
        <time>2024-01-29T11:49:53.907Z</time>
      </trkpt>
      <trkpt lat="43.5512" lon="7.13445">
        <ele>72.408776</ele>
        <time>2024-01-29T11:49:59.901Z</time>
      </trkpt>
      <trkpt lat="43.55116" lon="7.13433">
        <ele>72.805947</ele>
        <time>2024-01-29T11:50:04.902Z</time>
      </trkpt>
      <trkpt lat="43.5511" lon="7.13421">
        <ele>73.276889</ele>
        <time>2024-01-29T11:50:09.910Z</time>
      </trkpt>
      <trkpt lat="43.55103" lon="7.13412">
        <ele>73.674675</ele>
        <time>2024-01-29T11:50:14.894Z</time>
      </trkpt>
      <trkpt lat="43.55096" lon="7.13404">
        <ele>74.083454</ele>
        <time>2024-01-29T11:50:18.905Z</time>
      </trkpt>
      <trkpt lat="43.5509" lon="7.13395">
        <ele>74.493485</ele>
        <time>2024-01-29T11:50:22.919Z</time>
      </trkpt>
      <trkpt lat="43.55083" lon="7.13382">
        <ele>74.979949</ele>
        <time>2024-01-29T11:50:26.910Z</time>
      </trkpt>
      <trkpt lat="43.55082" lon="7.13366">
        <ele>75.401248</ele>
        <time>2024-01-29T11:50:30.898Z</time>
      </trkpt>
      <trkpt lat="43.55082" lon="7.13353">
        <ele>75.500301</ele>
        <time>2024-01-29T11:50:33.916Z</time>
      </trkpt>
      <trkpt lat="43.55083" lon="7.13337">
        <ele>75.61811</ele>
        <time>2024-01-29T11:50:37.907Z</time>
      </trkpt>
      <trkpt lat="43.55081" lon="7.13323">
        <ele>75.728373</ele>
        <time>2024-01-29T11:50:41.893Z</time>
      </trkpt>
      <trkpt lat="43.55079" lon="7.13309">
        <ele>75.835275</ele>
        <time>2024-01-29T11:50:45.892Z</time>
      </trkpt>
      <trkpt lat="43.55078" lon="7.13293">
        <ele>75.958996</ele>
        <time>2024-01-29T11:50:49.902Z</time>
      </trkpt>
      <trkpt lat="43.55076" lon="7.13278">
        <ele>76.073518</ele>
        <time>2024-01-29T11:50:53.902Z</time>
      </trkpt>
      <trkpt lat="43.55074" lon="7.13262">
        <ele>76.194735</ele>
        <time>2024-01-29T11:50:57.905Z</time>
      </trkpt>
      <trkpt lat="43.55072" lon="7.13247">
        <ele>76.308113</ele>
        <time>2024-01-29T11:51:01.907Z</time>
      </trkpt>
      <trkpt lat="43.55069" lon="7.13233">
        <ele>76.425139</ele>
        <time>2024-01-29T11:51:05.888Z</time>
      </trkpt>
      <trkpt lat="43.55067" lon="7.1322">
        <ele>76.519446</ele>
        <time>2024-01-29T11:51:08.891Z</time>
      </trkpt>
      <trkpt lat="43.55066" lon="7.13208">
        <ele>76.613938</ele>
        <time>2024-01-29T11:51:11.897Z</time>
      </trkpt>
      <trkpt lat="43.55064" lon="7.13194">
        <ele>76.724708</ele>
        <time>2024-01-29T11:51:15.897Z</time>
      </trkpt>
      <trkpt lat="43.55061" lon="7.13181">
        <ele>76.82071</ele>
        <time>2024-01-29T11:51:19.899Z</time>
      </trkpt>
      <trkpt lat="43.5506" lon="7.13166">
        <ele>76.937259</ele>
        <time>2024-01-29T11:51:24.914Z</time>
      </trkpt>
      <trkpt lat="43.55061" lon="7.13152">
        <ele>77.047206</ele>
        <time>2024-01-29T11:51:28.886Z</time>
      </trkpt>
      <trkpt lat="43.5507" lon="7.13142">
        <ele>77.1629</ele>
        <time>2024-01-29T11:51:31.913Z</time>
      </trkpt>
      <trkpt lat="43.55078" lon="7.13136">
        <ele>77.238786</ele>
        <time>2024-01-29T11:51:33.910Z</time>
      </trkpt>
      <trkpt lat="43.55086" lon="7.1313">
        <ele>77.122193</ele>
        <time>2024-01-29T11:51:35.910Z</time>
      </trkpt>
      <trkpt lat="43.55095" lon="7.13123">
        <ele>76.988673</ele>
        <time>2024-01-29T11:51:37.929Z</time>
      </trkpt>
      <trkpt lat="43.55105" lon="7.13116">
        <ele>76.841995</ele>
        <time>2024-01-29T11:51:39.911Z</time>
      </trkpt>
      <trkpt lat="43.55115" lon="7.13107">
        <ele>76.687931</ele>
        <time>2024-01-29T11:51:41.906Z</time>
      </trkpt>
      <trkpt lat="43.55126" lon="7.13099">
        <ele>76.533589</ele>
        <time>2024-01-29T11:51:43.907Z</time>
      </trkpt>
      <trkpt lat="43.55136" lon="7.13091">
        <ele>76.389157</ele>
        <time>2024-01-29T11:51:45.901Z</time>
      </trkpt>
      <trkpt lat="43.55146" lon="7.13084">
        <ele>76.23663</ele>
        <time>2024-01-29T11:51:47.918Z</time>
      </trkpt>
      <trkpt lat="43.55157" lon="7.13076">
        <ele>76.077489</ele>
        <time>2024-01-29T11:51:49.914Z</time>
      </trkpt>
      <trkpt lat="43.55168" lon="7.13068">
        <ele>75.922479</ele>
        <time>2024-01-29T11:51:51.899Z</time>
      </trkpt>
      <trkpt lat="43.55177" lon="7.1306">
        <ele>75.780094</ele>
        <time>2024-01-29T11:51:53.873Z</time>
      </trkpt>
      <trkpt lat="43.55185" lon="7.1305">
        <ele>75.642955</ele>
        <time>2024-01-29T11:51:55.913Z</time>
      </trkpt>
      <trkpt lat="43.5519" lon="7.13037">
        <ele>75.506913</ele>
        <time>2024-01-29T11:51:57.937Z</time>
      </trkpt>
      <trkpt lat="43.55196" lon="7.13026">
        <ele>75.376456</ele>
        <time>2024-01-29T11:51:59.895Z</time>
      </trkpt>
      <trkpt lat="43.55202" lon="7.13015">
        <ele>75.249032</ele>
        <time>2024-01-29T11:52:01.900Z</time>
      </trkpt>
      <trkpt lat="43.55211" lon="7.13">
        <ele>75.075381</ele>
        <time>2024-01-29T11:52:04.907Z</time>
      </trkpt>
      <trkpt lat="43.55218" lon="7.12988">
        <ele>74.939776</ele>
        <time>2024-01-29T11:52:07.884Z</time>
      </trkpt>
      <trkpt lat="43.55223" lon="7.12976">
        <ele>74.953922</ele>
        <time>2024-01-29T11:52:10.910Z</time>
      </trkpt>
      <trkpt lat="43.55224" lon="7.12962">
        <ele>74.967389</ele>
        <time>2024-01-29T11:52:13.884Z</time>
      </trkpt>
      <trkpt lat="43.55221" lon="7.12948">
        <ele>74.982358</ele>
        <time>2024-01-29T11:52:16.896Z</time>
      </trkpt>
      <trkpt lat="43.55219" lon="7.12934">
        <ele>74.995963</ele>
        <time>2024-01-29T11:52:19.917Z</time>
      </trkpt>
      <trkpt lat="43.55215" lon="7.12922">
        <ele>75.009476</ele>
        <time>2024-01-29T11:52:22.891Z</time>
      </trkpt>
      <trkpt lat="43.55213" lon="7.12909">
        <ele>75.022913</ele>
        <time>2024-01-29T11:52:25.901Z</time>
      </trkpt>
      <trkpt lat="43.55211" lon="7.12895">
        <ele>75.036641</ele>
        <time>2024-01-29T11:52:29.905Z</time>
      </trkpt>
      <trkpt lat="43.55208" lon="7.12883">
        <ele>75.050015</ele>
        <time>2024-01-29T11:52:37.893Z</time>
      </trkpt>
      <trkpt lat="43.55198" lon="7.12875">
        <ele>75.066253</ele>
        <time>2024-01-29T11:52:41.905Z</time>
      </trkpt>
      <trkpt lat="43.55189" lon="7.12868">
        <ele>75.079804</ele>
        <time>2024-01-29T11:52:44.904Z</time>
      </trkpt>
      <trkpt lat="43.55181" lon="7.1286">
        <ele>75.093853</ele>
        <time>2024-01-29T11:52:47.891Z</time>
      </trkpt>
      <trkpt lat="43.55173" lon="7.12851">
        <ele>75.108271</ele>
        <time>2024-01-29T11:52:50.909Z</time>
      </trkpt>
      <trkpt lat="43.55164" lon="7.1284">
        <ele>75.12419</ele>
        <time>2024-01-29T11:52:53.900Z</time>
      </trkpt>
      <trkpt lat="43.55158" lon="7.12828">
        <ele>75.139376</ele>
        <time>2024-01-29T11:52:56.906Z</time>
      </trkpt>
      <trkpt lat="43.55151" lon="7.12816">
        <ele>75.154626</ele>
        <time>2024-01-29T11:52:59.919Z</time>
      </trkpt>
      <trkpt lat="43.55146" lon="7.12802">
        <ele>75.170334</ele>
        <time>2024-01-29T11:53:02.894Z</time>
      </trkpt>
      <trkpt lat="43.5514" lon="7.12787">
        <ele>75.186623</ele>
        <time>2024-01-29T11:53:05.900Z</time>
      </trkpt>
      <trkpt lat="43.55135" lon="7.12776">
        <ele>75.159897</ele>
        <time>2024-01-29T11:53:07.902Z</time>
      </trkpt>
      <trkpt lat="43.55129" lon="7.12759">
        <ele>75.12181</ele>
        <time>2024-01-29T11:53:10.894Z</time>
      </trkpt>
      <trkpt lat="43.55124" lon="7.12748">
        <ele>75.094591</ele>
        <time>2024-01-29T11:53:12.898Z</time>
      </trkpt>
      <trkpt lat="43.55118" lon="7.12735">
        <ele>75.0632</ele>
        <time>2024-01-29T11:53:14.909Z</time>
      </trkpt>
      <trkpt lat="43.55112" lon="7.12722">
        <ele>75.032352</ele>
        <time>2024-01-29T11:53:16.915Z</time>
      </trkpt>
      <trkpt lat="43.55106" lon="7.12709">
        <ele>75.001565</ele>
        <time>2024-01-29T11:53:18.915Z</time>
      </trkpt>
      <trkpt lat="43.55101" lon="7.12696">
        <ele>74.97137</ele>
        <time>2024-01-29T11:53:20.905Z</time>
      </trkpt>
      <trkpt lat="43.55096" lon="7.12684">
        <ele>74.943538</ele>
        <time>2024-01-29T11:53:22.903Z</time>
      </trkpt>
      <trkpt lat="43.5509" lon="7.12673">
        <ele>74.915545</ele>
        <time>2024-01-29T11:53:24.903Z</time>
      </trkpt>
      <trkpt lat="43.55085" lon="7.1266">
        <ele>74.886333</ele>
        <time>2024-01-29T11:53:26.905Z</time>
      </trkpt>
      <trkpt lat="43.55082" lon="7.12648">
        <ele>74.860187</ele>
        <time>2024-01-29T11:53:28.895Z</time>
      </trkpt>
      <trkpt lat="43.55078" lon="7.12637">
        <ele>74.834485</ele>
        <time>2024-01-29T11:53:30.914Z</time>
      </trkpt>
      <trkpt lat="43.55073" lon="7.12625">
        <ele>74.807006</ele>
        <time>2024-01-29T11:53:32.908Z</time>
      </trkpt>
      <trkpt lat="43.55069" lon="7.12613">
        <ele>74.778803</ele>
        <time>2024-01-29T11:53:34.910Z</time>
      </trkpt>
      <trkpt lat="43.55064" lon="7.126">
        <ele>74.751032</ele>
        <time>2024-01-29T11:53:36.915Z</time>
      </trkpt>
      <trkpt lat="43.55061" lon="7.12588">
        <ele>74.724102</ele>
        <time>2024-01-29T11:53:38.905Z</time>
      </trkpt>
      <trkpt lat="43.55056" lon="7.12575">
        <ele>74.694371</ele>
        <time>2024-01-29T11:53:40.920Z</time>
      </trkpt>
      <trkpt lat="43.55052" lon="7.12562">
        <ele>74.641602</ele>
        <time>2024-01-29T11:53:42.907Z</time>
      </trkpt>
      <trkpt lat="43.55046" lon="7.1255">
        <ele>74.569988</ele>
        <time>2024-01-29T11:53:44.914Z</time>
      </trkpt>
      <trkpt lat="43.5504" lon="7.12537">
        <ele>74.490878</ele>
        <time>2024-01-29T11:53:46.908Z</time>
      </trkpt>
      <trkpt lat="43.55035" lon="7.12524">
        <ele>74.418611</ele>
        <time>2024-01-29T11:53:48.896Z</time>
      </trkpt>
      <trkpt lat="43.55029" lon="7.12513">
        <ele>74.347817</ele>
        <time>2024-01-29T11:53:50.918Z</time>
      </trkpt>
      <trkpt lat="43.55023" lon="7.125">
        <ele>74.274338</ele>
        <time>2024-01-29T11:53:52.921Z</time>
      </trkpt>
      <trkpt lat="43.55019" lon="7.12489">
        <ele>74.209593</ele>
        <time>2024-01-29T11:53:54.897Z</time>
      </trkpt>
      <trkpt lat="43.55013" lon="7.12474">
        <ele>74.124878</ele>
        <time>2024-01-29T11:53:57.908Z</time>
      </trkpt>
      <trkpt lat="43.55007" lon="7.1246">
        <ele>74.047077</ele>
        <time>2024-01-29T11:54:00.911Z</time>
      </trkpt>
      <trkpt lat="43.55001" lon="7.12448">
        <ele>73.971719</ele>
        <time>2024-01-29T11:54:03.886Z</time>
      </trkpt>
      <trkpt lat="43.54994" lon="7.12434">
        <ele>73.88718</ele>
        <time>2024-01-29T11:54:06.907Z</time>
      </trkpt>
      <trkpt lat="43.54988" lon="7.12421">
        <ele>73.810685</ele>
        <time>2024-01-29T11:54:09.904Z</time>
      </trkpt>
      <trkpt lat="43.54982" lon="7.12405">
        <ele>73.717519</ele>
        <time>2024-01-29T11:54:12.905Z</time>
      </trkpt>
      <trkpt lat="43.54978" lon="7.12393">
        <ele>73.654664</ele>
        <time>2024-01-29T11:54:14.908Z</time>
      </trkpt>
      <trkpt lat="43.54974" lon="7.12382">
        <ele>73.588815</ele>
        <time>2024-01-29T11:54:16.887Z</time>
      </trkpt>
      <trkpt lat="43.54968" lon="7.12366">
        <ele>73.499135</ele>
        <time>2024-01-29T11:54:19.911Z</time>
      </trkpt>
      <trkpt lat="43.54962" lon="7.12351">
        <ele>73.401328</ele>
        <time>2024-01-29T11:54:22.921Z</time>
      </trkpt>
      <trkpt lat="43.54956" lon="7.12342">
        <ele>73.295334</ele>
        <time>2024-01-29T11:54:24.897Z</time>
      </trkpt>
      <trkpt lat="43.54949" lon="7.1233">
        <ele>73.174863</ele>
        <time>2024-01-29T11:54:26.895Z</time>
      </trkpt>
      <trkpt lat="43.5494" lon="7.12318">
        <ele>73.032266</ele>
        <time>2024-01-29T11:54:28.898Z</time>
      </trkpt>
      <trkpt lat="43.54931" lon="7.12307">
        <ele>72.890785</ele>
        <time>2024-01-29T11:54:30.919Z</time>
      </trkpt>
      <trkpt lat="43.54921" lon="7.12296">
        <ele>72.748806</ele>
        <time>2024-01-29T11:54:32.896Z</time>
      </trkpt>
      <trkpt lat="43.54911" lon="7.12285">
        <ele>72.602283</ele>
        <time>2024-01-29T11:54:34.908Z</time>
      </trkpt>
      <trkpt lat="43.54902" lon="7.12273">
        <ele>72.46824</ele>
        <time>2024-01-29T11:54:36.925Z</time>
      </trkpt>
      <trkpt lat="43.54897" lon="7.12262">
        <ele>72.35532</ele>
        <time>2024-01-29T11:54:38.893Z</time>
      </trkpt>
      <trkpt lat="43.54893" lon="7.12248">
        <ele>72.238585</ele>
        <time>2024-01-29T11:54:40.892Z</time>
      </trkpt>
      <trkpt lat="43.54891" lon="7.12234">
        <ele>72.119619</ele>
        <time>2024-01-29T11:54:42.897Z</time>
      </trkpt>
      <trkpt lat="43.54889" lon="7.12221">
        <ele>72.00915</ele>
        <time>2024-01-29T11:54:44.905Z</time>
      </trkpt>
      <trkpt lat="43.54887" lon="7.12208">
        <ele>71.900786</ele>
        <time>2024-01-29T11:54:46.924Z</time>
      </trkpt>
      <trkpt lat="43.54888" lon="7.12195">
        <ele>71.791409</ele>
        <time>2024-01-29T11:54:48.897Z</time>
      </trkpt>
      <trkpt lat="43.54888" lon="7.12181">
        <ele>71.681587</ele>
        <time>2024-01-29T11:54:50.906Z</time>
      </trkpt>
      <trkpt lat="43.54889" lon="7.12167">
        <ele>71.562213</ele>
        <time>2024-01-29T11:54:52.911Z</time>
      </trkpt>
      <trkpt lat="43.54891" lon="7.12152">
        <ele>71.438961</ele>
        <time>2024-01-29T11:54:54.887Z</time>
      </trkpt>
      <trkpt lat="43.54895" lon="7.12139">
        <ele>71.140263</ele>
        <time>2024-01-29T11:54:56.904Z</time>
      </trkpt>
      <trkpt lat="43.54899" lon="7.12126">
        <ele>70.759956</ele>
        <time>2024-01-29T11:54:58.902Z</time>
      </trkpt>
      <trkpt lat="43.54903" lon="7.12112">
        <ele>70.380057</ele>
        <time>2024-01-29T11:55:00.919Z</time>
      </trkpt>
      <trkpt lat="43.54907" lon="7.121">
        <ele>70.014653</ele>
        <time>2024-01-29T11:55:02.901Z</time>
      </trkpt>
      <trkpt lat="43.54911" lon="7.12087">
        <ele>69.661733</ele>
        <time>2024-01-29T11:55:04.923Z</time>
      </trkpt>
      <trkpt lat="43.54914" lon="7.12075">
        <ele>69.320172</ele>
        <time>2024-01-29T11:55:06.907Z</time>
      </trkpt>
      <trkpt lat="43.54918" lon="7.12061">
        <ele>68.937461</ele>
        <time>2024-01-29T11:55:08.905Z</time>
      </trkpt>
      <trkpt lat="43.54921" lon="7.12048">
        <ele>68.571225</ele>
        <time>2024-01-29T11:55:10.922Z</time>
      </trkpt>
      <trkpt lat="43.54924" lon="7.12036">
        <ele>68.232839</ele>
        <time>2024-01-29T11:55:12.912Z</time>
      </trkpt>
      <trkpt lat="43.54927" lon="7.12023">
        <ele>67.881313</ele>
        <time>2024-01-29T11:55:14.909Z</time>
      </trkpt>
      <trkpt lat="43.54931" lon="7.12011">
        <ele>67.544859</ele>
        <time>2024-01-29T11:55:16.940Z</time>
      </trkpt>
      <trkpt lat="43.54936" lon="7.12">
        <ele>67.187611</ele>
        <time>2024-01-29T11:55:18.914Z</time>
      </trkpt>
      <trkpt lat="43.54942" lon="7.11989">
        <ele>66.823938</ele>
        <time>2024-01-29T11:55:20.918Z</time>
      </trkpt>
      <trkpt lat="43.54948" lon="7.11978">
        <ele>66.465209</ele>
        <time>2024-01-29T11:55:22.910Z</time>
      </trkpt>
      <trkpt lat="43.54955" lon="7.11968">
        <ele>66.115037</ele>
        <time>2024-01-29T11:55:24.895Z</time>
      </trkpt>
      <trkpt lat="43.54961" lon="7.11959">
        <ele>65.780363</ele>
        <time>2024-01-29T11:55:26.907Z</time>
      </trkpt>
      <trkpt lat="43.54967" lon="7.11948">
        <ele>65.416691</ele>
        <time>2024-01-29T11:55:28.899Z</time>
      </trkpt>
      <trkpt lat="43.54972" lon="7.11934">
        <ele>65.021604</ele>
        <time>2024-01-29T11:55:30.912Z</time>
      </trkpt>
      <trkpt lat="43.54974" lon="7.11918">
        <ele>64.47569</ele>
        <time>2024-01-29T11:55:32.900Z</time>
      </trkpt>
      <trkpt lat="43.54971" lon="7.11902">
        <ele>63.90022</ele>
        <time>2024-01-29T11:55:34.915Z</time>
      </trkpt>
      <trkpt lat="43.54965" lon="7.11886">
        <ele>63.292222</ele>
        <time>2024-01-29T11:55:36.912Z</time>
      </trkpt>
      <trkpt lat="43.54956" lon="7.11873">
        <ele>62.637933</ele>
        <time>2024-01-29T11:55:38.897Z</time>
      </trkpt>
      <trkpt lat="43.54945" lon="7.11862">
        <ele>61.961039</ele>
        <time>2024-01-29T11:55:40.905Z</time>
      </trkpt>
      <trkpt lat="43.54937" lon="7.11849">
        <ele>61.395632</ele>
        <time>2024-01-29T11:55:42.900Z</time>
      </trkpt>
      <trkpt lat="43.54937" lon="7.11833">
        <ele>60.829433</ele>
        <time>2024-01-29T11:55:44.904Z</time>
      </trkpt>
      <trkpt lat="43.54947" lon="7.11821">
        <ele>60.185853</ele>
        <time>2024-01-29T11:55:46.897Z</time>
      </trkpt>
      <trkpt lat="43.5496" lon="7.11823">
        <ele>59.560252</ele>
        <time>2024-01-29T11:55:48.894Z</time>
      </trkpt>
      <trkpt lat="43.54969" lon="7.11834">
        <ele>58.974638</ele>
        <time>2024-01-29T11:55:50.909Z</time>
      </trkpt>
      <trkpt lat="43.54979" lon="7.11846">
        <ele>58.328617</ele>
        <time>2024-01-29T11:55:52.892Z</time>
      </trkpt>
      <trkpt lat="43.54991" lon="7.11856">
        <ele>57.634533</ele>
        <time>2024-01-29T11:55:54.889Z</time>
      </trkpt>
      <trkpt lat="43.55003" lon="7.11863">
        <ele>57.015326</ele>
        <time>2024-01-29T11:55:56.885Z</time>
      </trkpt>
      <trkpt lat="43.55014" lon="7.1187">
        <ele>56.410605</ele>
        <time>2024-01-29T11:55:58.895Z</time>
      </trkpt>
      <trkpt lat="43.55026" lon="7.11874">
        <ele>56.023791</ele>
        <time>2024-01-29T11:56:00.899Z</time>
      </trkpt>
      <trkpt lat="43.55037" lon="7.11879">
        <ele>55.734742</ele>
        <time>2024-01-29T11:56:02.907Z</time>
      </trkpt>
      <trkpt lat="43.55049" lon="7.11883">
        <ele>55.432291</ele>
        <time>2024-01-29T11:56:04.918Z</time>
      </trkpt>
      <trkpt lat="43.55061" lon="7.11887">
        <ele>55.144621</ele>
        <time>2024-01-29T11:56:06.900Z</time>
      </trkpt>
      <trkpt lat="43.55071" lon="7.11891">
        <ele>54.875534</ele>
        <time>2024-01-29T11:56:08.902Z</time>
      </trkpt>
      <trkpt lat="43.55081" lon="7.11897">
        <ele>54.61782</ele>
        <time>2024-01-29T11:56:10.919Z</time>
      </trkpt>
      <trkpt lat="43.5509" lon="7.11904">
        <ele>54.356119</ele>
        <time>2024-01-29T11:56:12.882Z</time>
      </trkpt>
      <trkpt lat="43.55099" lon="7.11914">
        <ele>54.075603</ele>
        <time>2024-01-29T11:56:14.885Z</time>
      </trkpt>
      <trkpt lat="43.55106" lon="7.11925">
        <ele>53.80507</ele>
        <time>2024-01-29T11:56:16.904Z</time>
      </trkpt>
      <trkpt lat="43.5511" lon="7.1194">
        <ele>53.523626</ele>
        <time>2024-01-29T11:56:18.898Z</time>
      </trkpt>
      <trkpt lat="43.5511" lon="7.11955">
        <ele>53.246438</ele>
        <time>2024-01-29T11:56:20.893Z</time>
      </trkpt>
      <trkpt lat="43.55109" lon="7.1197">
        <ele>52.976869</ele>
        <time>2024-01-29T11:56:22.900Z</time>
      </trkpt>
      <trkpt lat="43.55106" lon="7.11985">
        <ele>52.694848</ele>
        <time>2024-01-29T11:56:24.899Z</time>
      </trkpt>
      <trkpt lat="43.55103" lon="7.12">
        <ele>52.424996</ele>
        <time>2024-01-29T11:56:26.904Z</time>
      </trkpt>
      <trkpt lat="43.551" lon="7.12014">
        <ele>52.165287</ele>
        <time>2024-01-29T11:56:28.885Z</time>
      </trkpt>
      <trkpt lat="43.55099" lon="7.12028">
        <ele>51.911563</ele>
        <time>2024-01-29T11:56:30.905Z</time>
      </trkpt>
      <trkpt lat="43.55099" lon="7.12042">
        <ele>51.777087</ele>
        <time>2024-01-29T11:56:32.910Z</time>
      </trkpt>
      <trkpt lat="43.55101" lon="7.12056">
        <ele>51.745213</ele>
        <time>2024-01-29T11:56:34.895Z</time>
      </trkpt>
      <trkpt lat="43.55106" lon="7.12068">
        <ele>51.713791</ele>
        <time>2024-01-29T11:56:36.894Z</time>
      </trkpt>
      <trkpt lat="43.55111" lon="7.1208">
        <ele>51.683713</ele>
        <time>2024-01-29T11:56:38.888Z</time>
      </trkpt>
      <trkpt lat="43.55117" lon="7.12094">
        <ele>51.648948</ele>
        <time>2024-01-29T11:56:41.899Z</time>
      </trkpt>
      <trkpt lat="43.55121" lon="7.12105">
        <ele>51.620283</ele>
        <time>2024-01-29T11:56:44.900Z</time>
      </trkpt>
      <trkpt lat="43.5513" lon="7.12115">
        <ele>51.584493</ele>
        <time>2024-01-29T11:56:48.895Z</time>
      </trkpt>
      <trkpt lat="43.55137" lon="7.12122">
        <ele>51.556297</ele>
        <time>2024-01-29T11:56:51.917Z</time>
      </trkpt>
      <trkpt lat="43.55147" lon="7.12125">
        <ele>51.525905</ele>
        <time>2024-01-29T11:56:54.893Z</time>
      </trkpt>
      <trkpt lat="43.55158" lon="7.12126">
        <ele>51.491169</ele>
        <time>2024-01-29T11:56:57.896Z</time>
      </trkpt>
      <trkpt lat="43.55171" lon="7.1213">
        <ele>51.451812</ele>
        <time>2024-01-29T11:57:00.914Z</time>
      </trkpt>
      <trkpt lat="43.55183" lon="7.12135">
        <ele>51.411921</ele>
        <time>2024-01-29T11:57:03.916Z</time>
      </trkpt>
      <trkpt lat="43.55192" lon="7.12137">
        <ele>51.383529</ele>
        <time>2024-01-29T11:57:05.906Z</time>
      </trkpt>
      <trkpt lat="43.55203" lon="7.12147">
        <ele>51.343597</ele>
        <time>2024-01-29T11:57:08.902Z</time>
      </trkpt>
      <trkpt lat="43.55205" lon="7.1216">
        <ele>51.313838</ele>
        <time>2024-01-29T11:57:10.892Z</time>
      </trkpt>
      <trkpt lat="43.55208" lon="7.12173">
        <ele>51.28257</ele>
        <time>2024-01-29T11:57:12.915Z</time>
      </trkpt>
      <trkpt lat="43.55213" lon="7.12185">
        <ele>51.250912</ele>
        <time>2024-01-29T11:57:14.901Z</time>
      </trkpt>
      <trkpt lat="43.55219" lon="7.12196">
        <ele>51.221647</ele>
        <time>2024-01-29T11:57:16.913Z</time>
      </trkpt>
      <trkpt lat="43.55226" lon="7.12205">
        <ele>51.192934</ele>
        <time>2024-01-29T11:57:18.885Z</time>
      </trkpt>
      <trkpt lat="43.55234" lon="7.12213">
        <ele>51.165428</ele>
        <time>2024-01-29T11:57:20.899Z</time>
      </trkpt>
      <trkpt lat="43.55241" lon="7.1222">
        <ele>51.138883</ele>
        <time>2024-01-29T11:57:22.913Z</time>
      </trkpt>
      <trkpt lat="43.55249" lon="7.12226">
        <ele>51.112397</ele>
        <time>2024-01-29T11:57:24.923Z</time>
      </trkpt>
      <trkpt lat="43.55258" lon="7.12231">
        <ele>51.085243</ele>
        <time>2024-01-29T11:57:26.907Z</time>
      </trkpt>
      <trkpt lat="43.5527" lon="7.12234">
        <ele>51.048851</ele>
        <time>2024-01-29T11:57:29.908Z</time>
      </trkpt>
      <trkpt lat="43.55281" lon="7.12234">
        <ele>51.016305</ele>
        <time>2024-01-29T11:57:32.904Z</time>
      </trkpt>
      <trkpt lat="43.55292" lon="7.12233">
        <ele>50.985639</ele>
        <time>2024-01-29T11:57:35.907Z</time>
      </trkpt>
      <trkpt lat="43.55301" lon="7.12229">
        <ele>50.957275</ele>
        <time>2024-01-29T11:57:38.904Z</time>
      </trkpt>
      <trkpt lat="43.55311" lon="7.12225">
        <ele>50.927418</ele>
        <time>2024-01-29T11:57:41.909Z</time>
      </trkpt>
      <trkpt lat="43.55321" lon="7.12221">
        <ele>50.895574</ele>
        <time>2024-01-29T11:57:44.893Z</time>
      </trkpt>
      <trkpt lat="43.55332" lon="7.12217">
        <ele>50.86241</ele>
        <time>2024-01-29T11:57:47.898Z</time>
      </trkpt>
      <trkpt lat="43.55345" lon="7.12217">
        <ele>50.824285</ele>
        <time>2024-01-29T11:57:50.915Z</time>
      </trkpt>
      <trkpt lat="43.55358" lon="7.12221">
        <ele>50.785679</ele>
        <time>2024-01-29T11:57:53.903Z</time>
      </trkpt>
      <trkpt lat="43.55369" lon="7.12229">
        <ele>50.748005</ele>
        <time>2024-01-29T11:57:56.907Z</time>
      </trkpt>
      <trkpt lat="43.55377" lon="7.12236">
        <ele>50.72146</ele>
        <time>2024-01-29T11:57:58.890Z</time>
      </trkpt>
      <trkpt lat="43.55385" lon="7.12243">
        <ele>50.668222</ele>
        <time>2024-01-29T11:58:00.900Z</time>
      </trkpt>
      <trkpt lat="43.55394" lon="7.12248">
        <ele>50.596613</ele>
        <time>2024-01-29T11:58:02.898Z</time>
      </trkpt>
      <trkpt lat="43.55403" lon="7.12253">
        <ele>50.521937</ele>
        <time>2024-01-29T11:58:04.892Z</time>
      </trkpt>
      <trkpt lat="43.55413" lon="7.12256">
        <ele>50.448225</ele>
        <time>2024-01-29T11:58:06.904Z</time>
      </trkpt>
      <trkpt lat="43.55423" lon="7.12257">
        <ele>50.375659</ele>
        <time>2024-01-29T11:58:08.896Z</time>
      </trkpt>
      <trkpt lat="43.55432" lon="7.12255">
        <ele>50.305832</ele>
        <time>2024-01-29T11:58:10.896Z</time>
      </trkpt>
      <trkpt lat="43.55441" lon="7.12251">
        <ele>50.236024</ele>
        <time>2024-01-29T11:58:12.885Z</time>
      </trkpt>
      <trkpt lat="43.5545" lon="7.12248">
        <ele>50.167862</ele>
        <time>2024-01-29T11:58:14.907Z</time>
      </trkpt>
      <trkpt lat="43.55462" lon="7.12244">
        <ele>50.080106</ele>
        <time>2024-01-29T11:58:17.898Z</time>
      </trkpt>
      <trkpt lat="43.55473" lon="7.12239">
        <ele>49.994104</ele>
        <time>2024-01-29T11:58:20.891Z</time>
      </trkpt>
      <trkpt lat="43.55483" lon="7.12232">
        <ele>49.909539</ele>
        <time>2024-01-29T11:58:23.902Z</time>
      </trkpt>
      <trkpt lat="43.55492" lon="7.12221">
        <ele>49.823417</ele>
        <time>2024-01-29T11:58:26.906Z</time>
      </trkpt>
      <trkpt lat="43.55499" lon="7.12208">
        <ele>49.732651</ele>
        <time>2024-01-29T11:58:29.889Z</time>
      </trkpt>
      <trkpt lat="43.55506" lon="7.12194">
        <ele>49.64443</ele>
        <time>2024-01-29T11:58:32.894Z</time>
      </trkpt>
      <trkpt lat="43.55513" lon="7.12179">
        <ele>49.547904</ele>
        <time>2024-01-29T11:58:35.921Z</time>
      </trkpt>
      <trkpt lat="43.55518" lon="7.12168">
        <ele>49.480394</ele>
        <time>2024-01-29T11:58:37.887Z</time>
      </trkpt>
      <trkpt lat="43.55525" lon="7.12153">
        <ele>49.38542</ele>
        <time>2024-01-29T11:58:40.896Z</time>
      </trkpt>
      <trkpt lat="43.55532" lon="7.12138">
        <ele>49.357944</ele>
        <time>2024-01-29T11:58:43.909Z</time>
      </trkpt>
      <trkpt lat="43.55542" lon="7.12129">
        <ele>49.331481</ele>
        <time>2024-01-29T11:58:46.887Z</time>
      </trkpt>
      <trkpt lat="43.55556" lon="7.12128">
        <ele>49.302938</ele>
        <time>2024-01-29T11:58:49.885Z</time>
      </trkpt>
      <trkpt lat="43.55568" lon="7.12128">
        <ele>49.275939</ele>
        <time>2024-01-29T11:58:52.917Z</time>
      </trkpt>
      <trkpt lat="43.55581" lon="7.12131">
        <ele>49.248729</ele>
        <time>2024-01-29T11:58:55.901Z</time>
      </trkpt>
      <trkpt lat="43.55593" lon="7.12132">
        <ele>49.222486</ele>
        <time>2024-01-29T11:58:58.890Z</time>
      </trkpt>
      <trkpt lat="43.55605" lon="7.12136">
        <ele>49.195534</ele>
        <time>2024-01-29T11:59:01.903Z</time>
      </trkpt>
      <trkpt lat="43.55617" lon="7.12143">
        <ele>49.168262</ele>
        <time>2024-01-29T11:59:04.896Z</time>
      </trkpt>
      <trkpt lat="43.55628" lon="7.12151">
        <ele>49.140946</ele>
        <time>2024-01-29T11:59:07.907Z</time>
      </trkpt>
      <trkpt lat="43.55639" lon="7.12159">
        <ele>49.113035</ele>
        <time>2024-01-29T11:59:10.893Z</time>
      </trkpt>
      <trkpt lat="43.5565" lon="7.12167">
        <ele>49.08719</ele>
        <time>2024-01-29T11:59:13.904Z</time>
      </trkpt>
      <trkpt lat="43.55659" lon="7.12175">
        <ele>49.062992</ele>
        <time>2024-01-29T11:59:16.897Z</time>
      </trkpt>
      <trkpt lat="43.55669" lon="7.12184">
        <ele>49.037119</ele>
        <time>2024-01-29T11:59:19.899Z</time>
      </trkpt>
      <trkpt lat="43.5568" lon="7.12191">
        <ele>49.010576</ele>
        <time>2024-01-29T11:59:22.897Z</time>
      </trkpt>
      <trkpt lat="43.55691" lon="7.12199">
        <ele>48.966275</ele>
        <time>2024-01-29T11:59:25.896Z</time>
      </trkpt>
      <trkpt lat="43.55703" lon="7.12205">
        <ele>48.902028</ele>
        <time>2024-01-29T11:59:28.888Z</time>
      </trkpt>
      <trkpt lat="43.55715" lon="7.12211">
        <ele>48.836675</ele>
        <time>2024-01-29T11:59:31.896Z</time>
      </trkpt>
      <trkpt lat="43.55727" lon="7.12216">
        <ele>48.770441</ele>
        <time>2024-01-29T11:59:34.918Z</time>
      </trkpt>
      <trkpt lat="43.5574" lon="7.12219">
        <ele>48.705058</ele>
        <time>2024-01-29T11:59:37.907Z</time>
      </trkpt>
      <trkpt lat="43.55752" lon="7.1222">
        <ele>48.640423</ele>
        <time>2024-01-29T11:59:40.903Z</time>
      </trkpt>
      <trkpt lat="43.55764" lon="7.1222">
        <ele>48.577452</ele>
        <time>2024-01-29T11:59:43.905Z</time>
      </trkpt>
      <trkpt lat="43.55776" lon="7.12215">
        <ele>48.512214</ele>
        <time>2024-01-29T11:59:46.898Z</time>
      </trkpt>
      <trkpt lat="43.55789" lon="7.12211">
        <ele>48.447762</ele>
        <time>2024-01-29T11:59:49.891Z</time>
      </trkpt>
      <trkpt lat="43.558" lon="7.12206">
        <ele>48.384471</ele>
        <time>2024-01-29T11:59:52.894Z</time>
      </trkpt>
      <trkpt lat="43.55812" lon="7.12199">
        <ele>48.317973</ele>
        <time>2024-01-29T11:59:55.886Z</time>
      </trkpt>
      <trkpt lat="43.55824" lon="7.12194">
        <ele>48.254021</ele>
        <time>2024-01-29T11:59:58.893Z</time>
      </trkpt>
      <trkpt lat="43.55836" lon="7.1219">
        <ele>48.189777</ele>
        <time>2024-01-29T12:00:01.904Z</time>
      </trkpt>
      <trkpt lat="43.55845" lon="7.12189">
        <ele>48.142831</ele>
        <time>2024-01-29T12:00:03.876Z</time>
      </trkpt>
      <trkpt lat="43.55858" lon="7.12189">
        <ele>48.076288</ele>
        <time>2024-01-29T12:00:06.907Z</time>
      </trkpt>
      <trkpt lat="43.55871" lon="7.1219">
        <ele>48.153272</ele>
        <time>2024-01-29T12:00:09.908Z</time>
      </trkpt>
      <trkpt lat="43.55883" lon="7.1219">
        <ele>48.245144</ele>
        <time>2024-01-29T12:00:12.912Z</time>
      </trkpt>
      <trkpt lat="43.55895" lon="7.12191">
        <ele>48.334122</ele>
        <time>2024-01-29T12:00:15.911Z</time>
      </trkpt>
      <trkpt lat="43.55907" lon="7.12192">
        <ele>48.428349</ele>
        <time>2024-01-29T12:00:18.887Z</time>
      </trkpt>
      <trkpt lat="43.55919" lon="7.12192">
        <ele>48.51869</ele>
        <time>2024-01-29T12:00:21.906Z</time>
      </trkpt>
      <trkpt lat="43.55931" lon="7.12192">
        <ele>48.604564</ele>
        <time>2024-01-29T12:00:24.878Z</time>
      </trkpt>
      <trkpt lat="43.55942" lon="7.1219">
        <ele>48.690362</ele>
        <time>2024-01-29T12:00:27.897Z</time>
      </trkpt>
      <trkpt lat="43.55953" lon="7.12186">
        <ele>48.771982</ele>
        <time>2024-01-29T12:00:30.903Z</time>
      </trkpt>
      <trkpt lat="43.55963" lon="7.12179">
        <ele>48.856564</ele>
        <time>2024-01-29T12:00:33.905Z</time>
      </trkpt>
      <trkpt lat="43.55975" lon="7.12175">
        <ele>48.943661</ele>
        <time>2024-01-29T12:00:36.907Z</time>
      </trkpt>
      <trkpt lat="43.55985" lon="7.12168">
        <ele>49.032109</ele>
        <time>2024-01-29T12:00:39.913Z</time>
      </trkpt>
      <trkpt lat="43.55995" lon="7.12159">
        <ele>49.119384</ele>
        <time>2024-01-29T12:00:42.900Z</time>
      </trkpt>
      <trkpt lat="43.56003" lon="7.12147">
        <ele>49.207447</ele>
        <time>2024-01-29T12:00:45.893Z</time>
      </trkpt>
      <trkpt lat="43.56012" lon="7.12136">
        <ele>49.296138</ele>
        <time>2024-01-29T12:00:48.876Z</time>
      </trkpt>
      <trkpt lat="43.56021" lon="7.12124">
        <ele>49.391335</ele>
        <time>2024-01-29T12:00:51.898Z</time>
      </trkpt>
      <trkpt lat="43.56028" lon="7.12111">
        <ele>49.384246</ele>
        <time>2024-01-29T12:00:54.901Z</time>
      </trkpt>
      <trkpt lat="43.56036" lon="7.12098">
        <ele>49.346457</ele>
        <time>2024-01-29T12:00:57.915Z</time>
      </trkpt>
      <trkpt lat="43.56044" lon="7.12085">
        <ele>49.309912</ele>
        <time>2024-01-29T12:01:00.910Z</time>
      </trkpt>
      <trkpt lat="43.56052" lon="7.12072">
        <ele>49.271161</ele>
        <time>2024-01-29T12:01:03.904Z</time>
      </trkpt>
      <trkpt lat="43.56059" lon="7.12059">
        <ele>49.233757</ele>
        <time>2024-01-29T12:01:06.902Z</time>
      </trkpt>
      <trkpt lat="43.56067" lon="7.12047">
        <ele>49.196451</ele>
        <time>2024-01-29T12:01:09.910Z</time>
      </trkpt>
      <trkpt lat="43.56075" lon="7.12033">
        <ele>49.155718</ele>
        <time>2024-01-29T12:01:12.914Z</time>
      </trkpt>
      <trkpt lat="43.56084" lon="7.12019">
        <ele>49.11585</ele>
        <time>2024-01-29T12:01:15.915Z</time>
      </trkpt>
      <trkpt lat="43.56092" lon="7.12005">
        <ele>49.074431</ele>
        <time>2024-01-29T12:01:18.885Z</time>
      </trkpt>
      <trkpt lat="43.561" lon="7.11991">
        <ele>49.035334</ele>
        <time>2024-01-29T12:01:21.909Z</time>
      </trkpt>
      <trkpt lat="43.56108" lon="7.11978">
        <ele>48.996148</ele>
        <time>2024-01-29T12:01:24.913Z</time>
      </trkpt>
      <trkpt lat="43.56116" lon="7.11966">
        <ele>48.958888</ele>
        <time>2024-01-29T12:01:27.913Z</time>
      </trkpt>
      <trkpt lat="43.56123" lon="7.11954">
        <ele>48.924416</ele>
        <time>2024-01-29T12:01:30.925Z</time>
      </trkpt>
      <trkpt lat="43.56129" lon="7.11942">
        <ele>48.891908</ele>
        <time>2024-01-29T12:01:33.900Z</time>
      </trkpt>
      <trkpt lat="43.56136" lon="7.1193">
        <ele>48.857588</ele>
        <time>2024-01-29T12:01:36.900Z</time>
      </trkpt>
      <trkpt lat="43.56143" lon="7.1192">
        <ele>48.916914</ele>
        <time>2024-01-29T12:01:39.898Z</time>
      </trkpt>
      <trkpt lat="43.56148" lon="7.11908">
        <ele>48.987325</ele>
        <time>2024-01-29T12:01:42.885Z</time>
      </trkpt>
      <trkpt lat="43.56154" lon="7.11896">
        <ele>49.060238</ele>
        <time>2024-01-29T12:01:45.919Z</time>
      </trkpt>
      <trkpt lat="43.56158" lon="7.11883">
        <ele>49.130255</ele>
        <time>2024-01-29T12:01:48.887Z</time>
      </trkpt>
      <trkpt lat="43.5616" lon="7.11868">
        <ele>49.208458</ele>
        <time>2024-01-29T12:01:51.906Z</time>
      </trkpt>
      <trkpt lat="43.56162" lon="7.11853">
        <ele>49.282852</ele>
        <time>2024-01-29T12:01:54.901Z</time>
      </trkpt>
      <trkpt lat="43.56166" lon="7.1184">
        <ele>49.357166</ele>
        <time>2024-01-29T12:01:57.902Z</time>
      </trkpt>
      <trkpt lat="43.56172" lon="7.11828">
        <ele>49.429342</ele>
        <time>2024-01-29T12:02:00.898Z</time>
      </trkpt>
      <trkpt lat="43.56178" lon="7.11816">
        <ele>49.502726</ele>
        <time>2024-01-29T12:02:03.891Z</time>
      </trkpt>
      <trkpt lat="43.56188" lon="7.11807">
        <ele>49.586459</ele>
        <time>2024-01-29T12:02:06.903Z</time>
      </trkpt>
      <trkpt lat="43.56198" lon="7.11798">
        <ele>49.672217</ele>
        <time>2024-01-29T12:02:09.916Z</time>
      </trkpt>
      <trkpt lat="43.56206" lon="7.11791">
        <ele>49.735106</ele>
        <time>2024-01-29T12:02:11.900Z</time>
      </trkpt>
      <trkpt lat="43.56214" lon="7.11785">
        <ele>49.798332</ele>
        <time>2024-01-29T12:02:13.915Z</time>
      </trkpt>
      <trkpt lat="43.56222" lon="7.11779">
        <ele>49.86253</ele>
        <time>2024-01-29T12:02:15.907Z</time>
      </trkpt>
      <trkpt lat="43.5623" lon="7.11773">
        <ele>49.9269</ele>
        <time>2024-01-29T12:02:17.879Z</time>
      </trkpt>
      <trkpt lat="43.56239" lon="7.11769">
        <ele>49.992113</ele>
        <time>2024-01-29T12:02:19.902Z</time>
      </trkpt>
      <trkpt lat="43.56248" lon="7.11767">
        <ele>50.055108</ele>
        <time>2024-01-29T12:02:21.892Z</time>
      </trkpt>
      <trkpt lat="43.56261" lon="7.11767">
        <ele>50.214113</ele>
        <time>2024-01-29T12:02:24.904Z</time>
      </trkpt>
      <trkpt lat="43.56273" lon="7.11769">
        <ele>50.460545</ele>
        <time>2024-01-29T12:02:27.932Z</time>
      </trkpt>
      <trkpt lat="43.56285" lon="7.1177">
        <ele>50.696841</ele>
        <time>2024-01-29T12:02:30.895Z</time>
      </trkpt>
      <trkpt lat="43.56297" lon="7.11768">
        <ele>50.92048</ele>
        <time>2024-01-29T12:02:33.899Z</time>
      </trkpt>
      <trkpt lat="43.56306" lon="7.11761">
        <ele>51.134895</ele>
        <time>2024-01-29T12:02:36.890Z</time>
      </trkpt>
      <trkpt lat="43.56316" lon="7.11751">
        <ele>51.367086</ele>
        <time>2024-01-29T12:02:39.890Z</time>
      </trkpt>
      <trkpt lat="43.56324" lon="7.11741">
        <ele>51.586543</ele>
        <time>2024-01-29T12:02:42.909Z</time>
      </trkpt>
      <trkpt lat="43.56333" lon="7.11732">
        <ele>51.797506</ele>
        <time>2024-01-29T12:02:45.925Z</time>
      </trkpt>
      <trkpt lat="43.56341" lon="7.11722">
        <ele>52.011995</ele>
        <time>2024-01-29T12:02:48.899Z</time>
      </trkpt>
      <trkpt lat="43.56347" lon="7.1171">
        <ele>52.222081</ele>
        <time>2024-01-29T12:02:51.892Z</time>
      </trkpt>
      <trkpt lat="43.56354" lon="7.11699">
        <ele>52.433557</ele>
        <time>2024-01-29T12:02:54.910Z</time>
      </trkpt>
      <trkpt lat="43.5636" lon="7.11685">
        <ele>52.658012</ele>
        <time>2024-01-29T12:02:57.913Z</time>
      </trkpt>
      <trkpt lat="43.56366" lon="7.11674">
        <ele>52.847177</ele>
        <time>2024-01-29T12:03:00.894Z</time>
      </trkpt>
      <trkpt lat="43.56372" lon="7.11663">
        <ele>53.044336</ele>
        <time>2024-01-29T12:03:03.912Z</time>
      </trkpt>
      <trkpt lat="43.56377" lon="7.11652">
        <ele>53.235732</ele>
        <time>2024-01-29T12:03:06.913Z</time>
      </trkpt>
      <trkpt lat="43.56383" lon="7.11642">
        <ele>53.422778</ele>
        <time>2024-01-29T12:03:09.900Z</time>
      </trkpt>
      <trkpt lat="43.5639" lon="7.11632">
        <ele>53.621158</ele>
        <time>2024-01-29T12:03:12.900Z</time>
      </trkpt>
      <trkpt lat="43.56397" lon="7.11623">
        <ele>53.630896</ele>
        <time>2024-01-29T12:03:15.904Z</time>
      </trkpt>
      <trkpt lat="43.56405" lon="7.11614">
        <ele>53.619676</ele>
        <time>2024-01-29T12:03:18.901Z</time>
      </trkpt>
      <trkpt lat="43.56413" lon="7.11607">
        <ele>53.608369</ele>
        <time>2024-01-29T12:03:21.916Z</time>
      </trkpt>
      <trkpt lat="43.56422" lon="7.116">
        <ele>53.596636</ele>
        <time>2024-01-29T12:03:24.932Z</time>
      </trkpt>
      <trkpt lat="43.56431" lon="7.11595">
        <ele>53.58591</ele>
        <time>2024-01-29T12:03:27.896Z</time>
      </trkpt>
      <trkpt lat="43.5644" lon="7.11589">
        <ele>53.574422</ele>
        <time>2024-01-29T12:03:30.904Z</time>
      </trkpt>
      <trkpt lat="43.5645" lon="7.11584">
        <ele>53.562252</ele>
        <time>2024-01-29T12:03:33.901Z</time>
      </trkpt>
      <trkpt lat="43.56459" lon="7.11579">
        <ele>53.550398</ele>
        <time>2024-01-29T12:03:36.912Z</time>
      </trkpt>
      <trkpt lat="43.56469" lon="7.11575">
        <ele>53.538848</ele>
        <time>2024-01-29T12:03:39.923Z</time>
      </trkpt>
      <trkpt lat="43.5648" lon="7.1157">
        <ele>53.525393</ele>
        <time>2024-01-29T12:03:42.904Z</time>
      </trkpt>
      <trkpt lat="43.5649" lon="7.11568">
        <ele>53.513627</ele>
        <time>2024-01-29T12:03:45.901Z</time>
      </trkpt>
      <trkpt lat="43.56501" lon="7.11566">
        <ele>53.501485</ele>
        <time>2024-01-29T12:03:48.891Z</time>
      </trkpt>
      <trkpt lat="43.56512" lon="7.11567">
        <ele>53.488699</ele>
        <time>2024-01-29T12:03:51.906Z</time>
      </trkpt>
      <trkpt lat="43.56523" lon="7.11567">
        <ele>53.476049</ele>
        <time>2024-01-29T12:03:54.911Z</time>
      </trkpt>
      <trkpt lat="43.56532" lon="7.1157">
        <ele>53.465317</ele>
        <time>2024-01-29T12:03:57.886Z</time>
      </trkpt>
      <trkpt lat="43.56542" lon="7.11572">
        <ele>53.453678</ele>
        <time>2024-01-29T12:04:00.904Z</time>
      </trkpt>
      <trkpt lat="43.56553" lon="7.11573">
        <ele>53.440902</ele>
        <time>2024-01-29T12:04:03.909Z</time>
      </trkpt>
      <trkpt lat="43.56564" lon="7.11574">
        <ele>53.407508</ele>
        <time>2024-01-29T12:04:06.909Z</time>
      </trkpt>
      <trkpt lat="43.56574" lon="7.11575">
        <ele>53.357768</ele>
        <time>2024-01-29T12:04:09.906Z</time>
      </trkpt>
      <trkpt lat="43.56584" lon="7.11577">
        <ele>53.308074</ele>
        <time>2024-01-29T12:04:13.913Z</time>
      </trkpt>
      <trkpt lat="43.56594" lon="7.11578">
        <ele>53.258775</ele>
        <time>2024-01-29T12:04:18.905Z</time>
      </trkpt>
      <trkpt lat="43.56604" lon="7.1158">
        <ele>53.208195</ele>
        <time>2024-01-29T12:04:22.900Z</time>
      </trkpt>
      <trkpt lat="43.56614" lon="7.11584">
        <ele>53.153408</ele>
        <time>2024-01-29T12:04:26.913Z</time>
      </trkpt>
      <trkpt lat="43.56624" lon="7.11587">
        <ele>53.104493</ele>
        <time>2024-01-29T12:04:29.905Z</time>
      </trkpt>
      <trkpt lat="43.56634" lon="7.11585">
        <ele>53.052698</ele>
        <time>2024-01-29T12:04:32.891Z</time>
      </trkpt>
      <trkpt lat="43.56643" lon="7.11575">
        <ele>52.993005</ele>
        <time>2024-01-29T12:04:35.905Z</time>
      </trkpt>
      <trkpt lat="43.56651" lon="7.11562">
        <ele>52.933026</ele>
        <time>2024-01-29T12:04:38.896Z</time>
      </trkpt>
      <trkpt lat="43.56656" lon="7.11552">
        <ele>52.887322</ele>
        <time>2024-01-29T12:04:40.893Z</time>
      </trkpt>
      <trkpt lat="43.56664" lon="7.11538">
        <ele>52.823226</ele>
        <time>2024-01-29T12:04:43.918Z</time>
      </trkpt>
      <trkpt lat="43.56672" lon="7.11524">
        <ele>52.760562</ele>
        <time>2024-01-29T12:04:46.904Z</time>
      </trkpt>
      <trkpt lat="43.5668" lon="7.1151">
        <ele>52.694947</ele>
        <time>2024-01-29T12:04:49.913Z</time>
      </trkpt>
      <trkpt lat="43.56685" lon="7.115">
        <ele>52.648441</ele>
        <time>2024-01-29T12:04:51.932Z</time>
      </trkpt>
      <trkpt lat="43.56694" lon="7.11487">
        <ele>52.584032</ele>
        <time>2024-01-29T12:04:54.911Z</time>
      </trkpt>
      <trkpt lat="43.567" lon="7.11477">
        <ele>52.536687</ele>
        <time>2024-01-29T12:04:56.915Z</time>
      </trkpt>
      <trkpt lat="43.56706" lon="7.11467">
        <ele>52.421194</ele>
        <time>2024-01-29T12:04:58.891Z</time>
      </trkpt>
      <trkpt lat="43.56713" lon="7.11453">
        <ele>52.251507</ele>
        <time>2024-01-29T12:05:01.911Z</time>
      </trkpt>
      <trkpt lat="43.56721" lon="7.11438">
        <ele>52.084116</ele>
        <time>2024-01-29T12:05:04.913Z</time>
      </trkpt>
      <trkpt lat="43.56729" lon="7.11425">
        <ele>51.921672</ele>
        <time>2024-01-29T12:05:07.926Z</time>
      </trkpt>
      <trkpt lat="43.56737" lon="7.11411">
        <ele>51.753501</ele>
        <time>2024-01-29T12:05:10.917Z</time>
      </trkpt>
      <trkpt lat="43.56744" lon="7.11397">
        <ele>51.590725</ele>
        <time>2024-01-29T12:05:13.907Z</time>
      </trkpt>
      <trkpt lat="43.56757" lon="7.11393">
        <ele>51.41978</ele>
        <time>2024-01-29T12:05:16.887Z</time>
      </trkpt>
      <trkpt lat="43.56769" lon="7.11395">
        <ele>51.255666</ele>
        <time>2024-01-29T12:05:19.905Z</time>
      </trkpt>
      <trkpt lat="43.56781" lon="7.11399">
        <ele>51.095958</ele>
        <time>2024-01-29T12:05:22.912Z</time>
      </trkpt>
      <trkpt lat="43.56791" lon="7.114">
        <ele>50.958289</ele>
        <time>2024-01-29T12:05:25.910Z</time>
      </trkpt>
      <trkpt lat="43.56798" lon="7.11388">
        <ele>50.822387</ele>
        <time>2024-01-29T12:05:30.907Z</time>
      </trkpt>
      <trkpt lat="43.56797" lon="7.11376">
        <ele>50.703751</ele>
        <time>2024-01-29T12:05:34.884Z</time>
      </trkpt>
      <trkpt lat="43.56794" lon="7.11363">
        <ele>50.57478</ele>
        <time>2024-01-29T12:05:38.915Z</time>
      </trkpt>
      <trkpt lat="43.56793" lon="7.11346">
        <ele>50.416759</ele>
        <time>2024-01-29T12:05:42.898Z</time>
      </trkpt>
      <trkpt lat="43.56791" lon="7.11331">
        <ele>50.269428</ele>
        <time>2024-01-29T12:05:45.904Z</time>
      </trkpt>
      <trkpt lat="43.5679" lon="7.11316">
        <ele>50.197808</ele>
        <time>2024-01-29T12:05:48.898Z</time>
      </trkpt>
      <trkpt lat="43.5679" lon="7.11301">
        <ele>50.249043</ele>
        <time>2024-01-29T12:05:51.920Z</time>
      </trkpt>
      <trkpt lat="43.56794" lon="7.11289">
        <ele>50.292837</ele>
        <time>2024-01-29T12:05:54.927Z</time>
      </trkpt>
      <trkpt lat="43.56803" lon="7.11282">
        <ele>50.339598</ele>
        <time>2024-01-29T12:05:57.934Z</time>
      </trkpt>
      <trkpt lat="43.56811" lon="7.11276">
        <ele>50.38432</ele>
        <time>2024-01-29T12:06:00.914Z</time>
      </trkpt>
      <trkpt lat="43.56821" lon="7.11268">
        <ele>50.437601</ele>
        <time>2024-01-29T12:06:04.895Z</time>
      </trkpt>
      <trkpt lat="43.56831" lon="7.11262">
        <ele>50.486339</ele>
        <time>2024-01-29T12:06:08.960Z</time>
      </trkpt>
      <trkpt lat="43.5684" lon="7.11256">
        <ele>50.532215</ele>
        <time>2024-01-29T12:06:12.887Z</time>
      </trkpt>
      <trkpt lat="43.56845" lon="7.11246">
        <ele>50.574764</ele>
        <time>2024-01-29T12:06:15.891Z</time>
      </trkpt>
      <trkpt lat="43.56848" lon="7.11232">
        <ele>50.623457</ele>
        <time>2024-01-29T12:06:18.902Z</time>
      </trkpt>
      <trkpt lat="43.56851" lon="7.11218">
        <ele>50.673921</ele>
        <time>2024-01-29T12:06:21.871Z</time>
      </trkpt>
      <trkpt lat="43.56855" lon="7.11202">
        <ele>50.730096</ele>
        <time>2024-01-29T12:06:24.892Z</time>
      </trkpt>
      <trkpt lat="43.56858" lon="7.11184">
        <ele>50.790271</ele>
        <time>2024-01-29T12:06:27.916Z</time>
      </trkpt>
      <trkpt lat="43.56863" lon="7.11168">
        <ele>50.848012</ele>
        <time>2024-01-29T12:06:30.907Z</time>
      </trkpt>
      <trkpt lat="43.56866" lon="7.11152">
        <ele>50.904677</ele>
        <time>2024-01-29T12:06:33.887Z</time>
      </trkpt>
      <trkpt lat="43.56871" lon="7.11136">
        <ele>50.961785</ele>
        <time>2024-01-29T12:06:36.923Z</time>
      </trkpt>
      <trkpt lat="43.56874" lon="7.11121">
        <ele>51.010717</ele>
        <time>2024-01-29T12:06:39.925Z</time>
      </trkpt>
      <trkpt lat="43.56877" lon="7.11107">
        <ele>51.021832</ele>
        <time>2024-01-29T12:06:42.909Z</time>
      </trkpt>
      <trkpt lat="43.5688" lon="7.11092">
        <ele>51.033457</ele>
        <time>2024-01-29T12:06:45.930Z</time>
      </trkpt>
      <trkpt lat="43.56882" lon="7.11075">
        <ele>51.046332</ele>
        <time>2024-01-29T12:06:48.892Z</time>
      </trkpt>
      <trkpt lat="43.56885" lon="7.11057">
        <ele>51.059623</ele>
        <time>2024-01-29T12:06:51.901Z</time>
      </trkpt>
      <trkpt lat="43.56887" lon="7.11039">
        <ele>51.073275</ele>
        <time>2024-01-29T12:06:54.901Z</time>
      </trkpt>
      <trkpt lat="43.56889" lon="7.11022">
        <ele>51.086309</ele>
        <time>2024-01-29T12:06:58.019Z</time>
      </trkpt>
      <trkpt lat="43.56892" lon="7.11004">
        <ele>51.099852</ele>
        <time>2024-01-29T12:07:00.892Z</time>
      </trkpt>
      <trkpt lat="43.56894" lon="7.10986">
        <ele>51.113017</ele>
        <time>2024-01-29T12:07:03.907Z</time>
      </trkpt>
      <trkpt lat="43.56897" lon="7.10969">
        <ele>51.125683</ele>
        <time>2024-01-29T12:07:06.894Z</time>
      </trkpt>
      <trkpt lat="43.56899" lon="7.10953">
        <ele>51.138118</ele>
        <time>2024-01-29T12:07:09.880Z</time>
      </trkpt>
      <trkpt lat="43.56902" lon="7.10936">
        <ele>51.15052</ele>
        <time>2024-01-29T12:07:12.900Z</time>
      </trkpt>
      <trkpt lat="43.56903" lon="7.10921">
        <ele>51.16209</ele>
        <time>2024-01-29T12:07:15.896Z</time>
      </trkpt>
      <trkpt lat="43.56903" lon="7.10903">
        <ele>51.175095</ele>
        <time>2024-01-29T12:07:18.990Z</time>
      </trkpt>
      <trkpt lat="43.56902" lon="7.10889">
        <ele>51.18548</ele>
        <time>2024-01-29T12:07:21.914Z</time>
      </trkpt>
      <trkpt lat="43.56893" lon="7.10887">
        <ele>51.184259</ele>
        <time>2024-01-29T12:07:27.904Z</time>
      </trkpt>
      <trkpt lat="43.56895" lon="7.10875">
        <ele>51.131814</ele>
        <time>2024-01-29T12:07:43.910Z</time>
      </trkpt>
      <trkpt lat="43.56892" lon="7.10862">
        <ele>51.078029</ele>
        <time>2024-01-29T12:07:53.908Z</time>
      </trkpt>
      <trkpt lat="43.5689" lon="7.10848">
        <ele>51.019426</ele>
        <time>2024-01-29T12:07:58.896Z</time>
      </trkpt>
      <trkpt lat="43.56895" lon="7.10834">
        <ele>50.955726</ele>
        <time>2024-01-29T12:08:03.883Z</time>
      </trkpt>
      <trkpt lat="43.56899" lon="7.10823">
        <ele>50.903434</ele>
        <time>2024-01-29T12:08:06.911Z</time>
      </trkpt>
      <trkpt lat="43.56905" lon="7.10811">
        <ele>50.841248</ele>
        <time>2024-01-29T12:08:10.910Z</time>
      </trkpt>
      <trkpt lat="43.5691" lon="7.10799">
        <ele>50.786927</ele>
        <time>2024-01-29T12:08:14.900Z</time>
      </trkpt>
      <trkpt lat="43.56915" lon="7.10789">
        <ele>50.735101</ele>
        <time>2024-01-29T12:08:18.898Z</time>
      </trkpt>
      <trkpt lat="43.5692" lon="7.10777">
        <ele>50.678873</ele>
        <time>2024-01-29T12:08:22.894Z</time>
      </trkpt>
      <trkpt lat="43.56926" lon="7.10766">
        <ele>50.621029</ele>
        <time>2024-01-29T12:08:26.904Z</time>
      </trkpt>
      <trkpt lat="43.56931" lon="7.10752">
        <ele>50.55608</ele>
        <time>2024-01-29T12:08:30.894Z</time>
      </trkpt>
      <trkpt lat="43.56938" lon="7.10739">
        <ele>50.489218</ele>
        <time>2024-01-29T12:08:34.895Z</time>
      </trkpt>
      <trkpt lat="43.56943" lon="7.10726">
        <ele>50.431543</ele>
        <time>2024-01-29T12:08:38.898Z</time>
      </trkpt>
      <trkpt lat="43.56947" lon="7.10714">
        <ele>50.374912</ele>
        <time>2024-01-29T12:08:41.906Z</time>
      </trkpt>
      <trkpt lat="43.56952" lon="7.10701">
        <ele>50.313452</ele>
        <time>2024-01-29T12:08:44.894Z</time>
      </trkpt>
      <trkpt lat="43.56957" lon="7.10687">
        <ele>50.25137</ele>
        <time>2024-01-29T12:08:47.901Z</time>
      </trkpt>
      <trkpt lat="43.56961" lon="7.10674">
        <ele>50.193822</ele>
        <time>2024-01-29T12:08:50.910Z</time>
      </trkpt>
      <trkpt lat="43.56966" lon="7.10662">
        <ele>50.104901</ele>
        <time>2024-01-29T12:08:53.916Z</time>
      </trkpt>
      <trkpt lat="43.56972" lon="7.10651">
        <ele>49.994728</ele>
        <time>2024-01-29T12:08:56.905Z</time>
      </trkpt>
      <trkpt lat="43.56976" lon="7.1064">
        <ele>49.887239</ele>
        <time>2024-01-29T12:08:59.916Z</time>
      </trkpt>
      <trkpt lat="43.56982" lon="7.10627">
        <ele>49.762848</ele>
        <time>2024-01-29T12:09:03.896Z</time>
      </trkpt>
      <trkpt lat="43.56986" lon="7.10615">
        <ele>49.658771</ele>
        <time>2024-01-29T12:09:08.877Z</time>
      </trkpt>
      <trkpt lat="43.56991" lon="7.10605">
        <ele>49.552552</ele>
        <time>2024-01-29T12:09:14.898Z</time>
      </trkpt>
      <trkpt lat="43.56995" lon="7.10593">
        <ele>49.448497</ele>
        <time>2024-01-29T12:09:24.891Z</time>
      </trkpt>
      <trkpt lat="43.57" lon="7.10582">
        <ele>49.341196</ele>
        <time>2024-01-29T12:09:31.886Z</time>
      </trkpt>
      <trkpt lat="43.57005" lon="7.10571">
        <ele>49.233026</ele>
        <time>2024-01-29T12:09:35.915Z</time>
      </trkpt>
      <trkpt lat="43.57009" lon="7.10559">
        <ele>49.123554</ele>
        <time>2024-01-29T12:09:39.905Z</time>
      </trkpt>
      <trkpt lat="43.57014" lon="7.10548">
        <ele>49.018024</ele>
        <time>2024-01-29T12:09:42.918Z</time>
      </trkpt>
      <trkpt lat="43.57019" lon="7.10537">
        <ele>48.911806</ele>
        <time>2024-01-29T12:09:45.898Z</time>
      </trkpt>
      <trkpt lat="43.57024" lon="7.10524">
        <ele>48.793685</ele>
        <time>2024-01-29T12:09:49.908Z</time>
      </trkpt>
      <trkpt lat="43.57028" lon="7.10511">
        <ele>48.676432</ele>
        <time>2024-01-29T12:09:54.896Z</time>
      </trkpt>
      <trkpt lat="43.57034" lon="7.10497">
        <ele>48.543365</ele>
        <time>2024-01-29T12:09:58.884Z</time>
      </trkpt>
      <trkpt lat="43.57039" lon="7.10487">
        <ele>48.43909</ele>
        <time>2024-01-29T12:10:01.881Z</time>
      </trkpt>
      <trkpt lat="43.57043" lon="7.10475">
        <ele>48.333812</ele>
        <time>2024-01-29T12:10:04.888Z</time>
      </trkpt>
      <trkpt lat="43.57046" lon="7.10463">
        <ele>48.225025</ele>
        <time>2024-01-29T12:10:07.915Z</time>
      </trkpt>
      <trkpt lat="43.57049" lon="7.10449">
        <ele>48.136641</ele>
        <time>2024-01-29T12:10:10.911Z</time>
      </trkpt>
      <trkpt lat="43.57051" lon="7.10436">
        <ele>48.147792</ele>
        <time>2024-01-29T12:10:13.905Z</time>
      </trkpt>
      <trkpt lat="43.57054" lon="7.10423">
        <ele>48.159103</ele>
        <time>2024-01-29T12:10:16.912Z</time>
      </trkpt>
      <trkpt lat="43.57055" lon="7.1041">
        <ele>48.169811</ele>
        <time>2024-01-29T12:10:20.903Z</time>
      </trkpt>
      <trkpt lat="43.57058" lon="7.10396">
        <ele>48.181213</ele>
        <time>2024-01-29T12:10:25.900Z</time>
      </trkpt>
      <trkpt lat="43.57061" lon="7.10383">
        <ele>48.192837</ele>
        <time>2024-01-29T12:10:29.905Z</time>
      </trkpt>
      <trkpt lat="43.57063" lon="7.1037">
        <ele>48.203513</ele>
        <time>2024-01-29T12:10:32.897Z</time>
      </trkpt>
      <trkpt lat="43.57065" lon="7.10356">
        <ele>48.215307</ele>
        <time>2024-01-29T12:10:35.903Z</time>
      </trkpt>
      <trkpt lat="43.57067" lon="7.10343">
        <ele>48.226778</ele>
        <time>2024-01-29T12:10:38.900Z</time>
      </trkpt>
      <trkpt lat="43.57069" lon="7.1033">
        <ele>48.237776</ele>
        <time>2024-01-29T12:10:41.911Z</time>
      </trkpt>
      <trkpt lat="43.57072" lon="7.10316">
        <ele>48.249594</ele>
        <time>2024-01-29T12:10:44.899Z</time>
      </trkpt>
      <trkpt lat="43.57073" lon="7.10303">
        <ele>48.260351</ele>
        <time>2024-01-29T12:10:47.900Z</time>
      </trkpt>
      <trkpt lat="43.57077" lon="7.10289">
        <ele>48.272662</ele>
        <time>2024-01-29T12:10:51.891Z</time>
      </trkpt>
      <trkpt lat="43.5708" lon="7.10272">
        <ele>48.286348</ele>
        <time>2024-01-29T12:10:55.893Z</time>
      </trkpt>
      <trkpt lat="43.57081" lon="7.10259">
        <ele>48.297204</ele>
        <time>2024-01-29T12:10:58.903Z</time>
      </trkpt>
      <trkpt lat="43.57082" lon="7.10243">
        <ele>48.310415</ele>
        <time>2024-01-29T12:11:02.915Z</time>
      </trkpt>
      <trkpt lat="43.57085" lon="7.1023">
        <ele>48.321646</ele>
        <time>2024-01-29T12:11:05.900Z</time>
      </trkpt>
      <trkpt lat="43.57087" lon="7.10217">
        <ele>48.333013</ele>
        <time>2024-01-29T12:11:08.895Z</time>
      </trkpt>
      <trkpt lat="43.57089" lon="7.10204">
        <ele>48.381262</ele>
        <time>2024-01-29T12:11:11.917Z</time>
      </trkpt>
      <trkpt lat="43.57092" lon="7.10189">
        <ele>48.474182</ele>
        <time>2024-01-29T12:11:14.905Z</time>
      </trkpt>
      <trkpt lat="43.57094" lon="7.10174">
        <ele>48.573915</ele>
        <time>2024-01-29T12:11:17.906Z</time>
      </trkpt>
      <trkpt lat="43.57097" lon="7.1016">
        <ele>48.668735</ele>
        <time>2024-01-29T12:11:20.901Z</time>
      </trkpt>
      <trkpt lat="43.57101" lon="7.10147">
        <ele>48.75672</ele>
        <time>2024-01-29T12:11:23.902Z</time>
      </trkpt>
      <trkpt lat="43.57106" lon="7.10136">
        <ele>48.835653</ele>
        <time>2024-01-29T12:11:26.895Z</time>
      </trkpt>
      <trkpt lat="43.57109" lon="7.10123">
        <ele>48.921949</ele>
        <time>2024-01-29T12:11:30.908Z</time>
      </trkpt>
      <trkpt lat="43.57116" lon="7.10112">
        <ele>49.018986</ele>
        <time>2024-01-29T12:11:36.910Z</time>
      </trkpt>
      <trkpt lat="43.5712" lon="7.10101">
        <ele>49.099629</ele>
        <time>2024-01-29T12:11:39.902Z</time>
      </trkpt>
      <trkpt lat="43.57122" lon="7.10087">
        <ele>49.187669</ele>
        <time>2024-01-29T12:11:42.893Z</time>
      </trkpt>
      <trkpt lat="43.57125" lon="7.10074">
        <ele>49.27384</ele>
        <time>2024-01-29T12:11:45.904Z</time>
      </trkpt>
      <trkpt lat="43.57127" lon="7.10059">
        <ele>49.373127</ele>
        <time>2024-01-29T12:11:49.912Z</time>
      </trkpt>
      <trkpt lat="43.5713" lon="7.10046">
        <ele>49.460289</ele>
        <time>2024-01-29T12:11:53.897Z</time>
      </trkpt>
      <trkpt lat="43.57133" lon="7.10033">
        <ele>49.547718</ele>
        <time>2024-01-29T12:11:59.909Z</time>
      </trkpt>
      <trkpt lat="43.57134" lon="7.1002">
        <ele>49.628408</ele>
        <time>2024-01-29T12:12:03.899Z</time>
      </trkpt>
      <trkpt lat="43.57135" lon="7.10007">
        <ele>49.709844</ele>
        <time>2024-01-29T12:12:06.910Z</time>
      </trkpt>
      <trkpt lat="43.57136" lon="7.09993">
        <ele>49.799093</ele>
        <time>2024-01-29T12:12:09.923Z</time>
      </trkpt>
      <trkpt lat="43.57136" lon="7.09978">
        <ele>49.893686</ele>
        <time>2024-01-29T12:12:12.895Z</time>
      </trkpt>
      <trkpt lat="43.57136" lon="7.09962">
        <ele>50.09582</ele>
        <time>2024-01-29T12:12:15.904Z</time>
      </trkpt>
      <trkpt lat="43.57136" lon="7.09946">
        <ele>50.337442</ele>
        <time>2024-01-29T12:12:18.898Z</time>
      </trkpt>
      <trkpt lat="43.57136" lon="7.09929">
        <ele>50.583345</ele>
        <time>2024-01-29T12:12:21.906Z</time>
      </trkpt>
      <trkpt lat="43.57136" lon="7.09912">
        <ele>50.827842</ele>
        <time>2024-01-29T12:12:24.917Z</time>
      </trkpt>
      <trkpt lat="43.57137" lon="7.09896">
        <ele>51.055267</ele>
        <time>2024-01-29T12:12:27.911Z</time>
      </trkpt>
      <trkpt lat="43.57137" lon="7.0988">
        <ele>51.288236</ele>
        <time>2024-01-29T12:12:30.906Z</time>
      </trkpt>
      <trkpt lat="43.57137" lon="7.09864">
        <ele>51.515453</ele>
        <time>2024-01-29T12:12:33.934Z</time>
      </trkpt>
      <trkpt lat="43.57137" lon="7.09848">
        <ele>51.747052</ele>
        <time>2024-01-29T12:12:36.921Z</time>
      </trkpt>
      <trkpt lat="43.57136" lon="7.09831">
        <ele>51.980553</ele>
        <time>2024-01-29T12:12:39.916Z</time>
      </trkpt>
      <trkpt lat="43.57136" lon="7.09815">
        <ele>52.216423</ele>
        <time>2024-01-29T12:12:42.893Z</time>
      </trkpt>
      <trkpt lat="43.57135" lon="7.09798">
        <ele>52.466766</ele>
        <time>2024-01-29T12:12:45.911Z</time>
      </trkpt>
      <trkpt lat="43.57135" lon="7.09781">
        <ele>52.708354</ele>
        <time>2024-01-29T12:12:48.888Z</time>
      </trkpt>
      <trkpt lat="43.57135" lon="7.09765">
        <ele>52.937423</ele>
        <time>2024-01-29T12:12:51.903Z</time>
      </trkpt>
      <trkpt lat="43.57135" lon="7.09748">
        <ele>53.180579</ele>
        <time>2024-01-29T12:12:54.909Z</time>
      </trkpt>
      <trkpt lat="43.57134" lon="7.09731">
        <ele>53.428564</ele>
        <time>2024-01-29T12:12:57.910Z</time>
      </trkpt>
      <trkpt lat="43.57134" lon="7.09714">
        <ele>53.453636</ele>
        <time>2024-01-29T12:13:00.906Z</time>
      </trkpt>
      <trkpt lat="43.57133" lon="7.09697">
        <ele>53.416474</ele>
        <time>2024-01-29T12:13:03.918Z</time>
      </trkpt>
      <trkpt lat="43.57132" lon="7.09681">
        <ele>53.37949</ele>
        <time>2024-01-29T12:13:06.902Z</time>
      </trkpt>
      <trkpt lat="43.57131" lon="7.09664">
        <ele>53.340404</ele>
        <time>2024-01-29T12:13:09.912Z</time>
      </trkpt>
      <trkpt lat="43.57129" lon="7.09645">
        <ele>53.299083</ele>
        <time>2024-01-29T12:13:12.898Z</time>
      </trkpt>
      <trkpt lat="43.57128" lon="7.09628">
        <ele>53.259833</ele>
        <time>2024-01-29T12:13:15.914Z</time>
      </trkpt>
      <trkpt lat="43.57126" lon="7.0961">
        <ele>53.220334</ele>
        <time>2024-01-29T12:13:18.904Z</time>
      </trkpt>
      <trkpt lat="43.57125" lon="7.09594">
        <ele>53.182742</ele>
        <time>2024-01-29T12:13:21.902Z</time>
      </trkpt>
      <trkpt lat="43.57123" lon="7.09576">
        <ele>53.142841</ele>
        <time>2024-01-29T12:13:24.900Z</time>
      </trkpt>
      <trkpt lat="43.57121" lon="7.09558">
        <ele>53.101918</ele>
        <time>2024-01-29T12:13:27.902Z</time>
      </trkpt>
      <trkpt lat="43.5712" lon="7.09546">
        <ele>53.073762</ele>
        <time>2024-01-29T12:13:29.922Z</time>
      </trkpt>
      <trkpt lat="43.57117" lon="7.09528">
        <ele>53.032575</ele>
        <time>2024-01-29T12:13:32.902Z</time>
      </trkpt>
      <trkpt lat="43.57115" lon="7.0951">
        <ele>52.991888</ele>
        <time>2024-01-29T12:13:35.911Z</time>
      </trkpt>
      <trkpt lat="43.57113" lon="7.09492">
        <ele>52.949818</ele>
        <time>2024-01-29T12:13:38.885Z</time>
      </trkpt>
      <trkpt lat="43.5711" lon="7.09473">
        <ele>52.90048</ele>
        <time>2024-01-29T12:13:41.906Z</time>
      </trkpt>
      <trkpt lat="43.57108" lon="7.09455">
        <ele>52.842178</ele>
        <time>2024-01-29T12:13:44.911Z</time>
      </trkpt>
      <trkpt lat="43.57106" lon="7.09443">
        <ele>52.802316</ele>
        <time>2024-01-29T12:13:46.899Z</time>
      </trkpt>
      <trkpt lat="43.57104" lon="7.0943">
        <ele>52.761433</ele>
        <time>2024-01-29T12:13:48.896Z</time>
      </trkpt>
      <trkpt lat="43.57103" lon="7.09418">
        <ele>52.71961</ele>
        <time>2024-01-29T12:13:50.905Z</time>
      </trkpt>
      <trkpt lat="43.57101" lon="7.09405">
        <ele>52.67868</ele>
        <time>2024-01-29T12:13:52.901Z</time>
      </trkpt>
      <trkpt lat="43.57098" lon="7.09392">
        <ele>52.637027</ele>
        <time>2024-01-29T12:13:54.917Z</time>
      </trkpt>
      <trkpt lat="43.57097" lon="7.0938">
        <ele>52.596772</ele>
        <time>2024-01-29T12:13:56.903Z</time>
      </trkpt>
      <trkpt lat="43.57095" lon="7.09367">
        <ele>52.556175</ele>
        <time>2024-01-29T12:13:58.911Z</time>
      </trkpt>
      <trkpt lat="43.57094" lon="7.09354">
        <ele>52.514352</ele>
        <time>2024-01-29T12:14:00.908Z</time>
      </trkpt>
      <trkpt lat="43.57092" lon="7.09342">
        <ele>52.473547</ele>
        <time>2024-01-29T12:14:02.912Z</time>
      </trkpt>
      <trkpt lat="43.5709" lon="7.0933">
        <ele>52.433686</ele>
        <time>2024-01-29T12:14:04.899Z</time>
      </trkpt>
      <trkpt lat="43.57089" lon="7.09317">
        <ele>52.393089</ele>
        <time>2024-01-29T12:14:06.897Z</time>
      </trkpt>
      <trkpt lat="43.57088" lon="7.09304">
        <ele>52.352427</ele>
        <time>2024-01-29T12:14:08.887Z</time>
      </trkpt>
      <trkpt lat="43.57086" lon="7.09292">
        <ele>52.310971</ele>
        <time>2024-01-29T12:14:10.902Z</time>
      </trkpt>
      <trkpt lat="43.57084" lon="7.09279">
        <ele>52.269426</ele>
        <time>2024-01-29T12:14:12.881Z</time>
      </trkpt>
      <trkpt lat="43.57083" lon="7.09266">
        <ele>52.227624</ele>
        <time>2024-01-29T12:14:14.912Z</time>
      </trkpt>
      <trkpt lat="43.57082" lon="7.09253">
        <ele>52.185289</ele>
        <time>2024-01-29T12:14:16.917Z</time>
      </trkpt>
      <trkpt lat="43.57081" lon="7.0924">
        <ele>52.143428</ele>
        <time>2024-01-29T12:14:18.894Z</time>
      </trkpt>
      <trkpt lat="43.5708" lon="7.09227">
        <ele>52.164319</ele>
        <time>2024-01-29T12:14:20.891Z</time>
      </trkpt>
      <trkpt lat="43.57079" lon="7.09214">
        <ele>52.203742</ele>
        <time>2024-01-29T12:14:22.922Z</time>
      </trkpt>
      <trkpt lat="43.57077" lon="7.09197">
        <ele>52.259207</ele>
        <time>2024-01-29T12:14:25.913Z</time>
      </trkpt>
      <trkpt lat="43.57075" lon="7.09179">
        <ele>52.314859</ele>
        <time>2024-01-29T12:14:28.904Z</time>
      </trkpt>
      <trkpt lat="43.57073" lon="7.09161">
        <ele>52.370634</ele>
        <time>2024-01-29T12:14:31.904Z</time>
      </trkpt>
      <trkpt lat="43.57071" lon="7.09144">
        <ele>52.426594</ele>
        <time>2024-01-29T12:14:34.896Z</time>
      </trkpt>
      <trkpt lat="43.5707" lon="7.09127">
        <ele>52.478489</ele>
        <time>2024-01-29T12:14:37.911Z</time>
      </trkpt>
      <trkpt lat="43.57068" lon="7.09111">
        <ele>52.529516</ele>
        <time>2024-01-29T12:14:40.897Z</time>
      </trkpt>
      <trkpt lat="43.57067" lon="7.09095">
        <ele>52.5795</ele>
        <time>2024-01-29T12:14:43.915Z</time>
      </trkpt>
      <trkpt lat="43.57065" lon="7.09079">
        <ele>52.629463</ele>
        <time>2024-01-29T12:14:46.940Z</time>
      </trkpt>
      <trkpt lat="43.57064" lon="7.09063">
        <ele>52.681846</ele>
        <time>2024-01-29T12:14:49.904Z</time>
      </trkpt>
      <trkpt lat="43.57062" lon="7.09046">
        <ele>52.733072</ele>
        <time>2024-01-29T12:14:52.903Z</time>
      </trkpt>
      <trkpt lat="43.57061" lon="7.09029">
        <ele>52.786782</ele>
        <time>2024-01-29T12:14:55.922Z</time>
      </trkpt>
      <trkpt lat="43.57059" lon="7.09013">
        <ele>52.839966</ele>
        <time>2024-01-29T12:14:58.939Z</time>
      </trkpt>
      <trkpt lat="43.57058" lon="7.08995">
        <ele>52.895635</ele>
        <time>2024-01-29T12:15:01.907Z</time>
      </trkpt>
      <trkpt lat="43.57056" lon="7.08983">
        <ele>52.898039</ele>
        <time>2024-01-29T12:15:03.902Z</time>
      </trkpt>
      <trkpt lat="43.57055" lon="7.0897">
        <ele>52.880468</ele>
        <time>2024-01-29T12:15:05.925Z</time>
      </trkpt>
      <trkpt lat="43.57053" lon="7.08957">
        <ele>52.862703</ele>
        <time>2024-01-29T12:15:07.899Z</time>
      </trkpt>
      <trkpt lat="43.57052" lon="7.08944">
        <ele>52.844721</ele>
        <time>2024-01-29T12:15:09.902Z</time>
      </trkpt>
      <trkpt lat="43.57051" lon="7.08932">
        <ele>52.827241</ele>
        <time>2024-01-29T12:15:11.908Z</time>
      </trkpt>
      <trkpt lat="43.57049" lon="7.08913">
        <ele>52.801744</ele>
        <time>2024-01-29T12:15:14.920Z</time>
      </trkpt>
      <trkpt lat="43.57048" lon="7.08901">
        <ele>52.784473</ele>
        <time>2024-01-29T12:15:16.921Z</time>
      </trkpt>
      <trkpt lat="43.57047" lon="7.08889">
        <ele>52.767252</ele>
        <time>2024-01-29T12:15:18.888Z</time>
      </trkpt>
      <trkpt lat="43.57046" lon="7.08876">
        <ele>52.749731</ele>
        <time>2024-01-29T12:15:20.901Z</time>
      </trkpt>
      <trkpt lat="43.57044" lon="7.08863">
        <ele>52.732049</ele>
        <time>2024-01-29T12:15:22.927Z</time>
      </trkpt>
      <trkpt lat="43.57043" lon="7.08851">
        <ele>52.714686</ele>
        <time>2024-01-29T12:15:24.906Z</time>
      </trkpt>
      <trkpt lat="43.57042" lon="7.08838">
        <ele>52.697251</ele>
        <time>2024-01-29T12:15:26.913Z</time>
      </trkpt>
      <trkpt lat="43.5704" lon="7.0882">
        <ele>52.671779</ele>
        <time>2024-01-29T12:15:29.898Z</time>
      </trkpt>
      <trkpt lat="43.57039" lon="7.08802">
        <ele>52.647016</ele>
        <time>2024-01-29T12:15:32.902Z</time>
      </trkpt>
      <trkpt lat="43.57036" lon="7.08785">
        <ele>52.622732</ele>
        <time>2024-01-29T12:15:35.922Z</time>
      </trkpt>
      <trkpt lat="43.57035" lon="7.08769">
        <ele>52.599797</ele>
        <time>2024-01-29T12:15:38.892Z</time>
      </trkpt>
      <trkpt lat="43.57034" lon="7.08752">
        <ele>52.577272</ele>
        <time>2024-01-29T12:15:41.916Z</time>
      </trkpt>
      <trkpt lat="43.57032" lon="7.08737">
        <ele>52.556045</ele>
        <time>2024-01-29T12:15:44.891Z</time>
      </trkpt>
      <trkpt lat="43.57031" lon="7.08722">
        <ele>52.535838</ele>
        <time>2024-01-29T12:15:47.904Z</time>
      </trkpt>
      <trkpt lat="43.57029" lon="7.08705">
        <ele>52.51324</ele>
        <time>2024-01-29T12:15:50.908Z</time>
      </trkpt>
      <trkpt lat="43.57027" lon="7.08688">
        <ele>52.491111</ele>
        <time>2024-01-29T12:15:53.914Z</time>
      </trkpt>
      <trkpt lat="43.57025" lon="7.08673">
        <ele>52.470922</ele>
        <time>2024-01-29T12:15:56.904Z</time>
      </trkpt>
      <trkpt lat="43.57024" lon="7.08659">
        <ele>52.451724</ele>
        <time>2024-01-29T12:15:59.910Z</time>
      </trkpt>
      <trkpt lat="43.57022" lon="7.08644">
        <ele>52.432221</ele>
        <time>2024-01-29T12:16:02.904Z</time>
      </trkpt>
      <trkpt lat="43.57021" lon="7.08629">
        <ele>52.412117</ele>
        <time>2024-01-29T12:16:05.887Z</time>
      </trkpt>
      <trkpt lat="43.5702" lon="7.08613">
        <ele>52.390486</ele>
        <time>2024-01-29T12:16:08.888Z</time>
      </trkpt>
      <trkpt lat="43.57018" lon="7.08597">
        <ele>52.368143</ele>
        <time>2024-01-29T12:16:11.922Z</time>
      </trkpt>
      <trkpt lat="43.57016" lon="7.08579">
        <ele>52.345047</ele>
        <time>2024-01-29T12:16:14.926Z</time>
      </trkpt>
      <trkpt lat="43.57014" lon="7.08562">
        <ele>52.322248</ele>
        <time>2024-01-29T12:16:17.882Z</time>
      </trkpt>
      <trkpt lat="43.57012" lon="7.08546">
        <ele>52.300228</ele>
        <time>2024-01-29T12:16:20.917Z</time>
      </trkpt>
      <trkpt lat="43.57009" lon="7.0853">
        <ele>52.278656</ele>
        <time>2024-01-29T12:16:23.901Z</time>
      </trkpt>
      <trkpt lat="43.57007" lon="7.08515">
        <ele>52.25739</ele>
        <time>2024-01-29T12:16:26.902Z</time>
      </trkpt>
      <trkpt lat="43.57004" lon="7.08501">
        <ele>52.238485</ele>
        <time>2024-01-29T12:16:29.930Z</time>
      </trkpt>
      <trkpt lat="43.57002" lon="7.08487">
        <ele>52.133377</ele>
        <time>2024-01-29T12:16:32.902Z</time>
      </trkpt>
      <trkpt lat="43.56998" lon="7.08473">
        <ele>52.020479</ele>
        <time>2024-01-29T12:16:35.918Z</time>
      </trkpt>
      <trkpt lat="43.56995" lon="7.08458">
        <ele>51.897147</ele>
        <time>2024-01-29T12:16:38.893Z</time>
      </trkpt>
      <trkpt lat="43.56991" lon="7.08441">
        <ele>51.75672</ele>
        <time>2024-01-29T12:16:41.922Z</time>
      </trkpt>
      <trkpt lat="43.56988" lon="7.08428">
        <ele>51.651577</ele>
        <time>2024-01-29T12:16:43.898Z</time>
      </trkpt>
      <trkpt lat="43.56984" lon="7.08415">
        <ele>51.538532</ele>
        <time>2024-01-29T12:16:45.916Z</time>
      </trkpt>
      <trkpt lat="43.56979" lon="7.08401">
        <ele>51.421579</ele>
        <time>2024-01-29T12:16:47.906Z</time>
      </trkpt>
      <trkpt lat="43.56974" lon="7.08388">
        <ele>51.31023</ele>
        <time>2024-01-29T12:16:49.920Z</time>
      </trkpt>
      <trkpt lat="43.56969" lon="7.08375">
        <ele>51.193972</ele>
        <time>2024-01-29T12:16:51.900Z</time>
      </trkpt>
      <trkpt lat="43.56964" lon="7.08363">
        <ele>51.082718</ele>
        <time>2024-01-29T12:16:53.905Z</time>
      </trkpt>
      <trkpt lat="43.56959" lon="7.0835">
        <ele>50.967716</ele>
        <time>2024-01-29T12:16:55.908Z</time>
      </trkpt>
      <trkpt lat="43.56953" lon="7.08338">
        <ele>50.857154</ele>
        <time>2024-01-29T12:16:57.913Z</time>
      </trkpt>
      <trkpt lat="43.56948" lon="7.08326">
        <ele>50.747086</ele>
        <time>2024-01-29T12:16:59.912Z</time>
      </trkpt>
      <trkpt lat="43.56942" lon="7.08315">
        <ele>50.640231</ele>
        <time>2024-01-29T12:17:01.918Z</time>
      </trkpt>
      <trkpt lat="43.56936" lon="7.08301">
        <ele>50.515498</ele>
        <time>2024-01-29T12:17:04.919Z</time>
      </trkpt>
      <trkpt lat="43.56931" lon="7.08289">
        <ele>50.405588</ele>
        <time>2024-01-29T12:17:09.912Z</time>
      </trkpt>
      <trkpt lat="43.5692" lon="7.08286">
        <ele>50.282954</ele>
        <time>2024-01-29T12:17:25.891Z</time>
      </trkpt>
      <trkpt lat="43.56911" lon="7.08291">
        <ele>50.106782</ele>
        <time>2024-01-29T12:17:30.925Z</time>
      </trkpt>
      <trkpt lat="43.56905" lon="7.08302">
        <ele>49.941506</ele>
        <time>2024-01-29T12:18:07.900Z</time>
      </trkpt>
      <trkpt lat="43.56895" lon="7.08307">
        <ele>49.758146</ele>
        <time>2024-01-29T12:18:14.900Z</time>
      </trkpt>
      <trkpt lat="43.56885" lon="7.08312">
        <ele>49.57157</ele>
        <time>2024-01-29T12:18:19.920Z</time>
      </trkpt>
      <trkpt lat="43.56878" lon="7.08302">
        <ele>49.406823</ele>
        <time>2024-01-29T12:18:23.901Z</time>
      </trkpt>
      <trkpt lat="43.56873" lon="7.08291">
        <ele>49.23164</ele>
        <time>2024-01-29T12:18:26.885Z</time>
      </trkpt>
      <trkpt lat="43.56867" lon="7.08278">
        <ele>49.044854</ele>
        <time>2024-01-29T12:18:29.912Z</time>
      </trkpt>
      <trkpt lat="43.56861" lon="7.08266">
        <ele>48.869235</ele>
        <time>2024-01-29T12:18:32.903Z</time>
      </trkpt>
      <trkpt lat="43.56856" lon="7.08254">
        <ele>48.694671</ele>
        <time>2024-01-29T12:18:35.908Z</time>
      </trkpt>
      <trkpt lat="43.56851" lon="7.08243">
        <ele>48.526142</ele>
        <time>2024-01-29T12:18:38.907Z</time>
      </trkpt>
      <trkpt lat="43.56845" lon="7.08232">
        <ele>48.363006</ele>
        <time>2024-01-29T12:18:41.902Z</time>
      </trkpt>
      <trkpt lat="43.56841" lon="7.08221">
        <ele>48.20638</ele>
        <time>2024-01-29T12:18:45.919Z</time>
      </trkpt>
      <trkpt lat="43.56834" lon="7.08211">
        <ele>48.041203</ele>
        <time>2024-01-29T12:18:50.909Z</time>
      </trkpt>
      <trkpt lat="43.56829" lon="7.08201">
        <ele>47.882056</ele>
        <time>2024-01-29T12:18:55.901Z</time>
      </trkpt>
      <trkpt lat="43.56825" lon="7.08187">
        <ele>47.70483</ele>
        <time>2024-01-29T12:19:01.905Z</time>
      </trkpt>
      <trkpt lat="43.56818" lon="7.08179">
        <ele>47.543063</ele>
        <time>2024-01-29T12:19:07.900Z</time>
      </trkpt>
      <trkpt lat="43.56813" lon="7.08168">
        <ele>47.378731</ele>
        <time>2024-01-29T12:19:26.897Z</time>
      </trkpt>
      <trkpt lat="43.56807" lon="7.08155">
        <ele>47.223887</ele>
        <time>2024-01-29T12:19:32.906Z</time>
      </trkpt>
      <trkpt lat="43.56802" lon="7.08144">
        <ele>47.263955</ele>
        <time>2024-01-29T12:19:36.901Z</time>
      </trkpt>
      <trkpt lat="43.56797" lon="7.08132">
        <ele>47.307873</ele>
        <time>2024-01-29T12:19:40.902Z</time>
      </trkpt>
      <trkpt lat="43.56791" lon="7.08122">
        <ele>47.348516</ele>
        <time>2024-01-29T12:19:43.911Z</time>
      </trkpt>
      <trkpt lat="43.56785" lon="7.08109">
        <ele>47.397688</ele>
        <time>2024-01-29T12:19:47.918Z</time>
      </trkpt>
      <trkpt lat="43.5678" lon="7.08098">
        <ele>47.441288</ele>
        <time>2024-01-29T12:19:51.909Z</time>
      </trkpt>
      <trkpt lat="43.56774" lon="7.08086">
        <ele>47.486829</ele>
        <time>2024-01-29T12:19:56.901Z</time>
      </trkpt>
      <trkpt lat="43.56768" lon="7.08072">
        <ele>47.537728</ele>
        <time>2024-01-29T12:20:16.908Z</time>
      </trkpt>
      <trkpt lat="43.56763" lon="7.08061">
        <ele>47.579689</ele>
        <time>2024-01-29T12:20:21.907Z</time>
      </trkpt>
      <trkpt lat="43.56756" lon="7.08049">
        <ele>47.627609</ele>
        <time>2024-01-29T12:20:26.891Z</time>
      </trkpt>
      <trkpt lat="43.56751" lon="7.08037">
        <ele>47.67311</ele>
        <time>2024-01-29T12:20:35.913Z</time>
      </trkpt>
      <trkpt lat="43.56745" lon="7.08024">
        <ele>47.720025</ele>
        <time>2024-01-29T12:20:41.899Z</time>
      </trkpt>
      <trkpt lat="43.56739" lon="7.08013">
        <ele>47.763761</ele>
        <time>2024-01-29T12:20:46.899Z</time>
      </trkpt>
      <trkpt lat="43.56735" lon="7.08001">
        <ele>47.806571</ele>
        <time>2024-01-29T12:21:00.893Z</time>
      </trkpt>
      <trkpt lat="43.56732" lon="7.07989">
        <ele>47.847828</ele>
        <time>2024-01-29T12:21:06.898Z</time>
      </trkpt>
      <trkpt lat="43.56726" lon="7.07979">
        <ele>47.887957</ele>
        <time>2024-01-29T12:21:10.898Z</time>
      </trkpt>
      <trkpt lat="43.5672" lon="7.07968">
        <ele>47.931478</ele>
        <time>2024-01-29T12:21:14.900Z</time>
      </trkpt>
      <trkpt lat="43.56711" lon="7.07952">
        <ele>47.994799</ele>
        <time>2024-01-29T12:21:36.044Z</time>
      </trkpt>
      <trkpt lat="43.56705" lon="7.07941">
        <ele>47.975465</ele>
        <time>2024-01-29T12:21:39.911Z</time>
      </trkpt>
      <trkpt lat="43.56699" lon="7.07928">
        <ele>47.93193</ele>
        <time>2024-01-29T12:21:43.897Z</time>
      </trkpt>
      <trkpt lat="43.56694" lon="7.07916">
        <ele>47.896541</ele>
        <time>2024-01-29T12:21:46.911Z</time>
      </trkpt>
      <trkpt lat="43.56689" lon="7.07905">
        <ele>47.858794</ele>
        <time>2024-01-29T12:21:49.905Z</time>
      </trkpt>
      <trkpt lat="43.56683" lon="7.07893">
        <ele>47.820135</ele>
        <time>2024-01-29T12:21:52.900Z</time>
      </trkpt>
      <trkpt lat="43.56678" lon="7.07882">
        <ele>47.783226</ele>
        <time>2024-01-29T12:21:55.909Z</time>
      </trkpt>
      <trkpt lat="43.56673" lon="7.07871">
        <ele>47.748588</ele>
        <time>2024-01-29T12:21:58.899Z</time>
      </trkpt>
      <trkpt lat="43.56668" lon="7.07861">
        <ele>47.714391</ele>
        <time>2024-01-29T12:22:01.894Z</time>
      </trkpt>
      <trkpt lat="43.56663" lon="7.07849">
        <ele>47.676923</ele>
        <time>2024-01-29T12:22:05.915Z</time>
      </trkpt>
      <trkpt lat="43.56672" lon="7.07842">
        <ele>47.63861</ele>
        <time>2024-01-29T12:22:13.892Z</time>
      </trkpt>
      <trkpt lat="43.5668" lon="7.07833">
        <ele>47.600999</ele>
        <time>2024-01-29T12:22:18.915Z</time>
      </trkpt>
      <trkpt lat="43.56675" lon="7.0782">
        <ele>47.560042</ele>
        <time>2024-01-29T12:22:23.914Z</time>
      </trkpt>
      <trkpt lat="43.56668" lon="7.07811">
        <ele>47.525314</ele>
        <time>2024-01-29T12:22:28.907Z</time>
      </trkpt>
      <trkpt lat="43.56663" lon="7.07798">
        <ele>47.484295</ele>
        <time>2024-01-29T12:22:33.906Z</time>
      </trkpt>
      <trkpt lat="43.56661" lon="7.07782">
        <ele>47.440316</ele>
        <time>2024-01-29T12:22:37.899Z</time>
      </trkpt>
      <trkpt lat="43.56659" lon="7.07769">
        <ele>47.403284</ele>
        <time>2024-01-29T12:22:41.909Z</time>
      </trkpt>
      <trkpt lat="43.56657" lon="7.07753">
        <ele>47.358557</ele>
        <time>2024-01-29T12:22:45.906Z</time>
      </trkpt>
      <trkpt lat="43.56655" lon="7.07738">
        <ele>47.335355</ele>
        <time>2024-01-29T12:22:49.885Z</time>
      </trkpt>
      <trkpt lat="43.56653" lon="7.07722">
        <ele>47.388418</ele>
        <time>2024-01-29T12:22:53.903Z</time>
      </trkpt>
      <trkpt lat="43.56651" lon="7.07705">
        <ele>47.442605</ele>
        <time>2024-01-29T12:22:57.908Z</time>
      </trkpt>
      <trkpt lat="43.56648" lon="7.07691">
        <ele>47.491163</ele>
        <time>2024-01-29T12:23:01.892Z</time>
      </trkpt>
      <trkpt lat="43.56645" lon="7.07678">
        <ele>47.536066</ele>
        <time>2024-01-29T12:23:05.901Z</time>
      </trkpt>
      <trkpt lat="43.56643" lon="7.07665">
        <ele>47.581314</ele>
        <time>2024-01-29T12:23:10.907Z</time>
      </trkpt>
      <trkpt lat="43.56641" lon="7.07652">
        <ele>47.624879</ele>
        <time>2024-01-29T12:23:14.886Z</time>
      </trkpt>
      <trkpt lat="43.56637" lon="7.07639">
        <ele>47.668365</ele>
        <time>2024-01-29T12:23:18.890Z</time>
      </trkpt>
      <trkpt lat="43.5664" lon="7.07627">
        <ele>47.71119</ele>
        <time>2024-01-29T12:23:22.903Z</time>
      </trkpt>
      <trkpt lat="43.56639" lon="7.07612">
        <ele>47.76079</ele>
        <time>2024-01-29T12:23:26.906Z</time>
      </trkpt>
      <trkpt lat="43.56635" lon="7.07598">
        <ele>47.810883</ele>
        <time>2024-01-29T12:23:30.892Z</time>
      </trkpt>
      <trkpt lat="43.56633" lon="7.07585">
        <ele>47.852308</ele>
        <time>2024-01-29T12:23:34.907Z</time>
      </trkpt>
      <trkpt lat="43.56632" lon="7.07572">
        <ele>47.896057</ele>
        <time>2024-01-29T12:23:40.885Z</time>
      </trkpt>
      <trkpt lat="43.56627" lon="7.07549">
        <ele>47.975737</ele>
        <time>2024-01-29T12:24:11.904Z</time>
      </trkpt>
      <trkpt lat="43.56623" lon="7.07535">
        <ele>48.024449</ele>
        <time>2024-01-29T12:24:17.904Z</time>
      </trkpt>
      <trkpt lat="43.56619" lon="7.07524">
        <ele>48.065676</ele>
        <time>2024-01-29T12:24:23.879Z</time>
      </trkpt>
      <trkpt lat="43.56613" lon="7.07515">
        <ele>48.106863</ele>
        <time>2024-01-29T12:24:33.901Z</time>
      </trkpt>
      <trkpt lat="43.56612" lon="7.07515">
        <ele>48.107945</ele>
        <time>2024-01-29T12:25:37.765Z</time>
      </trkpt>
      <trkpt lat="43.55906" lon="7.06417">
        <ele>61.513421</ele>
        <time>2024-01-29T13:42:16.904Z</time>
      </trkpt>
      <trkpt lat="43.55897" lon="7.06408">
        <ele>61.674457</ele>
        <time>2024-01-29T13:42:19.912Z</time>
      </trkpt>
      <trkpt lat="43.55888" lon="7.06398">
        <ele>61.828352</ele>
        <time>2024-01-29T13:42:22.882Z</time>
      </trkpt>
      <trkpt lat="43.55878" lon="7.06388">
        <ele>61.711928</ele>
        <time>2024-01-29T13:42:25.912Z</time>
      </trkpt>
      <trkpt lat="43.55868" lon="7.06378">
        <ele>61.589971</ele>
        <time>2024-01-29T13:42:28.911Z</time>
      </trkpt>
      <trkpt lat="43.55858" lon="7.06368">
        <ele>61.466445</ele>
        <time>2024-01-29T13:42:31.906Z</time>
      </trkpt>
      <trkpt lat="43.55846" lon="7.06357">
        <ele>61.336193</ele>
        <time>2024-01-29T13:42:34.884Z</time>
      </trkpt>
      <trkpt lat="43.55839" lon="7.0635">
        <ele>61.246715</ele>
        <time>2024-01-29T13:42:36.897Z</time>
      </trkpt>
      <trkpt lat="43.55831" lon="7.06342">
        <ele>61.152387</ele>
        <time>2024-01-29T13:42:38.879Z</time>
      </trkpt>
      <trkpt lat="43.55823" lon="7.06333">
        <ele>61.052783</ele>
        <time>2024-01-29T13:42:40.896Z</time>
      </trkpt>
      <trkpt lat="43.55814" lon="7.06324">
        <ele>60.951392</ele>
        <time>2024-01-29T13:42:42.901Z</time>
      </trkpt>
      <trkpt lat="43.55806" lon="7.06316">
        <ele>60.849223</ele>
        <time>2024-01-29T13:42:44.890Z</time>
      </trkpt>
      <trkpt lat="43.55796" lon="7.06308">
        <ele>60.738689</ele>
        <time>2024-01-29T13:42:46.877Z</time>
      </trkpt>
      <trkpt lat="43.55785" lon="7.06302">
        <ele>60.623616</ele>
        <time>2024-01-29T13:42:48.882Z</time>
      </trkpt>
      <trkpt lat="43.55774" lon="7.06292">
        <ele>60.498333</ele>
        <time>2024-01-29T13:42:50.863Z</time>
      </trkpt>
      <trkpt lat="43.55762" lon="7.06282">
        <ele>60.367282</ele>
        <time>2024-01-29T13:42:52.881Z</time>
      </trkpt>
      <trkpt lat="43.55751" lon="7.0627">
        <ele>60.229113</ele>
        <time>2024-01-29T13:42:54.900Z</time>
      </trkpt>
      <trkpt lat="43.55739" lon="7.06259">
        <ele>60.094963</ele>
        <time>2024-01-29T13:42:56.868Z</time>
      </trkpt>
      <trkpt lat="43.55726" lon="7.06249">
        <ele>60.021287</ele>
        <time>2024-01-29T13:42:58.885Z</time>
      </trkpt>
      <trkpt lat="43.55713" lon="7.06241">
        <ele>59.950332</ele>
        <time>2024-01-29T13:43:00.861Z</time>
      </trkpt>
      <trkpt lat="43.55701" lon="7.06233">
        <ele>59.881676</ele>
        <time>2024-01-29T13:43:02.859Z</time>
      </trkpt>
      <trkpt lat="43.55689" lon="7.06226">
        <ele>59.817109</ele>
        <time>2024-01-29T13:43:04.871Z</time>
      </trkpt>
      <trkpt lat="43.55677" lon="7.06219">
        <ele>59.753476</ele>
        <time>2024-01-29T13:43:06.858Z</time>
      </trkpt>
      <trkpt lat="43.55667" lon="7.06211">
        <ele>59.694373</ele>
        <time>2024-01-29T13:43:08.878Z</time>
      </trkpt>
      <trkpt lat="43.55657" lon="7.06205">
        <ele>59.641244</ele>
        <time>2024-01-29T13:43:10.998Z</time>
      </trkpt>
      <trkpt lat="43.55648" lon="7.06199">
        <ele>59.591311</ele>
        <time>2024-01-29T13:43:12.920Z</time>
      </trkpt>
      <trkpt lat="43.5564" lon="7.06195">
        <ele>59.544945</ele>
        <time>2024-01-29T13:43:14.869Z</time>
      </trkpt>
      <trkpt lat="43.55628" lon="7.06186">
        <ele>59.480865</ele>
        <time>2024-01-29T13:43:17.883Z</time>
      </trkpt>
      <trkpt lat="43.55616" lon="7.06179">
        <ele>59.414333</ele>
        <time>2024-01-29T13:43:20.900Z</time>
      </trkpt>
      <trkpt lat="43.55605" lon="7.06172">
        <ele>59.351309</ele>
        <time>2024-01-29T13:43:23.905Z</time>
      </trkpt>
      <trkpt lat="43.55596" lon="7.06167">
        <ele>59.305029</ele>
        <time>2024-01-29T13:43:25.909Z</time>
      </trkpt>
      <trkpt lat="43.55588" lon="7.0616">
        <ele>59.258725</ele>
        <time>2024-01-29T13:43:27.917Z</time>
      </trkpt>
      <trkpt lat="43.5558" lon="7.06155">
        <ele>59.213465</ele>
        <time>2024-01-29T13:43:29.905Z</time>
      </trkpt>
      <trkpt lat="43.55572" lon="7.06149">
        <ele>59.175006</ele>
        <time>2024-01-29T13:43:31.910Z</time>
      </trkpt>
      <trkpt lat="43.55564" lon="7.06143">
        <ele>59.138751</ele>
        <time>2024-01-29T13:43:33.902Z</time>
      </trkpt>
      <trkpt lat="43.55555" lon="7.06136">
        <ele>59.100454</ele>
        <time>2024-01-29T13:43:35.911Z</time>
      </trkpt>
      <trkpt lat="43.55547" lon="7.06129">
        <ele>59.06292</ele>
        <time>2024-01-29T13:43:37.907Z</time>
      </trkpt>
      <trkpt lat="43.55538" lon="7.06122">
        <ele>59.022343</ele>
        <time>2024-01-29T13:43:39.885Z</time>
      </trkpt>
      <trkpt lat="43.55528" lon="7.06114">
        <ele>58.98108</ele>
        <time>2024-01-29T13:43:41.905Z</time>
      </trkpt>
      <trkpt lat="43.55519" lon="7.06105">
        <ele>58.938557</ele>
        <time>2024-01-29T13:43:43.906Z</time>
      </trkpt>
      <trkpt lat="43.5551" lon="7.06096">
        <ele>58.894955</ele>
        <time>2024-01-29T13:43:45.892Z</time>
      </trkpt>
      <trkpt lat="43.55499" lon="7.06088">
        <ele>58.848651</ele>
        <time>2024-01-29T13:43:47.908Z</time>
      </trkpt>
      <trkpt lat="43.55488" lon="7.0608">
        <ele>58.802116</ele>
        <time>2024-01-29T13:43:49.904Z</time>
      </trkpt>
      <trkpt lat="43.55478" lon="7.06071">
        <ele>58.75507</ele>
        <time>2024-01-29T13:43:51.880Z</time>
      </trkpt>
      <trkpt lat="43.55468" lon="7.0606">
        <ele>58.706638</ele>
        <time>2024-01-29T13:43:53.908Z</time>
      </trkpt>
      <trkpt lat="43.55459" lon="7.06047">
        <ele>58.657743</ele>
        <time>2024-01-29T13:43:55.911Z</time>
      </trkpt>
      <trkpt lat="43.55451" lon="7.06035">
        <ele>58.611806</ele>
        <time>2024-01-29T13:43:57.894Z</time>
      </trkpt>
      <trkpt lat="43.55442" lon="7.06024">
        <ele>58.564952</ele>
        <time>2024-01-29T13:43:59.904Z</time>
      </trkpt>
      <trkpt lat="43.55432" lon="7.06014">
        <ele>58.519119</ele>
        <time>2024-01-29T13:44:01.913Z</time>
      </trkpt>
      <trkpt lat="43.55423" lon="7.06004">
        <ele>58.671101</ele>
        <time>2024-01-29T13:44:03.910Z</time>
      </trkpt>
      <trkpt lat="43.55415" lon="7.05995">
        <ele>58.856523</ele>
        <time>2024-01-29T13:44:05.917Z</time>
      </trkpt>
      <trkpt lat="43.55406" lon="7.05986">
        <ele>59.038726</ele>
        <time>2024-01-29T13:44:07.898Z</time>
      </trkpt>
      <trkpt lat="43.55399" lon="7.05977">
        <ele>59.207788</ele>
        <time>2024-01-29T13:44:09.890Z</time>
      </trkpt>
      <trkpt lat="43.55391" lon="7.05969">
        <ele>59.360813</ele>
        <time>2024-01-29T13:44:11.888Z</time>
      </trkpt>
      <trkpt lat="43.55382" lon="7.05957">
        <ele>59.569945</ele>
        <time>2024-01-29T13:44:14.889Z</time>
      </trkpt>
      <trkpt lat="43.55373" lon="7.05947">
        <ele>59.77257</ele>
        <time>2024-01-29T13:44:17.890Z</time>
      </trkpt>
      <trkpt lat="43.55366" lon="7.05937">
        <ele>59.937672</ele>
        <time>2024-01-29T13:44:20.900Z</time>
      </trkpt>
      <trkpt lat="43.55359" lon="7.05928">
        <ele>60.100495</ele>
        <time>2024-01-29T13:44:23.914Z</time>
      </trkpt>
      <trkpt lat="43.55353" lon="7.05918">
        <ele>60.261221</ele>
        <time>2024-01-29T13:44:26.900Z</time>
      </trkpt>
      <trkpt lat="43.55346" lon="7.05909">
        <ele>60.422842</ele>
        <time>2024-01-29T13:44:29.895Z</time>
      </trkpt>
      <trkpt lat="43.55339" lon="7.059">
        <ele>60.584768</ele>
        <time>2024-01-29T13:44:32.885Z</time>
      </trkpt>
      <trkpt lat="43.55331" lon="7.0589">
        <ele>60.757057</ele>
        <time>2024-01-29T13:44:35.882Z</time>
      </trkpt>
      <trkpt lat="43.55323" lon="7.05881">
        <ele>60.933642</ele>
        <time>2024-01-29T13:44:38.885Z</time>
      </trkpt>
      <trkpt lat="43.55314" lon="7.05873">
        <ele>61.121948</ele>
        <time>2024-01-29T13:44:41.882Z</time>
      </trkpt>
      <trkpt lat="43.55305" lon="7.05865">
        <ele>61.306947</ele>
        <time>2024-01-29T13:44:44.919Z</time>
      </trkpt>
      <trkpt lat="43.55296" lon="7.05856">
        <ele>61.496615</ele>
        <time>2024-01-29T13:44:47.899Z</time>
      </trkpt>
      <trkpt lat="43.55287" lon="7.05846">
        <ele>61.502402</ele>
        <time>2024-01-29T13:44:50.898Z</time>
      </trkpt>
      <trkpt lat="43.55278" lon="7.05838">
        <ele>61.43964</ele>
        <time>2024-01-29T13:44:53.890Z</time>
      </trkpt>
      <trkpt lat="43.55268" lon="7.05829">
        <ele>61.372177</ele>
        <time>2024-01-29T13:44:56.890Z</time>
      </trkpt>
      <trkpt lat="43.55256" lon="7.05819">
        <ele>61.297054</ele>
        <time>2024-01-29T13:44:59.909Z</time>
      </trkpt>
      <trkpt lat="43.55248" lon="7.05813">
        <ele>61.245701</ele>
        <time>2024-01-29T13:45:01.868Z</time>
      </trkpt>
      <trkpt lat="43.5524" lon="7.05807">
        <ele>61.19347</ele>
        <time>2024-01-29T13:45:03.896Z</time>
      </trkpt>
      <trkpt lat="43.55232" lon="7.05801">
        <ele>61.139168</ele>
        <time>2024-01-29T13:45:05.927Z</time>
      </trkpt>
      <trkpt lat="43.55223" lon="7.05794">
        <ele>61.080819</ele>
        <time>2024-01-29T13:45:07.904Z</time>
      </trkpt>
      <trkpt lat="43.55214" lon="7.05787">
        <ele>61.023653</ele>
        <time>2024-01-29T13:45:09.904Z</time>
      </trkpt>
      <trkpt lat="43.55204" lon="7.0578">
        <ele>60.961547</ele>
        <time>2024-01-29T13:45:11.897Z</time>
      </trkpt>
      <trkpt lat="43.55194" lon="7.05775">
        <ele>60.899075</ele>
        <time>2024-01-29T13:45:13.905Z</time>
      </trkpt>
      <trkpt lat="43.55183" lon="7.0577">
        <ele>60.836069</ele>
        <time>2024-01-29T13:45:15.904Z</time>
      </trkpt>
      <trkpt lat="43.55174" lon="7.05762">
        <ele>60.773692</ele>
        <time>2024-01-29T13:45:17.896Z</time>
      </trkpt>
      <trkpt lat="43.55163" lon="7.05753">
        <ele>60.705485</ele>
        <time>2024-01-29T13:45:19.889Z</time>
      </trkpt>
      <trkpt lat="43.55155" lon="7.05742">
        <ele>60.638975</ele>
        <time>2024-01-29T13:45:21.914Z</time>
      </trkpt>
      <trkpt lat="43.55145" lon="7.05733">
        <ele>60.572029</ele>
        <time>2024-01-29T13:45:23.899Z</time>
      </trkpt>
      <trkpt lat="43.55134" lon="7.05724">
        <ele>60.595049</ele>
        <time>2024-01-29T13:45:25.892Z</time>
      </trkpt>
      <trkpt lat="43.55123" lon="7.05716">
        <ele>60.732659</ele>
        <time>2024-01-29T13:45:27.905Z</time>
      </trkpt>
      <trkpt lat="43.55112" lon="7.05711">
        <ele>60.861786</ele>
        <time>2024-01-29T13:45:29.908Z</time>
      </trkpt>
      <trkpt lat="43.55101" lon="7.05705">
        <ele>60.990116</ele>
        <time>2024-01-29T13:45:31.916Z</time>
      </trkpt>
      <trkpt lat="43.55091" lon="7.05698">
        <ele>61.116504</ele>
        <time>2024-01-29T13:45:33.892Z</time>
      </trkpt>
      <trkpt lat="43.55081" lon="7.0569">
        <ele>61.240015</ele>
        <time>2024-01-29T13:45:35.900Z</time>
      </trkpt>
      <trkpt lat="43.55072" lon="7.05684">
        <ele>61.354089</ele>
        <time>2024-01-29T13:45:37.902Z</time>
      </trkpt>
      <trkpt lat="43.55064" lon="7.05675">
        <ele>61.466403</ele>
        <time>2024-01-29T13:45:39.901Z</time>
      </trkpt>
      <trkpt lat="43.55057" lon="7.05667">
        <ele>61.567747</ele>
        <time>2024-01-29T13:45:41.882Z</time>
      </trkpt>
      <trkpt lat="43.55048" lon="7.05662">
        <ele>61.670023</ele>
        <time>2024-01-29T13:45:43.888Z</time>
      </trkpt>
      <trkpt lat="43.5504" lon="7.05657">
        <ele>61.774348</ele>
        <time>2024-01-29T13:45:45.891Z</time>
      </trkpt>
      <trkpt lat="43.55032" lon="7.05651">
        <ele>61.874841</ele>
        <time>2024-01-29T13:45:47.908Z</time>
      </trkpt>
      <trkpt lat="43.5502" lon="7.05642">
        <ele>62.018826</ele>
        <time>2024-01-29T13:45:50.907Z</time>
      </trkpt>
      <trkpt lat="43.5501" lon="7.05633">
        <ele>62.156966</ele>
        <time>2024-01-29T13:45:53.896Z</time>
      </trkpt>
      <trkpt lat="43.54999" lon="7.05626">
        <ele>62.285745</ele>
        <time>2024-01-29T13:45:56.904Z</time>
      </trkpt>
      <trkpt lat="43.5499" lon="7.05617">
        <ele>62.41088</ele>
        <time>2024-01-29T13:45:59.924Z</time>
      </trkpt>
      <trkpt lat="43.5498" lon="7.0561">
        <ele>62.517203</ele>
        <time>2024-01-29T13:46:02.892Z</time>
      </trkpt>
      <trkpt lat="43.54972" lon="7.05603">
        <ele>62.513845</ele>
        <time>2024-01-29T13:46:05.898Z</time>
      </trkpt>
      <trkpt lat="43.54962" lon="7.05596">
        <ele>62.51035</ele>
        <time>2024-01-29T13:46:08.894Z</time>
      </trkpt>
      <trkpt lat="43.54953" lon="7.05588">
        <ele>62.507138</ele>
        <time>2024-01-29T13:46:11.892Z</time>
      </trkpt>
      <trkpt lat="43.54944" lon="7.0558">
        <ele>62.503478</ele>
        <time>2024-01-29T13:46:14.893Z</time>
      </trkpt>
      <trkpt lat="43.54935" lon="7.05572">
        <ele>62.499976</ele>
        <time>2024-01-29T13:46:17.902Z</time>
      </trkpt>
      <trkpt lat="43.54925" lon="7.05563">
        <ele>62.496317</ele>
        <time>2024-01-29T13:46:20.902Z</time>
      </trkpt>
      <trkpt lat="43.54915" lon="7.05554">
        <ele>62.492541</ele>
        <time>2024-01-29T13:46:23.898Z</time>
      </trkpt>
      <trkpt lat="43.54905" lon="7.05544">
        <ele>62.488485</ele>
        <time>2024-01-29T13:46:26.882Z</time>
      </trkpt>
      <trkpt lat="43.54895" lon="7.05533">
        <ele>62.484238</ele>
        <time>2024-01-29T13:46:29.911Z</time>
      </trkpt>
      <trkpt lat="43.54884" lon="7.05521">
        <ele>62.479957</ele>
        <time>2024-01-29T13:46:32.903Z</time>
      </trkpt>
      <trkpt lat="43.54877" lon="7.05513">
        <ele>62.476956</ele>
        <time>2024-01-29T13:46:34.892Z</time>
      </trkpt>
      <trkpt lat="43.54871" lon="7.05504">
        <ele>62.47405</ele>
        <time>2024-01-29T13:46:36.900Z</time>
      </trkpt>
      <trkpt lat="43.54864" lon="7.05494">
        <ele>62.470906</ele>
        <time>2024-01-29T13:46:38.893Z</time>
      </trkpt>
      <trkpt lat="43.54857" lon="7.05485">
        <ele>62.46779</ele>
        <time>2024-01-29T13:46:40.905Z</time>
      </trkpt>
      <trkpt lat="43.5485" lon="7.05475">
        <ele>62.464601</ele>
        <time>2024-01-29T13:46:42.895Z</time>
      </trkpt>
      <trkpt lat="43.54843" lon="7.05465">
        <ele>62.46129</ele>
        <time>2024-01-29T13:46:44.896Z</time>
      </trkpt>
      <trkpt lat="43.54837" lon="7.05453">
        <ele>62.330923</ele>
        <time>2024-01-29T13:46:46.907Z</time>
      </trkpt>
      <trkpt lat="43.5483" lon="7.05442">
        <ele>62.099244</ele>
        <time>2024-01-29T13:46:48.885Z</time>
      </trkpt>
      <trkpt lat="43.54824" lon="7.05431">
        <ele>61.87536</ele>
        <time>2024-01-29T13:46:50.898Z</time>
      </trkpt>
      <trkpt lat="43.54818" lon="7.0542">
        <ele>61.654003</ele>
        <time>2024-01-29T13:46:52.916Z</time>
      </trkpt>
      <trkpt lat="43.54812" lon="7.05408">
        <ele>61.426342</ele>
        <time>2024-01-29T13:46:54.899Z</time>
      </trkpt>
      <trkpt lat="43.54806" lon="7.05396">
        <ele>61.190578</ele>
        <time>2024-01-29T13:46:56.908Z</time>
      </trkpt>
      <trkpt lat="43.54801" lon="7.05383">
        <ele>60.954474</ele>
        <time>2024-01-29T13:46:58.884Z</time>
      </trkpt>
      <trkpt lat="43.54795" lon="7.05371">
        <ele>60.716517</ele>
        <time>2024-01-29T13:47:00.908Z</time>
      </trkpt>
      <trkpt lat="43.54789" lon="7.05358">
        <ele>60.475147</ele>
        <time>2024-01-29T13:47:02.894Z</time>
      </trkpt>
      <trkpt lat="43.54784" lon="7.05344">
        <ele>60.22988</ele>
        <time>2024-01-29T13:47:04.883Z</time>
      </trkpt>
      <trkpt lat="43.54779" lon="7.0533">
        <ele>59.973207</ele>
        <time>2024-01-29T13:47:06.903Z</time>
      </trkpt>
      <trkpt lat="43.54775" lon="7.05315">
        <ele>59.720644</ele>
        <time>2024-01-29T13:47:08.873Z</time>
      </trkpt>
      <trkpt lat="43.5477" lon="7.05301">
        <ele>59.470356</ele>
        <time>2024-01-29T13:47:10.876Z</time>
      </trkpt>
      <trkpt lat="43.54766" lon="7.05287">
        <ele>59.229378</ele>
        <time>2024-01-29T13:47:12.905Z</time>
      </trkpt>
      <trkpt lat="43.54762" lon="7.05272">
        <ele>58.975593</ele>
        <time>2024-01-29T13:47:14.913Z</time>
      </trkpt>
      <trkpt lat="43.54759" lon="7.05258">
        <ele>58.723323</ele>
        <time>2024-01-29T13:47:16.896Z</time>
      </trkpt>
      <trkpt lat="43.54755" lon="7.05243">
        <ele>58.472998</ele>
        <time>2024-01-29T13:47:18.885Z</time>
      </trkpt>
      <trkpt lat="43.54752" lon="7.05227">
        <ele>58.364836</ele>
        <time>2024-01-29T13:47:20.900Z</time>
      </trkpt>
      <trkpt lat="43.5475" lon="7.05212">
        <ele>58.260645</ele>
        <time>2024-01-29T13:47:22.887Z</time>
      </trkpt>
      <trkpt lat="43.54748" lon="7.05197">
        <ele>58.15113</ele>
        <time>2024-01-29T13:47:24.919Z</time>
      </trkpt>
      <trkpt lat="43.54745" lon="7.05181">
        <ele>58.042798</ele>
        <time>2024-01-29T13:47:26.908Z</time>
      </trkpt>
      <trkpt lat="43.54743" lon="7.05165">
        <ele>57.933949</ele>
        <time>2024-01-29T13:47:28.890Z</time>
      </trkpt>
      <trkpt lat="43.54741" lon="7.0515">
        <ele>57.831395</ele>
        <time>2024-01-29T13:47:30.912Z</time>
      </trkpt>
      <trkpt lat="43.5474" lon="7.05135">
        <ele>57.725463</ele>
        <time>2024-01-29T13:47:32.909Z</time>
      </trkpt>
      <trkpt lat="43.54739" lon="7.0512">
        <ele>57.621148</ele>
        <time>2024-01-29T13:47:34.904Z</time>
      </trkpt>
      <trkpt lat="43.54738" lon="7.05105">
        <ele>57.519542</ele>
        <time>2024-01-29T13:47:36.906Z</time>
      </trkpt>
      <trkpt lat="43.54738" lon="7.0509">
        <ele>57.421522</ele>
        <time>2024-01-29T13:47:38.886Z</time>
      </trkpt>
      <trkpt lat="43.54737" lon="7.05077">
        <ele>57.327667</ele>
        <time>2024-01-29T13:47:40.902Z</time>
      </trkpt>
      <trkpt lat="43.54737" lon="7.05062">
        <ele>57.228912</ele>
        <time>2024-01-29T13:47:42.899Z</time>
      </trkpt>
      <trkpt lat="43.54736" lon="7.05049">
        <ele>57.136998</ele>
        <time>2024-01-29T13:47:44.893Z</time>
      </trkpt>
      <trkpt lat="43.54736" lon="7.05035">
        <ele>57.041744</ele>
        <time>2024-01-29T13:47:46.895Z</time>
      </trkpt>
      <trkpt lat="43.54735" lon="7.05021">
        <ele>56.946531</ele>
        <time>2024-01-29T13:47:48.893Z</time>
      </trkpt>
      <trkpt lat="43.54735" lon="7.05007">
        <ele>56.855425</ele>
        <time>2024-01-29T13:47:50.886Z</time>
      </trkpt>
      <trkpt lat="43.54735" lon="7.04994">
        <ele>56.757178</ele>
        <time>2024-01-29T13:47:52.900Z</time>
      </trkpt>
      <trkpt lat="43.54737" lon="7.04981">
        <ele>56.645318</ele>
        <time>2024-01-29T13:47:54.902Z</time>
      </trkpt>
      <trkpt lat="43.54738" lon="7.04968">
        <ele>56.528863</ele>
        <time>2024-01-29T13:47:56.902Z</time>
      </trkpt>
      <trkpt lat="43.54739" lon="7.0495">
        <ele>56.363327</ele>
        <time>2024-01-29T13:47:59.915Z</time>
      </trkpt>
      <trkpt lat="43.5474" lon="7.04933">
        <ele>56.20961</ele>
        <time>2024-01-29T13:48:02.892Z</time>
      </trkpt>
      <trkpt lat="43.54741" lon="7.04915">
        <ele>56.052519</ele>
        <time>2024-01-29T13:48:05.928Z</time>
      </trkpt>
      <trkpt lat="43.54743" lon="7.049">
        <ele>55.911612</ele>
        <time>2024-01-29T13:48:08.895Z</time>
      </trkpt>
      <trkpt lat="43.54743" lon="7.04882">
        <ele>55.748269</ele>
        <time>2024-01-29T13:48:11.907Z</time>
      </trkpt>
      <trkpt lat="43.54745" lon="7.04865">
        <ele>55.595814</ele>
        <time>2024-01-29T13:48:14.894Z</time>
      </trkpt>
      <trkpt lat="43.54745" lon="7.04849">
        <ele>55.452543</ele>
        <time>2024-01-29T13:48:17.898Z</time>
      </trkpt>
      <trkpt lat="43.54745" lon="7.04833">
        <ele>55.309278</ele>
        <time>2024-01-29T13:48:20.872Z</time>
      </trkpt>
      <trkpt lat="43.54745" lon="7.04816">
        <ele>55.160558</ele>
        <time>2024-01-29T13:48:23.892Z</time>
      </trkpt>
      <trkpt lat="43.54743" lon="7.048">
        <ele>55.013855</ele>
        <time>2024-01-29T13:48:26.885Z</time>
      </trkpt>
      <trkpt lat="43.54743" lon="7.04784">
        <ele>54.874622</ele>
        <time>2024-01-29T13:48:29.908Z</time>
      </trkpt>
      <trkpt lat="43.54741" lon="7.04767">
        <ele>54.720534</ele>
        <time>2024-01-29T13:48:32.908Z</time>
      </trkpt>
      <trkpt lat="43.54742" lon="7.04749">
        <ele>54.555644</ele>
        <time>2024-01-29T13:48:35.877Z</time>
      </trkpt>
      <trkpt lat="43.54742" lon="7.04736">
        <ele>54.410569</ele>
        <time>2024-01-29T13:48:37.883Z</time>
      </trkpt>
      <trkpt lat="43.54741" lon="7.04723">
        <ele>54.256923</ele>
        <time>2024-01-29T13:48:39.906Z</time>
      </trkpt>
      <trkpt lat="43.5474" lon="7.04709">
        <ele>54.103636</ele>
        <time>2024-01-29T13:48:41.915Z</time>
      </trkpt>
      <trkpt lat="43.5474" lon="7.04696">
        <ele>53.953905</ele>
        <time>2024-01-29T13:48:43.901Z</time>
      </trkpt>
      <trkpt lat="43.54739" lon="7.04683">
        <ele>53.80976</ele>
        <time>2024-01-29T13:48:45.900Z</time>
      </trkpt>
      <trkpt lat="43.54738" lon="7.04667">
        <ele>53.625622</ele>
        <time>2024-01-29T13:48:48.878Z</time>
      </trkpt>
      <trkpt lat="43.54734" lon="7.04653">
        <ele>53.452853</ele>
        <time>2024-01-29T13:48:52.893Z</time>
      </trkpt>
      <trkpt lat="43.54727" lon="7.04641">
        <ele>53.276414</ele>
        <time>2024-01-29T13:48:56.900Z</time>
      </trkpt>
      <trkpt lat="43.54717" lon="7.04636">
        <ele>53.105987</ele>
        <time>2024-01-29T13:48:59.884Z</time>
      </trkpt>
      <trkpt lat="43.54706" lon="7.04635">
        <ele>52.933853</ele>
        <time>2024-01-29T13:49:01.906Z</time>
      </trkpt>
      <trkpt lat="43.54693" lon="7.04635">
        <ele>52.741512</ele>
        <time>2024-01-29T13:49:03.929Z</time>
      </trkpt>
      <trkpt lat="43.54681" lon="7.04635">
        <ele>52.547458</ele>
        <time>2024-01-29T13:49:05.897Z</time>
      </trkpt>
      <trkpt lat="43.5467" lon="7.04633">
        <ele>52.371888</ele>
        <time>2024-01-29T13:49:07.891Z</time>
      </trkpt>
      <trkpt lat="43.5466" lon="7.04632">
        <ele>52.223791</ele>
        <time>2024-01-29T13:49:09.913Z</time>
      </trkpt>
      <trkpt lat="43.54651" lon="7.0463">
        <ele>52.072723</ele>
        <time>2024-01-29T13:49:11.895Z</time>
      </trkpt>
      <trkpt lat="43.54641" lon="7.04631">
        <ele>51.914693</ele>
        <time>2024-01-29T13:49:13.893Z</time>
      </trkpt>
      <trkpt lat="43.54631" lon="7.04634">
        <ele>51.759964</ele>
        <time>2024-01-29T13:49:15.895Z</time>
      </trkpt>
      <trkpt lat="43.54622" lon="7.0464">
        <ele>51.640409</ele>
        <time>2024-01-29T13:49:18.883Z</time>
      </trkpt>
      <trkpt lat="43.54614" lon="7.04649">
        <ele>51.509812</ele>
        <time>2024-01-29T13:49:21.886Z</time>
      </trkpt>
      <trkpt lat="43.54605" lon="7.04662">
        <ele>51.360994</ele>
        <time>2024-01-29T13:49:24.885Z</time>
      </trkpt>
      <trkpt lat="43.54598" lon="7.04672">
        <ele>51.240606</ele>
        <time>2024-01-29T13:49:26.895Z</time>
      </trkpt>
      <trkpt lat="43.54592" lon="7.04682">
        <ele>51.12456</ele>
        <time>2024-01-29T13:49:28.890Z</time>
      </trkpt>
      <trkpt lat="43.54581" lon="7.04685">
        <ele>50.990382</ele>
        <time>2024-01-29T13:49:31.891Z</time>
      </trkpt>
      <trkpt lat="43.5457" lon="7.04676">
        <ele>50.845721</ele>
        <time>2024-01-29T13:49:34.891Z</time>
      </trkpt>
      <trkpt lat="43.54559" lon="7.04666">
        <ele>50.682586</ele>
        <time>2024-01-29T13:49:37.905Z</time>
      </trkpt>
      <trkpt lat="43.54551" lon="7.04659">
        <ele>50.571191</ele>
        <time>2024-01-29T13:49:39.906Z</time>
      </trkpt>
      <trkpt lat="43.54542" lon="7.04653">
        <ele>50.456919</ele>
        <time>2024-01-29T13:49:41.886Z</time>
      </trkpt>
      <trkpt lat="43.54531" lon="7.04646">
        <ele>50.303695</ele>
        <time>2024-01-29T13:49:44.902Z</time>
      </trkpt>
      <trkpt lat="43.54521" lon="7.04634">
        <ele>50.155513</ele>
        <time>2024-01-29T13:49:47.884Z</time>
      </trkpt>
      <trkpt lat="43.54513" lon="7.04624">
        <ele>50.02168</ele>
        <time>2024-01-29T13:49:50.879Z</time>
      </trkpt>
      <trkpt lat="43.54505" lon="7.04612">
        <ele>49.881502</ele>
        <time>2024-01-29T13:49:53.894Z</time>
      </trkpt>
      <trkpt lat="43.54496" lon="7.046">
        <ele>49.733618</ele>
        <time>2024-01-29T13:49:56.911Z</time>
      </trkpt>
      <trkpt lat="43.54487" lon="7.04588">
        <ele>49.622852</ele>
        <time>2024-01-29T13:49:59.893Z</time>
      </trkpt>
      <trkpt lat="43.54478" lon="7.04576">
        <ele>49.696045</ele>
        <time>2024-01-29T13:50:02.896Z</time>
      </trkpt>
      <trkpt lat="43.54471" lon="7.04564">
        <ele>49.765296</ele>
        <time>2024-01-29T13:50:05.916Z</time>
      </trkpt>
      <trkpt lat="43.54465" lon="7.0455">
        <ele>49.836145</ele>
        <time>2024-01-29T13:50:08.884Z</time>
      </trkpt>
      <trkpt lat="43.54459" lon="7.04535">
        <ele>49.908791</ele>
        <time>2024-01-29T13:50:11.918Z</time>
      </trkpt>
      <trkpt lat="43.54454" lon="7.04522">
        <ele>49.974821</ele>
        <time>2024-01-29T13:50:14.896Z</time>
      </trkpt>
      <trkpt lat="43.54448" lon="7.0451">
        <ele>50.038103</ele>
        <time>2024-01-29T13:50:17.907Z</time>
      </trkpt>
      <trkpt lat="43.54442" lon="7.04497">
        <ele>50.106984</ele>
        <time>2024-01-29T13:50:20.898Z</time>
      </trkpt>
      <trkpt lat="43.54436" lon="7.04483">
        <ele>50.175581</ele>
        <time>2024-01-29T13:50:23.909Z</time>
      </trkpt>
      <trkpt lat="43.54429" lon="7.04471">
        <ele>50.240444</ele>
        <time>2024-01-29T13:50:26.895Z</time>
      </trkpt>
      <trkpt lat="43.54422" lon="7.0446">
        <ele>50.305452</ele>
        <time>2024-01-29T13:50:29.884Z</time>
      </trkpt>
      <trkpt lat="43.54415" lon="7.04446">
        <ele>50.376558</ele>
        <time>2024-01-29T13:50:32.885Z</time>
      </trkpt>
      <trkpt lat="43.5441" lon="7.04433">
        <ele>50.444253</ele>
        <time>2024-01-29T13:50:35.899Z</time>
      </trkpt>
      <trkpt lat="43.54404" lon="7.04421">
        <ele>50.507173</ele>
        <time>2024-01-29T13:50:38.874Z</time>
      </trkpt>
      <trkpt lat="43.54398" lon="7.04408">
        <ele>50.5726</ele>
        <time>2024-01-29T13:50:41.900Z</time>
      </trkpt>
      <trkpt lat="43.54392" lon="7.04394">
        <ele>50.643005</ele>
        <time>2024-01-29T13:50:44.898Z</time>
      </trkpt>
      <trkpt lat="43.54383" lon="7.04382">
        <ele>50.635579</ele>
        <time>2024-01-29T13:50:47.895Z</time>
      </trkpt>
      <trkpt lat="43.54377" lon="7.04372">
        <ele>50.545272</ele>
        <time>2024-01-29T13:50:49.909Z</time>
      </trkpt>
      <trkpt lat="43.54373" lon="7.04361">
        <ele>50.455347</ele>
        <time>2024-01-29T13:50:51.874Z</time>
      </trkpt>
      <trkpt lat="43.54372" lon="7.04349">
        <ele>50.364714</ele>
        <time>2024-01-29T13:50:53.909Z</time>
      </trkpt>
      <trkpt lat="43.5437" lon="7.04336">
        <ele>50.271037</ele>
        <time>2024-01-29T13:50:55.899Z</time>
      </trkpt>
      <trkpt lat="43.54368" lon="7.04323">
        <ele>50.179022</ele>
        <time>2024-01-29T13:50:57.901Z</time>
      </trkpt>
      <trkpt lat="43.54366" lon="7.0431">
        <ele>50.085344</ele>
        <time>2024-01-29T13:50:59.896Z</time>
      </trkpt>
      <trkpt lat="43.54365" lon="7.04297">
        <ele>49.98852</ele>
        <time>2024-01-29T13:51:01.924Z</time>
      </trkpt>
      <trkpt lat="43.54362" lon="7.04284">
        <ele>49.888202</ele>
        <time>2024-01-29T13:51:03.885Z</time>
      </trkpt>
      <trkpt lat="43.54359" lon="7.04271">
        <ele>49.789234</ele>
        <time>2024-01-29T13:51:05.897Z</time>
      </trkpt>
      <trkpt lat="43.54355" lon="7.04253">
        <ele>49.660097</ele>
        <time>2024-01-29T13:51:08.903Z</time>
      </trkpt>
      <trkpt lat="43.5435" lon="7.04237">
        <ele>49.533571</ele>
        <time>2024-01-29T13:51:11.895Z</time>
      </trkpt>
      <trkpt lat="43.54344" lon="7.04227">
        <ele>49.444013</ele>
        <time>2024-01-29T13:51:13.905Z</time>
      </trkpt>
      <trkpt lat="43.5434" lon="7.04216">
        <ele>49.352186</ele>
        <time>2024-01-29T13:51:15.894Z</time>
      </trkpt>
      <trkpt lat="43.54335" lon="7.04205">
        <ele>49.258483</ele>
        <time>2024-01-29T13:51:17.901Z</time>
      </trkpt>
      <trkpt lat="43.5433" lon="7.04194">
        <ele>49.161945</ele>
        <time>2024-01-29T13:51:19.908Z</time>
      </trkpt>
      <trkpt lat="43.54324" lon="7.04183">
        <ele>49.067733</ele>
        <time>2024-01-29T13:51:21.880Z</time>
      </trkpt>
      <trkpt lat="43.54319" lon="7.04173">
        <ele>48.977555</ele>
        <time>2024-01-29T13:51:23.913Z</time>
      </trkpt>
      <trkpt lat="43.54311" lon="7.04159">
        <ele>48.909654</ele>
        <time>2024-01-29T13:51:26.899Z</time>
      </trkpt>
      <trkpt lat="43.54304" lon="7.04145">
        <ele>48.920763</ele>
        <time>2024-01-29T13:51:29.907Z</time>
      </trkpt>
      <trkpt lat="43.54297" lon="7.04133">
        <ele>48.931173</ele>
        <time>2024-01-29T13:51:32.890Z</time>
      </trkpt>
      <trkpt lat="43.54287" lon="7.04124">
        <ele>48.941321</ele>
        <time>2024-01-29T13:51:35.901Z</time>
      </trkpt>
      <trkpt lat="43.54283" lon="7.04109">
        <ele>48.951365</ele>
        <time>2024-01-29T13:51:38.896Z</time>
      </trkpt>
      <trkpt lat="43.54276" lon="7.04096">
        <ele>48.961897</ele>
        <time>2024-01-29T13:51:41.904Z</time>
      </trkpt>
      <trkpt lat="43.54269" lon="7.04089">
        <ele>48.970201</ele>
        <time>2024-01-29T13:51:43.900Z</time>
      </trkpt>
      <trkpt lat="43.54261" lon="7.04082">
        <ele>48.978433</ele>
        <time>2024-01-29T13:51:45.909Z</time>
      </trkpt>
      <trkpt lat="43.54253" lon="7.04075">
        <ele>48.986953</ele>
        <time>2024-01-29T13:51:47.917Z</time>
      </trkpt>
      <trkpt lat="43.54245" lon="7.04068">
        <ele>48.995331</ele>
        <time>2024-01-29T13:51:49.902Z</time>
      </trkpt>
      <trkpt lat="43.54237" lon="7.04062">
        <ele>49.0035</ele>
        <time>2024-01-29T13:51:51.908Z</time>
      </trkpt>
      <trkpt lat="43.54226" lon="7.04051">
        <ele>49.015258</ele>
        <time>2024-01-29T13:51:54.899Z</time>
      </trkpt>
      <trkpt lat="43.54216" lon="7.04041">
        <ele>49.026375</ele>
        <time>2024-01-29T13:51:57.897Z</time>
      </trkpt>
      <trkpt lat="43.54205" lon="7.04031">
        <ele>49.03832</ele>
        <time>2024-01-29T13:52:00.896Z</time>
      </trkpt>
      <trkpt lat="43.54194" lon="7.04022">
        <ele>49.049794</ele>
        <time>2024-01-29T13:52:03.901Z</time>
      </trkpt>
      <trkpt lat="43.54184" lon="7.04014">
        <ele>49.060179</ele>
        <time>2024-01-29T13:52:06.891Z</time>
      </trkpt>
      <trkpt lat="43.54173" lon="7.04007">
        <ele>49.063758</ele>
        <time>2024-01-29T13:52:09.905Z</time>
      </trkpt>
      <trkpt lat="43.54162" lon="7.04001">
        <ele>49.059516</ele>
        <time>2024-01-29T13:52:12.915Z</time>
      </trkpt>
      <trkpt lat="43.54152" lon="7.03993">
        <ele>49.055234</ele>
        <time>2024-01-29T13:52:15.918Z</time>
      </trkpt>
      <trkpt lat="43.54141" lon="7.03987">
        <ele>49.050989</ele>
        <time>2024-01-29T13:52:18.891Z</time>
      </trkpt>
      <trkpt lat="43.5413" lon="7.0398">
        <ele>49.046878</ele>
        <time>2024-01-29T13:52:21.904Z</time>
      </trkpt>
      <trkpt lat="43.5412" lon="7.03974">
        <ele>49.042725</ele>
        <time>2024-01-29T13:52:24.891Z</time>
      </trkpt>
      <trkpt lat="43.54109" lon="7.03967">
        <ele>49.038417</ele>
        <time>2024-01-29T13:52:27.918Z</time>
      </trkpt>
      <trkpt lat="43.54098" lon="7.03961">
        <ele>49.034068</ele>
        <time>2024-01-29T13:52:30.910Z</time>
      </trkpt>
      <trkpt lat="43.54086" lon="7.03954">
        <ele>49.029466</ele>
        <time>2024-01-29T13:52:33.892Z</time>
      </trkpt>
      <trkpt lat="43.54074" lon="7.03947">
        <ele>49.024983</ele>
        <time>2024-01-29T13:52:36.890Z</time>
      </trkpt>
      <trkpt lat="43.54063" lon="7.03942">
        <ele>49.020684</ele>
        <time>2024-01-29T13:52:39.900Z</time>
      </trkpt>
      <trkpt lat="43.54051" lon="7.03938">
        <ele>49.016252</ele>
        <time>2024-01-29T13:52:42.888Z</time>
      </trkpt>
      <trkpt lat="43.54038" lon="7.03936">
        <ele>49.011796</ele>
        <time>2024-01-29T13:52:45.911Z</time>
      </trkpt>
      <trkpt lat="43.54026" lon="7.03933">
        <ele>49.007156</ele>
        <time>2024-01-29T13:52:48.887Z</time>
      </trkpt>
      <trkpt lat="43.54013" lon="7.0393">
        <ele>49.002471</ele>
        <time>2024-01-29T13:52:51.900Z</time>
      </trkpt>
      <trkpt lat="43.54" lon="7.03928">
        <ele>48.95936</ele>
        <time>2024-01-29T13:52:54.894Z</time>
      </trkpt>
      <trkpt lat="43.53987" lon="7.03927">
        <ele>48.901397</ele>
        <time>2024-01-29T13:52:57.894Z</time>
      </trkpt>
      <trkpt lat="43.53975" lon="7.03926">
        <ele>48.84617</ele>
        <time>2024-01-29T13:53:00.896Z</time>
      </trkpt>
      <trkpt lat="43.53963" lon="7.03927">
        <ele>48.792287</ele>
        <time>2024-01-29T13:53:03.892Z</time>
      </trkpt>
      <trkpt lat="43.53951" lon="7.03927">
        <ele>48.737989</ele>
        <time>2024-01-29T13:53:06.893Z</time>
      </trkpt>
      <trkpt lat="43.53939" lon="7.03925">
        <ele>48.685621</ele>
        <time>2024-01-29T13:53:09.916Z</time>
      </trkpt>
      <trkpt lat="43.53927" lon="7.03924">
        <ele>48.629957</ele>
        <time>2024-01-29T13:53:12.887Z</time>
      </trkpt>
      <trkpt lat="43.53915" lon="7.03922">
        <ele>48.575513</ele>
        <time>2024-01-29T13:53:15.923Z</time>
      </trkpt>
      <trkpt lat="43.53903" lon="7.03918">
        <ele>48.522821</ele>
        <time>2024-01-29T13:53:18.889Z</time>
      </trkpt>
      <trkpt lat="43.53892" lon="7.03911">
        <ele>48.466707</ele>
        <time>2024-01-29T13:53:21.914Z</time>
      </trkpt>
      <trkpt lat="43.53881" lon="7.03902">
        <ele>48.409884</ele>
        <time>2024-01-29T13:53:24.902Z</time>
      </trkpt>
      <trkpt lat="43.5387" lon="7.03893">
        <ele>48.350568</ele>
        <time>2024-01-29T13:53:27.902Z</time>
      </trkpt>
      <trkpt lat="43.53858" lon="7.03884">
        <ele>48.292744</ele>
        <time>2024-01-29T13:53:30.895Z</time>
      </trkpt>
      <trkpt lat="43.53848" lon="7.03875">
        <ele>48.237349</ele>
        <time>2024-01-29T13:53:33.897Z</time>
      </trkpt>
      <trkpt lat="43.53838" lon="7.03865">
        <ele>48.187649</ele>
        <time>2024-01-29T13:53:36.912Z</time>
      </trkpt>
      <trkpt lat="43.53828" lon="7.03858">
        <ele>48.158138</ele>
        <time>2024-01-29T13:53:39.934Z</time>
      </trkpt>
      <trkpt lat="43.53817" lon="7.03851">
        <ele>48.128503</ele>
        <time>2024-01-29T13:53:42.883Z</time>
      </trkpt>
      <trkpt lat="43.53805" lon="7.03846">
        <ele>48.096314</ele>
        <time>2024-01-29T13:53:45.886Z</time>
      </trkpt>
      <trkpt lat="43.53793" lon="7.03843">
        <ele>48.065637</ele>
        <time>2024-01-29T13:53:48.885Z</time>
      </trkpt>
      <trkpt lat="43.53781" lon="7.03841">
        <ele>48.035521</ele>
        <time>2024-01-29T13:53:51.878Z</time>
      </trkpt>
      <trkpt lat="43.5377" lon="7.03839">
        <ele>48.006546</ele>
        <time>2024-01-29T13:53:54.889Z</time>
      </trkpt>
      <trkpt lat="43.53758" lon="7.03838">
        <ele>47.97625</ele>
        <time>2024-01-29T13:53:57.886Z</time>
      </trkpt>
      <trkpt lat="43.53747" lon="7.03835">
        <ele>47.946217</ele>
        <time>2024-01-29T13:54:00.904Z</time>
      </trkpt>
      <trkpt lat="43.53735" lon="7.03833">
        <ele>47.917074</ele>
        <time>2024-01-29T13:54:03.890Z</time>
      </trkpt>
      <trkpt lat="43.53724" lon="7.03831">
        <ele>47.888854</ele>
        <time>2024-01-29T13:54:06.897Z</time>
      </trkpt>
      <trkpt lat="43.53713" lon="7.03828">
        <ele>47.859603</ele>
        <time>2024-01-29T13:54:09.894Z</time>
      </trkpt>
      <trkpt lat="43.53702" lon="7.03827">
        <ele>47.831007</ele>
        <time>2024-01-29T13:54:12.926Z</time>
      </trkpt>
      <trkpt lat="43.5369" lon="7.03825">
        <ele>47.801417</ele>
        <time>2024-01-29T13:54:15.880Z</time>
      </trkpt>
      <trkpt lat="43.5368" lon="7.03824">
        <ele>47.774803</ele>
        <time>2024-01-29T13:54:18.872Z</time>
      </trkpt>
      <trkpt lat="43.53669" lon="7.03822">
        <ele>47.748093</ele>
        <time>2024-01-29T13:54:23.902Z</time>
      </trkpt>
      <trkpt lat="43.53665" lon="7.03809">
        <ele>47.710137</ele>
        <time>2024-01-29T13:54:28.888Z</time>
      </trkpt>
      <trkpt lat="43.53667" lon="7.03795">
        <ele>47.661935</ele>
        <time>2024-01-29T13:54:31.898Z</time>
      </trkpt>
      <trkpt lat="43.53669" lon="7.03779">
        <ele>47.609102</ele>
        <time>2024-01-29T13:54:34.888Z</time>
      </trkpt>
      <trkpt lat="43.53671" lon="7.03765">
        <ele>47.560488</ele>
        <time>2024-01-29T13:54:37.901Z</time>
      </trkpt>
      <trkpt lat="43.53674" lon="7.0375">
        <ele>47.507402</ele>
        <time>2024-01-29T13:54:40.905Z</time>
      </trkpt>
      <trkpt lat="43.53674" lon="7.03735">
        <ele>47.457941</ele>
        <time>2024-01-29T13:54:43.901Z</time>
      </trkpt>
      <trkpt lat="43.53676" lon="7.03719">
        <ele>47.402989</ele>
        <time>2024-01-29T13:54:46.909Z</time>
      </trkpt>
      <trkpt lat="43.53679" lon="7.03704">
        <ele>47.350929</ele>
        <time>2024-01-29T13:54:49.893Z</time>
      </trkpt>
      <trkpt lat="43.53688" lon="7.03692">
        <ele>47.291189</ele>
        <time>2024-01-29T13:54:52.901Z</time>
      </trkpt>
      <trkpt lat="43.537" lon="7.03689">
        <ele>47.23419</ele>
        <time>2024-01-29T13:54:55.891Z</time>
      </trkpt>
      <trkpt lat="43.5371" lon="7.03691">
        <ele>47.188766</ele>
        <time>2024-01-29T13:54:58.890Z</time>
      </trkpt>
      <trkpt lat="43.53721" lon="7.03692">
        <ele>47.138504</ele>
        <time>2024-01-29T13:55:02.895Z</time>
      </trkpt>
      <trkpt lat="43.5373" lon="7.03695">
        <ele>47.09503</ele>
        <time>2024-01-29T13:55:06.878Z</time>
      </trkpt>
      <trkpt lat="43.53742" lon="7.037">
        <ele>47.03816</ele>
        <time>2024-01-29T13:55:10.890Z</time>
      </trkpt>
      <trkpt lat="43.53753" lon="7.03703">
        <ele>46.983441</ele>
        <time>2024-01-29T13:55:13.895Z</time>
      </trkpt>
      <trkpt lat="43.53763" lon="7.03706">
        <ele>46.936262</ele>
        <time>2024-01-29T13:55:16.903Z</time>
      </trkpt>
      <trkpt lat="43.53774" lon="7.03706">
        <ele>46.829941</ele>
        <time>2024-01-29T13:55:19.886Z</time>
      </trkpt>
      <trkpt lat="43.53786" lon="7.03704">
        <ele>46.550126</ele>
        <time>2024-01-29T13:55:22.897Z</time>
      </trkpt>
      <trkpt lat="43.53798" lon="7.03699">
        <ele>46.259815</ele>
        <time>2024-01-29T13:55:25.889Z</time>
      </trkpt>
      <trkpt lat="43.5381" lon="7.03693">
        <ele>45.971997</ele>
        <time>2024-01-29T13:55:28.877Z</time>
      </trkpt>
      <trkpt lat="43.5382" lon="7.03686">
        <ele>45.714347</ele>
        <time>2024-01-29T13:55:31.921Z</time>
      </trkpt>
      <trkpt lat="43.5383" lon="7.03682">
        <ele>45.46525</ele>
        <time>2024-01-29T13:55:34.871Z</time>
      </trkpt>
      <trkpt lat="43.53841" lon="7.03674">
        <ele>45.185157</ele>
        <time>2024-01-29T13:55:37.896Z</time>
      </trkpt>
      <trkpt lat="43.53848" lon="7.03665">
        <ele>44.967772</ele>
        <time>2024-01-29T13:55:41.908Z</time>
      </trkpt>
      <trkpt lat="43.53844" lon="7.03654">
        <ele>44.759205</ele>
        <time>2024-01-29T13:55:49.889Z</time>
      </trkpt>
      <trkpt lat="43.53845" lon="7.0364">
        <ele>44.534471</ele>
        <time>2024-01-29T13:55:54.889Z</time>
      </trkpt>
      <trkpt lat="43.53851" lon="7.03629">
        <ele>44.304902</ele>
        <time>2024-01-29T13:55:59.884Z</time>
      </trkpt>
      <trkpt lat="43.53858" lon="7.03616">
        <ele>44.039109</ele>
        <time>2024-01-29T13:56:03.897Z</time>
      </trkpt>
      <trkpt lat="43.53866" lon="7.03607">
        <ele>43.802306</ele>
        <time>2024-01-29T13:56:07.891Z</time>
      </trkpt>
      <trkpt lat="43.53874" lon="7.036">
        <ele>43.588608</ele>
        <time>2024-01-29T13:56:12.904Z</time>
      </trkpt>
      <trkpt lat="43.53883" lon="7.03592">
        <ele>43.339718</ele>
        <time>2024-01-29T13:56:17.896Z</time>
      </trkpt>
      <trkpt lat="43.53891" lon="7.03585">
        <ele>43.121146</ele>
        <time>2024-01-29T13:56:21.893Z</time>
      </trkpt>
      <trkpt lat="43.53899" lon="7.03579">
        <ele>42.914895</ele>
        <time>2024-01-29T13:56:25.896Z</time>
      </trkpt>
      <trkpt lat="43.53908" lon="7.03572">
        <ele>42.920056</ele>
        <time>2024-01-29T13:56:31.899Z</time>
      </trkpt>
      <trkpt lat="43.53917" lon="7.03564">
        <ele>43.206248</ele>
        <time>2024-01-29T13:56:38.892Z</time>
      </trkpt>
      <trkpt lat="43.53926" lon="7.03556">
        <ele>43.501527</ele>
        <time>2024-01-29T13:56:42.901Z</time>
      </trkpt>
      <trkpt lat="43.53935" lon="7.03549">
        <ele>43.768586</ele>
        <time>2024-01-29T13:56:45.908Z</time>
      </trkpt>
      <trkpt lat="43.53944" lon="7.03542">
        <ele>44.047412</ele>
        <time>2024-01-29T13:56:48.880Z</time>
      </trkpt>
      <trkpt lat="43.53952" lon="7.03535">
        <ele>44.308082</ele>
        <time>2024-01-29T13:56:51.906Z</time>
      </trkpt>
      <trkpt lat="43.53961" lon="7.03528">
        <ele>44.580129</ele>
        <time>2024-01-29T13:56:54.892Z</time>
      </trkpt>
      <trkpt lat="43.53969" lon="7.03518">
        <ele>44.875463</ele>
        <time>2024-01-29T13:56:57.904Z</time>
      </trkpt>
      <trkpt lat="43.53979" lon="7.03509">
        <ele>45.184851</ele>
        <time>2024-01-29T13:57:00.905Z</time>
      </trkpt>
      <trkpt lat="43.53988" lon="7.03501">
        <ele>45.483702</ele>
        <time>2024-01-29T13:57:03.890Z</time>
      </trkpt>
      <trkpt lat="43.53997" lon="7.03493">
        <ele>45.769872</ele>
        <time>2024-01-29T13:57:06.911Z</time>
      </trkpt>
      <trkpt lat="43.54006" lon="7.03485">
        <ele>46.051873</ele>
        <time>2024-01-29T13:57:09.887Z</time>
      </trkpt>
      <trkpt lat="43.54014" lon="7.03477">
        <ele>46.314749</ele>
        <time>2024-01-29T13:57:12.904Z</time>
      </trkpt>
      <trkpt lat="43.54023" lon="7.0347">
        <ele>46.603998</ele>
        <time>2024-01-29T13:57:15.896Z</time>
      </trkpt>
      <trkpt lat="43.54033" lon="7.03469">
        <ele>46.874431</ele>
        <time>2024-01-29T13:57:18.889Z</time>
      </trkpt>
      <trkpt lat="43.54044" lon="7.03473">
        <ele>47.180911</ele>
        <time>2024-01-29T13:57:21.903Z</time>
      </trkpt>
      <trkpt lat="43.54053" lon="7.0347">
        <ele>47.432103</ele>
        <time>2024-01-29T13:57:23.931Z</time>
      </trkpt>
      <trkpt lat="43.54066" lon="7.03466">
        <ele>47.690824</ele>
        <time>2024-01-29T13:57:26.889Z</time>
      </trkpt>
      <trkpt lat="43.54078" lon="7.03462">
        <ele>47.817037</ele>
        <time>2024-01-29T13:57:29.905Z</time>
      </trkpt>
      <trkpt lat="43.5409" lon="7.0346">
        <ele>47.936556</ele>
        <time>2024-01-29T13:57:32.893Z</time>
      </trkpt>
      <trkpt lat="43.54103" lon="7.03455">
        <ele>48.063391</ele>
        <time>2024-01-29T13:57:35.900Z</time>
      </trkpt>
      <trkpt lat="43.54115" lon="7.03451">
        <ele>48.188804</ele>
        <time>2024-01-29T13:57:38.888Z</time>
      </trkpt>
      <trkpt lat="43.54127" lon="7.03448">
        <ele>48.307459</ele>
        <time>2024-01-29T13:57:41.899Z</time>
      </trkpt>
      <trkpt lat="43.54139" lon="7.03445">
        <ele>48.427826</ele>
        <time>2024-01-29T13:57:44.885Z</time>
      </trkpt>
      <trkpt lat="43.5415" lon="7.03441">
        <ele>48.544983</ele>
        <time>2024-01-29T13:57:47.914Z</time>
      </trkpt>
      <trkpt lat="43.54159" lon="7.03437">
        <ele>48.636688</ele>
        <time>2024-01-29T13:57:50.877Z</time>
      </trkpt>
      <trkpt lat="43.54173" lon="7.03437">
        <ele>48.776622</ele>
        <time>2024-01-29T13:58:15.885Z</time>
      </trkpt>
      <trkpt lat="43.54183" lon="7.03436">
        <ele>48.873454</ele>
        <time>2024-01-29T13:58:20.888Z</time>
      </trkpt>
      <trkpt lat="43.54194" lon="7.03436">
        <ele>48.978841</ele>
        <time>2024-01-29T13:58:24.892Z</time>
      </trkpt>
      <trkpt lat="43.54204" lon="7.03438">
        <ele>49.077904</ele>
        <time>2024-01-29T13:58:27.910Z</time>
      </trkpt>
      <trkpt lat="43.54214" lon="7.0344">
        <ele>49.176659</ele>
        <time>2024-01-29T13:58:30.893Z</time>
      </trkpt>
      <trkpt lat="43.54225" lon="7.03441">
        <ele>49.283259</ele>
        <time>2024-01-29T13:58:33.900Z</time>
      </trkpt>
      <trkpt lat="43.54236" lon="7.03442">
        <ele>49.395804</ele>
        <time>2024-01-29T13:58:36.907Z</time>
      </trkpt>
      <trkpt lat="43.54248" lon="7.03445">
        <ele>49.406141</ele>
        <time>2024-01-29T13:58:39.895Z</time>
      </trkpt>
      <trkpt lat="43.54259" lon="7.03448">
        <ele>49.4046</ele>
        <time>2024-01-29T13:58:42.899Z</time>
      </trkpt>
      <trkpt lat="43.5427" lon="7.03451">
        <ele>49.403109</ele>
        <time>2024-01-29T13:58:45.911Z</time>
      </trkpt>
      <trkpt lat="43.5428" lon="7.03454">
        <ele>49.401802</ele>
        <time>2024-01-29T13:58:48.895Z</time>
      </trkpt>
      <trkpt lat="43.54289" lon="7.03458">
        <ele>49.400501</ele>
        <time>2024-01-29T13:58:51.915Z</time>
      </trkpt>
      <trkpt lat="43.54299" lon="7.03462">
        <ele>49.399198</ele>
        <time>2024-01-29T13:58:54.885Z</time>
      </trkpt>
      <trkpt lat="43.54309" lon="7.03465">
        <ele>49.397824</ele>
        <time>2024-01-29T13:58:58.893Z</time>
      </trkpt>
      <trkpt lat="43.54318" lon="7.03468">
        <ele>49.39656</ele>
        <time>2024-01-29T13:59:01.906Z</time>
      </trkpt>
      <trkpt lat="43.54329" lon="7.03474">
        <ele>49.395063</ele>
        <time>2024-01-29T13:59:05.908Z</time>
      </trkpt>
      <trkpt lat="43.54341" lon="7.03475">
        <ele>49.39348</ele>
        <time>2024-01-29T13:59:09.894Z</time>
      </trkpt>
      <trkpt lat="43.54349" lon="7.03483">
        <ele>49.392141</ele>
        <time>2024-01-29T13:59:12.901Z</time>
      </trkpt>
      <trkpt lat="43.54358" lon="7.03493">
        <ele>49.390572</ele>
        <time>2024-01-29T13:59:15.902Z</time>
      </trkpt>
      <trkpt lat="43.54369" lon="7.03499">
        <ele>49.389111</ele>
        <time>2024-01-29T13:59:18.890Z</time>
      </trkpt>
      <trkpt lat="43.54378" lon="7.03507">
        <ele>49.387606</ele>
        <time>2024-01-29T13:59:21.896Z</time>
      </trkpt>
      <trkpt lat="43.54389" lon="7.03513">
        <ele>49.386117</ele>
        <time>2024-01-29T13:59:24.917Z</time>
      </trkpt>
      <trkpt lat="43.54399" lon="7.03519">
        <ele>49.38462</ele>
        <time>2024-01-29T13:59:27.916Z</time>
      </trkpt>
      <trkpt lat="43.5441" lon="7.0352">
        <ele>49.388266</ele>
        <time>2024-01-29T13:59:30.902Z</time>
      </trkpt>
      <trkpt lat="43.54422" lon="7.03516">
        <ele>49.399128</ele>
        <time>2024-01-29T13:59:33.896Z</time>
      </trkpt>
      <trkpt lat="43.54433" lon="7.03513">
        <ele>49.409605</ele>
        <time>2024-01-29T13:59:36.897Z</time>
      </trkpt>
      <trkpt lat="43.54444" lon="7.03506">
        <ele>49.42088</ele>
        <time>2024-01-29T13:59:39.886Z</time>
      </trkpt>
      <trkpt lat="43.54455" lon="7.03505">
        <ele>49.430945</ele>
        <time>2024-01-29T13:59:42.881Z</time>
      </trkpt>
      <trkpt lat="43.54466" lon="7.03502">
        <ele>49.440768</ele>
        <time>2024-01-29T13:59:45.904Z</time>
      </trkpt>
      <trkpt lat="43.54476" lon="7.03497">
        <ele>49.450854</ele>
        <time>2024-01-29T13:59:48.907Z</time>
      </trkpt>
      <trkpt lat="43.54488" lon="7.03492">
        <ele>49.461877</ele>
        <time>2024-01-29T13:59:51.911Z</time>
      </trkpt>
      <trkpt lat="43.54499" lon="7.03486">
        <ele>49.473084</ele>
        <time>2024-01-29T13:59:54.918Z</time>
      </trkpt>
      <trkpt lat="43.5451" lon="7.03479">
        <ele>49.484086</ele>
        <time>2024-01-29T13:59:57.900Z</time>
      </trkpt>
      <trkpt lat="43.54521" lon="7.03471">
        <ele>49.495322</ele>
        <time>2024-01-29T14:00:00.903Z</time>
      </trkpt>
      <trkpt lat="43.5453" lon="7.03461">
        <ele>49.506436</ele>
        <time>2024-01-29T14:00:03.973Z</time>
      </trkpt>
      <trkpt lat="43.54538" lon="7.03451">
        <ele>49.515478</ele>
        <time>2024-01-29T14:00:06.897Z</time>
      </trkpt>
      <trkpt lat="43.54546" lon="7.03456">
        <ele>49.524182</ele>
        <time>2024-01-29T14:00:13.895Z</time>
      </trkpt>
      <trkpt lat="43.54555" lon="7.03454">
        <ele>49.532609</ele>
        <time>2024-01-29T14:00:23.904Z</time>
      </trkpt>
      <trkpt lat="43.54563" lon="7.03446">
        <ele>49.541303</ele>
        <time>2024-01-29T14:00:27.894Z</time>
      </trkpt>
      <trkpt lat="43.5457" lon="7.03435">
        <ele>49.493227</ele>
        <time>2024-01-29T14:00:32.896Z</time>
      </trkpt>
      <trkpt lat="43.54577" lon="7.03423">
        <ele>49.318609</ele>
        <time>2024-01-29T14:00:37.894Z</time>
      </trkpt>
      <trkpt lat="43.54584" lon="7.03413">
        <ele>49.141141</ele>
        <time>2024-01-29T14:00:41.906Z</time>
      </trkpt>
      <trkpt lat="43.54591" lon="7.03403">
        <ele>48.976469</ele>
        <time>2024-01-29T14:00:44.900Z</time>
      </trkpt>
      <trkpt lat="43.54598" lon="7.03393">
        <ele>48.807776</ele>
        <time>2024-01-29T14:00:47.909Z</time>
      </trkpt>
      <trkpt lat="43.54605" lon="7.03382">
        <ele>48.639279</ele>
        <time>2024-01-29T14:00:51.899Z</time>
      </trkpt>
      <trkpt lat="43.54588" lon="7.0338">
        <ele>48.356941</ele>
        <time>2024-01-29T14:01:43.897Z</time>
      </trkpt>
      <trkpt lat="43.54585" lon="7.03366">
        <ele>48.188423</ele>
        <time>2024-01-29T14:01:49.889Z</time>
      </trkpt>
      <trkpt lat="43.54585" lon="7.03353">
        <ele>48.028663</ele>
        <time>2024-01-29T14:02:00.897Z</time>
      </trkpt>
      <trkpt lat="43.54593" lon="7.03344">
        <ele>47.863115</ele>
        <time>2024-01-29T14:02:06.881Z</time>
      </trkpt>
      <trkpt lat="43.546" lon="7.03334">
        <ele>47.696416</ele>
        <time>2024-01-29T14:02:12.899Z</time>
      </trkpt>
      <trkpt lat="43.54606" lon="7.03324">
        <ele>47.540771</ele>
        <time>2024-01-29T14:02:18.894Z</time>
      </trkpt>
      <trkpt lat="43.54613" lon="7.03317">
        <ele>47.391652</ele>
        <time>2024-01-29T14:02:24.894Z</time>
      </trkpt>
      <trkpt lat="43.54619" lon="7.03302">
        <ele>47.194287</ele>
        <time>2024-01-29T14:03:27.884Z</time>
      </trkpt>
      <trkpt lat="43.54626" lon="7.03293">
        <ele>47.041516</ele>
        <time>2024-01-29T14:03:31.900Z</time>
      </trkpt>
      <trkpt lat="43.54632" lon="7.03282">
        <ele>46.876361</ele>
        <time>2024-01-29T14:03:35.899Z</time>
      </trkpt>
      <trkpt lat="43.54638" lon="7.03273">
        <ele>46.719615</ele>
        <time>2024-01-29T14:03:39.899Z</time>
      </trkpt>
      <trkpt lat="43.54642" lon="7.03261">
        <ele>46.583975</ele>
        <time>2024-01-29T14:03:43.895Z</time>
      </trkpt>
      <trkpt lat="43.54649" lon="7.0325">
        <ele>46.815118</ele>
        <time>2024-01-29T14:03:47.891Z</time>
      </trkpt>
      <trkpt lat="43.54654" lon="7.0324">
        <ele>47.011432</ele>
        <time>2024-01-29T14:03:51.062Z</time>
      </trkpt>
      <trkpt lat="43.5466" lon="7.0323">
        <ele>47.207831</ele>
        <time>2024-01-29T14:03:53.917Z</time>
      </trkpt>
      <trkpt lat="43.54667" lon="7.03217">
        <ele>47.466524</ele>
        <time>2024-01-29T14:03:57.903Z</time>
      </trkpt>
      <trkpt lat="43.54674" lon="7.03204">
        <ele>47.715056</ele>
        <time>2024-01-29T14:04:01.897Z</time>
      </trkpt>
      <trkpt lat="43.54679" lon="7.03192">
        <ele>47.942179</ele>
        <time>2024-01-29T14:04:05.903Z</time>
      </trkpt>
      <trkpt lat="43.54684" lon="7.03181">
        <ele>48.147856</ele>
        <time>2024-01-29T14:04:10.901Z</time>
      </trkpt>
      <trkpt lat="43.5469" lon="7.03171">
        <ele>48.35519</ele>
        <time>2024-01-29T14:04:18.875Z</time>
      </trkpt>
      <trkpt lat="43.547" lon="7.0317">
        <ele>48.574695</ele>
        <time>2024-01-29T14:04:28.899Z</time>
      </trkpt>
      <trkpt lat="43.54708" lon="7.03177">
        <ele>48.771306</ele>
        <time>2024-01-29T14:04:34.884Z</time>
      </trkpt>
      <trkpt lat="43.54702" lon="7.03166">
        <ele>48.98552</ele>
        <time>2024-01-29T14:04:56.881Z</time>
      </trkpt>
      <trkpt lat="43.54705" lon="7.03153">
        <ele>49.196576</ele>
        <time>2024-01-29T14:05:02.904Z</time>
      </trkpt>
      <trkpt lat="43.54714" lon="7.03151">
        <ele>49.395968</ele>
        <time>2024-01-29T14:05:12.900Z</time>
      </trkpt>
      <trkpt lat="43.54726" lon="7.0315">
        <ele>49.653417</ele>
        <time>2024-01-29T14:05:16.886Z</time>
      </trkpt>
      <trkpt lat="43.54733" lon="7.03138">
        <ele>49.884102</ele>
        <time>2024-01-29T14:05:19.877Z</time>
      </trkpt>
      <trkpt lat="43.54739" lon="7.03126">
        <ele>50.121172</ele>
        <time>2024-01-29T14:05:22.897Z</time>
      </trkpt>
      <trkpt lat="43.54748" lon="7.03115">
        <ele>50.366748</ele>
        <time>2024-01-29T14:05:25.893Z</time>
      </trkpt>
      <trkpt lat="43.54755" lon="7.03102">
        <ele>50.504197</ele>
        <time>2024-01-29T14:05:28.884Z</time>
      </trkpt>
      <trkpt lat="43.5476" lon="7.03088">
        <ele>50.544939</ele>
        <time>2024-01-29T14:05:31.915Z</time>
      </trkpt>
      <trkpt lat="43.54767" lon="7.03074">
        <ele>50.586185</ele>
        <time>2024-01-29T14:05:34.889Z</time>
      </trkpt>
      <trkpt lat="43.54773" lon="7.03061">
        <ele>50.626313</ele>
        <time>2024-01-29T14:05:37.892Z</time>
      </trkpt>
      <trkpt lat="43.54779" lon="7.03048">
        <ele>50.664342</ele>
        <time>2024-01-29T14:05:40.888Z</time>
      </trkpt>
      <trkpt lat="43.54784" lon="7.03036">
        <ele>50.697732</ele>
        <time>2024-01-29T14:05:43.912Z</time>
      </trkpt>
      <trkpt lat="43.54777" lon="7.03029">
        <ele>50.729003</ele>
        <time>2024-01-29T14:05:50.884Z</time>
      </trkpt>
      <trkpt lat="43.54778" lon="7.03016">
        <ele>50.760729</ele>
        <time>2024-01-29T14:05:55.883Z</time>
      </trkpt>
      <trkpt lat="43.54783" lon="7.03006">
        <ele>50.792574</ele>
        <time>2024-01-29T14:05:58.885Z</time>
      </trkpt>
      <trkpt lat="43.54789" lon="7.02995">
        <ele>50.825434</ele>
        <time>2024-01-29T14:06:01.898Z</time>
      </trkpt>
      <trkpt lat="43.54795" lon="7.02983">
        <ele>50.862524</ele>
        <time>2024-01-29T14:06:04.894Z</time>
      </trkpt>
      <trkpt lat="43.54803" lon="7.02971">
        <ele>50.904829</ele>
        <time>2024-01-29T14:06:07.899Z</time>
      </trkpt>
      <trkpt lat="43.5481" lon="7.02959">
        <ele>50.943281</ele>
        <time>2024-01-29T14:06:10.899Z</time>
      </trkpt>
      <trkpt lat="43.54824" lon="7.02953">
        <ele>50.993173</ele>
        <time>2024-01-29T14:06:40.890Z</time>
      </trkpt>
      <trkpt lat="43.54833" lon="7.02948">
        <ele>51.028017</ele>
        <time>2024-01-29T14:06:45.898Z</time>
      </trkpt>
      <trkpt lat="43.54839" lon="7.02938">
        <ele>51.060014</ele>
        <time>2024-01-29T14:06:48.890Z</time>
      </trkpt>
      <trkpt lat="43.54845" lon="7.02927">
        <ele>51.093257</ele>
        <time>2024-01-29T14:06:51.898Z</time>
      </trkpt>
      <trkpt lat="43.54851" lon="7.02916">
        <ele>51.186169</ele>
        <time>2024-01-29T14:06:54.914Z</time>
      </trkpt>
      <trkpt lat="43.54856" lon="7.02904">
        <ele>51.310866</ele>
        <time>2024-01-29T14:06:57.900Z</time>
      </trkpt>
      <trkpt lat="43.54861" lon="7.02891">
        <ele>51.431656</ele>
        <time>2024-01-29T14:07:00.897Z</time>
      </trkpt>
      <trkpt lat="43.54868" lon="7.02878">
        <ele>51.559499</ele>
        <time>2024-01-29T14:07:03.885Z</time>
      </trkpt>
      <trkpt lat="43.54875" lon="7.02864">
        <ele>51.697404</ele>
        <time>2024-01-29T14:07:06.897Z</time>
      </trkpt>
      <trkpt lat="43.54882" lon="7.02848">
        <ele>51.853366</ele>
        <time>2024-01-29T14:07:09.885Z</time>
      </trkpt>
      <trkpt lat="43.54885" lon="7.02837">
        <ele>51.957426</ele>
        <time>2024-01-29T14:07:11.898Z</time>
      </trkpt>
      <trkpt lat="43.54889" lon="7.02825">
        <ele>52.068874</ele>
        <time>2024-01-29T14:07:13.917Z</time>
      </trkpt>
      <trkpt lat="43.54894" lon="7.02814">
        <ele>52.173106</ele>
        <time>2024-01-29T14:07:15.900Z</time>
      </trkpt>
      <trkpt lat="43.54899" lon="7.02796">
        <ele>52.32825</ele>
        <time>2024-01-29T14:07:18.889Z</time>
      </trkpt>
      <trkpt lat="43.54902" lon="7.02785">
        <ele>52.433241</ele>
        <time>2024-01-29T14:07:20.892Z</time>
      </trkpt>
      <trkpt lat="43.54907" lon="7.02774">
        <ele>52.538338</ele>
        <time>2024-01-29T14:07:22.904Z</time>
      </trkpt>
      <trkpt lat="43.54912" lon="7.02758">
        <ele>52.680652</ele>
        <time>2024-01-29T14:07:25.904Z</time>
      </trkpt>
      <trkpt lat="43.54916" lon="7.02743">
        <ele>52.81656</ele>
        <time>2024-01-29T14:07:28.879Z</time>
      </trkpt>
      <trkpt lat="43.54919" lon="7.02727">
        <ele>52.955393</ele>
        <time>2024-01-29T14:07:31.896Z</time>
      </trkpt>
      <trkpt lat="43.54925" lon="7.02712">
        <ele>53.093518</ele>
        <time>2024-01-29T14:07:34.886Z</time>
      </trkpt>
      <trkpt lat="43.5493" lon="7.02696">
        <ele>53.029378</ele>
        <time>2024-01-29T14:07:37.913Z</time>
      </trkpt>
      <trkpt lat="43.54936" lon="7.02682">
        <ele>52.77006</ele>
        <time>2024-01-29T14:07:40.882Z</time>
      </trkpt>
      <trkpt lat="43.54942" lon="7.02667">
        <ele>52.52213</ele>
        <time>2024-01-29T14:07:43.890Z</time>
      </trkpt>
      <trkpt lat="43.54947" lon="7.02653">
        <ele>52.280717</ele>
        <time>2024-01-29T14:07:46.909Z</time>
      </trkpt>
      <trkpt lat="43.54953" lon="7.02639">
        <ele>52.030924</ele>
        <time>2024-01-29T14:07:49.884Z</time>
      </trkpt>
      <trkpt lat="43.54956" lon="7.02623">
        <ele>51.773276</ele>
        <time>2024-01-29T14:07:52.875Z</time>
      </trkpt>
      <trkpt lat="43.54961" lon="7.02609">
        <ele>51.535951</ele>
        <time>2024-01-29T14:07:55.884Z</time>
      </trkpt>
      <trkpt lat="43.54967" lon="7.02595">
        <ele>51.285922</ele>
        <time>2024-01-29T14:07:58.881Z</time>
      </trkpt>
      <trkpt lat="43.54971" lon="7.02581">
        <ele>51.059862</ele>
        <time>2024-01-29T14:08:01.898Z</time>
      </trkpt>
      <trkpt lat="43.54976" lon="7.02569">
        <ele>50.847364</ele>
        <time>2024-01-29T14:08:04.900Z</time>
      </trkpt>
      <trkpt lat="43.54979" lon="7.02556">
        <ele>50.65036</ele>
        <time>2024-01-29T14:08:07.899Z</time>
      </trkpt>
      <trkpt lat="43.54982" lon="7.02543">
        <ele>50.429431</ele>
        <time>2024-01-29T14:08:11.904Z</time>
      </trkpt>
      <trkpt lat="43.54972" lon="7.02541">
        <ele>50.213163</ele>
        <time>2024-01-29T14:08:22.885Z</time>
      </trkpt>
      <trkpt lat="43.54966" lon="7.02531">
        <ele>50.008698</ele>
        <time>2024-01-29T14:08:28.890Z</time>
      </trkpt>
      <trkpt lat="43.54969" lon="7.02517">
        <ele>49.793037</ele>
        <time>2024-01-29T14:08:32.891Z</time>
      </trkpt>
      <trkpt lat="43.54972" lon="7.02503">
        <ele>49.568002</ele>
        <time>2024-01-29T14:08:37.895Z</time>
      </trkpt>
      <trkpt lat="43.54975" lon="7.02491">
        <ele>49.374569</ele>
        <time>2024-01-29T14:08:41.887Z</time>
      </trkpt>
      <trkpt lat="43.54978" lon="7.02479">
        <ele>49.222985</ele>
        <time>2024-01-29T14:08:45.881Z</time>
      </trkpt>
      <trkpt lat="43.54982" lon="7.02467">
        <ele>49.077024</ele>
        <time>2024-01-29T14:08:53.900Z</time>
      </trkpt>
      <trkpt lat="43.54985" lon="7.02452">
        <ele>48.891268</ele>
        <time>2024-01-29T14:09:03.895Z</time>
      </trkpt>
      <trkpt lat="43.54989" lon="7.0244">
        <ele>48.740559</ele>
        <time>2024-01-29T14:09:06.903Z</time>
      </trkpt>
      <trkpt lat="43.54991" lon="7.02427">
        <ele>48.585482</ele>
        <time>2024-01-29T14:09:10.890Z</time>
      </trkpt>
      <trkpt lat="43.54994" lon="7.02414">
        <ele>48.420088</ele>
        <time>2024-01-29T14:09:15.879Z</time>
      </trkpt>
      <trkpt lat="43.55003" lon="7.02415">
        <ele>48.273682</ele>
        <time>2024-01-29T14:09:34.893Z</time>
      </trkpt>
      <trkpt lat="43.55012" lon="7.0241">
        <ele>48.120954</ele>
        <time>2024-01-29T14:09:44.888Z</time>
      </trkpt>
      <trkpt lat="43.55018" lon="7.024">
        <ele>47.975009</ele>
        <time>2024-01-29T14:09:49.888Z</time>
      </trkpt>
      <trkpt lat="43.55022" lon="7.02386">
        <ele>47.79553</ele>
        <time>2024-01-29T14:09:54.898Z</time>
      </trkpt>
      <trkpt lat="43.55024" lon="7.02372">
        <ele>47.630192</ele>
        <time>2024-01-29T14:09:59.913Z</time>
      </trkpt>
      <trkpt lat="43.55018" lon="7.02382">
        <ele>47.472382</ele>
        <time>2024-01-29T14:10:14.890Z</time>
      </trkpt>
      <trkpt lat="43.5501" lon="7.02377">
        <ele>47.325916</ele>
        <time>2024-01-29T14:10:30.910Z</time>
      </trkpt>
      <trkpt lat="43.55009" lon="7.02365">
        <ele>47.180766</ele>
        <time>2024-01-29T14:10:42.892Z</time>
      </trkpt>
      <trkpt lat="43.55012" lon="7.02351">
        <ele>47.013171</ele>
        <time>2024-01-29T14:10:48.891Z</time>
      </trkpt>
      <trkpt lat="43.55013" lon="7.02336">
        <ele>46.842232</ele>
        <time>2024-01-29T14:10:52.910Z</time>
      </trkpt>
      <trkpt lat="43.55016" lon="7.02322">
        <ele>46.674241</ele>
        <time>2024-01-29T14:10:56.900Z</time>
      </trkpt>
      <trkpt lat="43.55018" lon="7.02308">
        <ele>46.501074</ele>
        <time>2024-01-29T14:11:00.896Z</time>
      </trkpt>
      <trkpt lat="43.55019" lon="7.02295">
        <ele>46.585613</ele>
        <time>2024-01-29T14:11:05.898Z</time>
      </trkpt>
      <trkpt lat="43.55023" lon="7.02282">
        <ele>46.684203</ele>
        <time>2024-01-29T14:11:09.912Z</time>
      </trkpt>
      <trkpt lat="43.55027" lon="7.02268">
        <ele>46.78804</ele>
        <time>2024-01-29T14:11:14.887Z</time>
      </trkpt>
      <trkpt lat="43.55029" lon="7.02256">
        <ele>46.880222</ele>
        <time>2024-01-29T14:11:21.883Z</time>
      </trkpt>
      <trkpt lat="43.55032" lon="7.02243">
        <ele>46.975951</ele>
        <time>2024-01-29T14:11:30.894Z</time>
      </trkpt>
      <trkpt lat="43.55035" lon="7.02228">
        <ele>47.084912</ele>
        <time>2024-01-29T14:11:35.898Z</time>
      </trkpt>
      <trkpt lat="43.55037" lon="7.02214">
        <ele>47.19057</ele>
        <time>2024-01-29T14:11:39.884Z</time>
      </trkpt>
      <trkpt lat="43.55039" lon="7.02199">
        <ele>47.295557</ele>
        <time>2024-01-29T14:11:43.910Z</time>
      </trkpt>
      <trkpt lat="43.55038" lon="7.02183">
        <ele>47.414861</ele>
        <time>2024-01-29T14:11:47.892Z</time>
      </trkpt>
      <trkpt lat="43.55036" lon="7.02167">
        <ele>47.52549</ele>
        <time>2024-01-29T14:11:50.891Z</time>
      </trkpt>
      <trkpt lat="43.55031" lon="7.02153">
        <ele>47.635779</ele>
        <time>2024-01-29T14:11:53.897Z</time>
      </trkpt>
      <trkpt lat="43.55028" lon="7.02141">
        <ele>47.72584</ele>
        <time>2024-01-29T14:11:55.894Z</time>
      </trkpt>
      <trkpt lat="43.55024" lon="7.02126">
        <ele>47.847368</ele>
        <time>2024-01-29T14:11:58.883Z</time>
      </trkpt>
      <trkpt lat="43.55019" lon="7.0211">
        <ele>47.966461</ele>
        <time>2024-01-29T14:12:01.910Z</time>
      </trkpt>
      <trkpt lat="43.55019" lon="7.02094">
        <ele>48.07897</ele>
        <time>2024-01-29T14:12:04.895Z</time>
      </trkpt>
      <trkpt lat="43.5502" lon="7.0208">
        <ele>48.183294</ele>
        <time>2024-01-29T14:12:07.899Z</time>
      </trkpt>
      <trkpt lat="43.5502" lon="7.02066">
        <ele>48.264975</ele>
        <time>2024-01-29T14:12:10.899Z</time>
      </trkpt>
      <trkpt lat="43.55021" lon="7.02052">
        <ele>48.265551</ele>
        <time>2024-01-29T14:12:13.890Z</time>
      </trkpt>
      <trkpt lat="43.55021" lon="7.02039">
        <ele>48.266139</ele>
        <time>2024-01-29T14:12:16.905Z</time>
      </trkpt>
      <trkpt lat="43.55023" lon="7.02023">
        <ele>48.266804</ele>
        <time>2024-01-29T14:12:20.029Z</time>
      </trkpt>
      <trkpt lat="43.55024" lon="7.02008">
        <ele>48.267472</ele>
        <time>2024-01-29T14:12:22.900Z</time>
      </trkpt>
      <trkpt lat="43.55026" lon="7.01993">
        <ele>48.268094</ele>
        <time>2024-01-29T14:12:25.918Z</time>
      </trkpt>
      <trkpt lat="43.55029" lon="7.01979">
        <ele>48.268722</ele>
        <time>2024-01-29T14:12:28.896Z</time>
      </trkpt>
      <trkpt lat="43.55031" lon="7.01965">
        <ele>48.269331</ele>
        <time>2024-01-29T14:12:31.899Z</time>
      </trkpt>
      <trkpt lat="43.55036" lon="7.01955">
        <ele>48.269859</ele>
        <time>2024-01-29T14:12:34.889Z</time>
      </trkpt>
      <trkpt lat="43.55046" lon="7.01958">
        <ele>48.270488</ele>
        <time>2024-01-29T14:12:37.895Z</time>
      </trkpt>
      <trkpt lat="43.55055" lon="7.01962">
        <ele>48.271046</ele>
        <time>2024-01-29T14:12:40.897Z</time>
      </trkpt>
      <trkpt lat="43.55064" lon="7.01958">
        <ele>48.271589</ele>
        <time>2024-01-29T14:12:43.904Z</time>
      </trkpt>
      <trkpt lat="43.5507" lon="7.01947">
        <ele>48.272176</ele>
        <time>2024-01-29T14:12:46.888Z</time>
      </trkpt>
      <trkpt lat="43.55073" lon="7.01934">
        <ele>48.272756</ele>
        <time>2024-01-29T14:12:49.880Z</time>
      </trkpt>
      <trkpt lat="43.55073" lon="7.01921">
        <ele>48.273301</ele>
        <time>2024-01-29T14:12:52.892Z</time>
      </trkpt>
      <trkpt lat="43.55077" lon="7.01907">
        <ele>48.273946</ele>
        <time>2024-01-29T14:12:55.896Z</time>
      </trkpt>
      <trkpt lat="43.55086" lon="7.01908">
        <ele>48.274496</ele>
        <time>2024-01-29T14:12:59.889Z</time>
      </trkpt>
      <trkpt lat="43.55102" lon="7.01907">
        <ele>48.275397</ele>
        <time>2024-01-29T14:13:22.886Z</time>
      </trkpt>
      <trkpt lat="43.55108" lon="7.01897">
        <ele>48.27903</ele>
        <time>2024-01-29T14:13:25.902Z</time>
      </trkpt>
      <trkpt lat="43.55114" lon="7.01886">
        <ele>48.283023</ele>
        <time>2024-01-29T14:13:28.897Z</time>
      </trkpt>
      <trkpt lat="43.55118" lon="7.01874">
        <ele>48.286959</ele>
        <time>2024-01-29T14:13:31.898Z</time>
      </trkpt>
      <trkpt lat="43.55122" lon="7.01859">
        <ele>48.291376</ele>
        <time>2024-01-29T14:13:34.882Z</time>
      </trkpt>
      <trkpt lat="43.55127" lon="7.01845">
        <ele>48.296015</ele>
        <time>2024-01-29T14:13:37.892Z</time>
      </trkpt>
      <trkpt lat="43.55133" lon="7.01832">
        <ele>48.300582</ele>
        <time>2024-01-29T14:13:40.952Z</time>
      </trkpt>
      <trkpt lat="43.55136" lon="7.01814">
        <ele>48.305833</ele>
        <time>2024-01-29T14:13:43.881Z</time>
      </trkpt>
      <trkpt lat="43.55139" lon="7.01802">
        <ele>48.309461</ele>
        <time>2024-01-29T14:13:45.902Z</time>
      </trkpt>
      <trkpt lat="43.55142" lon="7.0179">
        <ele>48.313144</ele>
        <time>2024-01-29T14:13:47.902Z</time>
      </trkpt>
      <trkpt lat="43.55146" lon="7.01772">
        <ele>48.318453</ele>
        <time>2024-01-29T14:13:50.880Z</time>
      </trkpt>
      <trkpt lat="43.5515" lon="7.01758">
        <ele>48.323034</ele>
        <time>2024-01-29T14:13:53.903Z</time>
      </trkpt>
      <trkpt lat="43.55153" lon="7.01743">
        <ele>48.327575</ele>
        <time>2024-01-29T14:13:57.894Z</time>
      </trkpt>
      <trkpt lat="43.55154" lon="7.01729">
        <ele>48.33163</ele>
        <time>2024-01-29T14:14:00.899Z</time>
      </trkpt>
      <trkpt lat="43.55157" lon="7.01716">
        <ele>48.335566</ele>
        <time>2024-01-29T14:14:03.880Z</time>
      </trkpt>
      <trkpt lat="43.5516" lon="7.01702">
        <ele>48.339655</ele>
        <time>2024-01-29T14:14:06.900Z</time>
      </trkpt>
      <trkpt lat="43.55163" lon="7.01689">
        <ele>48.343773</ele>
        <time>2024-01-29T14:14:09.899Z</time>
      </trkpt>
      <trkpt lat="43.55166" lon="7.01677">
        <ele>48.347606</ele>
        <time>2024-01-29T14:14:13.911Z</time>
      </trkpt>
      <trkpt lat="43.55173" lon="7.01664">
        <ele>48.381168</ele>
        <time>2024-01-29T14:14:53.894Z</time>
      </trkpt>
      <trkpt lat="43.55179" lon="7.01651">
        <ele>48.413864</ele>
        <time>2024-01-29T14:14:57.905Z</time>
      </trkpt>
      <trkpt lat="43.55185" lon="7.0164">
        <ele>48.441178</ele>
        <time>2024-01-29T14:15:01.885Z</time>
      </trkpt>
      <trkpt lat="43.55191" lon="7.01629">
        <ele>48.47</ele>
        <time>2024-01-29T14:15:06.880Z</time>
      </trkpt>
      <trkpt lat="43.55194" lon="7.01614">
        <ele>48.501973</ele>
        <time>2024-01-29T14:15:12.891Z</time>
      </trkpt>
      <trkpt lat="43.55195" lon="7.01599">
        <ele>48.533741</ele>
        <time>2024-01-29T14:15:16.918Z</time>
      </trkpt>
      <trkpt lat="43.55193" lon="7.01586">
        <ele>48.560685</ele>
        <time>2024-01-29T14:15:19.987Z</time>
      </trkpt>
      <trkpt lat="43.55192" lon="7.01573">
        <ele>48.588994</ele>
        <time>2024-01-29T14:15:22.892Z</time>
      </trkpt>
      <trkpt lat="43.5519" lon="7.0156">
        <ele>48.615375</ele>
        <time>2024-01-29T14:15:25.910Z</time>
      </trkpt>
      <trkpt lat="43.55188" lon="7.01547">
        <ele>48.644355</ele>
        <time>2024-01-29T14:15:28.902Z</time>
      </trkpt>
      <trkpt lat="43.55187" lon="7.01533">
        <ele>48.673194</ele>
        <time>2024-01-29T14:15:31.902Z</time>
      </trkpt>
      <trkpt lat="43.55186" lon="7.01519">
        <ele>48.70192</ele>
        <time>2024-01-29T14:15:34.901Z</time>
      </trkpt>
      <trkpt lat="43.55184" lon="7.01507">
        <ele>48.728392</ele>
        <time>2024-01-29T14:15:37.909Z</time>
      </trkpt>
      <trkpt lat="43.55182" lon="7.01494">
        <ele>48.756317</ele>
        <time>2024-01-29T14:15:40.893Z</time>
      </trkpt>
      <trkpt lat="43.5518" lon="7.01479">
        <ele>48.786937</ele>
        <time>2024-01-29T14:15:43.901Z</time>
      </trkpt>
      <trkpt lat="43.55179" lon="7.01465">
        <ele>48.815984</ele>
        <time>2024-01-29T14:15:47.902Z</time>
      </trkpt>
      <trkpt lat="43.55176" lon="7.01453">
        <ele>48.842699</ele>
        <time>2024-01-29T14:15:51.897Z</time>
      </trkpt>
      <trkpt lat="43.55171" lon="7.01439">
        <ele>48.788958</ele>
        <time>2024-01-29T14:15:55.896Z</time>
      </trkpt>
      <trkpt lat="43.5517" lon="7.01425">
        <ele>48.620501</ele>
        <time>2024-01-29T14:15:58.894Z</time>
      </trkpt>
      <trkpt lat="43.5517" lon="7.01409">
        <ele>48.414391</ele>
        <time>2024-01-29T14:16:02.902Z</time>
      </trkpt>
      <trkpt lat="43.55168" lon="7.01396">
        <ele>48.249379</ele>
        <time>2024-01-29T14:16:05.902Z</time>
      </trkpt>
      <trkpt lat="43.55163" lon="7.0138">
        <ele>48.039727</ele>
        <time>2024-01-29T14:16:09.895Z</time>
      </trkpt>
      <trkpt lat="43.55159" lon="7.01368">
        <ele>47.870875</ele>
        <time>2024-01-29T14:16:12.915Z</time>
      </trkpt>
      <trkpt lat="43.55155" lon="7.01355">
        <ele>47.696164</ele>
        <time>2024-01-29T14:16:15.906Z</time>
      </trkpt>
      <trkpt lat="43.55152" lon="7.01341">
        <ele>47.513302</ele>
        <time>2024-01-29T14:16:18.889Z</time>
      </trkpt>
      <trkpt lat="43.55149" lon="7.01328">
        <ele>47.342418</ele>
        <time>2024-01-29T14:16:21.912Z</time>
      </trkpt>
      <trkpt lat="43.55144" lon="7.01317">
        <ele>47.180079</ele>
        <time>2024-01-29T14:16:24.912Z</time>
      </trkpt>
      <trkpt lat="43.55146" lon="7.01302">
        <ele>46.997115</ele>
        <time>2024-01-29T14:16:28.902Z</time>
      </trkpt>
      <trkpt lat="43.55153" lon="7.01294">
        <ele>46.833532</ele>
        <time>2024-01-29T14:16:31.890Z</time>
      </trkpt>
      <trkpt lat="43.55162" lon="7.01289">
        <ele>46.678419</ele>
        <time>2024-01-29T14:16:34.892Z</time>
      </trkpt>
      <trkpt lat="43.55168" lon="7.01279">
        <ele>46.515147</ele>
        <time>2024-01-29T14:16:39.914Z</time>
      </trkpt>
      <trkpt lat="43.55164" lon="7.01265">
        <ele>46.323565</ele>
        <time>2024-01-29T14:16:44.887Z</time>
      </trkpt>
      <trkpt lat="43.55158" lon="7.01251">
        <ele>46.122128</ele>
        <time>2024-01-29T14:16:48.900Z</time>
      </trkpt>
      <trkpt lat="43.55153" lon="7.0124">
        <ele>45.964342</ele>
        <time>2024-01-29T14:16:51.903Z</time>
      </trkpt>
      <trkpt lat="43.55148" lon="7.01228">
        <ele>45.79575</ele>
        <time>2024-01-29T14:16:54.898Z</time>
      </trkpt>
      <trkpt lat="43.55143" lon="7.01217">
        <ele>45.915313</ele>
        <time>2024-01-29T14:16:57.895Z</time>
      </trkpt>
      <trkpt lat="43.55137" lon="7.01206">
        <ele>46.120393</ele>
        <time>2024-01-29T14:17:00.901Z</time>
      </trkpt>
      <trkpt lat="43.55138" lon="7.01191">
        <ele>46.335769</ele>
        <time>2024-01-29T14:17:03.898Z</time>
      </trkpt>
      <trkpt lat="43.55147" lon="7.01184">
        <ele>46.544597</ele>
        <time>2024-01-29T14:17:06.884Z</time>
      </trkpt>
      <trkpt lat="43.55158" lon="7.01177">
        <ele>46.778392</ele>
        <time>2024-01-29T14:17:10.891Z</time>
      </trkpt>
      <trkpt lat="43.55166" lon="7.0117">
        <ele>46.967759</ele>
        <time>2024-01-29T14:17:13.883Z</time>
      </trkpt>
      <trkpt lat="43.55175" lon="7.01166">
        <ele>47.147089</ele>
        <time>2024-01-29T14:17:16.896Z</time>
      </trkpt>
      <trkpt lat="43.55182" lon="7.01158">
        <ele>47.329382</ele>
        <time>2024-01-29T14:17:19.896Z</time>
      </trkpt>
      <trkpt lat="43.5519" lon="7.0115">
        <ele>47.532612</ele>
        <time>2024-01-29T14:17:22.878Z</time>
      </trkpt>
      <trkpt lat="43.552" lon="7.01141">
        <ele>47.762592</ele>
        <time>2024-01-29T14:17:26.893Z</time>
      </trkpt>
      <trkpt lat="43.55207" lon="7.01131">
        <ele>47.968008</ele>
        <time>2024-01-29T14:17:30.890Z</time>
      </trkpt>
      <trkpt lat="43.55224" lon="7.01121">
        <ele>48.324367</ele>
        <time>2024-01-29T14:18:32.901Z</time>
      </trkpt>
      <trkpt lat="43.55233" lon="7.01119">
        <ele>48.514684</ele>
        <time>2024-01-29T14:18:35.896Z</time>
      </trkpt>
      <trkpt lat="43.55243" lon="7.01118">
        <ele>48.713795</ele>
        <time>2024-01-29T14:18:38.920Z</time>
      </trkpt>
      <trkpt lat="43.55252" lon="7.01113">
        <ele>48.895777</ele>
        <time>2024-01-29T14:18:41.899Z</time>
      </trkpt>
      <trkpt lat="43.55261" lon="7.01103">
        <ele>49.116702</ele>
        <time>2024-01-29T14:18:45.894Z</time>
      </trkpt>
      <trkpt lat="43.5526" lon="7.01087">
        <ele>49.497732</ele>
        <time>2024-01-29T14:18:49.915Z</time>
      </trkpt>
      <trkpt lat="43.55256" lon="7.01073">
        <ele>50.734874</ele>
        <time>2024-01-29T14:18:52.886Z</time>
      </trkpt>
      <trkpt lat="43.55249" lon="7.01062">
        <ele>51.903606</ele>
        <time>2024-01-29T14:18:55.898Z</time>
      </trkpt>
      <trkpt lat="43.55241" lon="7.01052">
        <ele>53.029252</ele>
        <time>2024-01-29T14:18:58.877Z</time>
      </trkpt>
      <trkpt lat="43.55235" lon="7.01039">
        <ele>54.329915</ele>
        <time>2024-01-29T14:19:02.889Z</time>
      </trkpt>
      <trkpt lat="43.55229" lon="7.0103">
        <ele>55.362678</ele>
        <time>2024-01-29T14:19:06.893Z</time>
      </trkpt>
      <trkpt lat="43.55222" lon="7.01021">
        <ele>56.403412</ele>
        <time>2024-01-29T14:19:10.889Z</time>
      </trkpt>
      <trkpt lat="43.55214" lon="7.01011">
        <ele>57.624524</ele>
        <time>2024-01-29T14:19:15.898Z</time>
      </trkpt>
      <trkpt lat="43.55209" lon="7.00999">
        <ele>58.723084</ele>
        <time>2024-01-29T14:19:20.894Z</time>
      </trkpt>
      <trkpt lat="43.55208" lon="7.00986">
        <ele>59.730788</ele>
        <time>2024-01-29T14:19:24.911Z</time>
      </trkpt>
      <trkpt lat="43.55201" lon="7.00974">
        <ele>61.011418</ele>
        <time>2024-01-29T14:19:29.891Z</time>
      </trkpt>
      <trkpt lat="43.55195" lon="7.00964">
        <ele>62.013395</ele>
        <time>2024-01-29T14:19:33.895Z</time>
      </trkpt>
      <trkpt lat="43.55188" lon="7.00953">
        <ele>63.152014</ele>
        <time>2024-01-29T14:19:38.878Z</time>
      </trkpt>
      <trkpt lat="43.55182" lon="7.00943">
        <ele>64.250153</ele>
        <time>2024-01-29T14:19:43.902Z</time>
      </trkpt>
      <trkpt lat="43.55176" lon="7.00932">
        <ele>65.350689</ele>
        <time>2024-01-29T14:19:49.887Z</time>
      </trkpt>
      <trkpt lat="43.55176" lon="7.0092">
        <ele>66.368041</ele>
        <time>2024-01-29T14:19:56.897Z</time>
      </trkpt>
      <trkpt lat="43.55184" lon="7.00912">
        <ele>67.4677</ele>
        <time>2024-01-29T14:20:03.898Z</time>
      </trkpt>
      <trkpt lat="43.55192" lon="7.009">
        <ele>68.715631</ele>
        <time>2024-01-29T14:20:56.893Z</time>
      </trkpt>
      <trkpt lat="43.55194" lon="7.00888">
        <ele>69.333995</ele>
        <time>2024-01-29T14:21:07.879Z</time>
      </trkpt>
      <trkpt lat="43.552" lon="7.00879">
        <ele>69.333995</ele>
        <time>2024-01-29T14:21:16.867Z</time>
      </trkpt>
      <trkpt lat="43.55206" lon="7.00869">
        <ele>69.333995</ele>
        <time>2024-01-29T14:21:26.892Z</time>
      </trkpt>
      <trkpt lat="43.55214" lon="7.0086">
        <ele>69.333995</ele>
        <time>2024-01-29T14:21:35.913Z</time>
      </trkpt>
      <trkpt lat="43.5522" lon="7.0085">
        <ele>69.333995</ele>
        <time>2024-01-29T14:21:45.894Z</time>
      </trkpt>
      <trkpt lat="43.55223" lon="7.00839">
        <ele>69.333995</ele>
        <time>2024-01-29T14:21:55.892Z</time>
      </trkpt>
      <trkpt lat="43.55223" lon="7.00826">
        <ele>69.333995</ele>
        <time>2024-01-29T14:22:03.884Z</time>
      </trkpt>
      <trkpt lat="43.55214" lon="7.00819">
        <ele>69.333995</ele>
        <time>2024-01-29T14:22:11.877Z</time>
      </trkpt>
      <trkpt lat="43.55204" lon="7.00821">
        <ele>69.333995</ele>
        <time>2024-01-29T14:22:16.900Z</time>
      </trkpt>
      <trkpt lat="43.55195" lon="7.00823">
        <ele>69.333995</ele>
        <time>2024-01-29T14:22:20.899Z</time>
      </trkpt>
      <trkpt lat="43.55186" lon="7.00829">
        <ele>69.333995</ele>
        <time>2024-01-29T14:22:24.893Z</time>
      </trkpt>
    </trkseg>
  </trk>
</gpx>